# Wetter Temperatur Luftdruck Luftfeuchtigkeit Sichtweite Windgeschwindigkeit Windrichtung Zeit
1 Rain 31 1004 74 10000 2.57 280 09:34 14.08.2022
2 Rain 31 1005 74 10000 3.6 280 08:18 14.08.2022
3 Rain 30 1006 75 10000 3.58 191 05:45 14.08.2022
4 Clouds 27 1006 87 10000 2.24 358 01:48 14.08.2022
5 Clouds 26 1006 90 10000 2.24 11 23:23 13.08.2022
6 Clouds 26 1006 89 10000 2.06 20 22:28 13.08.2022
7 Clouds 26 1006 90 10000 2.06 200 20:56 13.08.2022
8 Clouds 26 1007 91 10000 1.54 260 19:49 13.08.2022
9 Clouds 26 1007 91 10000 1.54 260 19:19 13.08.2022
10 Mist 25 1008 90 9000 2.57 10 17:22 13.08.2022
11 Clouds 26 1008 90 7000 2.57 100 14:51 13.08.2022
12 Clouds 26 1008 89 7000 2.57 100 14:24 13.08.2022
13 Clouds 26 1006 90 7000 3.09 70 13:34 13.08.2022
14 Thunderstorm 30 1006 85 10000 4.12 260 11:49 13.08.2022
15 Clouds 33 1005 68 10000 4.63 280 09:27 13.08.2022
16 Clouds 32 1006 73 9000 4.12 300 07:43 13.08.2022
17 Rain 27 1008 89 9000 1.34 22 01:52 13.08.2022
18 Clouds 26 1007 92 10000 2.24 353 23:36 12.08.2022
19 Clouds 26 1008 91 10000 0.51 0 21:40 12.08.2022
20 Clouds 26 1008 90 10000 1.03 0 19:50 12.08.2022
21 Rain 26 1008 90 10000 1.03 0 19:24 12.08.2022
22 Clouds 26 1009 89 10000 2.06 30 18:29 12.08.2022
23 Thunderstorm 26 1009 89 3500 6.69 340 16:27 12.08.2022
24 Clouds 28 1009 85 10000 2.06 230 15:21 12.08.2022
25 Clouds 29 1007 80 10000 4.02 223 13:50 12.08.2022
26 Clouds 30 1006 76 10000 5.66 250 12:38 12.08.2022
27 Clouds 31 1008 71 10000 5.66 280 08:57 12.08.2022
28 Clouds 32 1009 65 10000 4.63 280 07:46 12.08.2022
29 Clouds 32 1009 67 10000 4.63 280 06:24 12.08.2022
30 Clouds 26 1009 88 10000 2.24 75 00:49 12.08.2022
31 Clouds 26 1009 90 10000 1.34 62 23:59 11.08.2022
32 Clouds 26 1008 90 10000 1.03 0 23:25 11.08.2022
33 Clouds 27 1008 85 10000 1.03 220 21:53 11.08.2022
34 Clouds 27 1008 85 10000 1.03 220 21:28 11.08.2022
35 Clouds 27 1009 84 10000 0.51 0 20:31 11.08.2022
36 Clouds 27 1009 84 10000 0.51 0 20:31 11.08.2022
37 Clouds 27 1009 83 10000 1.03 0 19:33 11.08.2022
38 Clouds 27 1009 83 10000 2.06 90 18:57 11.08.2022
39 Clouds 27 1010 86 10000 1.54 40 17:22 11.08.2022
40 Clouds 27 1010 86 10000 1.34 69 15:48 11.08.2022
41 Clouds 27 1009 87 10000 2.57 30 14:40 11.08.2022
42 Clouds 28 1008 86 10000 6.17 260 11:59 11.08.2022
43 Clouds 31 1007 71 10000 5.66 270 09:22 11.08.2022
44 Rain 31 1008 65 8000 3.6 310 06:49 11.08.2022
45 Clouds 29 1009 80 7000 1.34 348 02:49 11.08.2022
46 Clouds 27 1007 90 8000 0.51 0 23:57 10.08.2022
47 Rain 27 1007 86 8000 1.03 0 21:49 10.08.2022
48 Rain 27 1007 86 8000 1.03 0 21:18 10.08.2022
49 Clouds 27 1008 86 9000 1.03 0 20:36 10.08.2022
50 Rain 28 1008 85 9000 0.51 0 18:53 10.08.2022
51 Rain 28 1009 83 9000 1.03 0 17:27 10.08.2022
52 Clouds 29 1008 75 10000 1.54 260 14:53 10.08.2022
53 Rain 29 1008 75 10000 2.57 270 13:33 10.08.2022
54 Clouds 32 1006 63 10000 5.66 280 10:51 10.08.2022
55 Clouds 33 1005 62 10000 4.92 189 08:42 10.08.2022
56 Clouds 32 1007 63 10000 6.26 194 07:35 10.08.2022
57 Clouds 31 1008 63 10000 1.79 209 04:50 10.08.2022
58 Rain 28 1007 84 9000 1.79 233 01:52 10.08.2022
59 Clouds 26 1006 89 10000 0.51 0 23:32 09.08.2022
60 Clouds 26 1007 87 10000 1.03 90 22:45 09.08.2022
61 Clouds 27 1007 85 10000 1.03 80 21:24 09.08.2022
62 Clouds 27 1008 84 10000 1.54 220 19:28 09.08.2022
63 Clouds 27 1008 83 10000 3.09 230 17:39 09.08.2022
64 Clouds 28 1008 84 10000 3.09 230 17:21 09.08.2022
65 Clouds 28 1008 81 10000 3.09 220 16:30 09.08.2022
66 Rain 29 1008 75 10000 2.68 212 15:26 09.08.2022
67 Clouds 30 1005 74 10000 2.06 0 11:49 09.08.2022
68 Clouds 31 1005 71 10000 6.71 226 08:53 09.08.2022
69 Rain 30 1006 73 10000 5.14 280 07:58 09.08.2022
70 Clouds 29 1008 77 10000 6.17 280 05:25 09.08.2022
71 Clouds 26 1006 93 10000 1.54 100 00:59 09.08.2022
72 Rain 25 1006 97 10000 0 0 23:25 08.08.2022
73 Rain 25 1006 94 10000 1.03 0 22:42 08.08.2022
74 Rain 25 1006 97 10000 1.03 0 21:44 08.08.2022
75 Clouds 25 1007 97 10000 1.03 260 20:43 08.08.2022
76 Clouds 25 1008 95 10000 0.51 220 19:39 08.08.2022
77 Clouds 25 1008 97 9000 1.03 0 18:18 08.08.2022
78 Rain 25 1008 95 6000 2.06 10 15:54 08.08.2022
79 Thunderstorm 25 1008 95 6000 2.06 10 15:36 08.08.2022
80 Rain 28 1006 82 10000 0.89 20 12:30 08.08.2022
81 Rain 28 1005 81 10000 2.06 280 10:33 08.08.2022
82 Rain 29 1006 73 10000 2.57 90 07:59 08.08.2022
83 Rain 26 1007 91 9000 2.57 20 03:45 08.08.2022
84 Rain 25 1007 94 10000 0.51 0 23:28 07.08.2022
85 Rain 25 1007 94 8000 0 0 21:41 07.08.2022
86 Rain 25 1007 94 7000 1.03 0 20:55 07.08.2022
87 Rain 25 1007 94 7000 1.03 0 20:18 07.08.2022
88 Rain 25 1008 95 8000 1.54 190 19:51 07.08.2022
89 Rain 25 1008 95 8000 1.54 190 19:22 07.08.2022
90 Rain 26 1009 90 9000 3.09 140 17:31 07.08.2022
91 Rain 26 1009 91 9000 1.03 0 16:52 07.08.2022
92 Rain 26 1008 92 9000 1.03 0 15:29 07.08.2022
93 Rain 26 1006 92 10000 1.03 0 13:55 07.08.2022
94 Clouds 25 1006 93 9000 1.54 100 12:40 07.08.2022
95 Rain 24 1006 96 4000 1.54 70 10:48 07.08.2022
96 Clouds 25 1006 93 4000 2.57 190 09:56 07.08.2022
97 Rain 29 1008 79 10000 3.09 100 04:33 07.08.2022
98 Rain 28 1007 85 10000 1.03 0 02:18 07.08.2022
99 Rain 26 1005 91 10000 1.03 60 22:34 06.08.2022
100 Rain 26 1006 91 10000 0.51 0 21:52 06.08.2022
101 Clouds 25 1006 94 9000 1.03 0 19:46 06.08.2022
102 Clouds 26 1007 91 9000 0.51 0 18:38 06.08.2022
103 Rain 25 1007 93 9000 1.54 80 17:45 06.08.2022
104 Clouds 26 1008 92 7000 2.06 110 16:19 06.08.2022
105 Clouds 27 1006 87 10000 2.06 250 13:51 06.08.2022
106 Clouds 27 1005 86 10000 3.58 193 12:27 06.08.2022
107 Clouds 27 1005 86 10000 3.58 193 12:27 06.08.2022
108 Rain 27 1005 87 9000 4.02 202 10:53 06.08.2022
109 Clouds 28 1005 85 8000 3.13 198 09:31 06.08.2022
110 Clouds 28 1007 86 10000 5.81 207 04:43 06.08.2022
111 Clouds 25 1006 94 10000 1.03 0 00:49 06.08.2022
112 Clouds 25 1006 94 10000 1.54 210 22:35 05.08.2022
113 Rain 25 1006 94 8000 1.03 0 20:50 05.08.2022
114 Rain 25 1007 97 7000 2.06 180 18:56 05.08.2022
115 Rain 25 1007 97 7000 2.06 180 18:38 05.08.2022
116 Rain 25 1007 94 6000 2.57 220 16:52 05.08.2022
117 Mist 25 1007 96 5000 3.09 220 15:24 05.08.2022
118 Rain 25 1006 97 6000 5.14 250 14:35 05.08.2022
119 Rain 25 1006 94 4000 5.14 270 13:36 05.08.2022
120 Rain 25 1006 95 4000 5.14 270 13:18 05.08.2022
121 Rain 26 1005 94 5000 3.09 230 11:29 05.08.2022
122 Thunderstorm 26 1005 93 5000 3.6 260 08:57 05.08.2022
123 Rain 26 1006 94 10000 3.09 250 07:34 05.08.2022
124 Clouds 29 1009 79 9000 2.57 300 04:19 05.08.2022
125 Rain 25 1006 95 9000 2.57 330 23:18 04.08.2022
126 Rain 25 1007 97 8000 1.54 250 21:28 04.08.2022
127 Rain 25 1007 94 7000 1.03 250 20:57 04.08.2022
128 Rain 25 1007 94 7000 1.03 250 20:36 04.08.2022
129 Rain 25 1008 94 5000 1.54 210 18:58 04.08.2022
130 Rain 25 1009 94 5000 1.54 210 18:33 04.08.2022
131 Clouds 26 1009 91 10000 3.13 4 15:51 04.08.2022
132 Clouds 27 1007 87 10000 0.51 0 13:26 04.08.2022
133 Clouds 27 1006 90 8000 2.57 110 11:39 04.08.2022
134 Clouds 32 1006 67 10000 2.24 344 10:21 04.08.2022
135 Rain 31 1007 72 9000 1.03 0 07:45 04.08.2022
136 Rain 28 1009 79 9000 1.03 0 02:48 04.08.2022
137 Clouds 26 1008 89 10000 2.06 50 00:33 04.08.2022
138 Clouds 27 1007 88 10000 2.57 10 23:39 03.08.2022
139 Rain 27 1008 86 10000 1.34 3 21:27 03.08.2022
140 Clouds 28 1008 86 10000 1.34 353 20:20 03.08.2022
141 Clouds 28 1008 83 10000 1.03 0 19:19 03.08.2022
142 Clouds 28 1008 83 10000 4.63 130 16:48 03.08.2022
143 Clouds 28 1008 82 10000 4.63 130 16:22 03.08.2022
144 Clouds 28 1008 81 8000 4.12 130 13:40 03.08.2022
145 Clouds 33 1006 63 10000 1.54 0 10:50 03.08.2022
146 Clouds 32 1007 64 10000 2.06 130 07:23 03.08.2022
147 Clouds 31 1009 71 7000 2.06 100 04:22 03.08.2022
148 Rain 29 1009 80 6000 1.54 80 03:23 03.08.2022
149 Clouds 26 1008 91 6000 0.89 61 00:49 03.08.2022
150 Clouds 27 1008 88 7000 0 0 22:36 02.08.2022
151 Clouds 27 1008 90 7000 1.79 70 21:51 02.08.2022
152 Clouds 27 1008 88 7000 0.45 9 20:29 02.08.2022
153 Rain 28 1009 84 8000 0 0 17:47 02.08.2022
154 Clouds 29 1008 79 10000 0.51 0 14:39 02.08.2022
155 Clouds 30 1007 75 10000 4.02 210 10:49 02.08.2022
156 Rain 31 1007 69 9000 6.26 214 08:38 02.08.2022
157 Clouds 31 1007 70 10000 3.09 280 07:51 02.08.2022
158 Clouds 30 1009 75 10000 1.54 130 04:59 02.08.2022
159 Rain 28 1009 80 10000 1.03 0 03:30 02.08.2022
160 Clouds 25 1008 94 10000 2.06 70 23:26 01.08.2022
161 Rain 25 1008 94 10000 0.51 0 21:49 01.08.2022
162 Rain 25 1009 94 8000 2.06 0 20:34 01.08.2022
163 Rain 25 1010 94 8000 2.06 320 19:21 01.08.2022
164 Thunderstorm 25 1010 94 7000 0.89 11 17:22 01.08.2022
165 Thunderstorm 26 1010 93 7000 3.13 32 16:48 01.08.2022
166 Rain 28 1009 83 10000 4.12 280 15:45 01.08.2022
167 Rain 28 1009 82 10000 4.92 335 15:19 01.08.2022
168 Rain 28 1008 83 9000 6.17 260 13:32 01.08.2022
169 Rain 29 1006 82 9000 7.6 200 11:18 01.08.2022
170 Rain 29 1006 81 9000 5.36 214 09:34 01.08.2022
171 Clouds 32 1007 69 9000 4.63 280 07:37 01.08.2022
172 Clouds 31 1008 71 10000 1.54 70 04:37 01.08.2022
173 Clouds 27 1007 87 10000 0.89 340 01:33 01.08.2022
174 Rain 26 1006 91 10000 0.51 0 22:47 31.07.2022
175 Rain 26 1006 91 10000 0.51 0 22:29 31.07.2022
176 Rain 26 1007 91 10000 1.03 90 20:39 31.07.2022
177 Clouds 26 1008 91 10000 0.51 0 18:42 31.07.2022
178 Clouds 27 1008 90 10000 1.54 280 17:29 31.07.2022
179 Rain 27 1008 90 9000 1.03 0 14:43 31.07.2022
180 Clouds 28 1006 88 10000 1.79 210 12:59 31.07.2022
181 Rain 27 1006 88 10000 4.92 213 11:39 31.07.2022
182 Clouds 29 1005 86 10000 6.26 205 08:47 31.07.2022
183 Clouds 30 1006 78 10000 3.09 300 05:38 31.07.2022
184 Clouds 28 1006 87 10000 2.24 173 02:29 31.07.2022
185 Clouds 26 1005 94 10000 0 0 22:49 30.07.2022
186 Clouds 26 1005 94 10000 1.03 130 21:52 30.07.2022
187 Clouds 26 1005 94 10000 1.03 130 21:33 30.07.2022
188 Clouds 26 1006 94 10000 1.03 0 20:38 30.07.2022
189 Clouds 26 1006 94 10000 1.03 0 19:50 30.07.2022
190 Clouds 26 1007 94 10000 1.03 0 18:19 30.07.2022
191 Clouds 26 1007 94 10000 1.54 240 16:38 30.07.2022
192 Clouds 25 1007 99 10000 2.06 210 15:33 30.07.2022
193 Rain 26 1006 93 10000 0 0 14:23 30.07.2022
194 Rain 26 1006 94 9000 1.54 230 12:32 30.07.2022
195 Rain 26 1005 94 9000 4.63 270 11:53 30.07.2022
196 Rain 26 1005 93 9000 4.02 224 10:20 30.07.2022
197 Rain 26 1005 93 9000 1.03 0 08:55 30.07.2022
198 Thunderstorm 26 1005 93 5000 2.06 120 07:33 30.07.2022
199 Rain 27 1005 86 10000 2.06 190 02:33 30.07.2022
200 Rain 27 1004 88 10000 1.03 0 00:30 30.07.2022
201 Thunderstorm 27 1004 88 10000 4.47 224 21:38 29.07.2022
202 Thunderstorm 26 1004 90 10000 3.09 230 20:50 29.07.2022
203 Clouds 27 1005 89 10000 2.57 210 19:47 29.07.2022
204 Clouds 27 1005 90 10000 1.79 186 17:34 29.07.2022
205 Clouds 28 1005 89 8000 3.09 230 14:50 29.07.2022
206 Rain 29 1003 79 10000 4.12 230 12:52 29.07.2022
207 Clouds 31 1003 74 10000 9.39 228 08:52 29.07.2022
208 Clouds 31 1003 73 10000 5.14 260 08:24 29.07.2022
209 Clouds 30 1005 74 10000 4.12 260 05:22 29.07.2022
210 Clouds 27 1005 90 7000 6.26 196 01:19 29.07.2022
211 Rain 28 1004 86 10000 2.57 210 21:41 28.07.2022
212 Rain 28 1004 86 10000 1.54 210 20:54 28.07.2022
213 Rain 28 1004 86 10000 1.54 210 20:20 28.07.2022
214 Rain 28 1005 88 10000 1.03 0 19:40 28.07.2022
215 Rain 28 1005 87 9000 2.06 80 18:20 28.07.2022
216 Rain 28 1005 83 10000 1.54 249 17:36 28.07.2022
217 Rain 29 1006 80 10000 3.09 0 16:41 28.07.2022
218 Rain 30 1005 81 10000 5.66 260 14:30 28.07.2022
219 Rain 30 1004 78 10000 5.66 260 12:41 28.07.2022
220 Clouds 32 1004 72 10000 8.23 160 09:25 28.07.2022
221 Rain 31 1006 71 9000 6.17 260 05:45 28.07.2022
222 Clouds 31 1007 73 9000 6.17 260 05:21 28.07.2022
223 Clouds 28 1005 86 10000 1.54 230 00:28 28.07.2022
224 Rain 28 1005 84 10000 2.57 230 22:25 27.07.2022
225 Clouds 28 1006 85 10000 2.06 250 20:20 27.07.2022
226 Clouds 29 1006 83 10000 2.57 250 19:30 27.07.2022
227 Clouds 29 1007 79 10000 4.12 270 16:34 27.07.2022
228 Clouds 29 1007 82 10000 3.6 270 15:51 27.07.2022
229 Clouds 29 1006 78 10000 5.66 250 14:42 27.07.2022
230 Clouds 30 1006 81 10000 6.17 260 13:58 27.07.2022
231 Clouds 30 1005 77 10000 5.81 196 11:49 27.07.2022
232 Clouds 32 1006 70 10000 4.63 280 07:53 27.07.2022
233 Clouds 32 1007 68 10000 3.09 280 05:23 27.07.2022
234 Clouds 26 1006 92 8000 0.51 0 23:41 26.07.2022
235 Clouds 26 1006 92 8000 0.51 0 22:20 26.07.2022
236 Clouds 26 1006 89 8000 1.54 240 21:18 26.07.2022
237 Thunderstorm 26 1007 89 5000 2.57 30 19:33 26.07.2022
238 Clouds 26 1008 90 6000 5.66 290 18:41 26.07.2022
239 Clouds 28 1008 85 6000 5.81 349 17:54 26.07.2022
240 Clouds 29 1007 84 8000 0.51 0 15:47 26.07.2022
241 Clouds 29 1007 83 9000 1.03 0 14:43 26.07.2022
242 Clouds 29 1006 80 9000 2.06 210 12:35 26.07.2022
243 Clouds 28 1005 85 9000 1.03 0 10:35 26.07.2022
244 Clouds 31 1005 70 8000 5.14 280 08:29 26.07.2022
245 Clouds 30 1007 77 9000 1.54 240 02:25 26.07.2022
246 Clouds 27 1006 89 10000 1.03 0 00:21 26.07.2022
247 Clouds 26 1006 87 10000 1.54 0 22:41 25.07.2022
248 Clouds 26 1006 89 9000 0.51 0 21:44 25.07.2022
249 Clouds 27 1006 84 10000 1.79 352 20:46 25.07.2022
250 Clouds 27 1006 83 10000 0.89 0 20:24 25.07.2022
251 Clouds 27 1007 84 10000 0 0 19:25 25.07.2022
252 Clouds 27 1008 81 10000 1.34 328 17:56 25.07.2022
253 Clouds 27 1008 81 10000 1.34 22 17:23 25.07.2022
254 Clouds 29 1007 81 10000 2.24 357 13:36 25.07.2022
255 Clouds 29 1005 79 10000 2.06 200 10:55 25.07.2022
256 Clouds 28 1007 89 8000 4.63 30 08:22 25.07.2022
257 Clouds 30 1006 76 10000 1.03 0 01:44 25.07.2022
258 Clouds 28 1006 87 10000 1.03 200 23:46 24.07.2022
259 Clouds 28 1006 84 10000 0 0 22:49 24.07.2022
260 Clouds 28 1006 83 10000 0.51 0 21:48 24.07.2022
261 Clouds 28 1006 83 10000 0.51 0 21:18 24.07.2022
262 Clouds 28 1006 81 10000 0.89 352 20:44 24.07.2022
263 Clouds 29 1006 79 10000 1.54 80 19:23 24.07.2022
264 Clouds 29 1007 81 10000 1.03 0 18:26 24.07.2022
265 Clouds 30 1007 76 10000 2.06 220 15:55 24.07.2022
266 Clouds 30 1006 72 10000 3.09 230 14:57 24.07.2022
267 Clouds 31 1005 71 10000 3.09 140 13:50 24.07.2022
268 Clouds 32 1004 69 10000 2.06 140 12:28 24.07.2022
269 Clouds 33 1004 65 10000 1.54 180 11:31 24.07.2022
270 Clouds 34 1004 62 10000 4.47 196 09:55 24.07.2022
271 Clouds 34 1005 62 10000 4.47 357 08:22 24.07.2022
272 Clouds 34 1005 62 10000 1.79 58 07:41 24.07.2022
273 Clouds 31 1008 76 10000 4.92 197 03:35 24.07.2022
274 Clouds 27 1006 90 10000 0.51 0 23:36 23.07.2022
275 Clouds 27 1007 88 10000 2.06 40 20:49 23.07.2022
276 Clouds 28 1007 86 10000 1.03 0 19:30 23.07.2022
277 Clouds 28 1008 85 10000 1.54 70 18:40 23.07.2022
278 Clouds 28 1008 85 10000 1.03 0 17:28 23.07.2022
279 Clouds 28 1008 84 10000 1.54 230 16:29 23.07.2022
280 Clouds 29 1008 82 10000 1.54 120 15:22 23.07.2022
281 Clouds 29 1008 82 10000 1.54 130 14:55 23.07.2022
282 Clouds 29 1007 81 10000 1.54 130 14:24 23.07.2022
283 Clouds 29 1006 78 10000 2.57 10 11:56 23.07.2022
284 Clouds 32 1007 71 10000 1.03 60 10:44 23.07.2022
285 Clouds 32 1007 74 10000 2.68 40 09:44 23.07.2022
286 Clouds 32 1007 73 10000 2.06 140 07:37 23.07.2022
287 Clouds 32 1009 68 10000 5.81 217 03:38 23.07.2022
288 Clouds 27 1008 87 10000 1.03 0 00:39 23.07.2022
289 Clouds 27 1008 85 10000 1.03 0 21:38 22.07.2022
290 Clouds 27 1008 84 10000 0.51 0 20:33 22.07.2022
291 Clouds 28 1009 86 10000 0.45 8 18:56 22.07.2022
292 Clouds 29 1009 84 10000 0.51 0 17:40 22.07.2022
293 Clouds 29 1010 82 10000 0.89 41 16:26 22.07.2022
294 Clouds 29 1009 81 10000 1.54 240 13:24 22.07.2022
295 Clouds 31 1007 71 10000 3.09 50 10:23 22.07.2022
296 Clouds 31 1008 73 10000 3.13 339 09:24 22.07.2022
297 Clouds 32 1008 72 10000 4.02 219 07:58 22.07.2022
298 Clouds 29 1010 79 10000 3.09 0 04:23 22.07.2022
299 Clouds 26 1009 89 10000 1.54 110 23:43 21.07.2022
300 Clouds 26 1008 88 10000 1.54 10 21:51 21.07.2022
301 Clouds 26 1009 87 10000 2.06 90 19:45 21.07.2022
302 Clouds 26 1009 88 10000 1.54 60 18:36 21.07.2022
303 Rain 27 1010 85 10000 1.54 170 17:22 21.07.2022
304 Clouds 27 1010 85 10000 1.54 180 16:31 21.07.2022
305 Rain 27 1009 83 10000 1.03 0 14:46 21.07.2022
306 Clouds 27 1009 81 10000 1.54 170 13:58 21.07.2022
307 Rain 28 1008 81 9000 2.06 20 11:58 21.07.2022
308 Rain 29 1009 74 8000 1.54 10 10:20 21.07.2022
309 Rain 30 1010 76 10000 2.57 130 08:53 21.07.2022
310 Rain 30 1011 72 10000 2.06 120 07:50 21.07.2022
311 Rain 29 1011 78 10000 1.03 0 06:27 21.07.2022
312 Rain 26 1012 89 7000 3.09 50 02:49 21.07.2022
313 Rain 27 1009 84 10000 2.06 310 22:47 20.07.2022
314 Clouds 27 1009 83 10000 2.06 310 22:19 20.07.2022
315 Clouds 28 1009 85 10000 1.54 100 20:46 20.07.2022
316 Clouds 28 1009 81 10000 0.51 0 19:46 20.07.2022
317 Clouds 28 1009 80 10000 2.57 60 18:54 20.07.2022
318 Clouds 28 1009 80 10000 2.57 60 18:31 20.07.2022
319 Clouds 28 1010 81 10000 1.54 80 17:25 20.07.2022
320 Clouds 29 1009 80 10000 2.06 80 15:33 20.07.2022
321 Clouds 29 1009 78 10000 2.06 80 14:49 20.07.2022
322 Clouds 30 1008 78 10000 2.57 100 13:21 20.07.2022
323 Rain 32 1007 70 10000 3.09 110 10:59 20.07.2022
324 Clouds 33 1009 64 10000 4.02 111 06:35 20.07.2022
325 Clouds 29 1009 76 9000 2.06 80 01:47 20.07.2022
326 Clouds 29 1009 80 9000 1.03 0 00:42 20.07.2022
327 Clouds 28 1008 81 9000 1.54 120 22:37 19.07.2022
328 Clouds 28 1008 81 9000 1.54 120 22:18 19.07.2022
329 Clouds 29 1008 80 9000 1.03 0 20:50 19.07.2022
330 Clouds 29 1008 80 9000 1.03 0 19:32 19.07.2022
331 Clouds 29 1009 80 9000 2.06 170 18:42 19.07.2022
332 Clouds 29 1009 81 10000 2.06 160 17:54 19.07.2022
333 Clouds 30 1008 75 10000 2.57 140 15:49 19.07.2022
334 Clouds 31 1007 70 10000 2.06 0 13:46 19.07.2022
335 Clouds 33 1006 63 10000 4.63 120 11:34 19.07.2022
336 Clouds 34 1005 62 10000 5.14 100 09:53 19.07.2022
337 Clouds 32 1006 66 10000 4.12 110 08:48 19.07.2022
338 Clouds 34 1006 65 10000 4.12 120 07:57 19.07.2022
339 Clouds 33 1007 64 10000 4.12 120 07:18 19.07.2022
340 Clouds 33 1007 63 10000 3.6 110 05:19 19.07.2022
341 Clouds 31 1008 69 10000 3.09 120 03:40 19.07.2022
342 Clouds 26 1007 92 10000 0.51 0 23:57 18.07.2022
343 Clouds 26 1007 92 10000 0.51 0 23:20 18.07.2022
344 Clouds 26 1007 92 10000 0.51 0 22:27 18.07.2022
345 Clouds 26 1007 91 10000 1.03 210 21:26 18.07.2022
346 Clouds 27 1007 92 10000 1.03 0 20:45 18.07.2022
347 Clouds 27 1008 87 10000 2.06 100 18:50 18.07.2022
348 Rain 26 1008 91 9000 0.51 0 16:45 18.07.2022
349 Rain 26 1008 93 9000 0 0 15:34 18.07.2022
350 Clouds 27 1008 90 8000 3.6 30 13:32 18.07.2022
351 Rain 29 1006 79 8000 2.57 0 11:44 18.07.2022
352 Clouds 30 1005 80 10000 2.57 0 09:55 18.07.2022
353 Clouds 31 1005 72 9000 2.06 260 08:19 18.07.2022
354 Clouds 30 1007 75 8000 2.06 130 05:35 18.07.2022
355 Clouds 25 1007 91 10000 1.03 0 23:19 17.07.2022
356 Clouds 25 1007 91 10000 2.06 10 22:32 17.07.2022
357 Clouds 25 1007 93 10000 1.03 230 21:40 17.07.2022
358 Clouds 25 1007 93 10000 1.03 0 20:46 17.07.2022
359 Clouds 25 1008 92 10000 1.03 190 19:50 17.07.2022
360 Clouds 25 1008 92 10000 1.34 2 19:24 17.07.2022
361 Clouds 26 1008 88 10000 1.03 0 17:54 17.07.2022
362 Clouds 26 1008 88 10000 1.34 344 17:36 17.07.2022
363 Clouds 26 1008 90 9000 1.03 0 16:33 17.07.2022
364 Clouds 26 1008 91 9000 1.79 3 15:50 17.07.2022
365 Clouds 27 1008 94 8000 4.12 310 13:58 17.07.2022
366 Clouds 28 1007 90 7000 3.09 260 12:56 17.07.2022
367 Rain 30 1006 76 9000 4.63 260 10:21 17.07.2022
368 Clouds 31 1007 70 9000 3.6 280 07:31 17.07.2022
369 Clouds 28 1008 83 10000 2.06 100 02:35 17.07.2022
370 Clouds 25 1008 91 10000 1.03 0 23:28 16.07.2022
371 Clouds 25 1009 91 10000 1.03 0 22:43 16.07.2022
372 Clouds 25 1009 91 10000 1.03 0 20:45 16.07.2022
373 Clouds 25 1009 91 10000 2.57 240 18:58 16.07.2022
374 Clouds 25 1010 93 10000 1.54 230 17:48 16.07.2022
375 Clouds 25 1010 94 9000 1.03 0 16:22 16.07.2022
376 Clouds 28 1010 83 7000 5.66 340 13:26 16.07.2022
377 Thunderstorm 30 1006 80 9000 4.12 270 10:29 16.07.2022
378 Rain 31 1005 76 7000 4.63 260 09:26 16.07.2022
379 Rain 32 1005 73 9000 5.14 280 08:41 16.07.2022
380 Clouds 33 1006 71 9000 6.26 336 07:23 16.07.2022
381 Clouds 31 1007 72 10000 2.68 344 03:38 16.07.2022
382 Clouds 27 1007 88 10000 0.51 0 00:48 16.07.2022
383 Clouds 26 1007 90 10000 0 0 22:57 15.07.2022
384 Clouds 26 1007 90 10000 0 0 22:26 15.07.2022
385 Clouds 26 1007 87 10000 1.54 80 20:44 15.07.2022
386 Clouds 26 1008 87 10000 1.03 0 19:34 15.07.2022
387 Clouds 25 1009 92 10000 1.03 0 18:23 15.07.2022
388 Clouds 25 1010 91 4000 4.12 360 17:19 15.07.2022
389 Clouds 30 1008 80 10000 4.63 250 14:19 15.07.2022
390 Clouds 31 1006 75 10000 5.14 260 12:37 15.07.2022
391 Clouds 32 1005 69 10000 6.71 216 10:52 15.07.2022
392 Clouds 33 1006 66 10000 7.6 208 07:55 15.07.2022
393 Clouds 31 1008 72 10000 3.09 290 04:54 15.07.2022
394 Clouds 27 1007 90 10000 0.51 0 00:43 15.07.2022
395 Clouds 27 1007 91 9000 1.03 0 23:24 14.07.2022
396 Clouds 27 1007 88 9000 1.03 0 22:24 14.07.2022
397 Clouds 27 1007 90 9000 0.51 0 21:40 14.07.2022
398 Clouds 27 1007 90 9000 0.51 0 21:21 14.07.2022
399 Clouds 27 1007 90 10000 1.03 0 20:43 14.07.2022
400 Clouds 28 1007 90 10000 1.03 0 20:18 14.07.2022
401 Clouds 28 1008 87 10000 2.06 90 18:24 14.07.2022
402 Clouds 28 1009 84 10000 1.54 130 16:19 14.07.2022
403 Clouds 28 1008 85 10000 1.54 130 15:26 14.07.2022
404 Clouds 29 1007 82 10000 3.13 205 13:51 14.07.2022
405 Rain 30 1006 77 10000 4.92 198 12:36 14.07.2022
406 Rain 30 1005 73 10000 6.17 260 11:28 14.07.2022
407 Rain 31 1006 72 10000 7.6 200 10:52 14.07.2022
408 Clouds 33 1005 67 10000 8.05 211 08:58 14.07.2022
409 Clouds 32 1007 65 10000 5.36 208 04:45 14.07.2022
410 Clouds 30 1006 81 10000 0.51 0 01:19 14.07.2022
411 Clouds 28 1006 84 10000 0.51 0 00:51 14.07.2022
412 Clouds 27 1005 87 10000 1.03 0 22:31 13.07.2022
413 Clouds 27 1006 87 10000 1.03 0 21:42 13.07.2022
414 Clouds 27 1006 87 10000 0 0 20:41 13.07.2022
415 Clouds 28 1007 83 10000 0.51 0 18:40 13.07.2022
416 Clouds 28 1007 82 10000 1.03 0 17:31 13.07.2022
417 Clouds 28 1007 82 10000 1.03 0 17:31 13.07.2022
418 Clouds 28 1007 81 10000 1.54 250 16:19 13.07.2022
419 Rain 29 1006 78 10000 1.54 230 14:46 13.07.2022
420 Rain 29 1006 78 10000 1.54 230 14:46 13.07.2022
421 Rain 29 1005 76 10000 5.66 260 11:54 13.07.2022
422 Rain 30 1004 75 10000 8.05 159 10:45 13.07.2022
423 Clouds 31 1006 79 10000 6.69 270 09:54 13.07.2022
424 Clouds 31 1005 77 10000 6.69 270 09:20 13.07.2022
425 Clouds 30 1007 75 10000 7.2 270 05:22 13.07.2022
426 Clouds 27 1007 90 10000 0.89 6 01:21 13.07.2022
427 Rain 26 1006 91 10000 1.03 90 23:21 12.07.2022
428 Clouds 27 1006 91 10000 1.54 250 21:49 12.07.2022
429 Clouds 27 1006 90 9000 1.54 220 20:57 12.07.2022
430 Clouds 27 1006 90 9000 4.47 204 20:37 12.07.2022
431 Rain 27 1007 91 9000 2.68 0 18:53 12.07.2022
432 Rain 27 1007 94 7686 0.51 0 17:32 12.07.2022
433 Clouds 28 1006 90 9000 2.06 280 15:37 12.07.2022
434 Rain 29 1005 86 10000 2.24 229 13:44 12.07.2022
435 Rain 29 1004 86 9000 2.06 260 11:59 12.07.2022
436 Rain 29 1004 87 9000 2.06 260 10:47 12.07.2022
437 Rain 29 1005 85 8000 2.06 260 09:19 12.07.2022
438 Rain 29 1005 81 8000 3.6 280 07:57 12.07.2022
439 Rain 31 1007 78 9000 3.13 195 05:54 12.07.2022
440 Rain 31 1007 76 9000 3.13 194 05:35 12.07.2022
441 Clouds 27 1006 92 9000 0 0 01:43 12.07.2022
442 Clouds 27 1006 92 10000 1.03 50 22:52 11.07.2022
443 Clouds 27 1006 92 10000 1.54 60 21:44 11.07.2022
444 Rain 27 1007 91 9000 1.03 0 20:33 11.07.2022
445 Clouds 27 1007 91 9000 0.51 0 19:32 11.07.2022
446 Clouds 27 1008 90 9000 2.06 190 18:32 11.07.2022
447 Rain 28 1008 89 10000 1.54 110 17:31 11.07.2022
448 Clouds 28 1007 89 10000 1.03 0 15:34 11.07.2022
449 Clouds 28 1007 87 10000 1.54 160 13:37 11.07.2022
450 Clouds 29 1006 85 7000 2.57 160 11:38 11.07.2022
451 Clouds 31 1006 74 9000 4.63 270 10:18 11.07.2022
452 Rain 31 1004 78 9000 5.14 260 09:40 11.07.2022
453 Clouds 35 1005 58 10000 2.68 21 08:33 11.07.2022
454 Rain 29 1007 81 10000 1.54 110 03:23 11.07.2022
455 Clouds 27 1006 89 10000 1.34 63 00:20 11.07.2022
456 Clouds 28 1005 86 10000 1.54 80 22:55 10.07.2022
457 Clouds 28 1005 88 10000 1.54 210 21:39 10.07.2022
458 Clouds 28 1005 85 10000 2.06 170 20:41 10.07.2022
459 Clouds 28 1006 84 10000 2.06 130 19:48 10.07.2022
460 Clouds 28 1006 82 10000 2.06 120 18:43 10.07.2022
461 Clouds 28 1007 82 10000 2.06 90 17:36 10.07.2022
462 Rain 29 1007 83 10000 2.57 100 16:41 10.07.2022
463 Clouds 29 1007 83 10000 1.54 0 15:24 10.07.2022
464 Clouds 29 1006 83 10000 2.06 260 13:48 10.07.2022
465 Rain 29 1005 84 10000 3.13 212 12:27 10.07.2022
466 Rain 31 1004 72 10000 3.09 150 09:58 10.07.2022
467 Clouds 33 1004 65 10000 3.13 353 08:44 10.07.2022
468 Clouds 33 1005 61 10000 4.02 330 07:30 10.07.2022
469 Clouds 28 1006 87 10000 0.45 117 01:31 10.07.2022
470 Clouds 27 1005 89 10000 2.57 50 22:43 09.07.2022
471 Clouds 27 1005 90 10000 2.57 50 22:19 09.07.2022
472 Rain 27 1005 92 8000 1.54 0 20:45 09.07.2022
473 Clouds 29 1006 82 10000 2.06 150 18:37 09.07.2022
474 Clouds 29 1006 81 10000 3.09 110 17:45 09.07.2022
475 Clouds 30 1006 77 10000 2.57 130 16:44 09.07.2022
476 Clouds 30 1006 78 10000 2.57 140 15:40 09.07.2022
477 Clouds 30 1005 75 10000 3.6 120 14:36 09.07.2022
478 Clouds 31 1005 72 10000 3.6 130 13:50 09.07.2022
479 Clouds 31 1004 71 10000 2.57 120 12:45 09.07.2022
480 Rain 32 1003 70 10000 5.14 110 11:22 09.07.2022
481 Clouds 34 1004 63 10000 3.09 120 10:22 09.07.2022
482 Clouds 34 1004 63 10000 3.6 130 07:45 09.07.2022
483 Clouds 32 1005 68 10000 3.09 100 04:59 09.07.2022
484 Clouds 29 1005 82 8000 1.03 0 02:34 09.07.2022
485 Rain 27 1004 85 10000 2.06 90 22:54 08.07.2022
486 Rain 28 1005 86 10000 1.54 100 21:58 08.07.2022
487 Rain 28 1004 85 10000 2.06 80 20:41 08.07.2022
488 Clouds 28 1005 86 10000 1.54 90 19:53 08.07.2022
489 Clouds 28 1005 84 10000 2.06 120 18:24 08.07.2022
490 Rain 28 1006 83 10000 1.54 0 16:40 08.07.2022
491 Clouds 28 1005 85 10000 2.06 160 14:53 08.07.2022
492 Rain 29 1005 83 10000 1.54 100 13:29 08.07.2022
493 Clouds 30 1003 75 10000 2.06 140 11:51 08.07.2022
494 Clouds 31 1003 71 10000 1.03 0 10:29 08.07.2022
495 Rain 31 1004 69 10000 2.57 120 08:33 08.07.2022
496 Rain 30 1005 75 10000 2.57 0 06:50 08.07.2022
497 Rain 27 1006 90 9000 0.51 0 01:31 08.07.2022
498 Clouds 27 1005 91 9000 1.03 0 22:59 07.07.2022
499 Clouds 27 1005 91 9000 1.03 0 22:29 07.07.2022
500 Rain 27 1006 91 9000 1.54 230 20:35 07.07.2022
501 Clouds 27 1007 93 9000 0.51 0 18:20 07.07.2022
502 Clouds 27 1008 93 10000 0.51 0 16:51 07.07.2022
503 Clouds 27 1007 89 10000 1.03 0 14:34 07.07.2022
504 Rain 27 1007 90 9000 2.57 190 13:18 07.07.2022
505 Rain 28 1006 85 9000 2.57 260 12:24 07.07.2022
506 Rain 28 1006 85 9000 2.57 260 12:24 07.07.2022
507 Rain 28 1005 82 10000 2.24 336 11:44 07.07.2022
508 Clouds 28 1005 81 10000 1.54 360 11:24 07.07.2022
509 Rain 28 1005 83 10000 2.06 360 10:40 07.07.2022
510 Rain 28 1005 84 10000 2.06 360 10:22 07.07.2022
511 Clouds 31 1007 74 10000 3.6 0 06:40 07.07.2022
512 Rain 27 1007 89 10000 1.22 61 00:32 07.07.2022
513 Rain 27 1006 89 10000 1.35 61 23:36 06.07.2022
514 Rain 27 1007 90 10000 1.28 60 23:18 06.07.2022
515 Clouds 27 1006 92 7000 1.03 0 22:52 06.07.2022
516 Clouds 27 1006 92 7000 1.03 0 22:34 06.07.2022
517 Rain 27 1007 90 8000 1.03 0 20:30 06.07.2022
518 Clouds 27 1007 90 8000 0 0 19:33 06.07.2022
519 Clouds 28 1008 86 9000 1.03 0 17:22 06.07.2022
520 Clouds 29 1008 82 10000 1.54 0 15:58 06.07.2022
521 Clouds 28 1007 82 10000 3.09 320 13:21 06.07.2022
522 Clouds 29 1007 78 10000 2.57 280 12:28 06.07.2022
523 Clouds 29 1006 79 9000 2.06 270 11:44 06.07.2022
524 Clouds 27 1006 90 8000 4.12 70 09:50 06.07.2022
525 Rain 32 1006 66 9000 5.36 342 07:44 06.07.2022
526 Clouds 32 1007 66 8000 3.58 354 06:49 06.07.2022
527 Rain 26 1008 86 9000 1.54 220 00:38 06.07.2022
528 Clouds 25 1007 91 9000 0 0 22:43 05.07.2022
529 Clouds 25 1007 88 9000 0 0 20:57 05.07.2022
530 Clouds 25 1007 87 9000 0 0 20:33 05.07.2022
531 Clouds 25 1007 85 9000 0 0 19:39 05.07.2022
532 Clouds 25 1008 86 9000 3.09 20 17:55 05.07.2022
533 Clouds 25 1009 86 9000 3.09 20 17:25 05.07.2022
534 Thunderstorm 25 1009 91 9000 6.17 20 16:32 05.07.2022
535 Clouds 28 1009 83 10000 5.36 343 14:54 05.07.2022
536 Clouds 29 1007 76 10000 0.89 26 13:36 05.07.2022
537 Clouds 30 1006 74 10000 1.03 0 12:24 05.07.2022
538 Clouds 29 1005 77 10000 1.54 140 10:46 05.07.2022
539 Clouds 31 1006 71 9000 2.06 0 09:57 05.07.2022
540 Clouds 32 1006 62 10000 2.24 229 08:21 05.07.2022
541 Clouds 32 1007 64 10000 3.58 214 06:51 05.07.2022
542 Clouds 30 1008 71 9000 1.79 15 04:35 05.07.2022
543 Clouds 28 1008 81 9000 1.54 30 01:33 05.07.2022
544 Clouds 26 1007 89 9000 1.34 16 23:37 04.07.2022
545 Clouds 26 1007 91 9000 0.45 9 22:56 04.07.2022
546 Clouds 26 1007 91 9000 0 0 22:18 04.07.2022
547 Clouds 26 1006 89 9000 1.03 0 20:56 04.07.2022
548 Clouds 27 1006 88 9000 1.03 0 20:36 04.07.2022
549 Clouds 26 1007 89 9000 0 0 19:56 04.07.2022
550 Clouds 26 1007 89 9000 0 0 19:37 04.07.2022
551 Rain 26 1008 87 9000 0.51 0 18:35 04.07.2022
552 Rain 26 1009 88 9000 1.03 0 16:51 04.07.2022
553 Rain 27 1009 89 9000 1.34 19 15:35 04.07.2022
554 Rain 27 1007 88 9000 1.54 90 13:44 04.07.2022
555 Rain 27 1007 89 8000 2.06 130 12:38 04.07.2022
556 Rain 28 1005 82 9000 3.09 210 10:39 04.07.2022
557 Rain 30 1005 79 9000 3.09 210 10:20 04.07.2022
558 Clouds 33 1004 60 10000 2.68 177 08:31 04.07.2022
559 Clouds 33 1006 65 10000 2.68 184 05:36 04.07.2022
560 Clouds 28 1006 84 10000 1.79 82 00:44 04.07.2022
561 Clouds 28 1006 84 10000 1.79 82 00:44 04.07.2022
562 Clouds 28 1006 82 10000 1.03 0 23:38 03.07.2022
563 Clouds 29 1006 80 10000 0.51 0 22:23 03.07.2022
564 Clouds 29 1006 82 10000 1.54 110 20:42 03.07.2022
565 Clouds 29 1006 81 10000 1.03 0 19:42 03.07.2022
566 Clouds 29 1006 81 10000 1.03 0 19:23 03.07.2022
567 Clouds 29 1008 82 10000 1.54 130 17:46 03.07.2022
568 Clouds 29 1008 82 10000 1.54 130 17:18 03.07.2022
569 Clouds 30 1007 78 10000 1.03 0 15:26 03.07.2022
570 Clouds 31 1007 74 10000 3.09 130 14:37 03.07.2022
571 Clouds 31 1007 66 10000 1.03 270 13:49 03.07.2022
572 Clouds 32 1006 62 10000 1.54 240 12:42 03.07.2022
573 Clouds 32 1005 62 10000 3.09 290 11:40 03.07.2022
574 Rain 33 1005 60 10000 4.12 280 10:40 03.07.2022
575 Clouds 34 1005 55 10000 3.09 270 09:59 03.07.2022
576 Clouds 33 1007 62 10000 3.6 280 07:37 03.07.2022
577 Clouds 31 1007 67 10000 3.6 270 05:22 03.07.2022
578 Rain 28 1006 86 10000 1.03 0 00:24 03.07.2022
579 Clouds 27 1006 86 10000 1.03 0 22:36 02.07.2022
580 Clouds 28 1007 84 10000 0.51 0 21:38 02.07.2022
581 Clouds 28 1007 83 10000 0.51 0 19:53 02.07.2022
582 Clouds 28 1007 83 10000 0.51 0 19:31 02.07.2022
583 Clouds 29 1009 80 10000 1.03 0 17:58 02.07.2022
584 Rain 28 1009 80 10000 1.03 0 17:36 02.07.2022
585 Clouds 29 1008 74 10000 1.03 0 15:29 02.07.2022
586 Rain 31 1006 68 10000 2.57 140 12:24 02.07.2022
587 Rain 32 1005 66 10000 2.57 130 11:28 02.07.2022
588 Clouds 32 1005 64 10000 3.6 120 10:48 02.07.2022
589 Rain 31 1006 72 10000 2.57 140 09:49 02.07.2022
590 Clouds 32 1006 66 10000 2.57 110 08:36 02.07.2022
591 Clouds 32 1006 67 10000 2.57 110 08:18 02.07.2022
592 Clouds 28 1007 77 10000 1.54 0 02:52 02.07.2022
593 Clouds 27 1006 83 10000 0 0 00:27 02.07.2022
594 Clouds 27 1006 84 10000 1.54 130 22:59 01.07.2022
595 Clouds 27 1006 84 10000 1.54 130 22:19 01.07.2022
596 Clouds 27 1006 84 10000 2.06 0 21:37 01.07.2022
597 Clouds 27 1006 84 10000 1.54 120 20:57 01.07.2022
598 Clouds 26 1007 86 10000 0.51 0 19:47 01.07.2022
599 Clouds 26 1009 88 10000 2.57 230 18:42 01.07.2022
600 Rain 27 1009 83 10000 2.57 230 16:35 01.07.2022
601 Rain 27 1007 83 10000 3.09 220 13:55 01.07.2022
602 Clouds 29 1008 79 10000 9.39 185 12:59 01.07.2022
603 Clouds 32 1006 62 10000 5.66 220 10:46 01.07.2022
604 Rain 32 1006 62 10000 5.66 220 10:18 01.07.2022
605 Rain 30 1007 70 10000 3.09 230 05:27 01.07.2022
606 Clouds 28 1006 84 10000 1.03 0 01:27 01.07.2022
607 Rain 26 1005 91 10000 1.03 0 23:26 30.06.2022
608 Rain 26 1005 91 10000 1.03 0 22:44 30.06.2022
609 Rain 26 1005 91 10000 1.03 0 22:26 30.06.2022
610 Rain 26 1004 91 10000 1.03 0 21:48 30.06.2022
611 Rain 26 1005 91 10000 1.03 0 20:30 30.06.2022
612 Clouds 26 1005 91 8000 2.06 130 19:55 30.06.2022
613 Rain 26 1005 90 8000 2.06 130 19:26 30.06.2022
614 Clouds 26 1006 87 8000 1.54 0 18:42 30.06.2022
615 Thunderstorm 26 1007 86 8000 3.09 150 17:49 30.06.2022
616 Thunderstorm 27 1007 86 8000 2.57 180 16:55 30.06.2022
617 Rain 28 1006 81 10000 3.58 237 15:44 30.06.2022
618 Clouds 30 1004 76 10000 8.49 213 13:49 30.06.2022
619 Clouds 30 1003 69 10000 5.81 224 12:36 30.06.2022
620 Clouds 30 1003 74 10000 4.12 250 11:56 30.06.2022
621 Rain 30 1003 78 10000 5.66 270 09:55 30.06.2022
622 Rain 30 1003 80 10000 7.15 208 09:35 30.06.2022
623 Rain 33 1002 61 10000 5.14 200 08:19 30.06.2022
624 Rain 33 1002 61 10000 5.14 200 08:19 30.06.2022
625 Clouds 33 1002 58 10000 3.6 200 07:24 30.06.2022
626 Clouds 29 1005 81 10000 2.06 140 02:38 30.06.2022
627 Rain 26 1003 90 10000 0 0 23:38 29.06.2022
628 Rain 27 1003 85 10000 1.54 190 22:41 29.06.2022
629 Rain 27 1003 86 10000 1.03 0 21:58 29.06.2022
630 Clouds 27 1004 88 9000 1.03 0 20:34 29.06.2022
631 Clouds 27 1004 89 9000 0.51 0 19:55 29.06.2022
632 Clouds 26 1006 89 9000 2.57 0 17:54 29.06.2022
633 Clouds 29 1004 78 10000 1.54 180 16:51 29.06.2022
634 Clouds 29 1004 78 10000 1.54 180 16:51 29.06.2022
635 Clouds 29 1004 72 10000 1.03 0 15:32 29.06.2022
636 Clouds 30 1002 70 10000 2.06 210 13:20 29.06.2022
637 Clouds 30 1001 76 10000 6.26 213 11:57 29.06.2022
638 Clouds 31 1001 69 10000 2.24 204 09:35 29.06.2022
639 Clouds 29 1002 77 9000 2.06 120 08:46 29.06.2022
640 Clouds 33 1004 62 10000 2.57 0 06:27 29.06.2022
641 Clouds 29 1004 79 10000 0 0 02:21 29.06.2022
642 Clouds 26 1003 90 10000 1.03 0 00:38 29.06.2022
643 Clouds 26 1002 91 10000 0.51 0 23:55 28.06.2022
644 Clouds 26 1003 90 10000 1.03 0 22:48 28.06.2022
645 Clouds 26 1003 91 10000 1.34 262 21:55 28.06.2022
646 Clouds 26 1003 91 10000 1.03 0 21:33 28.06.2022
647 Clouds 26 1002 91 10000 1.54 90 20:55 28.06.2022
648 Clouds 26 1003 91 10000 1.54 100 19:48 28.06.2022
649 Clouds 26 1003 91 10000 1.54 100 19:24 28.06.2022
650 Rain 26 1004 93 10000 1.03 0 18:37 28.06.2022
651 Rain 26 1005 93 9000 0.51 0 16:35 28.06.2022
652 Rain 25 1005 95 9000 1.03 0 15:54 28.06.2022
653 Rain 25 1004 96 7000 1.03 0 14:22 28.06.2022
654 Thunderstorm 25 1004 96 7000 1.03 0 13:55 28.06.2022
655 Thunderstorm 25 1004 95 7000 1.03 0 13:32 28.06.2022
656 Rain 27 1003 90 10000 2.68 146 11:57 28.06.2022
657 Rain 29 1003 82 10000 2.57 120 09:46 28.06.2022
658 Rain 31 1004 73 10000 3.6 120 08:46 28.06.2022
659 Clouds 32 1003 66 10000 3.6 120 07:58 28.06.2022
660 Clouds 32 1003 66 10000 3.6 120 07:19 28.06.2022
661 Clouds 29 1005 75 10000 2.06 0 02:25 28.06.2022
662 Clouds 27 1004 84 10000 1.54 90 23:47 27.06.2022
663 Clouds 27 1005 86 10000 0 0 22:55 27.06.2022
664 Clouds 27 1005 86 10000 1.54 90 21:39 27.06.2022
665 Clouds 27 1005 85 10000 1.03 0 20:55 27.06.2022
666 Clouds 27 1006 85 10000 0.51 0 19:44 27.06.2022
667 Clouds 27 1006 86 10000 1.03 0 18:40 27.06.2022
668 Clouds 27 1006 86 10000 1.03 0 17:24 27.06.2022
669 Clouds 28 1006 83 10000 1.03 0 15:43 27.06.2022
670 Clouds 28 1005 81 10000 2.06 180 13:44 27.06.2022
671 Clouds 28 1005 79 10000 2.24 167 12:57 27.06.2022
672 Clouds 29 1005 78 10000 4.63 190 10:43 27.06.2022
673 Rain 30 1004 73 10000 4.63 110 09:37 27.06.2022
674 Rain 31 1005 72 10000 3.6 320 08:32 27.06.2022
675 Rain 31 1005 71 9000 4.12 310 07:38 27.06.2022
676 Clouds 30 1007 74 10000 1.54 0 04:21 27.06.2022
677 Clouds 27 1007 88 10000 1.03 0 01:20 27.06.2022
678 Rain 26 1006 91 10000 0.89 355 22:47 26.06.2022
679 Clouds 26 1006 87 10000 1.03 90 20:55 26.06.2022
680 Rain 26 1007 87 10000 1.03 0 19:59 26.06.2022
681 Rain 26 1008 87 10000 2.06 40 18:32 26.06.2022
682 Clouds 27 1009 83 10000 1.54 340 17:33 26.06.2022
683 Clouds 27 1008 86 10000 4.02 2 15:31 26.06.2022
684 Clouds 27 1008 86 10000 1.79 10 13:55 26.06.2022
685 Clouds 28 1007 81 10000 1.03 0 13:23 26.06.2022
686 Clouds 29 1006 78 10000 5.14 100 11:31 26.06.2022
687 Clouds 32 1006 66 10000 2.68 353 10:29 26.06.2022
688 Clouds 32 1006 66 10000 2.68 353 10:29 26.06.2022
689 Clouds 32 1006 67 10000 4.92 60 09:39 26.06.2022
690 Clouds 32 1008 68 10000 4.63 290 07:46 26.06.2022
691 Clouds 29 1009 78 10000 2.24 8 03:19 26.06.2022
692 Clouds 27 1007 83 10000 0.51 0 00:36 26.06.2022
693 Clouds 27 1007 84 10000 1.79 60 00:18 26.06.2022
694 Clouds 26 1007 87 10000 0.45 357 23:24 25.06.2022
695 Clouds 27 1007 83 10000 1.54 200 22:28 25.06.2022
696 Clouds 27 1007 85 10000 1.03 0 21:50 25.06.2022
697 Clouds 27 1007 85 10000 1.03 0 21:20 25.06.2022
698 Clouds 27 1007 85 10000 1.54 250 20:30 25.06.2022
699 Clouds 27 1008 83 10000 1.03 0 19:55 25.06.2022
700 Clouds 28 1008 83 10000 1.03 0 18:21 25.06.2022
701 Clouds 28 1008 81 10000 1.03 0 17:25 25.06.2022
702 Clouds 29 1008 78 10000 1.03 0 15:42 25.06.2022
703 Clouds 30 1007 75 10000 1.54 140 13:48 25.06.2022
704 Clouds 31 1006 74 10000 1.54 0 12:38 25.06.2022
705 Clouds 32 1005 69 10000 3.58 205 10:58 25.06.2022
706 Clouds 32 1006 63 10000 1.54 120 09:22 25.06.2022
707 Clouds 31 1007 70 10000 3.09 300 08:46 25.06.2022
708 Clouds 31 1007 70 10000 3.09 300 08:19 25.06.2022
709 Rain 31 1008 69 10000 1.79 220 05:23 25.06.2022
710 Clouds 27 1007 87 10000 1.03 0 00:43 25.06.2022
711 Clouds 27 1006 87 10000 0.51 0 22:56 24.06.2022
712 Clouds 27 1006 84 10000 1.03 0 21:44 24.06.2022
713 Clouds 27 1007 87 10000 0.51 0 20:57 24.06.2022
714 Clouds 28 1007 85 10000 0.51 0 20:19 24.06.2022
715 Clouds 28 1007 84 10000 1.03 240 19:22 24.06.2022
716 Clouds 28 1008 86 10000 1.54 260 18:49 24.06.2022
717 Clouds 28 1008 86 10000 1.54 260 18:30 24.06.2022
718 Clouds 28 1008 84 10000 1.34 359 17:41 24.06.2022
719 Clouds 29 1008 78 10000 1.54 220 15:51 24.06.2022
720 Clouds 30 1008 75 10000 1.03 0 14:28 24.06.2022
721 Clouds 30 1007 74 10000 3.09 220 13:55 24.06.2022
722 Clouds 32 1006 68 10000 2.57 300 11:45 24.06.2022
723 Clouds 32 1006 67 10000 2.57 300 11:22 24.06.2022
724 Clouds 31 1006 69 10000 3.09 300 10:19 24.06.2022
725 Rain 32 1006 63 10000 1.03 0 09:40 24.06.2022
726 Rain 31 1007 66 10000 2.68 3 08:52 24.06.2022
727 Rain 31 1008 68 10000 3.13 12 06:49 24.06.2022
728 Rain 31 1008 68 10000 3.09 120 06:30 24.06.2022
729 Rain 31 1009 68 10000 3.58 198 05:55 24.06.2022
730 Clouds 28 1009 77 10000 0.51 0 01:36 24.06.2022
731 Clouds 27 1008 84 10000 0.51 0 22:45 23.06.2022
732 Clouds 27 1008 84 10000 0.51 0 22:18 23.06.2022
733 Clouds 27 1008 85 10000 1.03 0 20:54 23.06.2022
734 Clouds 27 1008 85 10000 1.03 0 20:32 23.06.2022
735 Clouds 28 1009 79 10000 1.03 0 18:49 23.06.2022
736 Clouds 28 1010 78 10000 2.06 140 17:50 23.06.2022
737 Clouds 28 1010 77 10000 2.06 110 16:42 23.06.2022
738 Clouds 29 1009 77 10000 2.06 110 15:43 23.06.2022
739 Clouds 29 1009 77 10000 2.06 110 15:23 23.06.2022
740 Clouds 30 1007 72 10000 2.57 0 12:43 23.06.2022
741 Clouds 31 1007 65 10000 2.24 7 11:20 23.06.2022
742 Rain 31 1007 73 10000 3.6 10 09:30 23.06.2022
743 Clouds 31 1008 66 10000 2.06 0 07:51 23.06.2022
744 Clouds 26 1010 84 9000 2.06 70 01:29 23.06.2022
745 Clouds 24 1009 92 10000 1.03 0 00:25 23.06.2022
746 Rain 24 1009 90 10000 2.06 40 23:23 22.06.2022
747 Rain 24 1010 91 8000 3.6 340 21:45 22.06.2022
748 Rain 24 1010 91 8000 3.6 340 21:45 22.06.2022
749 Rain 24 1010 93 7000 3.58 6 20:57 22.06.2022
750 Rain 24 1011 93 7000 2.06 310 20:20 22.06.2022
751 Rain 24 1012 93 7000 2.06 90 19:44 22.06.2022
752 Rain 27 1012 87 9000 1.03 0 17:50 22.06.2022
753 Rain 27 1011 87 9000 1.03 0 17:20 22.06.2022
754 Rain 28 1011 80 10000 2.06 230 15:46 22.06.2022
755 Rain 27 1010 83 10000 2.82 122 15:22 22.06.2022
756 Rain 29 1010 75 10000 2.57 60 13:50 22.06.2022
757 Rain 29 1010 75 10000 2.57 60 13:25 22.06.2022
758 Thunderstorm 28 1009 71 9000 2.57 20 12:37 22.06.2022
759 Thunderstorm 32 1009 65 10000 4.12 120 11:46 22.06.2022
760 Clouds 33 1007 69 10000 8.49 192 10:50 22.06.2022
761 Clouds 34 1011 56 10000 3.09 0 09:44 22.06.2022
762 Clouds 34 1008 59 10000 7.15 197 07:51 22.06.2022
763 Clouds 29 1009 75 9000 1.03 0 02:56 22.06.2022
764 Clouds 27 1009 81 10000 0.51 0 01:19 22.06.2022
765 Clouds 27 1008 81 10000 0.51 0 22:57 21.06.2022
766 Clouds 28 1007 83 10000 1.03 0 21:21 21.06.2022
767 Clouds 28 1009 80 10000 0.89 349 19:43 21.06.2022
768 Clouds 28 1009 78 10000 0.45 32 17:56 21.06.2022
769 Clouds 28 1009 77 10000 0 0 16:49 21.06.2022
770 Clouds 31 1006 70 10000 4.92 202 12:23 21.06.2022
771 Clouds 33 1005 64 10000 3.6 100 10:47 21.06.2022
772 Clouds 33 1005 63 10000 3.13 61 09:39 21.06.2022
773 Clouds 33 1005 63 10000 2.57 0 07:56 21.06.2022
774 Clouds 31 1007 69 10000 3.6 120 04:59 21.06.2022
775 Clouds 27 1006 82 10000 0.51 0 00:31 21.06.2022
776 Clouds 27 1005 82 10000 1.79 2 22:22 20.06.2022
777 Clouds 27 1005 81 10000 1.34 357 21:41 20.06.2022
778 Clouds 27 1005 81 10000 1.85 107 20:30 20.06.2022
779 Clouds 27 1006 80 10000 2.24 4 19:37 20.06.2022
780 Clouds 27 1007 83 10000 1.54 350 18:34 20.06.2022
781 Clouds 28 1007 83 10000 4.63 350 17:50 20.06.2022
782 Clouds 28 1007 81 10000 1.54 110 16:53 20.06.2022
783 Clouds 30 1007 75 10000 3.58 359 15:52 20.06.2022
784 Clouds 30 1004 72 10000 3.09 0 12:37 20.06.2022
785 Clouds 34 1004 60 10000 1.54 40 10:22 20.06.2022
786 Clouds 32 1005 70 10000 3.09 300 08:56 20.06.2022
787 Rain 31 1005 71 9000 3.6 310 07:53 20.06.2022
788 Clouds 31 1007 72 9000 3.09 280 05:26 20.06.2022
789 Clouds 29 1008 80 10000 1.54 230 01:33 20.06.2022
790 Clouds 26 1007 86 10000 1.03 0 00:19 20.06.2022
791 Clouds 27 1006 88 10000 2.24 356 22:43 19.06.2022
792 Clouds 27 1006 87 10000 1.54 180 21:48 19.06.2022
793 Clouds 27 1006 88 10000 1.54 180 21:29 19.06.2022
794 Clouds 27 1006 87 10000 0.51 0 20:30 19.06.2022
795 Clouds 27 1007 85 10000 0.51 0 19:47 19.06.2022
796 Clouds 27 1008 86 10000 1.54 70 18:43 19.06.2022
797 Clouds 28 1008 83 10000 2.57 10 17:48 19.06.2022
798 Clouds 28 1008 83 10000 2.57 10 17:21 19.06.2022
799 Clouds 27 1008 86 10000 1.54 80 16:34 19.06.2022
800 Clouds 28 1008 84 10000 0.51 0 15:38 19.06.2022
801 Clouds 27 1008 86 10000 1.54 90 14:55 19.06.2022
802 Clouds 27 1007 82 10000 1.03 0 13:58 19.06.2022
803 Clouds 26 1008 89 10000 2.06 90 12:56 19.06.2022
804 Thunderstorm 30 1007 74 5000 5.66 50 10:54 19.06.2022
805 Rain 33 1005 68 10000 5.14 300 09:40 19.06.2022
806 Rain 34 1005 64 10000 5.14 270 08:47 19.06.2022
807 Clouds 35 1006 60 10000 3.09 0 07:51 19.06.2022
808 Clouds 33 1009 65 10000 3.09 90 04:45 19.06.2022
809 Clouds 30 1008 74 10000 1.03 0 01:29 19.06.2022
810 Clouds 27 1008 83 10000 0 0 00:24 19.06.2022
811 Clouds 27 1008 85 10000 1.54 220 23:35 18.06.2022
812 Clouds 27 1008 85 10000 0 0 22:36 18.06.2022
813 Clouds 28 1008 82 10000 1.03 0 20:56 18.06.2022
814 Clouds 28 1008 83 10000 1.03 0 20:28 18.06.2022
815 Clouds 27 1008 85 10000 2.06 70 19:37 18.06.2022
816 Clouds 28 1009 82 10000 1.03 0 18:45 18.06.2022
817 Clouds 28 1009 82 10000 1.03 0 17:31 18.06.2022
818 Clouds 29 1009 76 10000 1.03 0 16:47 18.06.2022
819 Clouds 28 1009 77 10000 2.06 160 15:30 18.06.2022
820 Clouds 29 1009 78 10000 1.03 0 14:42 18.06.2022
821 Clouds 30 1008 75 10000 1.54 270 13:22 18.06.2022
822 Clouds 31 1007 66 10000 1.54 0 11:38 18.06.2022
823 Rain 31 1007 69 10000 2.57 360 10:46 18.06.2022
824 Clouds 30 1008 72 10000 4.12 60 09:20 18.06.2022
825 Rain 33 1008 65 10000 2.57 90 08:19 18.06.2022
826 Rain 33 1008 65 10000 2.57 90 08:19 18.06.2022
827 Clouds 35 1008 57 10000 3.09 130 06:44 18.06.2022
828 Clouds 32 1010 68 10000 4.12 0 03:24 18.06.2022
829 Clouds 30 1009 70 10000 2.57 80 01:24 18.06.2022
830 Clouds 29 1008 71 10000 2.57 90 00:45 18.06.2022
831 Clouds 29 1008 76 10000 3.6 110 23:52 17.06.2022
832 Clouds 29 1008 76 10000 3.6 110 23:52 17.06.2022
833 Clouds 29 1008 74 10000 3.6 110 23:19 17.06.2022
834 Clouds 29 1007 75 10000 1.54 70 20:42 17.06.2022
835 Clouds 29 1008 77 10000 2.06 70 19:30 17.06.2022
836 Clouds 30 1008 74 10000 1.54 110 18:34 17.06.2022
837 Clouds 30 1009 74 10000 1.79 3 17:34 17.06.2022
838 Clouds 31 1009 72 10000 3.09 120 16:42 17.06.2022
839 Clouds 31 1008 74 10000 4.12 130 15:42 17.06.2022
840 Clouds 32 1007 69 10000 2.06 140 14:50 17.06.2022
841 Clouds 32 1007 68 10000 2.06 140 14:19 17.06.2022
842 Clouds 32 1007 65 10000 2.06 120 13:44 17.06.2022
843 Clouds 33 1006 61 10000 2.57 140 12:45 17.06.2022
844 Clouds 34 1005 59 10000 2.57 0 11:56 17.06.2022
845 Clouds 34 1005 59 10000 2.57 0 11:35 17.06.2022
846 Clouds 35 1005 59 10000 3.09 0 10:48 17.06.2022
847 Clouds 35 1005 59 10000 3.09 0 10:48 17.06.2022
848 Clouds 35 1007 55 10000 3.58 350 08:29 17.06.2022
849 Clouds 34 1008 57 10000 5.36 222 06:58 17.06.2022
850 Clouds 33 1009 61 10000 3.13 241 05:35 17.06.2022
851 Clouds 31 1010 65 10000 1.34 15 02:42 17.06.2022
852 Clouds 28 1010 80 10000 2.24 349 00:36 17.06.2022
853 Clouds 27 1009 82 10000 2.06 60 22:44 16.06.2022
854 Clouds 27 1008 83 10000 2.06 70 21:36 16.06.2022
855 Clouds 27 1008 82 10000 2.06 70 21:18 16.06.2022
856 Clouds 28 1009 78 10000 2.06 80 20:36 16.06.2022
857 Clouds 28 1009 78 10000 1.54 80 19:55 16.06.2022
858 Clouds 29 1009 76 10000 1.54 120 18:28 16.06.2022
859 Clouds 29 1009 76 10000 2.57 110 17:43 16.06.2022
860 Clouds 30 1009 74 10000 2.06 110 16:39 16.06.2022
861 Clouds 30 1009 71 10000 3.09 130 15:24 16.06.2022
862 Clouds 30 1008 71 10000 3.6 120 14:46 16.06.2022
863 Clouds 31 1008 72 10000 3.09 130 13:34 16.06.2022
864 Rain 31 1007 69 10000 3.6 120 12:37 16.06.2022
865 Rain 32 1007 68 10000 3.09 0 11:52 16.06.2022
866 Clouds 33 1007 68 10000 4.12 140 10:56 16.06.2022
867 Rain 33 1007 67 10000 4.12 140 10:27 16.06.2022
868 Clouds 33 1007 67 9000 4.12 0 09:21 16.06.2022
869 Clouds 34 1008 62 9000 3.58 221 08:30 16.06.2022
870 Clouds 34 1008 63 9000 3.09 290 07:26 16.06.2022
871 Clouds 32 1011 70 9000 3.09 290 04:50 16.06.2022
872 Clouds 30 1010 75 9000 2.57 10 02:21 16.06.2022
873 Clouds 28 1010 80 9000 3.09 360 01:42 16.06.2022
874 Clouds 28 1010 82 9000 3.09 360 01:21 16.06.2022
875 Clouds 28 1010 82 9000 3.09 360 01:21 16.06.2022
876 Clouds 27 1010 87 9000 1.79 25 23:47 15.06.2022
877 Clouds 27 1010 87 9000 1.79 25 23:47 15.06.2022
878 Rain 27 1010 86 9000 1.03 0 22:38 15.06.2022
879 Rain 27 1009 86 9000 1.34 9 21:22 15.06.2022
880 Clouds 27 1009 85 9000 1.54 100 20:44 15.06.2022
881 Clouds 27 1009 85 9000 1.54 100 20:44 15.06.2022
882 Rain 28 1009 85 9000 1.54 100 20:25 15.06.2022
883 Clouds 28 1010 85 9000 1.03 280 19:29 15.06.2022
884 Clouds 28 1011 85 9000 1.54 220 17:56 15.06.2022
885 Clouds 28 1011 85 9000 1.54 220 17:25 15.06.2022
886 Clouds 28 1010 82 10000 0.51 240 15:38 15.06.2022
887 Clouds 29 1009 80 10000 1.03 0 14:23 15.06.2022
888 Clouds 29 1009 78 10000 2.57 80 12:54 15.06.2022
889 Clouds 30 1009 74 10000 2.06 50 11:58 15.06.2022
890 Thunderstorm 30 1009 75 9000 4.12 40 10:24 15.06.2022
891 Thunderstorm 30 1009 75 9000 4.12 40 10:24 15.06.2022
892 Rain 31 1009 75 9000 2.57 150 09:43 15.06.2022
893 Clouds 32 1008 68 10000 5.36 330 08:40 15.06.2022
894 Rain 33 1010 66 10000 2.57 330 06:36 15.06.2022
895 Rain 32 1010 68 10000 2.57 100 04:46 15.06.2022
896 Clouds 29 1009 78 8000 1.34 152 01:55 15.06.2022
897 Clouds 27 1009 86 8000 0.89 310 00:51 15.06.2022
898 Clouds 27 1009 90 9000 0.45 41 23:39 14.06.2022
899 Clouds 27 1009 89 9000 0.45 20 23:21 14.06.2022
900 Clouds 27 1009 89 9000 0.51 0 22:23 14.06.2022
901 Clouds 27 1009 89 9000 0.51 0 22:23 14.06.2022
902 Clouds 27 1009 89 9000 0 0 21:38 14.06.2022
903 Clouds 27 1009 89 9000 0 0 20:56 14.06.2022
904 Clouds 26 1009 89 9000 0.45 11 20:31 14.06.2022
905 Clouds 26 1010 89 9000 1.34 353 19:20 14.06.2022
906 Clouds 27 1010 87 9000 1.03 0 18:20 14.06.2022
907 Thunderstorm 28 1011 83 8000 1.54 110 16:47 14.06.2022
908 Clouds 27 1011 85 8000 1.54 110 15:50 14.06.2022
909 Clouds 28 1011 83 9000 2.06 70 15:28 14.06.2022
910 Clouds 27 1010 83 9000 1.54 80 14:37 14.06.2022
911 Thunderstorm 27 1009 79 9000 2.68 77 13:46 14.06.2022
912 Rain 27 1009 84 7000 2.57 70 12:45 14.06.2022
913 Clouds 29 1008 76 7000 3.09 240 11:38 14.06.2022
914 Thunderstorm 31 1008 68 9000 4.12 250 10:48 14.06.2022
915 Thunderstorm 30 1007 74 9000 4.12 250 10:20 14.06.2022
916 Clouds 32 1007 64 10000 3.6 130 08:48 14.06.2022
917 Clouds 35 1008 58 10000 2.57 0 07:34 14.06.2022
918 Clouds 33 1009 60 10000 4.47 340 05:28 14.06.2022
919 Clouds 31 1009 69 9000 2.06 90 02:58 14.06.2022
920 Clouds 27 1009 85 7000 0.51 0 00:53 14.06.2022
921 Clouds 27 1008 88 9000 1.03 60 23:39 13.06.2022
922 Clouds 27 1008 87 9000 1.03 0 22:26 13.06.2022
923 Clouds 27 1008 87 8000 1.03 0 21:50 13.06.2022
924 Clouds 26 1008 88 10000 0.51 0 20:42 13.06.2022
925 Thunderstorm 27 1009 85 8000 4.63 60 19:35 13.06.2022
926 Rain 27 1009 85 9000 1.03 0 18:28 13.06.2022
927 Clouds 28 1009 84 9000 1.54 180 17:47 13.06.2022
928 Clouds 29 1009 84 10000 2.06 220 16:52 13.06.2022
929 Clouds 30 1009 80 10000 3.58 350 15:39 13.06.2022
930 Thunderstorm 30 1008 79 10000 4.92 219 14:47 13.06.2022
931 Rain 30 1007 81 10000 4.63 260 13:54 13.06.2022
932 Clouds 31 1007 76 10000 5.66 260 12:49 13.06.2022
933 Clouds 31 1006 73 10000 7.2 260 11:34 13.06.2022
934 Clouds 33 1006 68 10000 10.28 214 10:27 13.06.2022
935 Clouds 33 1006 65 10000 8.05 231 09:39 13.06.2022
936 Clouds 34 1006 61 10000 7.6 221 07:53 13.06.2022
937 Clouds 34 1008 63 10000 3.09 120 06:28 13.06.2022
938 Clouds 31 1009 73 10000 2.57 110 03:18 13.06.2022
939 Clouds 30 1008 79 10000 1.54 70 01:38 13.06.2022
940 Clouds 28 1007 87 10000 0.51 0 00:22 13.06.2022
941 Clouds 27 1008 89 10000 0.51 0 23:29 12.06.2022
942 Clouds 27 1008 89 10000 1.03 0 22:23 12.06.2022
943 Clouds 28 1007 88 9000 1.6 74 21:28 12.06.2022
944 Clouds 27 1008 88 9000 2.06 320 20:34 12.06.2022
945 Clouds 27 1008 88 9000 1.54 260 19:36 12.06.2022
946 Clouds 28 1009 87 10000 1.79 14 18:39 12.06.2022
947 Clouds 29 1009 85 9000 1.03 0 16:42 12.06.2022
948 Clouds 29 1008 88 9000 1.54 240 15:24 12.06.2022
949 Thunderstorm 29 1008 85 7000 4.63 280 14:31 12.06.2022
950 Thunderstorm 29 1007 84 7000 2.06 260 13:55 12.06.2022
951 Clouds 29 1007 80 9000 2.68 198 12:46 12.06.2022
952 Rain 32 1006 70 9000 4.12 270 11:40 12.06.2022
953 Clouds 32 1006 66 9000 3.6 280 10:45 12.06.2022
954 Clouds 33 1006 66 9000 4.12 260 09:25 12.06.2022
955 Clouds 32 1007 70 10000 4.12 280 08:46 12.06.2022
956 Clouds 32 1008 72 10000 2.24 346 07:38 12.06.2022
957 Rain 30 1009 77 9000 3.58 210 05:29 12.06.2022
958 Clouds 31 1009 74 10000 2.68 202 03:29 12.06.2022
959 Clouds 30 1010 78 10000 1.54 230 01:43 12.06.2022
960 Clouds 28 1009 83 10000 1.79 15 00:58 12.06.2022
961 Clouds 28 1009 85 10000 1.54 230 00:25 12.06.2022
962 Clouds 28 1009 86 10000 2.57 260 23:44 11.06.2022
963 Clouds 28 1009 86 10000 2.06 250 22:39 11.06.2022
964 Clouds 28 1009 86 10000 2.06 250 22:18 11.06.2022
965 Clouds 28 1008 83 10000 1.34 355 20:38 11.06.2022
966 Clouds 29 1008 80 10000 1.03 0 19:59 11.06.2022
967 Clouds 29 1008 81 10000 2.68 343 19:26 11.06.2022
968 Rain 29 1009 82 10000 1.54 200 18:34 11.06.2022
969 Rain 29 1009 80 10000 2.57 180 17:51 11.06.2022
970 Clouds 29 1009 79 10000 2.57 180 17:28 11.06.2022
971 Clouds 30 1009 77 10000 1.54 210 16:56 11.06.2022
972 Clouds 30 1009 75 10000 1.54 210 16:29 11.06.2022
973 Clouds 30 1008 77 10000 2.06 260 15:42 11.06.2022
974 Clouds 30 1007 74 10000 2.06 280 13:53 11.06.2022
975 Clouds 31 1007 69 10000 3.09 310 12:51 11.06.2022
976 Clouds 33 1008 68 10000 4.12 280 10:54 11.06.2022
977 Clouds 34 1008 63 10000 1.54 0 09:55 11.06.2022
978 Clouds 34 1008 59 10000 1.54 0 09:19 11.06.2022
979 Clouds 35 1007 56 10000 2.57 120 07:41 11.06.2022
980 Clouds 34 1008 55 10000 2.57 0 06:30 11.06.2022
981 Clouds 32 1009 62 10000 2.57 0 04:49 11.06.2022
982 Clouds 31 1009 69 10000 2.24 188 01:53 11.06.2022
983 Clouds 30 1009 69 10000 1.54 80 01:33 11.06.2022
984 Clouds 28 1009 77 10000 1.54 50 00:20 11.06.2022
985 Clouds 28 1008 77 10000 2.06 10 22:32 10.06.2022
986 Clouds 28 1008 78 10000 2.57 70 21:52 10.06.2022
987 Clouds 28 1008 78 10000 2.06 50 20:41 10.06.2022
988 Clouds 28 1008 77 10000 2.06 50 20:22 10.06.2022
989 Clouds 28 1008 78 10000 1.54 90 19:20 10.06.2022
990 Clouds 28 1009 77 10000 1.54 220 18:56 10.06.2022
991 Clouds 29 1010 75 10000 1.54 230 17:59 10.06.2022
992 Clouds 29 1010 74 10000 1.54 230 17:35 10.06.2022
993 Clouds 28 1009 75 10000 1.54 200 16:50 10.06.2022
994 Thunderstorm 30 1009 68 10000 4.47 185 15:44 10.06.2022
995 Clouds 32 1008 67 10000 2.57 90 14:51 10.06.2022
996 Clouds 31 1007 74 10000 3.09 270 13:26 10.06.2022
997 Clouds 32 1006 70 10000 2.57 250 12:21 10.06.2022
998 Clouds 33 1005 59 10000 2.06 0 11:30 10.06.2022
999 Clouds 35 1005 58 10000 3.58 167 10:36 10.06.2022
1000 Clouds 36 1005 51 10000 3.09 140 09:26 10.06.2022
1001 Clouds 34 1006 58 10000 3.09 0 07:57 10.06.2022
1002 Clouds 34 1007 60 10000 4.02 184 06:49 10.06.2022
1003 Clouds 34 1008 60 10000 2.57 0 06:30 10.06.2022
1004 Clouds 33 1008 63 10000 3.09 0 05:31 10.06.2022
1005 Clouds 31 1008 72 10000 1.54 110 02:46 10.06.2022
1006 Clouds 30 1008 75 10000 1.54 230 01:37 10.06.2022
1007 Clouds 28 1007 81 10000 1.03 0 23:58 09.06.2022
1008 Rain 28 1006 80 10000 1.03 0 22:43 09.06.2022
1009 Clouds 28 1006 81 10000 2.06 70 21:43 09.06.2022
1010 Clouds 28 1006 82 10000 2.06 70 21:24 09.06.2022
1011 Clouds 28 1007 79 10000 2.06 130 20:38 09.06.2022
1012 Clouds 29 1007 78 10000 1.54 0 19:46 09.06.2022
1013 Clouds 30 1007 74 10000 2.57 120 18:37 09.06.2022
1014 Clouds 30 1008 73 10000 2.06 130 17:33 09.06.2022
1015 Clouds 30 1008 72 10000 1.54 130 16:28 09.06.2022
1016 Clouds 31 1008 70 10000 2.57 110 14:52 09.06.2022
1017 Clouds 31 1008 69 10000 2.57 110 14:27 09.06.2022
1018 Clouds 31 1007 67 10000 2.06 120 13:30 09.06.2022
1019 Clouds 31 1007 67 10000 2.06 120 13:30 09.06.2022
1020 Clouds 32 1006 65 10000 3.09 110 12:55 09.06.2022
1021 Clouds 32 1006 64 10000 3.09 100 11:33 09.06.2022
1022 Clouds 34 1005 59 10000 4.63 110 09:55 09.06.2022
1023 Clouds 34 1005 58 10000 4.63 110 09:55 09.06.2022
1024 Clouds 34 1005 59 10000 5.81 202 09:37 09.06.2022
1025 Clouds 34 1006 60 10000 4.12 130 08:33 09.06.2022
1026 Clouds 33 1007 61 10000 5.36 340 07:29 09.06.2022
1027 Clouds 32 1008 72 10000 6.26 331 03:31 09.06.2022
1028 Clouds 27 1008 87 6000 0 0 00:34 09.06.2022
1029 Clouds 28 1007 87 9000 0.51 0 23:18 08.06.2022
1030 Clouds 28 1007 85 9000 0.51 90 22:42 08.06.2022
1031 Clouds 28 1007 84 9000 0.51 90 22:23 08.06.2022
1032 Clouds 27 1007 86 9000 0.51 0 21:32 08.06.2022
1033 Clouds 28 1007 84 9000 0.51 0 20:25 08.06.2022
1034 Clouds 28 1008 86 9000 1.79 328 19:41 08.06.2022
1035 Clouds 27 1009 86 9000 0.51 0 18:48 08.06.2022
1036 Clouds 28 1009 86 10000 1.03 0 17:38 08.06.2022
1037 Clouds 28 1009 85 10000 1.03 0 15:53 08.06.2022
1038 Clouds 28 1008 83 10000 1.03 0 14:31 08.06.2022
1039 Rain 29 1007 82 10000 1.54 90 12:55 08.06.2022
1040 Thunderstorm 29 1007 78 7000 3.09 110 11:36 08.06.2022
1041 Clouds 30 1006 76 9000 5.66 270 10:46 08.06.2022
1042 Rain 32 1006 68 9000 6.17 270 09:28 08.06.2022
1043 Clouds 33 1006 65 10000 5.66 270 08:52 08.06.2022
1044 Clouds 33 1007 69 8000 6.71 341 06:56 08.06.2022
1045 Clouds 31 1009 78 10000 3.6 300 04:41 08.06.2022
1046 Clouds 28 1009 84 10000 0 0 00:58 08.06.2022
1047 Rain 28 1008 85 10000 1.03 0 23:32 07.06.2022
1048 Rain 27 1008 86 10000 1.03 0 22:51 07.06.2022
1049 Rain 27 1008 86 10000 1.03 0 22:33 07.06.2022
1050 Clouds 27 1008 87 10000 1.54 50 21:37 07.06.2022
1051 Clouds 27 1008 88 10000 1.54 50 21:18 07.06.2022
1052 Clouds 26 1008 90 10000 2.06 20 20:37 07.06.2022
1053 Rain 26 1008 87 10000 4.12 340 19:49 07.06.2022
1054 Thunderstorm 27 1009 85 10000 3.58 8 18:25 07.06.2022
1055 Clouds 29 1009 80 10000 2.68 7 17:31 07.06.2022
1056 Clouds 29 1009 80 10000 2.06 220 16:44 07.06.2022
1057 Clouds 29 1008 81 10000 2.57 230 15:58 07.06.2022
1058 Clouds 29 1008 81 10000 3.58 220 15:30 07.06.2022
1059 Clouds 30 1007 78 10000 4.02 194 14:56 07.06.2022
1060 Clouds 30 1007 77 10000 7.6 209 14:38 07.06.2022
1061 Clouds 30 1007 76 10000 6.17 260 13:33 07.06.2022
1062 Rain 30 1006 76 10000 6.71 212 12:54 07.06.2022
1063 Clouds 30 1005 75 10000 8.49 183 11:49 07.06.2022
1064 Clouds 32 1005 67 10000 7.2 260 10:27 07.06.2022
1065 Clouds 33 1005 68 10000 10.28 220 08:53 07.06.2022
1066 Clouds 33 1006 65 10000 4.12 300 07:47 07.06.2022
1067 Clouds 32 1007 71 10000 3.6 300 06:39 07.06.2022
1068 Rain 29 1008 80 8000 2.06 0 04:39 07.06.2022
1069 Clouds 30 1007 74 10000 0.51 0 01:27 07.06.2022
1070 Clouds 28 1007 83 10000 0 0 23:52 06.06.2022
1071 Clouds 28 1006 83 10000 2.06 270 22:54 06.06.2022
1072 Clouds 28 1006 82 10000 2.06 270 22:29 06.06.2022
1073 Clouds 29 1006 78 10000 1.03 0 20:47 06.06.2022
1074 Clouds 28 1007 79 10000 1.54 80 19:28 06.06.2022
1075 Clouds 28 1007 79 10000 1.03 0 18:49 06.06.2022
1076 Clouds 28 1007 79 10000 1.03 0 18:21 06.06.2022
1077 Clouds 28 1007 82 10000 0.89 55 17:24 06.06.2022
1078 Clouds 29 1008 82 10000 3.13 223 16:18 06.06.2022
1079 Clouds 30 1007 75 10000 1.71 273 15:23 06.06.2022
1080 Clouds 30 1007 73 10000 1.54 220 14:29 06.06.2022
1081 Rain 30 1005 73 10000 3.09 230 13:21 06.06.2022
1082 Rain 30 1005 75 10000 3.6 250 12:35 06.06.2022
1083 Rain 31 1005 73 10000 6.69 250 11:50 06.06.2022
1084 Rain 32 1005 67 10000 6.17 250 10:21 06.06.2022
1085 Clouds 33 1004 63 10000 6.69 260 09:24 06.06.2022
1086 Clouds 33 1004 68 10000 1.79 211 08:31 06.06.2022
1087 Clouds 32 1005 70 10000 7.6 170 07:28 06.06.2022
1088 Clouds 32 1007 68 10000 4.02 216 04:42 06.06.2022
1089 Clouds 31 1006 74 10000 1.79 224 02:27 06.06.2022
1090 Clouds 29 1006 80 10000 1.03 0 00:57 06.06.2022
1091 Clouds 28 1006 82 10000 1.03 0 00:35 06.06.2022
1092 Clouds 28 1006 83 10000 0.51 0 23:28 05.06.2022
1093 Clouds 28 1007 83 10000 1.03 0 22:33 05.06.2022
1094 Clouds 28 1007 82 10000 1.03 0 20:34 05.06.2022
1095 Clouds 29 1007 82 10000 1.54 160 19:26 05.06.2022
1096 Clouds 29 1007 80 10000 1.54 170 18:26 05.06.2022
1097 Clouds 29 1008 80 10000 1.54 190 17:46 05.06.2022
1098 Clouds 29 1008 79 10000 1.54 190 17:22 05.06.2022
1099 Clouds 29 1008 81 10000 1.54 210 16:48 05.06.2022
1100 Clouds 29 1008 79 10000 1.54 240 15:47 05.06.2022
1101 Clouds 30 1007 76 10000 3.58 210 14:21 05.06.2022
1102 Clouds 30 1007 76 10000 3.58 210 14:21 05.06.2022
1103 Clouds 30 1006 78 10000 5.14 250 12:34 05.06.2022
1104 Clouds 30 1006 78 10000 5.66 240 11:30 05.06.2022
1105 Clouds 32 1005 71 10000 7.2 270 10:24 05.06.2022
1106 Clouds 32 1005 69 10000 6.69 260 09:44 05.06.2022
1107 Clouds 34 1006 64 10000 9.83 218 08:25 05.06.2022
1108 Clouds 34 1006 64 10000 9.83 218 08:25 05.06.2022
1109 Clouds 34 1007 57 10000 2.06 0 06:47 05.06.2022
1110 Clouds 33 1008 62 10000 2.06 0 05:20 05.06.2022
1111 Clouds 31 1008 74 9000 2.06 170 02:57 05.06.2022
1112 Clouds 30 1008 79 10000 1.54 170 01:24 05.06.2022
1113 Clouds 30 1008 79 10000 1.54 170 01:24 05.06.2022
1114 Clouds 28 1007 84 9000 1.03 0 23:43 04.06.2022
1115 Clouds 28 1007 78 9000 0.51 0 21:31 04.06.2022
1116 Clouds 29 1008 72 10000 1.03 100 19:46 04.06.2022
1117 Clouds 28 1009 71 10000 1.54 80 17:28 04.06.2022
1118 Clouds 29 1010 74 10000 1.03 0 16:22 04.06.2022
1119 Clouds 29 1009 74 10000 0.51 0 15:51 04.06.2022
1120 Clouds 30 1008 71 10000 3.09 220 14:22 04.06.2022
1121 Clouds 31 1006 69 10000 6.17 260 11:45 04.06.2022
1122 Clouds 32 1006 66 10000 7.2 260 10:55 04.06.2022
1123 Clouds 33 1006 66 10000 7.2 260 10:19 04.06.2022
1124 Clouds 33 1006 65 10000 6.17 260 09:39 04.06.2022
1125 Clouds 34 1007 66 10000 9.83 216 08:39 04.06.2022
1126 Clouds 34 1008 64 10000 5.14 270 07:18 04.06.2022
1127 Clouds 32 1010 69 10000 1.34 231 04:33 04.06.2022
1128 Clouds 28 1009 82 10000 0.51 0 00:37 04.06.2022
1129 Clouds 28 1009 86 10000 0 0 23:28 03.06.2022
1130 Clouds 28 1009 84 10000 1.03 0 22:20 03.06.2022
1131 Clouds 28 1009 82 10000 1.54 220 20:42 03.06.2022
1132 Clouds 28 1009 82 10000 1.54 220 20:42 03.06.2022
1133 Clouds 28 1009 82 10000 1.54 220 20:18 03.06.2022
1134 Clouds 29 1010 79 10000 1.03 0 17:31 03.06.2022
1135 Clouds 29 1010 77 10000 1.34 188 16:34 03.06.2022
1136 Clouds 30 1008 78 10000 3.6 250 14:52 03.06.2022
1137 Clouds 31 1007 73 10000 5.66 260 12:28 03.06.2022
1138 Clouds 33 1007 64 10000 5.66 260 10:18 03.06.2022
1139 Clouds 33 1007 66 10000 6.71 214 09:30 03.06.2022
1140 Clouds 33 1008 61 10000 7.15 196 07:53 03.06.2022
1141 Clouds 33 1008 60 10000 4.63 290 07:20 03.06.2022
1142 Clouds 33 1008 64 10000 4.63 300 06:30 03.06.2022
1143 Clouds 32 1009 70 10000 4.12 260 04:40 03.06.2022
1144 Clouds 28 1009 85 10000 0.51 0 00:22 03.06.2022
1145 Clouds 28 1008 87 10000 0.51 0 22:35 02.06.2022
1146 Clouds 28 1008 87 10000 1.03 0 21:29 02.06.2022
1147 Clouds 28 1008 84 10000 1.87 223 20:00 02.06.2022
1148 Clouds 28 1009 83 10000 1.54 190 19:41 02.06.2022
1149 Clouds 28 1009 83 10000 1.54 190 19:18 02.06.2022
1150 Clouds 29 1009 80 10000 2.06 230 16:30 02.06.2022
1151 Clouds 29 1008 80 10000 3.58 223 15:58 02.06.2022
1152 Clouds 30 1007 77 10000 5.66 250 13:38 02.06.2022
1153 Clouds 30 1007 77 10000 5.81 216 13:20 02.06.2022
1154 Clouds 31 1007 72 10000 7.6 215 11:18 02.06.2022
1155 Clouds 32 1007 69 10000 9.83 217 10:19 02.06.2022
1156 Thunderstorm 32 1007 67 10000 6.71 225 09:27 02.06.2022
1157 Clouds 32 1007 68 10000 8.49 230 08:24 02.06.2022
1158 Clouds 32 1008 69 10000 4.12 280 06:26 02.06.2022
1159 Clouds 32 1008 68 10000 2.06 0 03:54 02.06.2022
1160 Clouds 30 1008 75 10000 1.54 0 02:22 02.06.2022
1161 Clouds 26 1008 94 9000 0 0 23:36 01.06.2022
1162 Clouds 26 1007 94 9000 0.51 0 22:18 01.06.2022
1163 Clouds 26 1007 92 9000 0 0 21:26 01.06.2022
1164 Clouds 26 1007 94 9000 0.51 0 20:39 01.06.2022
1165 Clouds 26 1007 94 9000 0.51 0 19:52 01.06.2022
1166 Clouds 26 1007 92 10000 0.51 0 18:52 01.06.2022
1167 Clouds 27 1008 92 10000 0.51 0 17:38 01.06.2022
1168 Clouds 27 1008 91 10000 1.03 0 16:22 01.06.2022
1169 Clouds 27 1007 91 10000 0.51 0 14:50 01.06.2022
1170 Rain 27 1007 90 10000 2.57 260 13:39 01.06.2022
1171 Rain 27 1006 94 10000 2.06 230 11:32 01.06.2022
1172 Rain 26 1008 94 9000 2.06 60 09:34 01.06.2022
1173 Rain 25 1009 94 8000 1.03 0 08:28 01.06.2022
1174 Thunderstorm 27 1009 94 8000 3.6 190 07:20 01.06.2022
1175 Rain 30 1008 72 10000 2.57 80 04:58 01.06.2022
1176 Clouds 27 1007 88 10000 1.03 0 23:56 31.05.2022
1177 Clouds 27 1006 85 10000 1.03 120 22:43 31.05.2022
1178 Clouds 27 1006 85 10000 1.03 120 22:25 31.05.2022
1179 Clouds 27 1007 85 10000 0.51 0 21:44 31.05.2022
1180 Clouds 27 1007 85 9000 1.54 110 20:44 31.05.2022
1181 Clouds 27 1007 85 9000 1.54 110 20:44 31.05.2022
1182 Clouds 27 1007 85 9000 1.54 110 20:44 31.05.2022
1183 Rain 28 1008 82 9000 0.51 0 19:46 31.05.2022
1184 Rain 29 1008 77 10000 2.06 120 18:33 31.05.2022
1185 Rain 29 1008 76 10000 2.06 100 17:46 31.05.2022
1186 Rain 29 1008 75 10000 2.06 130 16:21 31.05.2022
1187 Clouds 29 1008 74 10000 2.06 100 15:37 31.05.2022
1188 Clouds 30 1007 71 10000 2.06 0 13:22 31.05.2022
1189 Clouds 30 1006 73 10000 3.09 0 12:19 31.05.2022
1190 Clouds 32 1006 69 10000 2.68 13 10:34 31.05.2022
1191 Clouds 31 1006 69 10000 2.57 80 08:35 31.05.2022
1192 Clouds 30 1008 90 9000 2.06 260 06:38 31.05.2022
1193 Clouds 31 1009 72 10000 3.6 270 04:34 31.05.2022
1194 Clouds 26 1008 86 10000 1.03 80 23:46 30.05.2022
1195 Clouds 26 1008 86 10000 1.03 80 23:24 30.05.2022
1196 Rain 26 1007 87 10000 1.03 0 22:42 30.05.2022
1197 Clouds 26 1008 88 10000 1.03 0 21:40 30.05.2022
1198 Clouds 26 1008 91 8000 1.54 100 20:52 30.05.2022
1199 Rain 28 1009 85 8000 2.24 330 19:44 30.05.2022
1200 Clouds 29 1009 79 10000 1.03 0 18:18 30.05.2022
1201 Clouds 29 1009 80 10000 1.54 210 17:23 30.05.2022
1202 Clouds 30 1009 79 10000 1.54 220 16:22 30.05.2022
1203 Clouds 30 1006 76 10000 5.81 196 13:32 30.05.2022
1204 Clouds 31 1006 70 10000 3.13 218 11:40 30.05.2022
1205 Rain 33 1005 62 10000 2.57 130 09:52 30.05.2022
1206 Clouds 35 1006 56 10000 3.09 0 07:51 30.05.2022
1207 Clouds 33 1007 61 10000 2.57 0 06:26 30.05.2022
1208 Clouds 32 1008 65 10000 3.58 293 04:52 30.05.2022
1209 Clouds 28 1008 85 10000 1.03 0 00:43 30.05.2022
1210 Clouds 27 1008 85 10000 1.03 0 22:41 29.05.2022
1211 Clouds 27 1008 87 10000 1.54 190 21:46 29.05.2022
1212 Clouds 28 1008 82 10000 1.79 218 20:23 29.05.2022
1213 Clouds 28 1008 80 10000 0 0 19:29 29.05.2022
1214 Clouds 28 1009 78 10000 0.51 0 17:57 29.05.2022
1215 Clouds 28 1009 79 10000 0.51 0 16:22 29.05.2022
1216 Rain 28 1009 81 10000 1.54 200 15:43 29.05.2022
1217 Rain 29 1009 82 10000 6.17 250 14:54 29.05.2022
1218 Clouds 30 1007 74 10000 6.69 260 12:33 29.05.2022
1219 Clouds 31 1006 70 10000 8.49 219 11:20 29.05.2022
1220 Clouds 32 1005 68 10000 6.69 270 10:29 29.05.2022
1221 Clouds 32 1007 64 10000 11.18 204 07:59 29.05.2022
1222 Clouds 31 1008 70 10000 6.26 212 04:58 29.05.2022
1223 Clouds 31 1008 68 10000 4.02 215 04:33 29.05.2022
1224 Clouds 28 1008 85 10000 1.34 197 01:28 29.05.2022
1225 Clouds 26 1008 90 9000 1.03 0 23:48 28.05.2022
1226 Clouds 26 1007 90 9000 1.03 0 23:19 28.05.2022
1227 Clouds 27 1007 90 9000 0.51 0 21:53 28.05.2022
1228 Clouds 27 1008 90 9000 1.54 80 20:53 28.05.2022
1229 Clouds 27 1008 93 10000 1.03 90 19:20 28.05.2022
1230 Clouds 27 1009 90 10000 1.03 0 18:24 28.05.2022
1231 Clouds 27 1010 90 10000 1.03 0 17:33 28.05.2022
1232 Clouds 27 1010 93 10000 1.03 0 15:50 28.05.2022
1233 Clouds 27 1010 93 10000 1.03 0 15:20 28.05.2022
1234 Clouds 28 1008 87 10000 0 0 13:36 28.05.2022
1235 Rain 28 1007 85 9000 2.57 220 12:42 28.05.2022
1236 Rain 28 1007 82 9000 4.02 211 11:37 28.05.2022
1237 Rain 28 1006 81 9000 2.24 208 10:38 28.05.2022
1238 Thunderstorm 28 1007 83 7000 3.58 201 09:54 28.05.2022
1239 Rain 29 1007 78 10000 4.12 270 08:24 28.05.2022
1240 Rain 29 1007 77 10000 3.58 191 06:34 28.05.2022
1241 Rain 26 1009 88 9000 5.14 60 04:46 28.05.2022
1242 Rain 29 1008 80 10000 2.06 220 02:18 28.05.2022
1243 Clouds 27 1007 86 9000 3.6 30 23:55 27.05.2022
1244 Rain 27 1006 87 9000 5.14 40 22:38 27.05.2022
1245 Clouds 28 1006 84 10000 1.79 12 21:22 27.05.2022
1246 Clouds 28 1007 84 10000 1.03 0 20:43 27.05.2022
1247 Clouds 28 1007 84 10000 1.03 0 20:18 27.05.2022
1248 Clouds 28 1007 83 10000 1.79 2 19:37 27.05.2022
1249 Clouds 28 1007 83 10000 1.03 0 19:19 27.05.2022
1250 Clouds 28 1008 80 10000 2.06 70 16:53 27.05.2022
1251 Rain 28 1008 79 10000 3.09 70 15:55 27.05.2022
1252 Clouds 28 1007 80 10000 1.54 90 14:47 27.05.2022
1253 Clouds 28 1007 78 10000 2.06 110 13:40 27.05.2022
1254 Rain 28 1005 77 9000 3.09 210 11:53 27.05.2022
1255 Clouds 28 1006 78 9000 3.09 210 11:27 27.05.2022
1256 Clouds 31 1005 69 10000 9.83 214 10:37 27.05.2022
1257 Clouds 35 1004 59 10000 7.15 199 09:52 27.05.2022
1258 Clouds 35 1004 57 10000 3.09 0 09:28 27.05.2022
1259 Clouds 35 1006 53 10000 3.6 110 06:58 27.05.2022
1260 Clouds 31 1008 73 10000 1.54 0 02:59 27.05.2022
1261 Clouds 28 1007 81 10000 1.54 100 00:57 27.05.2022
1262 Clouds 27 1006 89 10000 2.06 70 23:23 26.05.2022
1263 Clouds 27 1006 86 10000 1.03 0 21:48 26.05.2022
1264 Clouds 28 1006 85 10000 1.54 100 20:59 26.05.2022
1265 Clouds 27 1007 85 10000 1.03 0 19:30 26.05.2022
1266 Clouds 27 1008 84 10000 2.24 70 18:24 26.05.2022
1267 Clouds 27 1009 83 10000 3.09 60 16:59 26.05.2022
1268 Clouds 27 1009 87 10000 2.06 50 15:52 26.05.2022
1269 Rain 26 1008 89 10000 2.06 50 15:18 26.05.2022
1270 Thunderstorm 30 1006 78 10000 4.12 240 13:45 26.05.2022
1271 Clouds 32 1004 69 10000 5.14 260 11:38 26.05.2022
1272 Rain 32 1004 66 10000 4.63 220 10:37 26.05.2022
1273 Clouds 32 1004 66 10000 5.81 216 09:37 26.05.2022
1274 Clouds 33 1005 63 10000 4.63 270 08:38 26.05.2022
1275 Clouds 34 1008 62 10000 3.58 212 05:24 26.05.2022
1276 Clouds 29 1008 80 10000 1.03 0 01:26 26.05.2022
1277 Clouds 28 1006 86 10000 0 0 23:41 25.05.2022
1278 Clouds 28 1006 86 10000 0.51 0 22:48 25.05.2022
1279 Clouds 28 1006 83 10000 0.89 66 21:37 25.05.2022
1280 Clouds 28 1007 83 10000 1.03 0 20:39 25.05.2022
1281 Clouds 28 1007 83 10000 0.51 0 19:31 25.05.2022
1282 Clouds 29 1008 81 10000 0.51 0 18:20 25.05.2022
1283 Clouds 29 1009 76 10000 0.89 52 16:41 25.05.2022
1284 Clouds 29 1009 76 10000 1.03 0 15:58 25.05.2022
1285 Clouds 29 1008 74 10000 0.51 0 14:56 25.05.2022
1286 Clouds 29 1008 74 10000 0.51 0 14:33 25.05.2022
1287 Clouds 30 1008 74 10000 1.03 0 13:58 25.05.2022
1288 Clouds 30 1007 73 10000 1.79 218 12:48 25.05.2022
1289 Rain 31 1007 71 10000 4.02 221 10:58 25.05.2022
1290 Clouds 31 1006 71 10000 2.68 214 10:20 25.05.2022
1291 Rain 33 1006 65 10000 5.36 198 08:41 25.05.2022
1292 Clouds 34 1007 64 10000 6.71 206 07:23 25.05.2022
1293 Clouds 33 1009 61 10000 2.57 0 05:18 25.05.2022
1294 Clouds 28 1009 81 10000 0.51 0 00:28 25.05.2022
1295 Clouds 28 1009 83 10000 0.51 0 23:47 24.05.2022
1296 Clouds 28 1009 81 10000 0 0 22:39 24.05.2022
1297 Clouds 28 1009 79 10000 0.51 0 21:43 24.05.2022
1298 Clouds 28 1009 79 10000 0.51 0 21:21 24.05.2022
1299 Clouds 28 1009 81 10000 1.03 0 20:30 24.05.2022
1300 Clouds 29 1010 80 10000 1.03 250 18:56 24.05.2022
1301 Clouds 29 1010 74 10000 1.03 0 16:58 24.05.2022
1302 Clouds 30 1010 74 10000 1.03 0 16:28 24.05.2022
1303 Clouds 30 1010 74 10000 1.54 250 15:18 24.05.2022
1304 Clouds 30 1010 72 10000 2.24 213 14:25 24.05.2022
1305 Clouds 30 1009 70 10000 2.06 230 13:27 24.05.2022
1306 Clouds 33 1008 65 10000 3.6 140 11:49 24.05.2022
1307 Clouds 35 1008 57 10000 3.6 0 09:47 24.05.2022
1308 Clouds 35 1008 54 10000 3.09 110 08:51 24.05.2022
1309 Clouds 34 1009 60 9000 3.13 269 06:58 24.05.2022
1310 Clouds 32 1011 67 10000 2.24 253 04:59 24.05.2022
1311 Clouds 30 1011 78 10000 3.58 210 02:53 24.05.2022
1312 Clouds 30 1010 79 10000 0.51 0 01:44 24.05.2022
1313 Clouds 27 1009 88 10000 1.54 270 23:44 23.05.2022
1314 Clouds 26 1009 89 10000 0 0 22:22 23.05.2022
1315 Clouds 27 1009 89 10000 0 0 21:41 23.05.2022
1316 Clouds 27 1009 87 10000 1.03 0 20:45 23.05.2022
1317 Clouds 27 1010 86 10000 1.03 0 19:41 23.05.2022
1318 Clouds 27 1009 84 10000 0.94 238 19:00 23.05.2022
1319 Clouds 27 1010 86 10000 0.51 0 18:37 23.05.2022
1320 Clouds 27 1010 87 10000 1.03 0 17:55 23.05.2022
1321 Rain 27 1010 91 10000 1.03 0 15:53 23.05.2022
1322 Clouds 28 1009 90 7000 1.54 160 13:44 23.05.2022
1323 Clouds 28 1009 90 7000 1.54 160 13:44 23.05.2022
1324 Clouds 29 1007 82 9000 3.13 197 11:40 23.05.2022
1325 Clouds 28 1007 83 9000 2.06 30 10:44 23.05.2022
1326 Clouds 28 1006 72 9000 2.57 260 09:45 23.05.2022
1327 Clouds 31 1007 78 9000 7.2 260 08:44 23.05.2022
1328 Clouds 34 1007 60 10000 3.09 0 06:48 23.05.2022
1329 Clouds 33 1008 63 10000 3.09 0 06:24 23.05.2022
1330 Clouds 30 1008 76 10000 2.24 57 02:36 23.05.2022
1331 Clouds 29 1008 79 9000 1.03 0 01:48 23.05.2022
1332 Clouds 28 1008 82 9000 1.03 0 01:19 23.05.2022
1333 Clouds 27 1006 89 10000 2.06 30 22:47 22.05.2022
1334 Clouds 27 1006 88 10000 2.06 30 22:18 22.05.2022
1335 Clouds 26 1006 90 10000 0 0 21:49 22.05.2022
1336 Clouds 27 1006 87 10000 0 0 20:40 22.05.2022
1337 Clouds 27 1006 87 10000 0 0 20:19 22.05.2022
1338 Clouds 27 1007 88 10000 1.03 80 18:58 22.05.2022
1339 Clouds 27 1007 87 10000 1.03 80 18:31 22.05.2022
1340 Clouds 27 1008 87 10000 2.06 50 17:55 22.05.2022
1341 Rain 27 1008 88 10000 2.06 70 16:51 22.05.2022
1342 Rain 26 1007 91 9000 3.09 70 15:22 22.05.2022
1343 Rain 27 1007 92 8000 2.57 80 14:35 22.05.2022
1344 Rain 27 1006 84 10000 3.09 230 12:54 22.05.2022
1345 Rain 29 1005 75 10000 5.14 240 11:53 22.05.2022
1346 Clouds 31 1004 68 10000 4.92 201 10:29 22.05.2022
1347 Clouds 33 1004 69 10000 8.49 209 09:19 22.05.2022
1348 Clouds 33 1006 58 10000 2.57 140 07:44 22.05.2022
1349 Clouds 32 1006 64 10000 7.6 193 06:41 22.05.2022
1350 Clouds 31 1007 68 10000 1.79 55 03:25 22.05.2022
1351 Clouds 27 1006 86 10000 1.03 0 00:49 22.05.2022
1352 Clouds 27 1006 84 10000 0.51 0 23:56 21.05.2022
1353 Clouds 27 1006 85 10000 0.51 0 23:27 21.05.2022
1354 Clouds 27 1006 84 10000 3.09 280 21:59 21.05.2022
1355 Clouds 27 1006 84 10000 3.09 280 21:34 21.05.2022
1356 Clouds 26 1006 86 9000 3.09 300 20:34 21.05.2022
1357 Rain 27 1007 89 9000 4.63 270 19:44 21.05.2022
1358 Clouds 27 1007 83 10000 1.03 0 18:45 21.05.2022
1359 Clouds 28 1008 78 10000 1.03 0 16:57 21.05.2022
1360 Clouds 28 1007 76 10000 3.09 170 14:49 21.05.2022
1361 Clouds 28 1007 77 10000 1.03 0 13:55 21.05.2022
1362 Clouds 28 1007 77 10000 1.03 0 13:25 21.05.2022
1363 Rain 29 1006 74 10000 3.09 260 12:38 21.05.2022
1364 Clouds 30 1006 72 10000 3.13 11 11:25 21.05.2022
1365 Clouds 31 1005 64 10000 2.24 353 09:57 21.05.2022
1366 Clouds 32 1006 61 10000 3.6 270 08:59 21.05.2022
1367 Clouds 32 1006 60 10000 3.6 270 08:37 21.05.2022
1368 Clouds 31 1007 66 10000 1.79 206 05:52 21.05.2022
1369 Clouds 27 1008 83 10000 0.51 0 01:33 21.05.2022
1370 Clouds 25 1007 93 10000 2.06 60 23:30 20.05.2022
1371 Clouds 25 1006 92 10000 1.54 80 22:29 20.05.2022
1372 Clouds 25 1006 92 10000 1.03 0 21:55 20.05.2022
1373 Clouds 25 1006 92 10000 1.03 0 21:55 20.05.2022
1374 Clouds 25 1006 91 10000 1.03 0 21:18 20.05.2022
1375 Rain 25 1007 92 10000 0.51 0 20:44 20.05.2022
1376 Rain 25 1008 92 10000 1.03 0 19:45 20.05.2022
1377 Rain 25 1009 95 10000 0.51 0 18:48 20.05.2022
1378 Rain 25 1010 93 8000 3.09 210 17:47 20.05.2022
1379 Rain 25 1011 92 7000 2.06 200 16:21 20.05.2022
1380 Rain 25 1010 91 9000 2.57 250 15:53 20.05.2022
1381 Rain 25 1009 91 10000 2.06 270 14:32 20.05.2022
1382 Rain 25 1009 91 9000 3.09 270 13:56 20.05.2022
1383 Clouds 26 1007 89 9000 2.06 190 11:51 20.05.2022
1384 Thunderstorm 26 1008 89 9000 4.63 240 10:30 20.05.2022
1385 Clouds 31 1006 73 9000 4.02 212 08:58 20.05.2022
1386 Clouds 33 1007 66 10000 4.47 201 07:40 20.05.2022
1387 Clouds 32 1008 70 8000 2.57 0 06:38 20.05.2022
1388 Clouds 32 1009 68 8000 2.68 158 05:28 20.05.2022
1389 Clouds 26 1010 90 10000 1.54 10 00:54 20.05.2022
1390 Clouds 26 1009 92 10000 1.03 0 23:25 19.05.2022
1391 Clouds 26 1009 91 10000 1.54 10 22:26 19.05.2022
1392 Clouds 26 1009 93 10000 0.51 0 21:49 19.05.2022
1393 Clouds 26 1009 93 10000 0.89 10 21:23 19.05.2022
1394 Clouds 26 1009 93 10000 2.24 7 20:40 19.05.2022
1395 Clouds 26 1010 93 10000 2.24 4 19:53 19.05.2022
1396 Clouds 26 1011 93 10000 3.6 20 18:45 19.05.2022
1397 Rain 26 1011 91 10000 2.68 12 17:31 19.05.2022
1398 Rain 27 1011 86 10000 1.34 11 15:33 19.05.2022
1399 Clouds 28 1011 85 10000 1.79 5 14:29 19.05.2022
1400 Clouds 28 1010 87 10000 1.54 120 13:50 19.05.2022
1401 Rain 28 1009 84 10000 1.54 110 11:46 19.05.2022
1402 Rain 27 1009 86 9000 1.54 0 09:34 19.05.2022
1403 Rain 30 1009 79 9000 3.58 165 08:18 19.05.2022
1404 Clouds 32 1010 64 10000 2.24 293 06:18 19.05.2022
1405 Clouds 30 1011 71 10000 3.6 120 02:54 19.05.2022
1406 Clouds 27 1010 86 10000 1.54 110 00:44 19.05.2022
1407 Clouds 26 1010 91 10000 1.03 0 22:53 18.05.2022
1408 Clouds 26 1010 91 10000 1.03 0 22:35 18.05.2022
1409 Clouds 26 1010 92 10000 1.03 0 21:31 18.05.2022
1410 Clouds 26 1011 92 10000 0.51 0 20:54 18.05.2022
1411 Clouds 26 1011 92 10000 0.51 0 20:18 18.05.2022
1412 Clouds 26 1012 92 10000 1.79 2 18:34 18.05.2022
1413 Clouds 26 1012 92 10000 1.79 2 18:34 18.05.2022
1414 Clouds 26 1012 92 10000 1.54 230 17:41 18.05.2022
1415 Clouds 26 1012 92 10000 1.54 230 17:23 18.05.2022
1416 Clouds 26 1012 91 10000 2.68 354 16:34 18.05.2022
1417 Clouds 27 1012 91 9000 0.51 0 15:42 18.05.2022
1418 Rain 27 1012 91 9000 0.89 6 14:48 18.05.2022
1419 Rain 26 1012 92 9000 1.03 0 13:44 18.05.2022
1420 Rain 26 1011 91 9000 1.03 0 12:48 18.05.2022
1421 Rain 26 1010 91 9000 1.03 0 11:36 18.05.2022
1422 Rain 27 1010 90 9000 1.03 0 11:18 18.05.2022
1423 Rain 28 1009 85 9000 3.09 240 09:50 18.05.2022
1424 Clouds 32 1009 63 10000 4.92 194 07:51 18.05.2022
1425 Clouds 33 1010 64 10000 3.6 110 06:41 18.05.2022
1426 Clouds 28 1010 83 10000 1.03 0 01:22 18.05.2022
1427 Clouds 27 1010 90 10000 1.03 0 00:23 18.05.2022
1428 Clouds 27 1009 90 8000 0 0 21:57 17.05.2022
1429 Clouds 27 1009 90 8000 0 0 21:20 17.05.2022
1430 Clouds 27 1009 90 8000 0 0 21:20 17.05.2022
1431 Clouds 27 1010 90 8000 0 0 20:19 17.05.2022
1432 Clouds 26 1010 90 9000 1.03 0 19:28 17.05.2022
1433 Clouds 26 1011 90 9000 0.51 0 17:51 17.05.2022
1434 Clouds 26 1011 90 8000 1.03 0 16:59 17.05.2022
1435 Clouds 26 1011 91 8000 1.03 0 16:30 17.05.2022
1436 Rain 26 1011 92 8000 0.89 40 15:32 17.05.2022
1437 Rain 26 1011 94 8000 1.03 0 14:30 17.05.2022
1438 Rain 26 1010 94 8000 3.09 60 13:35 17.05.2022
1439 Rain 29 1009 84 7000 2.06 300 11:46 17.05.2022
1440 Clouds 27 1008 94 9000 7.2 270 09:35 17.05.2022
1441 Clouds 31 1007 74 10000 7.6 205 08:33 17.05.2022
1442 Rain 31 1008 68 10000 4.12 220 06:48 17.05.2022
1443 Clouds 31 1009 69 9000 2.57 130 03:41 17.05.2022
1444 Rain 27 1008 85 9000 0 0 00:43 17.05.2022
1445 Rain 26 1008 90 8000 1.03 200 22:43 16.05.2022
1446 Clouds 26 1008 90 9000 1.03 0 21:45 16.05.2022
1447 Clouds 26 1008 88 9000 0 0 20:47 16.05.2022
1448 Clouds 27 1009 86 9000 1.03 0 19:46 16.05.2022
1449 Clouds 27 1009 86 9000 1.03 0 18:20 16.05.2022
1450 Rain 26 1009 91 9000 1.03 0 15:50 16.05.2022
1451 Rain 26 1010 89 8000 4.12 310 13:56 16.05.2022
1452 Rain 26 1010 90 8000 4.12 310 13:23 16.05.2022
1453 Rain 28 1006 82 10000 1.03 0 11:20 16.05.2022
1454 Rain 28 1006 77 10000 2.68 70 09:37 16.05.2022
1455 Clouds 33 1007 63 10000 3.6 130 06:56 16.05.2022
1456 Clouds 31 1009 74 8000 2.57 110 03:58 16.05.2022
1457 Clouds 27 1007 89 7000 1.03 0 23:30 15.05.2022
1458 Clouds 26 1007 91 7000 1.54 30 22:30 15.05.2022
1459 Clouds 26 1007 91 9000 2.68 8 21:46 15.05.2022
1460 Clouds 27 1008 92 10000 1.54 300 20:54 15.05.2022
1461 Clouds 27 1009 88 10000 1.34 9 19:32 15.05.2022
1462 Clouds 27 1011 91 10000 1.03 0 17:51 15.05.2022
1463 Rain 27 1010 89 10000 1.54 130 15:59 15.05.2022
1464 Rain 26 1009 91 8000 1.03 0 13:54 15.05.2022
1465 Rain 26 1010 94 7000 2.57 110 12:26 15.05.2022
1466 Rain 26 1009 94 8000 2.57 80 11:38 15.05.2022
1467 Rain 26 1008 94 8000 2.06 110 10:25 15.05.2022
1468 Rain 31 1008 74 9000 5.66 270 08:32 15.05.2022
1469 Rain 35 1008 58 10000 2.06 0 06:58 15.05.2022
1470 Clouds 33 1009 63 10000 6.26 217 05:33 15.05.2022
1471 Clouds 29 1009 82 10000 1.03 0 00:49 15.05.2022
1472 Clouds 28 1009 82 10000 1.54 90 23:38 14.05.2022
1473 Clouds 28 1008 83 9000 0 0 22:45 14.05.2022
1474 Clouds 29 1008 84 9000 0.51 0 21:28 14.05.2022
1475 Clouds 29 1009 83 10000 1.54 150 20:44 14.05.2022
1476 Clouds 29 1009 82 8000 1.54 180 19:37 14.05.2022
1477 Clouds 29 1009 82 8000 1.54 180 19:19 14.05.2022
1478 Clouds 29 1010 82 9000 2.57 70 17:56 14.05.2022
1479 Clouds 30 1011 77 10000 1.54 130 16:37 14.05.2022
1480 Clouds 29 1010 78 10000 0.51 0 14:59 14.05.2022
1481 Clouds 31 1011 72 10000 0.51 0 14:30 14.05.2022
1482 Rain 31 1009 72 10000 5.81 216 12:23 14.05.2022
1483 Rain 32 1007 66 10000 5.14 250 10:53 14.05.2022
1484 Clouds 33 1007 65 10000 5.81 208 10:20 14.05.2022
1485 Clouds 32 1007 62 10000 5.14 270 09:51 14.05.2022
1486 Clouds 34 1007 64 10000 7.2 270 08:46 14.05.2022
1487 Clouds 34 1010 58 10000 2.24 358 05:43 14.05.2022
1488 Clouds 30 1009 77 10000 0.89 34 01:58 14.05.2022
1489 Clouds 29 1009 83 10000 0.51 0 23:32 13.05.2022
1490 Clouds 29 1008 83 10000 1.03 0 22:57 13.05.2022
1491 Clouds 29 1008 82 10000 1.34 64 22:23 13.05.2022
1492 Clouds 29 1008 82 10000 1.54 180 21:35 13.05.2022
1493 Clouds 29 1008 80 10000 1.54 0 20:43 13.05.2022
1494 Clouds 29 1008 80 10000 1.54 0 20:23 13.05.2022
1495 Clouds 29 1008 80 10000 1.03 0 19:21 13.05.2022
1496 Clouds 29 1009 81 10000 2.06 120 17:50 13.05.2022
1497 Clouds 29 1010 82 10000 2.06 120 17:26 13.05.2022
1498 Clouds 30 1009 77 10000 1.79 202 15:53 13.05.2022
1499 Clouds 31 1008 76 10000 2.06 140 14:50 13.05.2022
1500 Clouds 32 1006 65 10000 3.58 203 12:58 13.05.2022
1501 Clouds 32 1006 66 10000 3.58 223 12:25 13.05.2022
1502 Clouds 34 1005 60 10000 5.36 200 10:35 13.05.2022
1503 Clouds 34 1005 60 10000 6.71 190 09:29 13.05.2022
1504 Clouds 36 1005 54 10000 4.47 212 08:20 13.05.2022
1505 Clouds 35 1006 56 10000 7.15 220 07:31 13.05.2022
1506 Clouds 34 1008 57 10000 2.68 194 05:58 13.05.2022
1507 Clouds 30 1009 68 10000 1.54 100 01:49 13.05.2022
1508 Clouds 28 1007 78 10000 1.03 0 23:43 12.05.2022
1509 Clouds 28 1007 76 10000 1.03 0 22:42 12.05.2022
1510 Clouds 28 1007 75 10000 0.51 0 21:36 12.05.2022
1511 Clouds 29 1007 73 10000 1.54 130 20:22 12.05.2022
1512 Clouds 30 1008 70 10000 1.54 130 18:30 12.05.2022
1513 Clouds 30 1009 67 10000 2.06 0 16:52 12.05.2022
1514 Clouds 31 1008 63 10000 3.09 130 15:30 12.05.2022
1515 Clouds 32 1007 61 10000 3.09 110 13:58 12.05.2022
1516 Clouds 33 1006 58 10000 4.12 110 12:46 12.05.2022
1517 Clouds 35 1006 54 10000 4.63 120 10:35 12.05.2022
1518 Clouds 36 1005 52 10000 3.6 130 08:58 12.05.2022
1519 Clouds 35 1005 52 10000 3.6 130 08:37 12.05.2022
1520 Clouds 34 1005 55 10000 3.6 120 07:36 12.05.2022
1521 Clouds 33 1008 57 10000 3.6 0 04:50 12.05.2022
1522 Clouds 31 1008 65 10000 2.57 80 01:55 12.05.2022
1523 Clouds 28 1007 75 10000 2.06 120 23:42 11.05.2022
1524 Clouds 28 1007 71 10000 2.06 100 22:22 11.05.2022
1525 Clouds 29 1007 70 10000 3.09 110 21:27 11.05.2022
1526 Clouds 29 1007 70 10000 2.57 110 20:48 11.05.2022
1527 Clouds 29 1009 69 10000 2.06 120 17:54 11.05.2022
1528 Clouds 30 1009 67 10000 3.09 120 16:47 11.05.2022
1529 Clouds 31 1008 63 10000 3.6 130 14:49 11.05.2022
1530 Clouds 31 1008 63 10000 3.6 130 14:25 11.05.2022
1531 Clouds 32 1008 64 10000 4.12 120 13:37 11.05.2022
1532 Clouds 34 1006 58 10000 4.63 120 11:48 11.05.2022
1533 Clouds 35 1005 54 10000 3.6 130 09:34 11.05.2022
1534 Clouds 34 1007 57 10000 4.47 167 06:59 11.05.2022
1535 Clouds 32 1010 59 10000 2.57 0 03:38 11.05.2022
1536 Clouds 28 1008 72 10000 2.06 110 23:45 10.05.2022
1537 Clouds 28 1007 73 10000 2.06 110 22:30 10.05.2022
1538 Clouds 28 1007 71 10000 3.09 110 21:43 10.05.2022
1539 Clouds 29 1008 69 10000 3.6 120 20:48 10.05.2022
1540 Clouds 29 1009 66 10000 3.09 120 19:18 10.05.2022
1541 Clouds 30 1009 66 10000 3.6 120 17:43 10.05.2022
1542 Clouds 30 1009 67 10000 3.6 120 16:39 10.05.2022
1543 Clouds 30 1008 67 10000 3.6 110 13:37 10.05.2022
1544 Clouds 32 1006 63 10000 4.12 130 11:54 10.05.2022
1545 Clouds 33 1006 60 10000 4.12 130 11:34 10.05.2022
1546 Clouds 34 1005 57 10000 4.63 130 10:57 10.05.2022
1547 Clouds 35 1005 54 10000 4.12 120 09:52 10.05.2022
1548 Clouds 35 1006 54 10000 4.63 130 08:22 10.05.2022
1549 Clouds 33 1008 59 10000 4.63 0 06:20 10.05.2022
1550 Clouds 31 1010 59 10000 1.54 120 02:23 10.05.2022
1551 Clouds 27 1008 75 10000 2.06 70 23:53 09.05.2022
1552 Clouds 28 1008 73 10000 2.24 358 22:36 09.05.2022
1553 Clouds 28 1007 73 10000 3.09 110 21:39 09.05.2022
1554 Clouds 29 1008 71 10000 3.6 120 20:20 09.05.2022
1555 Clouds 29 1009 70 10000 4.63 110 18:26 09.05.2022
1556 Clouds 29 1009 69 10000 3.09 120 17:26 09.05.2022
1557 Clouds 29 1009 68 10000 3.6 110 16:19 09.05.2022
1558 Clouds 30 1009 66 10000 3.6 110 15:47 09.05.2022
1559 Clouds 30 1009 65 10000 3.6 120 14:36 09.05.2022
1560 Clouds 31 1008 63 10000 4.12 120 13:57 09.05.2022
1561 Clouds 32 1007 61 10000 5.14 110 12:55 09.05.2022
1562 Clouds 32 1006 61 10000 5.14 120 11:53 09.05.2022
1563 Clouds 34 1006 58 10000 5.66 120 10:48 09.05.2022
1564 Clouds 34 1006 57 10000 5.66 120 10:23 09.05.2022
1565 Clouds 35 1007 54 10000 5.14 130 07:57 09.05.2022
1566 Clouds 33 1010 60 10000 4.92 217 04:52 09.05.2022
1567 Clouds 28 1008 74 10000 2.06 120 00:30 09.05.2022
1568 Clouds 28 1008 78 10000 2.06 120 23:28 08.05.2022
1569 Clouds 28 1008 75 10000 2.06 110 22:29 08.05.2022
1570 Clouds 29 1008 69 10000 1.54 80 20:54 08.05.2022
1571 Clouds 29 1009 69 10000 1.54 80 20:22 08.05.2022
1572 Clouds 29 1009 72 10000 1.54 120 19:32 08.05.2022
1573 Clouds 29 1009 71 10000 2.57 90 18:35 08.05.2022
1574 Clouds 30 1010 71 10000 4.12 110 17:36 08.05.2022
1575 Clouds 30 1009 69 10000 3.09 110 15:46 08.05.2022
1576 Clouds 30 1009 68 10000 3.09 110 15:21 08.05.2022
1577 Clouds 32 1007 63 10000 4.63 110 12:46 08.05.2022
1578 Clouds 34 1006 55 10000 4.63 120 10:56 08.05.2022
1579 Clouds 34 1006 53 10000 4.63 120 10:22 08.05.2022
1580 Clouds 35 1006 53 10000 5.66 120 09:51 08.05.2022
1581 Clouds 34 1007 54 10000 5.14 120 07:41 08.05.2022
1582 Clouds 34 1009 54 10000 4.02 254 04:56 08.05.2022
1583 Clouds 33 1009 61 10000 4.63 120 03:20 08.05.2022
1584 Clouds 28 1008 77 10000 2.06 70 00:31 08.05.2022
1585 Clouds 28 1008 77 10000 1.34 349 23:54 07.05.2022
1586 Clouds 28 1008 77 10000 1.54 80 22:58 07.05.2022
1587 Clouds 28 1008 76 10000 1.54 80 22:34 07.05.2022
1588 Clouds 29 1008 74 10000 1.03 0 21:44 07.05.2022
1589 Clouds 29 1008 73 10000 2.57 100 20:56 07.05.2022
1590 Clouds 29 1009 72 10000 4.12 110 19:59 07.05.2022
1591 Clouds 30 1009 70 10000 4.63 120 18:38 07.05.2022
1592 Clouds 30 1009 65 10000 3.09 110 15:58 07.05.2022
1593 Clouds 31 1008 66 10000 2.57 100 14:44 07.05.2022
1594 Clouds 35 1006 54 10000 4.12 90 10:59 07.05.2022
1595 Clouds 35 1006 55 10000 5.14 110 09:38 07.05.2022
1596 Clouds 34 1007 57 10000 4.63 120 07:52 07.05.2022
1597 Clouds 34 1008 59 10000 5.14 120 06:44 07.05.2022
1598 Clouds 34 1010 60 10000 4.63 120 05:34 07.05.2022
1599 Clouds 32 1009 64 10000 4.02 176 03:32 07.05.2022
1600 Clouds 28 1008 72 10000 2.06 90 23:38 06.05.2022
1601 Clouds 28 1008 71 10000 2.57 110 22:32 06.05.2022
1602 Clouds 29 1007 70 10000 2.57 120 21:45 06.05.2022
1603 Clouds 29 1008 70 10000 3.09 120 20:35 06.05.2022
1604 Clouds 29 1008 70 10000 3.6 110 19:41 06.05.2022
1605 Clouds 29 1008 69 10000 3.6 110 19:18 06.05.2022
1606 Clouds 30 1009 67 10000 3.09 120 18:23 06.05.2022
1607 Clouds 30 1010 71 10000 3.09 120 16:53 06.05.2022
1608 Clouds 30 1009 71 10000 3.6 110 15:42 06.05.2022
1609 Clouds 31 1009 68 10000 4.63 120 14:53 06.05.2022
1610 Clouds 32 1008 57 10000 3.6 110 12:56 06.05.2022
1611 Clouds 32 1008 56 10000 3.6 110 12:37 06.05.2022
1612 Clouds 33 1008 58 10000 4.12 120 11:45 06.05.2022
1613 Clouds 34 1007 52 10000 5.66 130 10:30 06.05.2022
1614 Clouds 35 1007 52 10000 5.14 130 09:46 06.05.2022
1615 Clouds 35 1008 54 10000 4.63 120 08:33 06.05.2022
1616 Clouds 34 1009 59 10000 3.6 130 06:48 06.05.2022
1617 Clouds 34 1010 57 10000 2.06 0 05:23 06.05.2022
1618 Clouds 31 1010 60 10000 1.03 0 02:50 06.05.2022
1619 Clouds 28 1009 72 10000 1.03 0 00:25 06.05.2022
1620 Clouds 27 1007 74 10000 2.06 60 22:28 05.05.2022
1621 Clouds 27 1007 75 10000 3.6 60 21:22 05.05.2022
1622 Clouds 28 1008 72 10000 3.09 120 19:54 05.05.2022
1623 Clouds 29 1008 69 10000 3.6 130 18:31 05.05.2022
1624 Clouds 30 1009 66 10000 3.6 130 16:33 05.05.2022
1625 Clouds 31 1008 62 10000 3.6 110 14:50 05.05.2022
1626 Clouds 32 1008 57 10000 3.09 110 13:22 05.05.2022
1627 Clouds 32 1007 56 10000 4.12 120 12:49 05.05.2022
1628 Clouds 35 1006 51 10000 4.12 0 10:48 05.05.2022
1629 Clouds 34 1006 52 10000 3.6 110 09:39 05.05.2022
1630 Clouds 35 1009 50 10000 3.09 110 07:35 05.05.2022
1631 Clouds 32 1009 60 10000 3.6 110 04:42 05.05.2022
1632 Clouds 31 1009 61 10000 1.54 170 01:53 05.05.2022
1633 Clouds 30 1009 60 10000 1.54 170 01:24 05.05.2022
1634 Clouds 28 1008 72 10000 1.54 110 23:47 04.05.2022
1635 Clouds 28 1007 72 10000 1.03 0 22:30 04.05.2022
1636 Clouds 28 1007 73 10000 1.54 100 21:49 04.05.2022
1637 Clouds 28 1007 73 10000 1.54 100 21:26 04.05.2022
1638 Clouds 29 1007 70 10000 3.09 120 20:24 04.05.2022
1639 Clouds 29 1008 69 10000 2.57 120 19:53 04.05.2022
1640 Clouds 29 1008 69 10000 2.06 120 18:54 04.05.2022
1641 Clouds 29 1009 68 10000 2.06 120 18:22 04.05.2022
1642 Clouds 30 1010 68 10000 2.57 120 17:38 04.05.2022
1643 Clouds 30 1010 68 10000 3.09 120 15:40 04.05.2022
1644 Clouds 30 1010 67 10000 3.09 120 15:22 04.05.2022
1645 Clouds 31 1009 65 10000 3.6 100 14:20 04.05.2022
1646 Clouds 31 1008 60 10000 4.12 110 13:26 04.05.2022
1647 Clouds 32 1007 59 10000 4.12 110 12:29 04.05.2022
1648 Clouds 34 1006 48 10000 4.63 120 10:40 04.05.2022
1649 Clouds 35 1006 48 10000 4.12 120 09:43 04.05.2022
1650 Clouds 34 1007 50 10000 4.63 120 08:40 04.05.2022
1651 Clouds 33 1008 56 10000 4.12 120 06:31 04.05.2022
1652 Clouds 31 1009 62 10000 3.09 120 02:53 04.05.2022
1653 Clouds 27 1007 77 10000 1.03 0 23:58 03.05.2022
1654 Clouds 27 1007 73 10000 0.51 0 22:30 03.05.2022
1655 Clouds 27 1007 75 10000 2.06 60 21:36 03.05.2022
1656 Clouds 28 1008 72 10000 1.34 356 20:53 03.05.2022
1657 Clouds 28 1009 71 10000 1.03 0 19:49 03.05.2022
1658 Clouds 29 1009 69 10000 1.54 120 18:50 03.05.2022
1659 Clouds 29 1009 69 10000 1.54 120 18:20 03.05.2022
1660 Clouds 29 1010 68 10000 3.09 120 16:37 03.05.2022
1661 Clouds 30 1009 67 10000 3.6 120 15:32 03.05.2022
1662 Clouds 31 1007 60 10000 3.6 100 12:47 03.05.2022
1663 Clouds 32 1007 60 10000 3.6 100 12:27 03.05.2022
1664 Clouds 33 1007 55 10000 5.14 110 10:57 03.05.2022
1665 Clouds 33 1007 54 10000 5.66 110 09:29 03.05.2022
1666 Clouds 33 1008 60 10000 4.12 0 06:46 03.05.2022
1667 Clouds 33 1009 58 10000 3.09 0 05:56 03.05.2022
1668 Clouds 27 1009 79 10000 2.24 358 00:32 03.05.2022
1669 Clouds 27 1008 77 10000 1.03 240 22:36 02.05.2022
1670 Clouds 27 1008 72 10000 1.34 1 21:51 02.05.2022
1671 Clouds 28 1008 73 10000 1.54 90 20:51 02.05.2022
1672 Clouds 28 1009 71 10000 2.06 120 18:37 02.05.2022
1673 Clouds 29 1009 70 10000 2.57 120 17:57 02.05.2022
1674 Clouds 29 1009 68 10000 2.57 120 17:34 02.05.2022
1675 Clouds 29 1009 67 10000 3.09 120 16:21 02.05.2022
1676 Clouds 30 1008 65 10000 3.09 120 15:29 02.05.2022
1677 Clouds 31 1007 56 10000 3.6 100 13:50 02.05.2022
1678 Clouds 32 1006 54 10000 4.12 100 12:18 02.05.2022
1679 Clouds 34 1006 48 10000 4.12 120 10:25 02.05.2022
1680 Clouds 35 1006 48 10000 4.63 120 08:49 02.05.2022
1681 Clouds 33 1007 56 10000 4.63 110 07:39 02.05.2022
1682 Clouds 33 1007 56 10000 4.63 110 07:39 02.05.2022
1683 Clouds 31 1008 61 10000 2.57 110 02:51 02.05.2022
1684 Clouds 28 1007 70 10000 2.06 100 00:24 02.05.2022
1685 Clouds 28 1007 71 10000 2.06 120 23:47 01.05.2022
1686 Clouds 28 1006 70 10000 2.06 110 22:20 01.05.2022
1687 Clouds 28 1007 69 10000 2.06 110 21:18 01.05.2022
1688 Clouds 29 1008 70 10000 2.06 110 19:50 01.05.2022
1689 Clouds 29 1008 70 10000 2.57 120 18:55 01.05.2022
1690 Clouds 29 1008 69 10000 2.57 120 18:22 01.05.2022
1691 Clouds 29 1009 69 10000 3.6 120 17:18 01.05.2022
1692 Clouds 29 1009 69 10000 3.09 120 16:23 01.05.2022
1693 Clouds 30 1008 68 10000 3.09 0 15:23 01.05.2022
1694 Clouds 31 1007 64 10000 4.12 120 13:42 01.05.2022
1695 Clouds 33 1005 56 10000 4.63 110 10:53 01.05.2022
1696 Clouds 34 1005 54 10000 4.12 0 08:53 01.05.2022
1697 Clouds 34 1006 56 10000 5.14 120 07:53 01.05.2022
1698 Clouds 32 1008 60 10000 4.12 120 03:26 01.05.2022
1699 Clouds 28 1008 74 10000 2.06 100 23:23 30.04.2022
1700 Clouds 28 1008 74 10000 2.57 110 21:35 30.04.2022
1701 Clouds 28 1008 73 10000 3.09 120 20:36 30.04.2022
1702 Clouds 29 1008 73 10000 3.6 110 19:36 30.04.2022
1703 Clouds 29 1010 73 10000 3.09 110 17:40 30.04.2022
1704 Clouds 29 1010 72 10000 3.09 120 16:37 30.04.2022
1705 Clouds 30 1009 70 10000 3.6 120 15:21 30.04.2022
1706 Clouds 30 1008 70 10000 3.09 120 14:33 30.04.2022
1707 Clouds 31 1007 68 10000 4.12 0 12:36 30.04.2022
1708 Clouds 31 1007 68 10000 4.12 0 12:36 30.04.2022
1709 Clouds 32 1007 64 10000 4.12 0 11:33 30.04.2022
1710 Clouds 33 1006 62 10000 5.14 130 10:40 30.04.2022
1711 Clouds 34 1007 65 10000 4.12 140 08:54 30.04.2022
1712 Clouds 33 1010 65 10000 3.58 347 05:38 30.04.2022
1713 Clouds 28 1009 80 10000 1.54 140 00:35 30.04.2022
1714 Clouds 28 1009 78 10000 1.54 120 23:36 29.04.2022
1715 Clouds 28 1009 79 10000 2.57 110 22:30 29.04.2022
1716 Clouds 29 1009 75 10000 2.06 120 21:27 29.04.2022
1717 Clouds 29 1010 73 10000 2.06 120 20:38 29.04.2022
1718 Clouds 29 1010 73 10000 2.06 120 19:38 29.04.2022
1719 Clouds 30 1011 70 10000 2.57 120 17:50 29.04.2022
1720 Clouds 30 1011 70 10000 2.57 120 16:56 29.04.2022
1721 Clouds 31 1010 70 10000 3.09 120 14:50 29.04.2022
1722 Clouds 31 1010 69 10000 3.09 120 14:20 29.04.2022
1723 Clouds 32 1008 64 10000 3.09 120 12:43 29.04.2022
1724 Clouds 33 1006 59 10000 5.14 120 10:58 29.04.2022
1725 Clouds 34 1007 61 10000 4.63 120 08:18 29.04.2022
1726 Clouds 35 1009 58 10000 4.63 110 07:27 29.04.2022
1727 Clouds 34 1010 61 10000 5.14 110 06:35 29.04.2022
1728 Clouds 32 1010 64 10000 4.12 110 03:28 29.04.2022
1729 Clouds 28 1008 76 10000 2.57 120 00:18 29.04.2022
1730 Clouds 28 1008 76 10000 1.54 90 23:26 28.04.2022
1731 Clouds 28 1008 75 10000 1.54 90 22:40 28.04.2022
1732 Clouds 29 1008 74 10000 1.54 100 21:46 28.04.2022
1733 Clouds 29 1008 74 10000 1.54 100 20:51 28.04.2022
1734 Clouds 29 1009 74 10000 2.57 100 19:59 28.04.2022
1735 Clouds 29 1009 74 10000 2.57 100 19:40 28.04.2022
1736 Clouds 29 1009 73 10000 2.57 100 19:20 28.04.2022
1737 Clouds 29 1010 72 10000 3.6 120 17:56 28.04.2022
1738 Clouds 30 1010 70 10000 2.06 100 16:59 28.04.2022
1739 Clouds 30 1010 69 10000 2.06 100 16:21 28.04.2022
1740 Clouds 30 1010 68 10000 2.57 120 15:56 28.04.2022
1741 Clouds 30 1010 68 10000 2.57 120 15:23 28.04.2022
1742 Clouds 31 1008 65 10000 4.12 120 13:43 28.04.2022
1743 Clouds 32 1008 63 10000 4.12 110 12:34 28.04.2022
1744 Clouds 33 1007 61 10000 4.12 130 11:51 28.04.2022
1745 Clouds 34 1007 55 10000 4.12 120 10:30 28.04.2022
1746 Clouds 35 1006 54 10000 4.63 110 09:51 28.04.2022
1747 Clouds 35 1007 56 10000 4.63 100 07:45 28.04.2022
1748 Clouds 34 1008 58 10000 5.14 110 06:54 28.04.2022
1749 Clouds 34 1009 61 10000 3.6 0 05:54 28.04.2022
1750 Clouds 33 1010 67 10000 4.12 120 04:44 28.04.2022
1751 Clouds 32 1010 67 10000 4.63 100 03:28 28.04.2022
1752 Clouds 26 1008 89 10000 2.06 60 23:43 27.04.2022
1753 Clouds 26 1008 88 8000 2.57 80 22:25 27.04.2022
1754 Clouds 26 1008 90 8000 2.06 70 21:47 27.04.2022
1755 Clouds 28 1008 83 9000 1.54 120 20:47 27.04.2022
1756 Clouds 28 1008 83 9000 1.54 120 20:47 27.04.2022
1757 Clouds 28 1008 82 9000 1.54 120 20:29 27.04.2022
1758 Clouds 28 1008 78 10000 0.45 11 19:36 27.04.2022
1759 Clouds 29 1008 73 10000 1.03 0 18:42 27.04.2022
1760 Clouds 29 1008 72 10000 1.03 0 18:21 27.04.2022
1761 Clouds 29 1009 68 10000 2.06 120 16:21 27.04.2022
1762 Clouds 31 1007 59 10000 2.68 81 13:29 27.04.2022
1763 Clouds 32 1006 63 10000 3.6 110 11:37 27.04.2022
1764 Clouds 33 1005 63 10000 4.63 120 10:51 27.04.2022
1765 Clouds 34 1006 61 10000 6.17 110 08:31 27.04.2022
1766 Clouds 34 1009 63 10000 4.12 120 06:44 27.04.2022
1767 Clouds 31 1008 68 10000 2.57 100 02:40 27.04.2022
1768 Clouds 29 1008 72 10000 2.06 90 01:24 27.04.2022
1769 Clouds 27 1007 79 10000 1.54 120 00:34 27.04.2022
1770 Clouds 27 1007 80 10000 2.06 80 23:24 26.04.2022
1771 Clouds 27 1007 80 10000 1.54 100 22:51 26.04.2022
1772 Clouds 27 1007 80 10000 1.54 100 22:31 26.04.2022
1773 Clouds 28 1007 78 10000 2.06 100 21:25 26.04.2022
1774 Clouds 28 1007 77 10000 2.06 110 20:39 26.04.2022
1775 Clouds 28 1008 75 10000 3.09 110 19:45 26.04.2022
1776 Clouds 28 1008 75 10000 3.09 110 19:26 26.04.2022
1777 Clouds 29 1008 74 10000 2.06 110 18:39 26.04.2022
1778 Clouds 29 1009 74 10000 2.57 120 17:42 26.04.2022
1779 Clouds 29 1009 71 10000 3.09 110 15:59 26.04.2022
1780 Clouds 30 1008 71 10000 4.12 120 13:55 26.04.2022
1781 Clouds 30 1007 71 10000 4.12 120 13:28 26.04.2022
1782 Clouds 31 1006 69 10000 4.63 110 11:24 26.04.2022
1783 Clouds 32 1006 69 10000 3.09 140 10:30 26.04.2022
1784 Clouds 34 1007 61 10000 5.14 130 08:34 26.04.2022
1785 Clouds 33 1009 61 10000 3.6 100 04:59 26.04.2022
1786 Clouds 32 1009 63 10000 3.6 100 04:22 26.04.2022
1787 Clouds 28 1008 78 10000 2.06 80 00:51 26.04.2022
1788 Clouds 28 1007 78 10000 1.03 0 23:50 25.04.2022
1789 Clouds 28 1007 79 10000 1.54 120 21:53 25.04.2022
1790 Clouds 28 1007 79 10000 1.54 120 21:26 25.04.2022
1791 Clouds 29 1007 74 10000 2.06 100 19:53 25.04.2022
1792 Clouds 29 1008 73 10000 2.06 100 18:34 25.04.2022
1793 Clouds 29 1008 73 10000 2.57 110 17:40 25.04.2022
1794 Clouds 29 1008 72 10000 2.57 110 16:42 25.04.2022
1795 Clouds 30 1008 72 10000 3.09 0 15:22 25.04.2022
1796 Clouds 30 1007 70 10000 4.12 110 14:32 25.04.2022
1797 Clouds 31 1006 68 10000 4.12 110 12:47 25.04.2022
1798 Clouds 32 1006 62 10000 5.66 110 10:42 25.04.2022
1799 Clouds 33 1006 64 10000 4.63 120 09:41 25.04.2022
1800 Clouds 33 1007 60 10000 4.63 120 07:38 25.04.2022
1801 Clouds 32 1009 62 10000 3.09 120 05:54 25.04.2022
1802 Clouds 29 1009 76 10000 2.57 100 01:28 25.04.2022
1803 Clouds 28 1007 77 10000 2.06 100 23:54 24.04.2022
1804 Clouds 28 1007 77 10000 2.06 100 23:22 24.04.2022
1805 Clouds 28 1007 76 10000 2.57 100 22:38 24.04.2022
1806 Clouds 28 1007 76 10000 3.09 110 21:55 24.04.2022
1807 Clouds 28 1007 76 10000 3.09 110 21:21 24.04.2022
1808 Clouds 29 1007 75 10000 3.09 110 20:44 24.04.2022
1809 Clouds 29 1007 74 10000 3.6 110 19:57 24.04.2022
1810 Clouds 29 1008 74 10000 3.09 120 18:37 24.04.2022
1811 Clouds 29 1008 73 10000 3.6 120 17:41 24.04.2022
1812 Clouds 29 1008 72 10000 3.6 120 17:20 24.04.2022
1813 Clouds 29 1008 72 10000 4.12 120 16:51 24.04.2022
1814 Clouds 29 1009 72 10000 4.12 120 16:22 24.04.2022
1815 Clouds 30 1008 71 10000 3.09 120 15:36 24.04.2022
1816 Clouds 30 1008 69 10000 3.6 110 14:30 24.04.2022
1817 Clouds 31 1007 67 10000 4.12 110 13:26 24.04.2022
1818 Clouds 31 1007 66 10000 4.12 110 12:44 24.04.2022
1819 Clouds 32 1005 62 10000 4.12 120 11:44 24.04.2022
1820 Clouds 33 1005 62 10000 5.66 110 10:32 24.04.2022
1821 Clouds 34 1005 61 10000 4.63 0 09:41 24.04.2022
1822 Clouds 34 1007 57 10000 4.63 150 07:39 24.04.2022
1823 Clouds 32 1009 59 10000 3.13 206 04:56 24.04.2022
1824 Clouds 30 1009 61 9000 1.03 0 01:50 24.04.2022
1825 Clouds 27 1008 70 10000 0.45 0 00:33 24.04.2022
1826 Clouds 27 1008 70 10000 1.34 355 23:45 23.04.2022
1827 Clouds 27 1008 70 10000 1.03 0 23:22 23.04.2022
1828 Clouds 27 1007 71 10000 1.03 0 21:54 23.04.2022
1829 Clouds 27 1007 70 10000 1.03 0 21:34 23.04.2022
1830 Clouds 28 1008 70 10000 2.06 90 20:57 23.04.2022
1831 Clouds 28 1008 67 10000 2.57 110 19:49 23.04.2022
1832 Clouds 28 1008 66 10000 2.57 110 19:19 23.04.2022
1833 Clouds 29 1009 66 10000 2.06 130 18:53 23.04.2022
1834 Clouds 29 1009 67 10000 3.6 120 17:52 23.04.2022
1835 Clouds 29 1009 66 10000 3.6 120 17:30 23.04.2022
1836 Clouds 29 1009 64 10000 2.06 100 16:42 23.04.2022
1837 Clouds 29 1009 63 10000 3.09 120 15:32 23.04.2022
1838 Clouds 32 1007 60 10000 3.6 140 12:49 23.04.2022
1839 Clouds 34 1006 55 10000 3.6 0 10:49 23.04.2022
1840 Clouds 33 1007 64 10000 5.66 50 09:38 23.04.2022
1841 Clouds 34 1009 52 10000 4.63 130 07:21 23.04.2022
1842 Clouds 32 1011 55 10000 3.09 0 03:54 23.04.2022
1843 Clouds 28 1010 67 10000 2.57 80 01:25 23.04.2022
1844 Clouds 26 1010 77 10000 1.03 0 23:31 22.04.2022
1845 Clouds 26 1009 79 10000 2.57 60 22:20 22.04.2022
1846 Clouds 27 1009 79 10000 1.54 90 21:44 22.04.2022
1847 Clouds 28 1009 78 10000 4.12 90 20:48 22.04.2022
1848 Clouds 28 1009 78 10000 4.12 90 20:27 22.04.2022
1849 Clouds 28 1009 76 10000 3.6 100 19:20 22.04.2022
1850 Clouds 28 1010 74 10000 4.12 110 18:42 22.04.2022
1851 Clouds 29 1010 74 10000 3.6 110 17:41 22.04.2022
1852 Clouds 29 1011 72 10000 2.57 120 16:46 22.04.2022
1853 Clouds 29 1011 70 10000 2.68 89 15:42 22.04.2022
1854 Clouds 30 1011 70 10000 2.57 100 15:18 22.04.2022
1855 Clouds 30 1010 66 10000 3.09 90 13:50 22.04.2022
1856 Clouds 31 1009 62 10000 4.12 110 12:58 22.04.2022
1857 Clouds 32 1008 61 10000 4.12 110 11:50 22.04.2022
1858 Clouds 32 1008 61 10000 4.12 110 11:21 22.04.2022
1859 Clouds 33 1008 59 10000 4.12 110 10:50 22.04.2022
1860 Clouds 32 1008 61 10000 4.12 110 10:30 22.04.2022
1861 Clouds 34 1009 58 10000 4.63 110 09:50 22.04.2022
1862 Clouds 34 1009 57 10000 5.14 110 08:50 22.04.2022
1863 Clouds 33 1011 63 10000 4.63 110 06:58 22.04.2022
1864 Clouds 31 1011 66 10000 1.54 0 02:45 22.04.2022
1865 Clouds 27 1011 78 10000 2.68 14 00:51 22.04.2022
1866 Clouds 27 1009 78 10000 0.89 11 22:59 21.04.2022
1867 Clouds 27 1009 78 10000 0.51 0 22:27 21.04.2022
1868 Clouds 28 1009 74 10000 2.06 110 20:36 21.04.2022
1869 Clouds 28 1009 74 10000 2.06 110 20:18 21.04.2022
1870 Clouds 29 1010 73 10000 2.06 100 18:35 21.04.2022
1871 Clouds 29 1011 73 10000 3.09 110 17:54 21.04.2022
1872 Clouds 29 1011 72 10000 3.09 120 16:30 21.04.2022
1873 Clouds 29 1011 72 10000 3.6 120 15:21 21.04.2022
1874 Clouds 30 1010 73 10000 4.12 120 14:38 21.04.2022
1875 Clouds 30 1009 69 10000 4.12 110 13:23 21.04.2022
1876 Clouds 31 1008 68 10000 2.57 120 12:42 21.04.2022
1877 Clouds 34 1009 59 10000 4.63 0 10:45 21.04.2022
1878 Clouds 34 1008 61 10000 4.47 348 08:54 21.04.2022
1879 Clouds 34 1009 57 10000 4.12 130 07:24 21.04.2022
1880 Clouds 32 1011 75 10000 4.92 211 04:58 21.04.2022
1881 Clouds 31 1011 65 10000 2.57 260 03:26 21.04.2022
1882 Clouds 30 1011 66 9000 2.06 270 02:46 21.04.2022
1883 Clouds 30 1011 66 9000 2.06 270 02:46 21.04.2022
1884 Clouds 27 1010 77 10000 0 0 00:43 21.04.2022
1885 Clouds 27 1010 77 10000 0 0 00:43 21.04.2022
1886 Clouds 26 1009 82 10000 1.54 40 23:49 20.04.2022
1887 Clouds 26 1009 81 10000 1.54 40 23:21 20.04.2022
1888 Clouds 27 1009 79 10000 0.89 17 22:45 20.04.2022
1889 Clouds 27 1009 79 10000 0.51 0 22:26 20.04.2022
1890 Clouds 27 1009 77 10000 0.51 0 21:24 20.04.2022
1891 Clouds 27 1009 77 10000 1.03 0 20:23 20.04.2022
1892 Clouds 27 1009 77 10000 1.03 0 20:23 20.04.2022
1893 Clouds 28 1009 76 10000 1.03 90 19:51 20.04.2022
1894 Clouds 28 1010 75 10000 2.06 120 18:55 20.04.2022
1895 Clouds 28 1011 74 10000 2.57 120 17:53 20.04.2022
1896 Clouds 28 1011 71 10000 3.6 120 16:40 20.04.2022
1897 Clouds 28 1011 72 10000 3.6 120 16:18 20.04.2022
1898 Clouds 29 1009 70 10000 2.57 120 13:50 20.04.2022
1899 Clouds 30 1008 67 10000 3.6 120 11:44 20.04.2022
1900 Clouds 30 1008 68 10000 5.14 110 10:56 20.04.2022
1901 Clouds 32 1008 61 10000 4.63 120 09:46 20.04.2022
1902 Clouds 32 1008 60 10000 5.66 120 08:59 20.04.2022
1903 Clouds 31 1008 61 10000 5.66 120 08:20 20.04.2022
1904 Clouds 32 1009 63 10000 4.63 130 06:56 20.04.2022
1905 Clouds 30 1011 64 10000 2.06 0 03:34 20.04.2022
1906 Clouds 27 1009 72 10000 1.54 60 00:22 20.04.2022
1907 Clouds 27 1009 72 10000 1.03 0 23:35 19.04.2022
1908 Clouds 27 1009 75 10000 1.54 60 22:24 19.04.2022
1909 Clouds 27 1009 74 10000 2.06 110 21:55 19.04.2022
1910 Clouds 27 1009 74 10000 2.06 110 21:19 19.04.2022
1911 Clouds 27 1010 73 10000 2.06 90 20:41 19.04.2022
1912 Clouds 28 1010 71 10000 3.09 90 19:43 19.04.2022
1913 Clouds 28 1011 70 10000 3.6 110 18:47 19.04.2022
1914 Clouds 28 1011 69 10000 3.6 120 17:28 19.04.2022
1915 Clouds 28 1011 69 10000 3.09 110 16:43 19.04.2022
1916 Clouds 28 1011 69 10000 3.09 110 16:21 19.04.2022
1917 Clouds 29 1010 66 10000 2.57 100 14:48 19.04.2022
1918 Clouds 29 1009 65 10000 3.6 90 13:35 19.04.2022
1919 Clouds 30 1009 65 10000 4.12 110 12:50 19.04.2022
1920 Clouds 31 1008 60 10000 4.63 90 11:55 19.04.2022
1921 Clouds 32 1008 58 10000 4.12 110 10:23 19.04.2022
1922 Clouds 33 1009 56 10000 4.63 120 08:54 19.04.2022
1923 Clouds 32 1011 56 10000 3.6 110 04:42 19.04.2022
1924 Clouds 31 1012 57 10000 3.6 110 03:25 19.04.2022
1925 Clouds 26 1010 76 10000 1.54 80 00:28 19.04.2022
1926 Clouds 26 1009 76 10000 2.57 70 23:29 18.04.2022
1927 Clouds 26 1009 71 10000 2.06 90 21:30 18.04.2022
1928 Clouds 27 1010 72 10000 1.54 110 20:54 18.04.2022
1929 Clouds 27 1010 71 10000 1.54 110 20:30 18.04.2022
1930 Clouds 27 1010 71 10000 2.06 110 19:42 18.04.2022
1931 Clouds 27 1011 71 10000 2.57 90 18:54 18.04.2022
1932 Clouds 28 1011 69 10000 4.12 110 17:55 18.04.2022
1933 Clouds 28 1011 68 10000 4.12 110 17:33 18.04.2022
1934 Clouds 28 1011 68 10000 4.63 110 16:50 18.04.2022
1935 Clouds 28 1011 68 10000 4.63 110 16:22 18.04.2022
1936 Clouds 29 1010 67 10000 4.12 100 14:45 18.04.2022
1937 Clouds 30 1010 64 10000 4.63 110 13:35 18.04.2022
1938 Clouds 30 1009 64 10000 5.14 110 12:29 18.04.2022
1939 Clouds 31 1008 61 10000 5.66 110 11:34 18.04.2022
1940 Clouds 32 1008 58 10000 5.14 0 10:31 18.04.2022
1941 Clouds 33 1008 59 10000 5.14 120 09:30 18.04.2022
1942 Clouds 32 1009 57 10000 4.12 0 07:42 18.04.2022
1943 Clouds 33 1011 56 10000 4.63 100 05:35 18.04.2022
1944 Clouds 27 1010 75 10000 2.57 110 00:27 18.04.2022
1945 Clouds 27 1009 73 10000 2.57 110 22:40 17.04.2022
1946 Clouds 28 1009 73 10000 3.09 100 21:42 17.04.2022
1947 Clouds 28 1009 72 10000 3.09 100 21:22 17.04.2022
1948 Clouds 28 1010 72 10000 3.09 100 20:33 17.04.2022
1949 Clouds 28 1010 72 10000 3.6 120 19:23 17.04.2022
1950 Clouds 28 1010 71 10000 3.6 110 17:45 17.04.2022
1951 Clouds 28 1010 72 10000 2.06 0 15:39 17.04.2022
1952 Clouds 28 1009 72 10000 2.57 0 14:54 17.04.2022
1953 Clouds 28 1009 72 10000 2.57 0 14:54 17.04.2022
1954 Clouds 28 1009 70 10000 2.57 0 13:47 17.04.2022
1955 Clouds 28 1008 70 10000 3.09 120 12:58 17.04.2022
1956 Clouds 28 1008 70 10000 3.09 120 12:18 17.04.2022
1957 Clouds 30 1008 65 10000 4.12 110 10:46 17.04.2022
1958 Clouds 29 1008 67 10000 4.12 110 10:27 17.04.2022
1959 Clouds 29 1008 67 10000 4.12 110 10:27 17.04.2022
1960 Clouds 30 1009 64 10000 4.12 110 09:29 17.04.2022
1961 Clouds 30 1009 66 10000 4.12 110 08:42 17.04.2022
1962 Clouds 30 1010 68 10000 4.12 120 07:26 17.04.2022
1963 Clouds 29 1011 69 10000 4.63 110 03:53 17.04.2022
1964 Clouds 27 1009 74 10000 1.34 11 00:55 17.04.2022
1965 Clouds 27 1008 77 10000 2.06 80 23:50 16.04.2022
1966 Clouds 28 1008 75 10000 2.06 120 22:29 16.04.2022
1967 Clouds 28 1008 74 10000 2.57 120 21:31 16.04.2022
1968 Clouds 28 1008 74 10000 2.06 120 20:18 16.04.2022
1969 Clouds 28 1009 74 10000 2.06 120 18:55 16.04.2022
1970 Clouds 28 1009 73 10000 2.06 120 17:40 16.04.2022
1971 Clouds 29 1009 71 10000 2.06 130 16:34 16.04.2022
1972 Clouds 29 1008 70 10000 1.54 100 15:43 16.04.2022
1973 Clouds 29 1008 73 10000 1.54 150 14:55 16.04.2022
1974 Clouds 28 1007 75 10000 1.54 190 13:58 16.04.2022
1975 Clouds 28 1007 75 10000 1.54 190 13:28 16.04.2022
1976 Clouds 29 1006 71 10000 1.54 0 12:20 16.04.2022
1977 Clouds 31 1005 68 10000 4.47 48 10:49 16.04.2022
1978 Clouds 31 1005 68 10000 4.12 20 09:44 16.04.2022
1979 Clouds 31 1006 67 10000 4.12 350 08:57 16.04.2022
1980 Clouds 32 1006 62 10000 5.36 349 07:35 16.04.2022
1981 Clouds 32 1008 62 10000 3.58 319 06:58 16.04.2022
1982 Clouds 30 1009 70 10000 2.06 0 02:33 16.04.2022
1983 Clouds 26 1008 83 10000 2.57 70 00:23 16.04.2022
1984 Clouds 26 1007 81 10000 1.54 120 22:57 15.04.2022
1985 Clouds 26 1007 81 10000 1.54 120 22:31 15.04.2022
1986 Clouds 27 1007 80 10000 1.34 3 21:47 15.04.2022
1987 Clouds 28 1007 77 10000 3.6 170 20:56 15.04.2022
1988 Clouds 28 1007 78 10000 1.54 130 19:59 15.04.2022
1989 Clouds 28 1007 78 10000 1.54 130 19:39 15.04.2022
1990 Clouds 28 1008 78 10000 1.54 130 18:46 15.04.2022
1991 Clouds 28 1008 79 10000 1.54 130 18:24 15.04.2022
1992 Clouds 28 1008 80 10000 2.06 170 17:32 15.04.2022
1993 Clouds 28 1008 80 10000 2.06 140 16:26 15.04.2022
1994 Clouds 28 1008 81 10000 2.57 160 15:59 15.04.2022
1995 Clouds 28 1007 80 10000 2.57 0 14:41 15.04.2022
1996 Clouds 30 1006 70 10000 2.57 190 13:33 15.04.2022
1997 Clouds 30 1005 72 10000 4.63 250 12:40 15.04.2022
1998 Clouds 31 1005 69 10000 5.14 260 11:54 15.04.2022
1999 Clouds 32 1004 64 10000 11.62 206 10:53 15.04.2022
2000 Clouds 33 1004 59 10000 7.15 214 10:24 15.04.2022
2001 Clouds 34 1004 57 10000 4.12 270 09:38 15.04.2022
2002 Clouds 33 1004 57 10000 4.12 270 09:18 15.04.2022
2003 Clouds 32 1006 65 10000 5.14 270 06:56 15.04.2022
2004 Clouds 32 1007 64 10000 4.63 310 05:57 15.04.2022
2005 Clouds 29 1008 75 10000 4.47 15 01:49 15.04.2022
2006 Clouds 27 1006 82 10000 0.51 0 23:30 14.04.2022
2007 Clouds 27 1006 82 10000 0.51 0 22:47 14.04.2022
2008 Clouds 27 1006 81 10000 1.79 28 22:27 14.04.2022
2009 Clouds 27 1006 81 10000 1.79 28 22:27 14.04.2022
2010 Clouds 27 1006 80 10000 1.79 5 21:54 14.04.2022
2011 Clouds 28 1006 79 10000 1.54 200 20:35 14.04.2022
2012 Clouds 28 1006 79 10000 2.06 200 19:22 14.04.2022
2013 Clouds 28 1007 78 10000 2.24 354 17:58 14.04.2022
2014 Clouds 29 1007 77 10000 2.06 230 17:27 14.04.2022
2015 Clouds 29 1007 75 10000 4.12 260 16:33 14.04.2022
2016 Clouds 29 1006 75 10000 4.63 250 14:23 14.04.2022
2017 Clouds 29 1005 73 10000 4.63 230 13:31 14.04.2022
2018 Clouds 30 1004 68 10000 5.66 240 12:42 14.04.2022
2019 Clouds 30 1004 67 10000 5.66 240 12:22 14.04.2022
2020 Clouds 32 1003 67 10000 7.6 195 11:21 14.04.2022
2021 Clouds 32 1003 65 10000 7.6 201 10:36 14.04.2022
2022 Clouds 32 1004 67 10000 8.05 203 09:54 14.04.2022
2023 Clouds 32 1004 61 10000 9.83 209 08:39 14.04.2022
2024 Clouds 33 1006 58 10000 4.12 270 06:26 14.04.2022
2025 Clouds 28 1006 79 10000 4.92 7 01:50 14.04.2022
2026 Clouds 27 1004 87 10000 0.51 0 22:45 13.04.2022
2027 Clouds 27 1004 84 10000 0 0 21:44 13.04.2022
2028 Clouds 27 1005 85 10000 0.51 0 20:48 13.04.2022
2029 Clouds 27 1005 85 10000 0.89 199 20:18 13.04.2022
2030 Clouds 28 1005 83 10000 0.51 0 18:50 13.04.2022
2031 Clouds 28 1006 83 10000 1.03 0 17:54 13.04.2022
2032 Clouds 28 1006 83 10000 1.03 0 17:23 13.04.2022
2033 Clouds 28 1006 81 10000 1.03 0 16:33 13.04.2022
2034 Clouds 28 1006 81 10000 1.54 230 15:32 13.04.2022
2035 Clouds 29 1005 79 10000 2.57 240 14:50 13.04.2022
2036 Clouds 29 1005 79 10000 3.09 230 13:58 13.04.2022
2037 Clouds 29 1004 78 10000 2.24 179 13:00 13.04.2022
2038 Clouds 29 1004 79 10000 4.92 185 12:20 13.04.2022
2039 Rain 30 1003 72 10000 6.17 260 10:46 13.04.2022
2040 Clouds 31 1004 68 10000 6.26 209 08:57 13.04.2022
2041 Clouds 31 1004 66 10000 5.81 211 08:31 13.04.2022
2042 Clouds 32 1005 64 10000 1.54 0 06:51 13.04.2022
2043 Clouds 32 1005 64 10000 5.81 211 06:25 13.04.2022
2044 Clouds 28 1006 83 9000 1.34 207 03:31 13.04.2022
2045 Clouds 26 1005 91 9000 0.51 0 00:20 13.04.2022
2046 Clouds 26 1004 89 9000 0 0 22:46 12.04.2022
2047 Clouds 26 1004 89 9000 0.51 0 21:57 12.04.2022
2048 Clouds 26 1005 91 9000 1.03 0 20:49 12.04.2022
2049 Clouds 26 1005 92 9000 1.03 0 20:27 12.04.2022
2050 Clouds 26 1005 92 9000 0.51 0 19:47 12.04.2022
2051 Clouds 26 1005 92 9000 0.51 0 19:28 12.04.2022
2052 Rain 28 1008 81 10000 1.79 2 17:50 12.04.2022
2053 Rain 28 1006 78 10000 1.03 0 16:53 12.04.2022
2054 Clouds 28 1006 78 10000 1.03 0 15:52 12.04.2022
2055 Clouds 28 1006 78 10000 1.03 0 15:25 12.04.2022
2056 Clouds 26 1005 90 10000 2.24 185 13:54 12.04.2022
2057 Rain 26 1005 90 10000 3.58 202 13:27 12.04.2022
2058 Rain 29 1004 80 10000 4.47 227 12:31 12.04.2022
2059 Rain 29 1004 80 10000 4.12 260 11:40 12.04.2022
2060 Clouds 30 1003 71 10000 8.05 212 10:29 12.04.2022
2061 Clouds 30 1004 70 9000 8.05 215 08:54 12.04.2022
2062 Clouds 31 1005 70 9000 3.58 228 07:47 12.04.2022
2063 Clouds 29 1007 76 9000 3.6 270 05:47 12.04.2022
2064 Rain 29 1007 74 10000 2.06 0 03:28 12.04.2022
2065 Rain 27 1005 82 10000 1.79 7 23:36 11.04.2022
2066 Rain 27 1005 81 10000 0.89 4 22:44 11.04.2022
2067 Clouds 27 1005 83 10000 2.06 260 21:36 11.04.2022
2068 Clouds 27 1005 83 10000 0.51 0 20:49 11.04.2022
2069 Clouds 27 1005 85 10000 0.51 0 20:28 11.04.2022
2070 Rain 27 1006 84 10000 1.79 204 19:29 11.04.2022
2071 Rain 28 1006 84 10000 2.06 200 18:59 11.04.2022
2072 Clouds 28 1006 84 10000 2.06 200 18:37 11.04.2022
2073 Clouds 28 1006 75 10000 1.54 190 17:44 11.04.2022
2074 Clouds 29 1007 72 10000 1.03 0 16:38 11.04.2022
2075 Clouds 29 1007 69 10000 1.03 0 15:24 11.04.2022
2076 Clouds 29 1005 69 10000 2.06 0 13:44 11.04.2022
2077 Rain 30 1005 65 10000 2.06 0 12:41 11.04.2022
2078 Rain 30 1004 64 10000 3.13 45 12:22 11.04.2022
2079 Clouds 32 1004 58 10000 4.02 356 10:47 11.04.2022
2080 Clouds 32 1003 60 10000 3.6 60 09:58 11.04.2022
2081 Clouds 33 1004 58 10000 2.57 0 08:22 11.04.2022
2082 Clouds 29 1007 67 9000 4.02 1 04:57 11.04.2022
2083 Clouds 26 1007 80 10000 1.79 355 00:30 11.04.2022
2084 Clouds 27 1006 82 10000 1.03 200 22:27 10.04.2022
2085 Clouds 27 1006 81 10000 1.03 280 21:53 10.04.2022
2086 Clouds 27 1007 80 10000 1.03 0 20:55 10.04.2022
2087 Rain 27 1007 77 10000 0.51 0 19:58 10.04.2022
2088 Rain 27 1007 77 10000 0.89 4 19:34 10.04.2022
2089 Rain 27 1008 77 10000 0.51 0 18:50 10.04.2022
2090 Clouds 28 1008 76 10000 0.89 12 18:25 10.04.2022
2091 Clouds 28 1008 77 10000 0.89 47 17:43 10.04.2022
2092 Clouds 28 1008 77 10000 1.03 0 16:52 10.04.2022
2093 Clouds 28 1008 76 10000 1.34 11 15:38 10.04.2022
2094 Clouds 28 1007 75 10000 1.54 110 14:41 10.04.2022
2095 Clouds 29 1007 73 10000 2.06 130 13:22 10.04.2022
2096 Clouds 29 1006 71 10000 2.57 110 12:26 10.04.2022
2097 Rain 30 1005 67 10000 3.09 90 11:36 10.04.2022
2098 Rain 30 1005 68 10000 1.54 170 10:58 10.04.2022
2099 Clouds 30 1005 71 10000 2.24 36 10:23 10.04.2022
2100 Clouds 30 1005 69 10000 2.24 342 09:41 10.04.2022
2101 Clouds 31 1005 64 10000 3.09 120 08:26 10.04.2022
2102 Clouds 31 1006 64 9000 3.13 222 07:47 10.04.2022
2103 Clouds 31 1007 66 10000 2.68 357 06:43 10.04.2022
2104 Clouds 29 1008 70 10000 1.03 0 02:48 10.04.2022
2105 Clouds 26 1007 83 10000 1.34 4 00:51 10.04.2022
2106 Clouds 26 1006 83 10000 1.03 0 23:50 09.04.2022
2107 Clouds 26 1005 82 10000 1.79 1 22:50 09.04.2022
2108 Clouds 26 1006 81 10000 1.03 0 21:48 09.04.2022
2109 Clouds 27 1006 80 10000 1.79 336 20:57 09.04.2022
2110 Clouds 27 1006 79 10000 0.51 0 20:26 09.04.2022
2111 Clouds 27 1007 78 10000 1.03 0 19:42 09.04.2022
2112 Clouds 27 1007 77 10000 1.03 0 19:18 09.04.2022
2113 Clouds 27 1007 76 10000 2.06 0 18:21 09.04.2022
2114 Clouds 28 1008 74 10000 2.57 120 17:39 09.04.2022
2115 Clouds 28 1008 73 10000 1.54 130 16:53 09.04.2022
2116 Clouds 28 1008 73 10000 3.09 120 15:58 09.04.2022
2117 Clouds 28 1007 72 10000 3.09 120 15:39 09.04.2022
2118 Clouds 28 1007 71 10000 2.57 110 14:44 09.04.2022
2119 Clouds 29 1007 71 10000 2.57 110 14:23 09.04.2022
2120 Clouds 29 1006 68 10000 3.09 110 13:20 09.04.2022
2121 Clouds 30 1005 66 10000 3.09 120 12:50 09.04.2022
2122 Clouds 30 1005 69 10000 2.57 80 11:38 09.04.2022
2123 Clouds 32 1004 63 10000 3.6 0 10:21 09.04.2022
2124 Clouds 32 1004 61 10000 3.6 140 09:42 09.04.2022
2125 Clouds 32 1005 60 10000 3.6 150 08:54 09.04.2022
2126 Clouds 32 1005 61 10000 4.02 198 07:21 09.04.2022
2127 Clouds 29 1008 68 10000 0.45 100 02:20 09.04.2022
2128 Clouds 26 1006 84 10000 0.51 0 23:45 08.04.2022
2129 Clouds 26 1006 83 10000 1.54 60 22:55 08.04.2022
2130 Clouds 27 1006 80 10000 1.03 0 21:29 08.04.2022
2131 Clouds 27 1006 79 10000 1.54 110 20:39 08.04.2022
2132 Clouds 27 1007 79 10000 1.54 130 19:20 08.04.2022
2133 Clouds 27 1008 80 10000 1.03 0 18:30 08.04.2022
2134 Clouds 27 1008 78 10000 2.57 40 17:49 08.04.2022
2135 Clouds 27 1008 77 10000 2.57 40 17:25 08.04.2022
2136 Clouds 27 1008 77 10000 2.06 60 16:47 08.04.2022
2137 Clouds 28 1008 76 10000 2.06 100 15:57 08.04.2022
2138 Clouds 28 1008 76 10000 2.06 100 15:26 08.04.2022
2139 Clouds 28 1007 75 10000 2.06 120 14:33 08.04.2022
2140 Clouds 28 1006 75 10000 2.57 130 13:46 08.04.2022
2141 Clouds 28 1006 75 10000 2.57 130 13:27 08.04.2022
2142 Clouds 29 1005 73 10000 4.12 120 11:56 08.04.2022
2143 Clouds 29 1005 74 10000 4.63 130 10:33 08.04.2022
2144 Clouds 30 1004 68 10000 4.12 140 09:38 08.04.2022
2145 Rain 29 1007 74 10000 2.06 160 08:44 08.04.2022
2146 Rain 28 1009 78 9000 4.12 110 06:54 08.04.2022
2147 Rain 30 1008 68 10000 4.47 204 04:58 08.04.2022
2148 Clouds 27 1007 77 10000 2.06 320 01:27 08.04.2022
2149 Clouds 26 1006 83 10000 1.79 349 00:25 08.04.2022
2150 Clouds 26 1006 81 10000 1.34 4 22:59 07.04.2022
2151 Clouds 26 1006 81 10000 1.03 50 22:39 07.04.2022
2152 Clouds 26 1006 81 10000 1.03 50 22:20 07.04.2022
2153 Clouds 27 1006 79 10000 1.34 26 21:49 07.04.2022
2154 Clouds 27 1006 78 10000 1.03 0 21:19 07.04.2022
2155 Clouds 27 1007 78 10000 1.03 0 20:31 07.04.2022
2156 Clouds 27 1008 78 10000 1.54 100 18:34 07.04.2022
2157 Clouds 28 1009 77 10000 1.54 50 17:26 07.04.2022
2158 Clouds 28 1009 76 10000 1.54 90 16:44 07.04.2022
2159 Clouds 28 1009 76 10000 1.54 90 16:21 07.04.2022
2160 Clouds 28 1008 75 10000 3.58 73 14:42 07.04.2022
2161 Clouds 28 1007 70 10000 3.6 60 13:42 07.04.2022
2162 Clouds 29 1007 68 10000 4.12 40 12:46 07.04.2022
2163 Clouds 30 1006 64 10000 4.92 37 11:30 07.04.2022
2164 Clouds 32 1005 66 10000 5.36 6 09:37 07.04.2022
2165 Clouds 32 1005 63 10000 3.58 2 08:38 07.04.2022
2166 Clouds 32 1007 64 10000 5.14 280 06:42 07.04.2022
2167 Clouds 29 1009 72 10000 1.03 0 02:51 07.04.2022
2168 Clouds 28 1009 74 10000 3.13 352 02:20 07.04.2022
2169 Clouds 25 1008 88 10000 0.51 0 00:26 07.04.2022
2170 Clouds 26 1007 86 10000 1.03 0 22:49 06.04.2022
2171 Clouds 26 1007 86 10000 1.03 0 22:26 06.04.2022
2172 Clouds 26 1007 86 10000 0.45 15 21:34 06.04.2022
2173 Clouds 26 1008 83 10000 0.51 0 20:35 06.04.2022
2174 Clouds 27 1008 82 10000 0.89 41 19:53 06.04.2022
2175 Clouds 26 1009 83 10000 0 0 18:51 06.04.2022
2176 Clouds 26 1009 84 10000 0 0 18:22 06.04.2022
2177 Clouds 27 1010 83 10000 1.03 60 17:35 06.04.2022
2178 Clouds 27 1010 80 10000 1.03 0 16:38 06.04.2022
2179 Clouds 28 1009 77 10000 1.54 100 15:48 06.04.2022
2180 Clouds 27 1009 77 10000 0.45 356 14:57 06.04.2022
2181 Clouds 28 1009 76 10000 0.89 25 13:23 06.04.2022
2182 Clouds 29 1008 75 10000 2.24 39 12:22 06.04.2022
2183 Clouds 30 1007 71 10000 4.02 22 10:47 06.04.2022
2184 Clouds 30 1007 70 10000 3.6 120 10:24 06.04.2022
2185 Clouds 31 1007 68 10000 3.6 100 09:40 06.04.2022
2186 Clouds 31 1008 66 8000 2.68 336 08:32 06.04.2022
2187 Clouds 31 1009 69 10000 3.58 8 07:49 06.04.2022
2188 Rain 28 1011 77 10000 3.09 290 03:53 06.04.2022
2189 Clouds 24 1010 94 10000 1.54 80 23:52 05.04.2022
2190 Clouds 24 1009 96 10000 1.03 0 22:31 05.04.2022
2191 Clouds 24 1009 94 10000 0.51 0 21:20 05.04.2022
2192 Clouds 24 1010 98 10000 1.03 60 20:25 05.04.2022
2193 Clouds 24 1010 95 10000 1.03 0 19:41 05.04.2022
2194 Clouds 24 1013 100 10000 1.03 0 17:55 05.04.2022
2195 Clouds 24 1013 94 10000 2.06 50 16:54 05.04.2022
2196 Clouds 24 1013 94 9000 1.54 70 15:56 05.04.2022
2197 Rain 24 1013 94 9000 1.54 70 15:34 05.04.2022
2198 Rain 25 1013 94 7000 3.09 80 14:35 05.04.2022
2199 Rain 25 1012 94 8000 2.06 60 13:21 05.04.2022
2200 Rain 25 1012 94 8000 2.57 70 11:51 05.04.2022
2201 Rain 25 1012 94 8000 2.57 70 11:51 05.04.2022
2202 Rain 25 1012 94 8000 2.57 70 11:32 05.04.2022
2203 Rain 25 1011 94 9000 2.06 90 09:55 05.04.2022
2204 Rain 29 1010 67 10000 5.32 64 08:52 05.04.2022
2205 Rain 26 1013 94 9000 2.57 60 06:58 05.04.2022
2206 Rain 25 1013 94 8000 1.03 0 01:51 05.04.2022
2207 Clouds 25 1011 92 5000 1.79 331 22:42 04.04.2022
2208 Clouds 25 1012 92 5000 1.54 30 22:22 04.04.2022
2209 Clouds 25 1011 87 10000 2.57 50 21:21 04.04.2022
2210 Clouds 25 1011 87 10000 2.57 50 21:21 04.04.2022
2211 Clouds 27 1011 82 10000 2.06 10 20:49 04.04.2022
2212 Clouds 27 1011 74 10000 2.06 360 19:45 04.04.2022
2213 Clouds 27 1011 74 10000 2.68 6 19:25 04.04.2022
2214 Clouds 28 1012 70 10000 1.79 18 18:20 04.04.2022
2215 Clouds 28 1013 67 10000 1.79 341 16:36 04.04.2022
2216 Clouds 28 1012 67 10000 1.54 70 15:43 04.04.2022
2217 Clouds 28 1012 66 10000 1.54 70 15:25 04.04.2022
2218 Clouds 29 1012 62 10000 2.06 100 14:46 04.04.2022
2219 Clouds 29 1011 58 10000 5.14 70 13:22 04.04.2022
2220 Clouds 31 1010 55 10000 8.23 60 11:55 04.04.2022
2221 Clouds 31 1009 55 10000 8.23 60 11:28 04.04.2022
2222 Clouds 33 1010 52 10000 4.63 120 08:54 04.04.2022
2223 Clouds 30 1013 61 10000 3.09 90 04:18 04.04.2022
2224 Clouds 26 1011 74 10000 1.03 0 00:44 04.04.2022
2225 Clouds 26 1010 77 10000 2.57 60 22:40 03.04.2022
2226 Clouds 26 1010 73 10000 2.06 70 21:45 03.04.2022
2227 Clouds 27 1010 69 10000 3.09 120 20:54 03.04.2022
2228 Clouds 27 1011 68 10000 3.6 120 19:49 03.04.2022
2229 Clouds 27 1011 68 10000 3.09 140 18:32 03.04.2022
2230 Clouds 27 1012 65 10000 2.57 120 17:47 03.04.2022
2231 Clouds 28 1012 63 10000 2.57 110 16:57 03.04.2022
2232 Clouds 28 1012 63 10000 2.57 110 16:39 03.04.2022
2233 Clouds 28 1010 60 10000 2.57 110 14:39 03.04.2022
2234 Clouds 28 1010 57 10000 3.6 70 13:51 03.04.2022
2235 Clouds 30 1009 51 10000 4.63 80 12:41 03.04.2022
2236 Clouds 32 1008 53 10000 5.14 130 10:58 03.04.2022
2237 Clouds 33 1009 55 10000 5.14 130 09:36 03.04.2022
2238 Clouds 33 1009 55 10000 5.14 130 08:27 03.04.2022
2239 Clouds 31 1012 55 10000 2.57 0 04:42 03.04.2022
2240 Clouds 27 1011 68 10000 2.06 70 01:53 03.04.2022
2241 Clouds 25 1010 73 10000 1.03 100 23:21 02.04.2022
2242 Clouds 26 1010 69 10000 1.54 100 21:58 02.04.2022
2243 Clouds 26 1010 69 10000 1.54 100 21:36 02.04.2022
2244 Clouds 26 1010 68 10000 1.54 100 21:18 02.04.2022
2245 Clouds 26 1011 67 10000 2.57 60 19:53 02.04.2022
2246 Clouds 27 1011 67 10000 3.09 120 18:23 02.04.2022
2247 Clouds 27 1012 67 10000 2.57 110 17:53 02.04.2022
2248 Clouds 28 1012 64 10000 3.09 120 16:27 02.04.2022
2249 Clouds 28 1011 61 10000 2.57 100 15:22 02.04.2022
2250 Clouds 28 1010 62 10000 3.13 57 14:49 02.04.2022
2251 Clouds 29 1010 56 10000 3.09 100 13:36 02.04.2022
2252 Clouds 30 1009 54 10000 3.6 110 12:47 02.04.2022
2253 Clouds 32 1008 53 10000 4.12 120 11:31 02.04.2022
2254 Clouds 33 1008 52 10000 5.14 110 09:30 02.04.2022
2255 Clouds 33 1010 53 10000 3.09 0 06:51 02.04.2022
2256 Clouds 31 1012 62 10000 3.13 313 03:53 02.04.2022
2257 Clouds 26 1010 81 10000 2.06 70 23:58 01.04.2022
2258 Clouds 26 1010 81 10000 2.06 70 23:30 01.04.2022
2259 Clouds 26 1010 80 10000 2.06 60 21:42 01.04.2022
2260 Clouds 27 1010 78 10000 3.09 70 20:51 01.04.2022
2261 Clouds 27 1010 78 10000 3.09 70 20:28 01.04.2022
2262 Clouds 28 1011 75 10000 2.06 100 19:34 01.04.2022
2263 Clouds 28 1011 74 10000 1.54 90 18:49 01.04.2022
2264 Clouds 28 1012 75 10000 2.57 110 17:47 01.04.2022
2265 Clouds 27 1012 76 10000 2.06 60 16:53 01.04.2022
2266 Clouds 28 1011 74 10000 2.57 100 15:41 01.04.2022
2267 Clouds 29 1011 71 10000 3.09 110 14:25 01.04.2022
2268 Clouds 28 1010 72 10000 3.6 120 13:34 01.04.2022
2269 Rain 29 1010 70 10000 2.57 90 12:32 01.04.2022
2270 Rain 28 1009 72 10000 0.89 349 11:41 01.04.2022
2271 Rain 31 1008 63 10000 2.24 134 10:19 01.04.2022
2272 Rain 30 1011 69 10000 3.6 0 08:58 01.04.2022
2273 Clouds 32 1010 60 10000 3.09 130 06:54 01.04.2022
2274 Clouds 33 1012 58 10000 2.57 0 04:51 01.04.2022
2275 Rain 33 1012 58 10000 2.57 0 04:31 01.04.2022
2276 Clouds 30 1011 69 10000 1.54 120 01:57 01.04.2022
2277 Clouds 28 1010 77 10000 2.57 100 23:58 31.03.2022
2278 Clouds 28 1010 75 10000 2.57 80 21:53 31.03.2022
2279 Clouds 28 1010 75 10000 2.57 80 21:32 31.03.2022
2280 Clouds 29 1010 72 10000 2.57 110 20:29 31.03.2022
2281 Clouds 29 1010 72 10000 2.57 110 19:50 31.03.2022
2282 Clouds 29 1011 72 10000 3.09 110 18:46 31.03.2022
2283 Clouds 29 1011 71 10000 2.57 110 17:49 31.03.2022
2284 Clouds 29 1011 69 10000 3.09 100 16:38 31.03.2022
2285 Clouds 29 1011 68 10000 3.09 110 15:45 31.03.2022
2286 Clouds 30 1011 68 10000 3.09 110 15:19 31.03.2022
2287 Clouds 30 1010 66 10000 4.12 110 14:36 31.03.2022
2288 Clouds 32 1008 60 10000 4.63 110 11:57 31.03.2022
2289 Clouds 33 1008 58 10000 4.63 110 11:20 31.03.2022
2290 Clouds 34 1008 54 10000 5.14 0 09:45 31.03.2022
2291 Clouds 34 1008 54 10000 5.14 0 09:45 31.03.2022
2292 Clouds 34 1009 53 10000 4.63 140 07:59 31.03.2022
2293 Clouds 34 1011 54 10000 3.09 120 05:23 31.03.2022
2294 Clouds 27 1010 80 10000 1.54 80 23:43 30.03.2022
2295 Clouds 28 1010 77 10000 1.54 110 22:43 30.03.2022
2296 Clouds 28 1011 75 10000 1.54 110 21:39 30.03.2022
2297 Clouds 28 1011 75 10000 0.51 0 20:54 30.03.2022
2298 Clouds 28 1011 74 10000 3.13 6 20:20 30.03.2022
2299 Clouds 28 1011 74 10000 3.13 6 20:20 30.03.2022
2300 Clouds 28 1011 73 10000 1.03 0 19:19 30.03.2022
2301 Clouds 29 1012 72 10000 2.06 120 18:19 30.03.2022
2302 Clouds 29 1012 72 10000 1.54 110 17:45 30.03.2022
2303 Clouds 29 1012 71 10000 2.06 120 16:56 30.03.2022
2304 Clouds 29 1012 71 10000 2.06 120 16:32 30.03.2022
2305 Clouds 30 1011 68 10000 2.57 90 14:59 30.03.2022
2306 Clouds 30 1010 66 10000 3.09 100 13:35 30.03.2022
2307 Clouds 30 1009 69 10000 3.13 84 12:42 30.03.2022
2308 Clouds 32 1008 60 10000 5.14 120 10:58 30.03.2022
2309 Clouds 34 1008 54 10000 5.66 0 09:59 30.03.2022
2310 Clouds 34 1008 55 10000 5.66 0 09:20 30.03.2022
2311 Clouds 34 1009 54 10000 5.66 120 07:31 30.03.2022
2312 Clouds 34 1010 51 10000 4.63 120 05:40 30.03.2022
2313 Clouds 31 1012 61 10000 5.14 90 03:31 30.03.2022
2314 Clouds 28 1010 76 10000 3.09 100 23:42 29.03.2022
2315 Clouds 28 1010 74 10000 3.6 100 22:19 29.03.2022
2316 Clouds 28 1010 73 10000 3.6 100 21:41 29.03.2022
2317 Clouds 28 1010 72 10000 3.6 100 20:49 29.03.2022
2318 Clouds 29 1011 70 10000 3.6 110 19:47 29.03.2022
2319 Clouds 29 1011 69 10000 4.12 110 18:54 29.03.2022
2320 Clouds 29 1011 69 10000 4.12 110 18:18 29.03.2022
2321 Clouds 29 1011 68 10000 2.57 100 17:20 29.03.2022
2322 Clouds 29 1011 68 10000 3.09 100 16:55 29.03.2022
2323 Clouds 29 1011 67 10000 3.13 88 15:47 29.03.2022
2324 Clouds 30 1010 67 10000 3.6 120 14:44 29.03.2022
2325 Clouds 30 1010 67 10000 3.6 110 13:41 29.03.2022
2326 Clouds 31 1009 65 10000 5.14 120 12:40 29.03.2022
2327 Clouds 32 1008 61 10000 5.14 110 11:27 29.03.2022
2328 Clouds 33 1008 59 10000 5.66 110 10:23 29.03.2022
2329 Clouds 34 1008 57 10000 5.66 110 08:57 29.03.2022
2330 Clouds 33 1009 59 10000 5.66 100 06:53 29.03.2022
2331 Clouds 32 1011 64 10000 4.63 110 03:19 29.03.2022
2332 Clouds 28 1009 76 10000 1.54 100 23:46 28.03.2022
2333 Clouds 28 1009 77 10000 1.54 50 22:58 28.03.2022
2334 Clouds 28 1009 77 10000 1.54 50 22:58 28.03.2022
2335 Clouds 28 1009 77 10000 1.54 50 22:35 28.03.2022
2336 Clouds 28 1009 75 10000 2.06 100 21:47 28.03.2022
2337 Clouds 28 1009 72 10000 3.09 110 20:41 28.03.2022
2338 Clouds 28 1010 71 10000 2.06 110 19:57 28.03.2022
2339 Clouds 29 1010 71 10000 2.06 110 19:38 28.03.2022
2340 Clouds 29 1011 67 10000 2.06 100 18:51 28.03.2022
2341 Clouds 29 1011 68 10000 3.6 100 17:41 28.03.2022
2342 Clouds 29 1011 68 10000 3.09 110 16:56 28.03.2022
2343 Clouds 29 1011 67 10000 3.6 100 15:22 28.03.2022
2344 Clouds 29 1010 67 10000 4.12 120 14:24 28.03.2022
2345 Clouds 30 1009 65 10000 5.14 120 13:19 28.03.2022
2346 Clouds 32 1008 61 10000 4.63 120 11:52 28.03.2022
2347 Clouds 34 1008 54 10000 6.17 120 09:58 28.03.2022
2348 Clouds 34 1008 53 10000 6.17 120 09:21 28.03.2022
2349 Clouds 34 1008 54 10000 6.69 130 08:39 28.03.2022
2350 Clouds 33 1008 54 10000 6.69 130 08:18 28.03.2022
2351 Clouds 34 1011 56 10000 3.6 140 06:31 28.03.2022
2352 Clouds 27 1010 75 10000 1.54 40 00:30 28.03.2022
2353 Clouds 27 1009 77 10000 1.34 4 22:35 27.03.2022
2354 Clouds 27 1009 76 10000 1.03 0 21:43 27.03.2022
2355 Clouds 27 1009 76 10000 1.03 0 21:18 27.03.2022
2356 Clouds 27 1009 74 10000 1.03 0 20:24 27.03.2022
2357 Clouds 28 1010 73 10000 1.34 27 19:37 27.03.2022
2358 Clouds 28 1010 71 10000 1.54 110 18:42 27.03.2022
2359 Clouds 28 1010 71 10000 1.54 110 18:23 27.03.2022
2360 Clouds 28 1010 70 10000 1.54 110 17:35 27.03.2022
2361 Clouds 29 1010 68 10000 3.09 100 15:47 27.03.2022
2362 Clouds 30 1009 65 10000 3.13 64 13:57 27.03.2022
2363 Clouds 30 1009 64 10000 3.09 100 13:20 27.03.2022
2364 Clouds 32 1008 63 10000 5.14 120 11:33 27.03.2022
2365 Clouds 34 1007 57 10000 6.26 338 09:37 27.03.2022
2366 Clouds 33 1010 61 10000 4.63 120 06:58 27.03.2022
2367 Clouds 32 1012 58 10000 4.63 100 03:39 27.03.2022
2368 Clouds 29 1011 68 10000 2.57 110 00:25 27.03.2022
2369 Clouds 28 1010 75 10000 1.54 0 22:45 26.03.2022
2370 Clouds 28 1009 75 10000 1.54 100 21:51 26.03.2022
2371 Clouds 28 1009 74 10000 1.54 100 21:28 26.03.2022
2372 Clouds 28 1010 73 10000 2.57 130 19:32 26.03.2022
2373 Clouds 29 1010 73 10000 2.57 150 18:40 26.03.2022
2374 Clouds 29 1010 74 10000 3.13 351 17:34 26.03.2022
2375 Clouds 29 1011 73 10000 2.57 130 16:33 26.03.2022
2376 Clouds 30 1010 73 10000 3.09 130 15:37 26.03.2022
2377 Clouds 30 1010 71 10000 3.09 130 13:55 26.03.2022
2378 Clouds 30 1010 71 10000 3.09 130 13:19 26.03.2022
2379 Clouds 32 1009 65 10000 3.6 140 11:42 26.03.2022
2380 Clouds 33 1008 61 10000 4.12 0 10:44 26.03.2022
2381 Clouds 34 1008 55 10000 3.6 0 08:46 26.03.2022
2382 Clouds 34 1010 57 10000 4.12 130 06:37 26.03.2022
2383 Clouds 33 1012 59 10000 4.63 0 05:29 26.03.2022
2384 Clouds 29 1012 71 10000 0.51 0 00:41 26.03.2022
2385 Clouds 28 1010 72 10000 1.03 0 21:56 25.03.2022
2386 Clouds 28 1010 71 10000 1.03 0 20:46 25.03.2022
2387 Clouds 28 1010 71 10000 1.03 0 20:20 25.03.2022
2388 Clouds 29 1011 67 10000 2.57 90 18:51 25.03.2022
2389 Clouds 29 1011 67 10000 3.6 110 17:49 25.03.2022
2390 Clouds 29 1011 67 10000 3.6 110 17:27 25.03.2022
2391 Clouds 29 1012 69 10000 3.09 100 16:19 25.03.2022
2392 Clouds 29 1011 71 10000 4.12 90 14:49 25.03.2022
2393 Clouds 30 1010 68 10000 3.6 100 13:26 25.03.2022
2394 Clouds 33 1009 61 10000 4.12 120 10:35 25.03.2022
2395 Clouds 34 1009 58 10000 3.6 130 09:28 25.03.2022
2396 Clouds 33 1009 58 10000 5.14 100 08:24 25.03.2022
2397 Clouds 33 1009 59 10000 5.81 353 07:28 25.03.2022
2398 Clouds 33 1010 58 10000 4.63 120 06:29 25.03.2022
2399 Clouds 30 1012 64 10000 3.09 110 01:32 25.03.2022
2400 Clouds 28 1010 77 10000 3.6 110 22:53 24.03.2022
2401 Clouds 28 1010 75 10000 2.57 120 21:52 24.03.2022
2402 Clouds 28 1009 74 10000 3.6 110 20:37 24.03.2022
2403 Clouds 28 1010 73 10000 4.12 100 19:47 24.03.2022
2404 Clouds 28 1010 72 10000 3.6 110 17:50 24.03.2022
2405 Clouds 28 1010 72 10000 3.6 110 17:23 24.03.2022
2406 Clouds 29 1011 70 10000 4.63 110 15:45 24.03.2022
2407 Clouds 29 1011 70 10000 5.14 110 14:50 24.03.2022
2408 Clouds 29 1011 69 10000 5.14 110 14:19 24.03.2022
2409 Clouds 29 1010 64 10000 5.14 110 13:23 24.03.2022
2410 Clouds 31 1009 61 10000 5.14 120 11:47 24.03.2022
2411 Clouds 33 1008 61 10000 5.14 130 09:55 24.03.2022
2412 Clouds 33 1008 61 10000 5.14 130 08:42 24.03.2022
2413 Clouds 34 1009 59 10000 4.63 0 06:49 24.03.2022
2414 Clouds 32 1011 64 10000 3.13 199 03:57 24.03.2022
2415 Clouds 28 1009 82 10000 2.06 110 23:20 23.03.2022
2416 Clouds 28 1009 80 10000 2.06 100 21:40 23.03.2022
2417 Clouds 28 1009 80 10000 2.06 100 21:18 23.03.2022
2418 Clouds 28 1010 83 9000 1.54 140 19:46 23.03.2022
2419 Clouds 27 1010 86 9000 0.51 0 18:45 23.03.2022
2420 Clouds 27 1011 89 9000 2.57 260 17:36 23.03.2022
2421 Clouds 27 1011 85 9000 2.57 0 16:39 23.03.2022
2422 Clouds 30 1010 78 10000 3.58 338 14:51 23.03.2022
2423 Clouds 30 1010 75 10000 4.47 211 14:26 23.03.2022
2424 Clouds 30 1009 73 10000 6.71 206 12:51 23.03.2022
2425 Clouds 34 1007 58 10000 3.09 140 09:42 23.03.2022
2426 Clouds 35 1008 54 10000 3.6 120 06:41 23.03.2022
2427 Clouds 33 1010 57 10000 4.47 237 04:41 23.03.2022
2428 Clouds 28 1010 69 10000 1.34 13 00:29 23.03.2022
2429 Clouds 28 1010 75 10000 1.54 120 22:46 22.03.2022
2430 Clouds 28 1010 74 10000 1.03 0 21:30 22.03.2022
2431 Clouds 28 1010 75 10000 2.06 120 20:45 22.03.2022
2432 Clouds 28 1010 76 10000 2.57 110 19:43 22.03.2022
2433 Clouds 28 1009 75 10000 3.11 117 19:18 22.03.2022
2434 Clouds 29 1011 73 10000 3.09 120 18:31 22.03.2022
2435 Clouds 29 1011 74 10000 3.09 130 17:29 22.03.2022
2436 Clouds 29 1011 74 10000 3.09 130 16:21 22.03.2022
2437 Clouds 30 1011 72 10000 2.57 130 15:22 22.03.2022
2438 Clouds 30 1010 72 10000 2.06 0 14:46 22.03.2022
2439 Clouds 30 1010 72 10000 2.06 0 14:27 22.03.2022
2440 Clouds 30 1010 70 10000 3.09 130 13:27 22.03.2022
2441 Clouds 32 1009 65 10000 3.6 130 11:52 22.03.2022
2442 Clouds 33 1008 61 10000 4.63 130 10:35 22.03.2022
2443 Clouds 35 1008 58 10000 4.63 0 08:24 22.03.2022
2444 Clouds 33 1011 59 10000 3.6 0 05:25 22.03.2022
2445 Clouds 33 1012 59 10000 3.58 84 03:46 22.03.2022
2446 Clouds 28 1011 76 10000 3.58 1 23:59 21.03.2022
2447 Clouds 27 1011 76 10000 1.03 80 22:29 21.03.2022
2448 Clouds 28 1011 69 10000 1.03 0 20:54 21.03.2022
2449 Clouds 28 1011 70 10000 1.03 0 20:34 21.03.2022
2450 Clouds 28 1011 68 10000 1.54 100 19:58 21.03.2022
2451 Clouds 28 1011 67 10000 1.54 100 19:27 21.03.2022
2452 Clouds 28 1011 67 10000 2.57 110 18:18 21.03.2022
2453 Clouds 28 1012 67 10000 2.06 110 17:18 21.03.2022
2454 Clouds 29 1011 66 10000 3.39 91 16:44 21.03.2022
2455 Clouds 29 1012 67 10000 2.06 140 15:52 21.03.2022
2456 Clouds 29 1012 67 10000 2.06 140 15:19 21.03.2022
2457 Clouds 30 1011 67 10000 3.09 110 13:58 21.03.2022
2458 Clouds 30 1010 67 10000 3.09 110 12:35 21.03.2022
2459 Clouds 31 1010 62 10000 4.12 110 11:45 21.03.2022
2460 Clouds 32 1009 63 10000 4.12 120 10:36 21.03.2022
2461 Clouds 33 1009 60 10000 5.14 120 08:30 21.03.2022
2462 Clouds 33 1010 63 10000 4.12 120 06:38 21.03.2022
2463 Clouds 31 1012 67 10000 2.57 110 02:48 21.03.2022
2464 Clouds 27 1010 76 10000 2.57 90 23:41 20.03.2022
2465 Clouds 27 1010 77 10000 2.06 90 22:43 20.03.2022
2466 Clouds 27 1010 77 10000 2.57 90 21:51 20.03.2022
2467 Clouds 28 1010 76 10000 2.57 90 21:23 20.03.2022
2468 Clouds 28 1010 74 10000 2.06 110 20:43 20.03.2022
2469 Clouds 28 1010 73 10000 2.57 100 19:59 20.03.2022
2470 Clouds 28 1010 73 10000 2.57 100 19:28 20.03.2022
2471 Clouds 28 1011 72 10000 2.57 80 18:19 20.03.2022
2472 Clouds 29 1011 70 10000 2.06 110 17:33 20.03.2022
2473 Clouds 29 1011 70 10000 2.06 110 17:33 20.03.2022
2474 Clouds 29 1011 67 10000 2.57 100 16:57 20.03.2022
2475 Clouds 29 1011 68 10000 2.06 110 15:28 20.03.2022
2476 Clouds 30 1011 64 10000 2.06 110 14:23 20.03.2022
2477 Clouds 31 1009 62 10000 0.89 301 12:29 20.03.2022
2478 Clouds 32 1008 58 10000 1.79 16 11:22 20.03.2022
2479 Clouds 34 1007 57 10000 4.63 130 08:59 20.03.2022
2480 Clouds 34 1007 58 10000 4.63 120 07:26 20.03.2022
2481 Clouds 33 1010 60 10000 3.13 238 04:23 20.03.2022
2482 Clouds 30 1010 68 10000 1.03 0 01:29 20.03.2022
2483 Clouds 28 1009 74 10000 1.79 12 00:37 20.03.2022
2484 Clouds 27 1008 81 10000 2.06 100 22:56 19.03.2022
2485 Clouds 27 1007 81 10000 1.54 100 21:27 19.03.2022
2486 Clouds 27 1007 80 10000 2.06 100 20:39 19.03.2022
2487 Clouds 28 1008 79 10000 2.57 110 18:58 19.03.2022
2488 Clouds 28 1008 79 10000 2.57 110 18:23 19.03.2022
2489 Clouds 28 1009 78 10000 3.09 120 17:35 19.03.2022
2490 Clouds 28 1008 78 10000 3.6 120 15:43 19.03.2022
2491 Clouds 29 1008 73 10000 2.57 120 14:33 19.03.2022
2492 Clouds 29 1007 74 10000 1.54 120 12:58 19.03.2022
2493 Clouds 30 1006 72 10000 1.54 120 12:38 19.03.2022
2494 Clouds 30 1006 71 10000 2.06 120 11:51 19.03.2022
2495 Clouds 30 1005 67 10000 2.06 110 10:44 19.03.2022
2496 Clouds 33 1006 59 10000 3.58 323 06:27 19.03.2022
2497 Clouds 30 1008 75 9000 2.24 348 03:21 19.03.2022
2498 Clouds 29 1008 79 8000 0.89 330 01:33 19.03.2022
2499 Clouds 27 1006 86 8000 2.06 20 23:26 18.03.2022
2500 Clouds 27 1006 87 8000 1.34 30 22:25 18.03.2022
2501 Clouds 28 1006 81 8000 2.57 360 20:56 18.03.2022
2502 Clouds 28 1006 82 9000 2.57 10 19:50 18.03.2022
2503 Clouds 28 1006 82 9000 2.57 10 19:19 18.03.2022
2504 Clouds 28 1006 84 9000 1.79 4 17:39 18.03.2022
2505 Clouds 28 1007 83 5000 1.54 120 16:46 18.03.2022
2506 Clouds 29 1007 80 5000 4.63 10 14:45 18.03.2022
2507 Thunderstorm 29 1007 80 5000 4.63 10 14:20 18.03.2022
2508 Clouds 30 1006 73 10000 3.09 250 12:23 18.03.2022
2509 Clouds 32 1004 70 10000 6.26 219 10:39 18.03.2022
2510 Clouds 33 1004 62 10000 5.14 280 09:23 18.03.2022
2511 Clouds 34 1004 59 10000 4.12 310 07:45 18.03.2022
2512 Clouds 33 1007 62 10000 2.24 243 05:46 18.03.2022
2513 Clouds 30 1008 74 10000 2.68 196 02:50 18.03.2022
2514 Clouds 27 1007 84 10000 1.03 0 00:21 18.03.2022
2515 Clouds 27 1006 84 10000 1.54 270 22:56 17.03.2022
2516 Clouds 27 1006 84 10000 1.54 270 22:22 17.03.2022
2517 Clouds 27 1006 84 10000 1.03 0 21:47 17.03.2022
2518 Clouds 27 1006 83 10000 1.03 0 21:18 17.03.2022
2519 Clouds 27 1006 81 10000 1.54 200 20:30 17.03.2022
2520 Clouds 27 1007 80 10000 1.03 0 19:39 17.03.2022
2521 Clouds 27 1007 80 10000 4.63 10 18:55 17.03.2022
2522 Clouds 28 1008 80 10000 2.06 90 17:55 17.03.2022
2523 Clouds 29 1008 74 10000 2.06 140 16:34 17.03.2022
2524 Clouds 29 1008 74 10000 2.06 150 15:44 17.03.2022
2525 Clouds 29 1008 73 10000 2.06 150 15:21 17.03.2022
2526 Clouds 30 1006 70 10000 3.09 120 13:48 17.03.2022
2527 Clouds 31 1006 67 10000 3.09 0 12:48 17.03.2022
2528 Clouds 31 1005 67 10000 3.6 140 11:47 17.03.2022
2529 Clouds 31 1005 67 10000 3.6 140 11:22 17.03.2022
2530 Clouds 33 1005 63 10000 3.6 130 09:41 17.03.2022
2531 Clouds 34 1005 60 10000 4.12 130 08:21 17.03.2022
2532 Clouds 33 1006 58 10000 4.63 130 06:25 17.03.2022
2533 Clouds 33 1008 62 10000 3.6 0 05:25 17.03.2022
2534 Clouds 28 1008 78 10000 1.79 1 00:33 17.03.2022
2535 Clouds 27 1007 80 10000 1.03 0 22:58 16.03.2022
2536 Rain 28 1007 80 10000 1.03 0 22:39 16.03.2022
2537 Rain 28 1007 80 10000 1.79 359 22:19 16.03.2022
2538 Rain 27 1007 81 10000 2.06 60 21:18 16.03.2022
2539 Rain 27 1007 81 10000 2.06 60 21:18 16.03.2022
2540 Rain 28 1008 77 10000 1.54 130 19:25 16.03.2022
2541 Rain 28 1008 77 10000 2.57 110 18:43 16.03.2022
2542 Rain 28 1008 77 10000 2.57 110 18:18 16.03.2022
2543 Clouds 29 1009 76 10000 2.06 0 17:36 16.03.2022
2544 Clouds 29 1009 75 10000 2.57 130 16:36 16.03.2022
2545 Clouds 29 1009 75 10000 3.09 120 15:34 16.03.2022
2546 Clouds 29 1008 76 10000 2.57 130 13:41 16.03.2022
2547 Clouds 30 1007 74 10000 3.09 110 12:56 16.03.2022
2548 Clouds 30 1005 73 10000 1.79 75 11:24 16.03.2022
2549 Clouds 30 1005 69 10000 2.06 90 10:43 16.03.2022
2550 Clouds 32 1005 64 10000 3.09 120 09:57 16.03.2022
2551 Clouds 33 1004 60 10000 4.02 92 08:33 16.03.2022
2552 Clouds 30 1008 69 10000 3.58 344 02:46 16.03.2022
2553 Clouds 27 1006 83 10000 1.03 60 22:58 15.03.2022
2554 Clouds 27 1006 83 10000 1.03 60 22:36 15.03.2022
2555 Clouds 26 1005 83 10000 0.89 2 21:19 15.03.2022
2556 Clouds 27 1006 81 10000 2.06 0 19:46 15.03.2022
2557 Clouds 28 1006 79 10000 2.57 110 18:35 15.03.2022
2558 Clouds 28 1007 79 10000 1.03 0 16:42 15.03.2022
2559 Clouds 29 1007 79 10000 2.57 120 15:42 15.03.2022
2560 Clouds 29 1007 77 10000 2.06 140 14:54 15.03.2022
2561 Clouds 29 1006 77 10000 2.57 0 13:57 15.03.2022
2562 Clouds 29 1006 75 10000 2.63 159 13:23 15.03.2022
2563 Clouds 29 1005 80 10000 2.57 170 11:34 15.03.2022
2564 Clouds 29 1004 78 10000 3.09 160 10:53 15.03.2022
2565 Clouds 32 1003 66 10000 3.6 140 09:24 15.03.2022
2566 Clouds 34 1003 62 10000 4.02 193 08:24 15.03.2022
2567 Clouds 34 1003 62 10000 4.47 214 07:36 15.03.2022
2568 Clouds 33 1005 63 10000 3.13 201 06:32 15.03.2022
2569 Clouds 27 1007 88 10000 2.24 17 00:58 15.03.2022
2570 Clouds 26 1007 89 10000 1.03 0 23:30 14.03.2022
2571 Clouds 26 1006 89 10000 1.54 240 22:50 14.03.2022
2572 Clouds 27 1006 87 10000 1.54 320 21:53 14.03.2022
2573 Clouds 27 1006 87 10000 1.03 0 20:55 14.03.2022
2574 Clouds 27 1006 87 10000 1.79 352 20:24 14.03.2022
2575 Clouds 27 1007 86 10000 2.24 359 19:24 14.03.2022
2576 Rain 27 1008 82 10000 1.54 100 17:57 14.03.2022
2577 Clouds 27 1008 81 10000 2.24 8 17:39 14.03.2022
2578 Clouds 27 1008 83 10000 1.79 2 16:29 14.03.2022
2579 Clouds 27 1008 88 10000 2.57 180 14:47 14.03.2022
2580 Rain 27 1007 81 10000 3.13 182 13:20 14.03.2022
2581 Clouds 28 1006 86 10000 2.06 100 11:26 14.03.2022
2582 Clouds 33 1005 64 10000 4.12 320 09:57 14.03.2022
2583 Clouds 33 1005 62 10000 4.12 320 09:24 14.03.2022
2584 Clouds 33 1004 61 10000 5.36 343 08:57 14.03.2022
2585 Clouds 33 1005 61 10000 4.12 340 08:26 14.03.2022
2586 Clouds 31 1007 68 10000 4.92 355 06:19 14.03.2022
2587 Clouds 30 1010 72 10000 6.26 216 02:58 14.03.2022
2588 Clouds 29 1009 74 10000 0 0 01:36 14.03.2022
2589 Clouds 26 1008 85 10000 2.57 350 23:29 13.03.2022
2590 Clouds 26 1008 84 10000 2.06 70 21:41 13.03.2022
2591 Clouds 27 1007 84 10000 2.06 70 21:19 13.03.2022
2592 Clouds 27 1007 84 10000 1.54 100 20:46 13.03.2022
2593 Clouds 27 1007 83 10000 1.54 100 20:21 13.03.2022
2594 Clouds 27 1008 83 10000 1.03 0 19:41 13.03.2022
2595 Clouds 27 1008 83 10000 1.34 5 19:21 13.03.2022
2596 Clouds 28 1008 79 10000 2.24 354 18:41 13.03.2022
2597 Clouds 28 1009 78 10000 3.6 110 17:52 13.03.2022
2598 Clouds 28 1009 78 10000 3.6 110 17:33 13.03.2022
2599 Clouds 28 1009 79 10000 4.12 110 16:44 13.03.2022
2600 Clouds 28 1009 79 10000 4.12 110 16:21 13.03.2022
2601 Clouds 28 1009 78 10000 3.09 120 15:36 13.03.2022
2602 Clouds 28 1008 77 10000 4.12 110 14:20 13.03.2022
2603 Clouds 28 1008 77 10000 4.63 120 13:27 13.03.2022
2604 Clouds 29 1007 78 10000 3.6 120 12:20 13.03.2022
2605 Clouds 29 1007 78 10000 3.09 160 11:36 13.03.2022
2606 Clouds 30 1006 77 10000 3.09 150 10:48 13.03.2022
2607 Clouds 30 1006 76 10000 3.09 150 10:25 13.03.2022
2608 Clouds 31 1006 72 10000 2.57 130 09:41 13.03.2022
2609 Clouds 31 1006 71 10000 3.6 130 08:48 13.03.2022
2610 Clouds 31 1006 68 10000 4.92 213 07:57 13.03.2022
2611 Clouds 30 1008 68 10000 3.6 270 05:55 13.03.2022
2612 Clouds 29 1009 74 10000 2.24 352 03:26 13.03.2022
2613 Clouds 26 1008 87 10000 0.51 0 00:30 13.03.2022
2614 Clouds 25 1007 90 10000 1.03 0 22:47 12.03.2022
2615 Rain 25 1007 92 5000 2.06 80 20:59 12.03.2022
2616 Mist 26 1007 91 3500 1.79 357 19:57 12.03.2022
2617 Mist 26 1007 91 3500 1.79 357 19:57 12.03.2022
2618 Mist 26 1007 91 3500 1.54 80 19:38 12.03.2022
2619 Clouds 27 1008 84 6000 3.09 100 18:29 12.03.2022
2620 Clouds 28 1008 80 10000 2.06 120 17:39 12.03.2022
2621 Clouds 28 1009 82 10000 2.06 140 16:24 12.03.2022
2622 Clouds 28 1008 81 10000 4.02 214 15:24 12.03.2022
2623 Clouds 28 1008 81 10000 4.02 214 15:24 12.03.2022
2624 Clouds 28 1008 80 10000 1.03 0 14:51 12.03.2022
2625 Rain 28 1007 83 10000 2.06 180 13:47 12.03.2022
2626 Rain 27 1006 81 9000 1.54 320 12:18 12.03.2022
2627 Rain 27 1006 76 9000 11.32 40 11:45 12.03.2022
2628 Rain 29 1007 70 9000 11.32 40 11:19 12.03.2022
2629 Clouds 34 1004 58 10000 3.58 191 09:47 12.03.2022
2630 Clouds 34 1004 58 10000 1.34 186 09:20 12.03.2022
2631 Clouds 32 1005 68 8000 3.09 0 07:29 12.03.2022
2632 Clouds 33 1007 63 10000 4.12 300 04:50 12.03.2022
2633 Clouds 27 1008 78 10000 1.54 0 00:21 12.03.2022
2634 Clouds 27 1007 82 10000 1.03 0 23:19 11.03.2022
2635 Clouds 27 1007 82 10000 1.03 0 23:19 11.03.2022
2636 Clouds 27 1006 80 10000 1.54 0 21:43 11.03.2022
2637 Clouds 28 1006 76 10000 2.06 110 20:57 11.03.2022
2638 Clouds 28 1006 76 10000 2.06 110 20:37 11.03.2022
2639 Clouds 28 1007 77 10000 2.06 140 19:52 11.03.2022
2640 Clouds 28 1007 78 10000 2.06 140 19:22 11.03.2022
2641 Clouds 28 1008 78 10000 1.54 150 17:34 11.03.2022
2642 Clouds 28 1008 76 10000 2.57 130 16:38 11.03.2022
2643 Clouds 28 1008 76 10000 2.06 0 15:55 11.03.2022
2644 Clouds 29 1007 74 10000 3.09 120 14:20 11.03.2022
2645 Clouds 29 1006 72 10000 3.09 140 12:45 11.03.2022
2646 Clouds 29 1006 73 10000 3.09 140 12:21 11.03.2022
2647 Clouds 30 1006 70 10000 3.09 140 11:51 11.03.2022
2648 Clouds 32 1005 62 10000 2.57 110 09:51 11.03.2022
2649 Clouds 32 1005 61 10000 2.57 0 08:56 11.03.2022
2650 Clouds 32 1005 62 10000 2.57 0 08:24 11.03.2022
2651 Clouds 32 1006 60 10000 3.6 130 07:45 11.03.2022
2652 Clouds 31 1007 63 10000 3.09 100 05:44 11.03.2022
2653 Clouds 30 1009 67 10000 2.06 0 03:41 11.03.2022
2654 Clouds 26 1008 81 10000 2.06 130 23:36 10.03.2022
2655 Clouds 26 1007 79 9000 1.54 0 22:30 10.03.2022
2656 Clouds 27 1007 77 10000 1.03 0 21:27 10.03.2022
2657 Clouds 26 1006 82 10000 1.03 0 20:55 10.03.2022
2658 Clouds 27 1007 76 10000 1.54 170 19:23 10.03.2022
2659 Clouds 27 1008 76 10000 1.03 0 18:40 10.03.2022
2660 Clouds 27 1008 75 10000 1.03 0 17:19 10.03.2022
2661 Rain 28 1009 70 10000 2.06 0 15:50 10.03.2022
2662 Clouds 28 1009 69 10000 2.57 120 14:39 10.03.2022
2663 Clouds 28 1008 65 10000 3.09 110 12:53 10.03.2022
2664 Clouds 29 1008 63 10000 3.6 120 11:42 10.03.2022
2665 Clouds 30 1007 61 10000 3.6 130 10:24 10.03.2022
2666 Clouds 32 1006 57 10000 5.66 130 08:55 10.03.2022
2667 Clouds 32 1007 57 10000 5.81 195 06:58 10.03.2022
2668 Clouds 29 1009 65 10000 5.36 200 03:52 10.03.2022
2669 Clouds 27 1010 71 10000 3.09 110 00:51 10.03.2022
2670 Clouds 25 1009 76 10000 2.57 120 22:46 09.03.2022
2671 Clouds 25 1008 74 10000 2.57 130 21:48 09.03.2022
2672 Clouds 25 1008 73 10000 2.57 130 21:23 09.03.2022
2673 Clouds 26 1009 71 10000 3.09 110 19:42 09.03.2022
2674 Clouds 26 1009 69 10000 3.6 120 18:25 09.03.2022
2675 Clouds 26 1010 69 10000 3.6 110 17:26 09.03.2022
2676 Clouds 26 1010 70 10000 3.6 110 16:24 09.03.2022
2677 Clouds 27 1010 69 10000 3.6 120 14:32 09.03.2022
2678 Clouds 27 1009 69 10000 4.63 130 13:52 09.03.2022
2679 Clouds 27 1009 68 10000 4.12 120 12:36 09.03.2022
2680 Clouds 28 1008 68 10000 5.14 110 11:48 09.03.2022
2681 Clouds 28 1008 67 10000 5.14 110 11:18 09.03.2022
2682 Clouds 30 1007 61 10000 5.66 110 09:41 09.03.2022
2683 Clouds 31 1007 60 10000 6.69 120 08:47 09.03.2022
2684 Clouds 31 1008 59 10000 6.17 120 06:51 09.03.2022
2685 Clouds 27 1010 71 10000 2.57 120 01:53 09.03.2022
2686 Clouds 26 1009 73 10000 2.06 120 00:26 09.03.2022
2687 Clouds 26 1008 72 10000 1.54 110 22:46 08.03.2022
2688 Clouds 26 1008 72 10000 1.79 356 21:52 08.03.2022
2689 Clouds 27 1008 71 10000 1.54 110 21:22 08.03.2022
2690 Clouds 27 1008 71 10000 1.54 110 21:22 08.03.2022
2691 Clouds 26 1008 72 10000 0.51 0 20:22 08.03.2022
2692 Clouds 27 1008 70 10000 1.54 90 19:24 08.03.2022
2693 Clouds 27 1009 68 10000 2.06 100 18:22 08.03.2022
2694 Clouds 28 1009 64 10000 4.12 80 16:44 08.03.2022
2695 Rain 28 1009 66 10000 4.12 100 14:57 08.03.2022
2696 Clouds 28 1009 64 10000 4.12 100 13:45 08.03.2022
2697 Clouds 29 1008 65 10000 4.63 110 12:20 08.03.2022
2698 Clouds 29 1007 64 10000 4.63 80 11:42 08.03.2022
2699 Clouds 31 1006 63 10000 3.6 110 10:28 08.03.2022
2700 Clouds 31 1005 61 9000 5.14 130 08:57 08.03.2022
2701 Clouds 31 1007 63 8000 2.57 280 06:30 08.03.2022
2702 Clouds 29 1009 68 10000 2.06 160 02:37 08.03.2022
2703 Clouds 26 1007 79 10000 1.54 140 22:43 07.03.2022
2704 Clouds 26 1007 78 10000 1.03 0 21:44 07.03.2022
2705 Clouds 26 1007 77 10000 0.51 0 20:56 07.03.2022
2706 Clouds 26 1007 77 10000 0.89 48 20:29 07.03.2022
2707 Clouds 27 1008 76 10000 1.79 16 19:48 07.03.2022
2708 Clouds 27 1008 75 10000 0.45 21 18:57 07.03.2022
2709 Clouds 27 1009 76 10000 0.89 23 18:29 07.03.2022
2710 Clouds 28 1009 72 10000 4.12 60 17:24 07.03.2022
2711 Clouds 28 1009 72 10000 1.79 44 16:41 07.03.2022
2712 Clouds 28 1008 69 10000 2.06 230 14:49 07.03.2022
2713 Clouds 29 1008 62 10000 1.54 140 12:34 07.03.2022
2714 Clouds 31 1008 58 10000 2.57 0 11:21 07.03.2022
2715 Clouds 32 1007 55 10000 5.36 223 10:26 07.03.2022
2716 Clouds 32 1008 58 9000 4.63 290 08:19 07.03.2022
2717 Clouds 27 1012 67 10000 1.54 90 01:23 07.03.2022
2718 Clouds 26 1012 75 10000 1.54 100 00:20 07.03.2022
2719 Clouds 25 1011 78 10000 2.06 70 23:22 06.03.2022
2720 Clouds 26 1010 74 10000 1.54 120 22:26 06.03.2022
2721 Clouds 26 1009 74 10000 1.03 0 21:22 06.03.2022
2722 Clouds 26 1009 74 10000 1.54 110 20:29 06.03.2022
2723 Clouds 26 1009 74 10000 2.06 130 19:35 06.03.2022
2724 Clouds 27 1010 73 10000 2.06 110 18:49 06.03.2022
2725 Clouds 27 1011 71 10000 3.09 120 17:36 06.03.2022
2726 Clouds 27 1011 71 10000 3.09 120 17:18 06.03.2022
2727 Clouds 27 1010 67 10000 3.09 120 16:26 06.03.2022
2728 Rain 27 1010 67 10000 3.6 110 15:23 06.03.2022
2729 Clouds 28 1010 65 10000 4.63 110 14:41 06.03.2022
2730 Clouds 28 1010 64 10000 4.12 110 13:48 06.03.2022
2731 Clouds 29 1010 63 10000 4.63 110 12:39 06.03.2022
2732 Clouds 30 1009 60 10000 6.17 100 11:39 06.03.2022
2733 Clouds 31 1008 55 10000 6.17 120 10:33 06.03.2022
2734 Clouds 33 1007 55 10000 5.14 0 08:51 06.03.2022
2735 Clouds 33 1007 56 10000 5.14 0 08:27 06.03.2022
2736 Clouds 33 1008 56 10000 4.92 183 07:18 06.03.2022
2737 Clouds 29 1011 67 9000 2.06 0 01:54 06.03.2022
2738 Clouds 26 1011 80 9000 1.03 0 00:34 06.03.2022
2739 Clouds 25 1010 80 10000 1.03 200 23:56 05.03.2022
2740 Clouds 25 1010 80 10000 1.03 200 23:18 05.03.2022
2741 Clouds 25 1009 80 10000 0 0 22:31 05.03.2022
2742 Clouds 25 1009 80 10000 0 0 22:31 05.03.2022
2743 Clouds 26 1009 76 10000 0.89 1 21:25 05.03.2022
2744 Clouds 27 1009 73 10000 1.54 150 19:59 05.03.2022
2745 Clouds 27 1010 73 10000 1.03 0 18:57 05.03.2022
2746 Clouds 27 1010 73 10000 1.03 0 18:36 05.03.2022
2747 Clouds 28 1011 72 10000 2.57 110 16:58 05.03.2022
2748 Clouds 28 1010 70 10000 3.09 120 15:49 05.03.2022
2749 Clouds 28 1010 69 10000 3.6 120 14:53 05.03.2022
2750 Clouds 28 1010 69 10000 3.6 120 14:34 05.03.2022
2751 Clouds 28 1009 69 10000 3.09 130 13:35 05.03.2022
2752 Rain 30 1008 64 10000 3.09 130 11:55 05.03.2022
2753 Clouds 31 1008 64 10000 3.09 130 11:20 05.03.2022
2754 Clouds 32 1008 57 10000 3.09 130 10:23 05.03.2022
2755 Clouds 32 1007 57 10000 5.81 223 09:28 05.03.2022
2756 Clouds 33 1008 54 10000 4.92 186 07:59 05.03.2022
2757 Clouds 31 1010 59 10000 2.06 330 05:47 05.03.2022
2758 Clouds 32 1011 57 10000 4.02 1 04:38 05.03.2022
2759 Clouds 26 1010 75 10000 2.57 100 23:39 04.03.2022
2760 Clouds 25 1009 77 10000 2.06 80 22:44 04.03.2022
2761 Clouds 25 1009 77 10000 2.06 80 22:23 04.03.2022
2762 Clouds 25 1008 77 10000 1.03 0 21:24 04.03.2022
2763 Clouds 26 1009 75 10000 2.06 110 20:32 04.03.2022
2764 Clouds 27 1009 73 10000 3.6 110 19:36 04.03.2022
2765 Clouds 27 1010 74 10000 3.6 110 18:47 04.03.2022
2766 Rain 27 1010 74 10000 3.6 110 18:22 04.03.2022
2767 Clouds 27 1010 75 10000 3.09 120 17:28 04.03.2022
2768 Clouds 27 1010 76 10000 3.6 120 15:31 04.03.2022
2769 Clouds 28 1010 73 10000 4.12 120 14:36 04.03.2022
2770 Clouds 28 1010 74 10000 3.09 130 13:27 04.03.2022
2771 Clouds 29 1008 74 10000 3.09 140 11:56 04.03.2022
2772 Clouds 29 1008 73 10000 4.12 140 10:57 04.03.2022
2773 Clouds 30 1008 71 10000 4.12 140 10:18 04.03.2022
2774 Clouds 32 1008 61 10000 3.6 140 08:40 04.03.2022
2775 Clouds 32 1008 61 10000 3.6 140 08:40 04.03.2022
2776 Clouds 32 1009 61 10000 6.71 214 07:38 04.03.2022
2777 Clouds 31 1011 60 10000 3.6 280 04:59 04.03.2022
2778 Clouds 26 1012 77 10000 3.13 8 00:41 04.03.2022
2779 Clouds 25 1011 75 10000 1.54 110 22:39 03.03.2022
2780 Rain 26 1010 74 10000 2.06 80 21:50 03.03.2022
2781 Clouds 26 1010 74 10000 2.06 80 21:29 03.03.2022
2782 Clouds 27 1011 71 10000 3.09 110 20:18 03.03.2022
2783 Clouds 27 1011 71 10000 3.6 110 18:55 03.03.2022
2784 Clouds 27 1011 71 10000 3.6 110 18:24 03.03.2022
2785 Clouds 27 1011 69 10000 4.63 110 17:31 03.03.2022
2786 Clouds 27 1011 69 10000 4.63 110 17:31 03.03.2022
2787 Clouds 27 1012 68 10000 4.63 120 16:25 03.03.2022
2788 Clouds 28 1012 66 10000 3.6 120 15:32 03.03.2022
2789 Clouds 28 1011 67 10000 0.45 315 14:43 03.03.2022
2790 Clouds 28 1011 68 10000 1.34 141 14:24 03.03.2022
2791 Clouds 29 1010 65 10000 4.63 110 12:27 03.03.2022
2792 Clouds 30 1009 66 10000 4.63 110 10:49 03.03.2022
2793 Clouds 31 1009 63 10000 5.66 110 09:45 03.03.2022
2794 Clouds 32 1009 60 10000 6.69 120 08:19 03.03.2022
2795 Clouds 32 1010 60 10000 5.81 209 06:37 03.03.2022
2796 Clouds 30 1012 64 10000 0.45 277 03:21 03.03.2022
2797 Clouds 25 1012 79 10000 1.03 0 23:39 02.03.2022
2798 Clouds 26 1011 79 10000 1.03 0 22:53 02.03.2022
2799 Clouds 25 1010 82 10000 2.57 60 21:35 02.03.2022
2800 Clouds 26 1010 81 10000 2.06 60 20:55 02.03.2022
2801 Clouds 26 1010 81 10000 2.06 60 20:24 02.03.2022
2802 Clouds 26 1011 79 10000 1.54 90 19:37 02.03.2022
2803 Clouds 27 1011 77 10000 2.57 80 18:54 02.03.2022
2804 Clouds 27 1011 77 10000 2.57 80 18:26 02.03.2022
2805 Clouds 27 1012 76 10000 3.09 120 17:36 02.03.2022
2806 Clouds 28 1012 73 10000 3.09 120 16:51 02.03.2022
2807 Clouds 28 1012 72 10000 1.54 0 14:59 02.03.2022
2808 Clouds 28 1011 71 10000 2.06 130 13:30 02.03.2022
2809 Clouds 29 1010 68 10000 3.09 110 12:45 02.03.2022
2810 Clouds 29 1010 67 10000 4.12 110 11:59 02.03.2022
2811 Clouds 30 1010 66 10000 4.12 110 11:25 02.03.2022
2812 Clouds 31 1010 60 10000 4.12 100 10:30 02.03.2022
2813 Clouds 31 1010 62 10000 4.63 120 09:31 02.03.2022
2814 Clouds 32 1010 58 10000 4.63 100 07:59 02.03.2022
2815 Clouds 32 1010 59 10000 4.63 100 07:23 02.03.2022
2816 Clouds 31 1013 62 10000 2.57 120 03:46 02.03.2022
2817 Clouds 25 1013 70 10000 1.79 353 00:39 02.03.2022
2818 Clouds 24 1012 74 10000 0.45 8 22:50 01.03.2022
2819 Clouds 25 1011 75 10000 0.89 23 22:31 01.03.2022
2820 Clouds 25 1011 71 10000 0.51 0 21:25 01.03.2022
2821 Clouds 25 1012 70 10000 1.54 30 20:33 01.03.2022
2822 Clouds 25 1012 73 10000 1.54 40 19:50 01.03.2022
2823 Clouds 26 1013 71 10000 1.54 110 18:51 01.03.2022
2824 Clouds 26 1013 70 10000 1.54 110 18:21 01.03.2022
2825 Clouds 26 1013 69 10000 1.54 100 17:37 01.03.2022
2826 Clouds 26 1013 67 10000 2.57 120 16:35 01.03.2022
2827 Clouds 26 1013 67 10000 2.06 110 15:45 01.03.2022
2828 Clouds 27 1013 65 10000 2.57 120 14:41 01.03.2022
2829 Clouds 27 1013 65 10000 2.57 120 14:23 01.03.2022
2830 Clouds 27 1012 64 10000 3.6 120 13:26 01.03.2022
2831 Clouds 28 1011 62 10000 4.63 120 12:35 01.03.2022
2832 Clouds 30 1010 54 10000 5.66 120 10:38 01.03.2022
2833 Clear 32 1009 56 10000 3.58 201 09:18 01.03.2022
2834 Clouds 32 1010 54 10000 6.69 120 07:55 01.03.2022
2835 Clouds 33 1011 53 10000 5.36 204 06:27 01.03.2022
2836 Clouds 30 1014 55 10000 2.57 110 02:45 01.03.2022
2837 Clouds 27 1013 68 10000 2.24 347 00:39 01.03.2022
2838 Clouds 25 1013 74 10000 1.54 70 23:33 28.02.2022
2839 Clouds 26 1012 71 10000 1.03 0 22:24 28.02.2022
2840 Clouds 26 1011 72 10000 1.34 16 21:39 28.02.2022
2841 Clouds 27 1012 70 10000 1.54 100 19:59 28.02.2022
2842 Clouds 27 1012 70 10000 1.54 100 19:40 28.02.2022
2843 Clouds 27 1013 70 10000 1.54 120 18:49 28.02.2022
2844 Clouds 27 1013 69 10000 2.06 110 17:33 28.02.2022
2845 Clouds 27 1013 68 10000 2.06 100 16:43 28.02.2022
2846 Clouds 27 1013 69 10000 1.54 100 15:27 28.02.2022
2847 Clouds 27 1013 68 10000 2.06 110 14:32 28.02.2022
2848 Clouds 28 1012 67 10000 2.57 110 13:48 28.02.2022
2849 Clouds 28 1012 66 10000 3.6 110 12:50 28.02.2022
2850 Clouds 29 1011 62 10000 4.12 110 11:58 28.02.2022
2851 Clouds 29 1011 63 10000 4.12 110 11:18 28.02.2022
2852 Clouds 30 1011 62 10000 6.69 110 10:21 28.02.2022
2853 Clouds 31 1011 57 10000 6.17 120 09:36 28.02.2022
2854 Clouds 32 1011 54 10000 5.14 130 08:44 28.02.2022
2855 Clouds 33 1011 49 10000 5.81 68 07:43 28.02.2022
2856 Clouds 33 1013 49 10000 5.66 110 05:25 28.02.2022
2857 Clouds 33 1014 51 10000 3.6 100 04:27 28.02.2022
2858 Clouds 25 1014 78 10000 1.03 0 23:45 27.02.2022
2859 Clouds 25 1013 76 10000 1.54 90 22:36 27.02.2022
2860 Clouds 25 1013 76 10000 1.34 359 21:52 27.02.2022
2861 Clouds 25 1012 76 10000 1.34 6 21:27 27.02.2022
2862 Clouds 25 1013 76 10000 1.54 90 20:37 27.02.2022
2863 Clouds 26 1013 77 10000 2.57 90 19:58 27.02.2022
2864 Clouds 26 1013 76 10000 2.57 90 19:27 27.02.2022
2865 Clouds 26 1013 73 10000 2.57 90 18:47 27.02.2022
2866 Clouds 27 1014 72 10000 3.6 100 17:56 27.02.2022
2867 Clouds 27 1014 71 10000 3.6 100 17:20 27.02.2022
2868 Clouds 27 1014 72 10000 1.54 120 16:22 27.02.2022
2869 Clouds 28 1013 66 10000 3.6 110 13:40 27.02.2022
2870 Clouds 28 1012 65 10000 3.6 90 12:33 27.02.2022
2871 Clouds 29 1011 63 10000 4.12 110 11:27 27.02.2022
2872 Clouds 30 1010 59 10000 5.14 110 10:20 27.02.2022
2873 Clouds 31 1010 59 10000 5.66 120 09:50 27.02.2022
2874 Clouds 31 1010 60 10000 5.66 120 09:20 27.02.2022
2875 Clouds 31 1010 61 10000 6.17 110 08:20 27.02.2022
2876 Clouds 31 1010 61 10000 6.17 110 08:20 27.02.2022
2877 Clouds 31 1014 58 10000 2.06 130 05:38 27.02.2022
2878 Clouds 28 1015 65 10000 2.68 19 02:35 27.02.2022
2879 Rain 25 1013 76 10000 0.45 11 23:30 26.02.2022
2880 Rain 25 1013 76 10000 0.45 11 23:30 26.02.2022
2881 Clouds 25 1013 75 10000 1.34 9 22:31 26.02.2022
2882 Clouds 25 1012 75 10000 2.57 20 21:19 26.02.2022
2883 Clouds 25 1012 74 10000 1.54 10 20:27 26.02.2022
2884 Clouds 25 1013 74 10000 0.89 13 19:52 26.02.2022
2885 Clouds 25 1013 74 10000 0.89 17 19:31 26.02.2022
2886 Clouds 26 1013 71 10000 1.34 14 17:55 26.02.2022
2887 Clouds 26 1013 71 10000 0.51 0 17:29 26.02.2022
2888 Clouds 26 1014 70 10000 1.54 60 16:33 26.02.2022
2889 Clouds 27 1014 69 10000 2.06 40 15:26 26.02.2022
2890 Clouds 27 1014 68 10000 2.68 350 14:57 26.02.2022
2891 Clouds 27 1014 68 10000 2.57 60 14:38 26.02.2022
2892 Clouds 27 1013 66 10000 3.09 70 13:40 26.02.2022
2893 Clouds 28 1013 64 10000 4.12 80 12:52 26.02.2022
2894 Clouds 28 1012 63 10000 4.47 5 11:38 26.02.2022
2895 Clouds 30 1012 60 10000 4.47 3 10:56 26.02.2022
2896 Clouds 31 1011 56 10000 6.17 80 09:21 26.02.2022
2897 Clouds 32 1011 54 10000 5.14 100 07:57 26.02.2022
2898 Clouds 28 1015 75 10000 2.57 300 03:21 26.02.2022
2899 Clouds 25 1014 79 10000 1.54 90 23:32 25.02.2022
2900 Clouds 25 1012 80 10000 1.54 90 21:49 25.02.2022
2901 Clouds 25 1012 80 10000 1.54 90 21:29 25.02.2022
2902 Clouds 25 1013 78 10000 2.06 120 20:33 25.02.2022
2903 Clouds 26 1013 77 10000 1.54 110 19:41 25.02.2022
2904 Clouds 26 1015 76 10000 2.06 120 17:35 25.02.2022
2905 Clouds 26 1015 75 10000 1.54 110 16:45 25.02.2022
2906 Clouds 27 1015 73 10000 1.54 110 15:48 25.02.2022
2907 Clouds 27 1015 72 10000 1.54 110 15:23 25.02.2022
2908 Clouds 27 1015 74 10000 2.06 110 14:45 25.02.2022
2909 Clouds 27 1015 73 10000 2.06 110 14:18 25.02.2022
2910 Clouds 28 1014 70 10000 3.09 110 13:20 25.02.2022
2911 Clouds 29 1013 64 10000 3.6 100 11:30 25.02.2022
2912 Clouds 30 1012 60 10000 4.63 110 10:54 25.02.2022
2913 Clouds 31 1012 58 10000 4.63 110 10:23 25.02.2022
2914 Clouds 32 1011 55 10000 4.63 100 09:35 25.02.2022
2915 Clouds 33 1012 56 10000 5.14 110 07:44 25.02.2022
2916 Clouds 32 1013 52 10000 5.66 110 06:19 25.02.2022
2917 Clouds 32 1014 52 10000 5.66 110 05:36 25.02.2022
2918 Clouds 26 1015 75 10000 2.06 100 00:31 25.02.2022
2919 Clouds 26 1013 75 10000 2.06 110 22:29 24.02.2022
2920 Clouds 26 1013 75 10000 2.06 100 21:43 24.02.2022
2921 Clouds 26 1013 75 10000 2.06 100 21:43 24.02.2022
2922 Clouds 26 1013 74 10000 2.06 100 21:21 24.02.2022
2923 Clouds 26 1013 74 10000 2.06 90 20:42 24.02.2022
2924 Clouds 26 1014 73 10000 3.6 100 19:19 24.02.2022
2925 Clouds 27 1014 74 10000 4.12 120 18:20 24.02.2022
2926 Clouds 27 1014 74 10000 3.6 120 17:46 24.02.2022
2927 Clouds 27 1014 73 10000 3.6 120 16:56 24.02.2022
2928 Clouds 27 1014 73 10000 3.6 120 16:25 24.02.2022
2929 Clouds 27 1014 73 10000 3.6 120 16:25 24.02.2022
2930 Clouds 27 1014 70 10000 4.12 120 15:30 24.02.2022
2931 Clouds 27 1014 69 10000 4.63 120 14:37 24.02.2022
2932 Clouds 28 1013 68 10000 4.12 120 13:42 24.02.2022
2933 Clouds 28 1013 68 10000 4.12 120 13:24 24.02.2022
2934 Clouds 31 1012 58 10000 5.66 110 10:43 24.02.2022
2935 Clouds 32 1011 53 10000 5.66 120 09:41 24.02.2022
2936 Clouds 32 1011 52 10000 4.63 110 08:42 24.02.2022
2937 Clouds 32 1013 56 10000 4.92 209 06:25 24.02.2022
2938 Clouds 32 1014 58 10000 4.12 120 05:36 24.02.2022
2939 Clouds 24 1015 84 9000 1.03 0 00:30 24.02.2022
2940 Clouds 24 1013 84 10000 0 0 21:55 23.02.2022
2941 Clouds 24 1013 85 10000 1.34 2 20:32 23.02.2022
2942 Clouds 25 1013 82 10000 2.06 30 19:55 23.02.2022
2943 Clouds 26 1014 80 10000 3.6 110 18:57 23.02.2022
2944 Clouds 26 1014 76 10000 3.09 120 17:46 23.02.2022
2945 Clouds 27 1014 73 10000 2.24 63 15:28 23.02.2022
2946 Clouds 27 1013 70 10000 2.24 63 13:34 23.02.2022
2947 Clouds 28 1013 69 10000 1.54 100 12:26 23.02.2022
2948 Clouds 29 1012 66 10000 3.09 100 10:45 23.02.2022
2949 Clouds 30 1012 63 10000 3.6 100 09:24 23.02.2022
2950 Clouds 30 1012 62 10000 3.6 120 08:27 23.02.2022
2951 Clouds 30 1012 61 10000 2.24 130 07:19 23.02.2022
2952 Clouds 26 1015 78 10000 1.34 0 01:22 23.02.2022
2953 Clouds 25 1014 87 10000 1.03 0 23:40 22.02.2022
2954 Clouds 25 1013 85 10000 1.54 90 22:59 22.02.2022
2955 Clouds 25 1013 83 10000 1.54 120 21:56 22.02.2022
2956 Clouds 25 1013 83 10000 1.54 120 21:37 22.02.2022
2957 Clouds 25 1013 83 10000 1.54 120 21:18 22.02.2022
2958 Clouds 25 1013 82 10000 2.57 100 20:31 22.02.2022
2959 Clouds 26 1013 82 10000 2.06 100 19:51 22.02.2022
2960 Clouds 26 1013 82 10000 2.06 100 19:31 22.02.2022
2961 Clouds 26 1013 83 10000 2.57 90 18:23 22.02.2022
2962 Clouds 26 1014 87 9000 1.54 90 17:26 22.02.2022
2963 Clouds 25 1014 88 9000 1.03 0 16:41 22.02.2022
2964 Clouds 26 1014 90 10000 1.34 8 15:59 22.02.2022
2965 Clouds 25 1014 90 9000 0.51 0 14:48 22.02.2022
2966 Rain 25 1013 88 8000 1.03 0 12:48 22.02.2022
2967 Rain 26 1012 89 9000 1.03 0 10:53 22.02.2022
2968 Rain 25 1012 94 8000 2.57 110 08:53 22.02.2022
2969 Rain 27 1011 84 5000 4.12 110 07:27 22.02.2022
2970 Clouds 28 1011 78 9000 4.47 18 06:30 22.02.2022
2971 Clouds 28 1013 73 10000 2.57 110 02:47 22.02.2022
2972 Clouds 25 1011 83 10000 2.24 70 22:53 21.02.2022
2973 Clouds 26 1011 81 10000 2.57 10 21:56 21.02.2022
2974 Clouds 26 1011 81 10000 1.54 20 20:37 21.02.2022
2975 Clouds 27 1012 76 10000 2.24 359 18:47 21.02.2022
2976 Clouds 27 1012 74 10000 2.57 80 17:39 21.02.2022
2977 Clouds 28 1012 72 10000 2.06 110 15:26 21.02.2022
2978 Clouds 28 1012 72 10000 2.06 100 14:22 21.02.2022
2979 Clouds 28 1012 73 10000 3.09 110 13:30 21.02.2022
2980 Clouds 28 1011 72 10000 3.09 100 12:24 21.02.2022
2981 Rain 29 1010 68 10000 3.6 110 11:20 21.02.2022
2982 Clouds 31 1009 63 10000 4.63 110 09:54 21.02.2022
2983 Clouds 31 1011 61 10000 4.63 100 05:35 21.02.2022
2984 Clouds 26 1012 75 10000 1.54 110 00:18 21.02.2022
2985 Clouds 25 1010 79 10000 2.06 60 22:27 20.02.2022
2986 Clouds 26 1010 77 10000 1.54 80 21:42 20.02.2022
2987 Clouds 26 1010 78 10000 1.54 60 20:59 20.02.2022
2988 Clouds 26 1010 78 10000 1.54 60 20:41 20.02.2022
2989 Clouds 27 1011 74 10000 2.06 100 19:42 20.02.2022
2990 Clouds 27 1011 74 10000 3.09 120 18:52 20.02.2022
2991 Clouds 27 1011 74 10000 3.09 120 18:32 20.02.2022
2992 Clouds 27 1011 73 10000 3.6 120 17:52 20.02.2022
2993 Clouds 27 1011 71 10000 2.57 130 15:41 20.02.2022
2994 Clouds 27 1011 70 10000 3.09 130 14:48 20.02.2022
2995 Clouds 28 1011 65 10000 3.6 110 13:23 20.02.2022
2996 Clouds 29 1010 62 10000 2.24 240 12:34 20.02.2022
2997 Clouds 30 1008 62 10000 4.12 110 10:47 20.02.2022
2998 Clouds 30 1008 63 10000 4.12 110 10:19 20.02.2022
2999 Clouds 32 1007 58 10000 8.05 210 08:50 20.02.2022
3000 Clouds 27 1011 76 10000 2.17 85 00:54 20.02.2022
3001 Clouds 27 1011 76 10000 2.17 85 00:54 20.02.2022
3002 Clouds 26 1010 77 10000 1.79 18 00:30 20.02.2022
3003 Clouds 26 1009 78 10000 0.89 16 23:18 19.02.2022
3004 Clouds 27 1009 76 10000 1.54 110 22:22 19.02.2022
3005 Clouds 27 1009 75 10000 0.51 0 21:25 19.02.2022
3006 Clouds 27 1009 75 10000 2.06 0 19:53 19.02.2022
3007 Clouds 27 1009 74 10000 2.06 0 19:28 19.02.2022
3008 Clouds 27 1010 75 10000 2.57 110 18:33 19.02.2022
3009 Clouds 27 1010 74 10000 3.6 120 17:35 19.02.2022
3010 Clouds 28 1011 71 10000 3.6 120 16:22 19.02.2022
3011 Clouds 28 1011 72 10000 2.57 0 14:56 19.02.2022
3012 Clouds 28 1011 71 10000 2.57 0 14:37 19.02.2022
3013 Clouds 29 1009 68 10000 3.6 120 12:50 19.02.2022
3014 Clouds 30 1008 69 10000 5.14 140 11:36 19.02.2022
3015 Clouds 31 1007 63 10000 4.63 120 09:45 19.02.2022
3016 Clouds 32 1009 61 10000 3.13 190 06:54 19.02.2022
3017 Clouds 30 1011 63 10000 5.36 200 02:52 19.02.2022
3018 Clouds 25 1010 82 10000 1.79 6 23:28 18.02.2022
3019 Clouds 25 1009 80 10000 2.06 20 21:49 18.02.2022
3020 Clouds 25 1009 79 10000 1.03 0 20:42 18.02.2022
3021 Clouds 26 1009 77 10000 1.54 140 19:52 18.02.2022
3022 Clouds 26 1010 76 10000 1.54 100 18:50 18.02.2022
3023 Clouds 26 1010 76 10000 1.54 100 18:20 18.02.2022
3024 Clouds 26 1010 76 10000 1.54 100 18:20 18.02.2022
3025 Clouds 27 1010 74 10000 2.57 130 17:38 18.02.2022
3026 Clouds 28 1010 73 10000 3.09 120 14:48 18.02.2022
3027 Clouds 28 1010 72 10000 2.57 120 13:54 18.02.2022
3028 Clouds 29 1009 68 10000 3.09 110 12:51 18.02.2022
3029 Clouds 29 1009 68 10000 4.12 130 11:58 18.02.2022
3030 Clouds 29 1009 68 10000 4.12 130 11:58 18.02.2022
3031 Clouds 29 1009 69 10000 7.15 77 11:21 18.02.2022
3032 Clouds 31 1008 64 10000 4.12 130 09:33 18.02.2022
3033 Clouds 31 1010 62 9000 4.02 172 06:52 18.02.2022
3034 Clouds 30 1011 65 9000 1.54 0 05:38 18.02.2022
3035 Clouds 25 1010 82 10000 1.54 60 22:47 17.02.2022
3036 Clouds 25 1009 84 10000 1.03 0 21:43 17.02.2022
3037 Clouds 25 1009 83 10000 1.54 70 20:52 17.02.2022
3038 Clouds 25 1009 82 10000 1.54 70 20:34 17.02.2022
3039 Clouds 26 1009 82 10000 2.06 110 19:43 17.02.2022
3040 Clouds 26 1009 81 10000 2.06 100 18:37 17.02.2022
3041 Clouds 26 1010 80 10000 1.54 110 17:48 17.02.2022
3042 Clouds 27 1010 79 10000 2.06 120 16:20 17.02.2022
3043 Clouds 27 1010 78 10000 2.57 120 14:57 17.02.2022
3044 Clouds 27 1010 77 10000 2.57 120 14:19 17.02.2022
3045 Clouds 27 1008 77 10000 5.14 120 11:59 17.02.2022
3046 Clouds 27 1007 79 10000 1.79 6 11:21 17.02.2022
3047 Clouds 29 1006 69 9000 5.14 100 08:38 17.02.2022
3048 Clouds 26 1009 78 10000 1.03 0 00:29 17.02.2022
3049 Clouds 25 1008 81 10000 2.06 70 22:39 16.02.2022
3050 Clouds 26 1007 79 10000 2.06 100 20:39 16.02.2022
3051 Clouds 26 1008 78 10000 3.09 110 19:32 16.02.2022
3052 Clouds 26 1008 79 10000 2.65 85 18:35 16.02.2022
3053 Clouds 26 1009 77 10000 3.09 120 17:34 16.02.2022
3054 Clouds 27 1009 72 10000 2.06 110 15:24 16.02.2022
3055 Clouds 27 1009 72 10000 2.57 120 14:29 16.02.2022
3056 Clouds 28 1007 67 10000 3.09 120 12:31 16.02.2022
3057 Clouds 29 1007 65 10000 4.12 130 11:51 16.02.2022
3058 Clouds 30 1006 65 10000 4.12 130 10:37 16.02.2022
3059 Clouds 30 1006 65 10000 4.12 130 10:18 16.02.2022
3060 Clouds 31 1008 63 10000 1.79 13 06:44 16.02.2022
3061 Clouds 29 1011 68 10000 1.03 0 03:41 16.02.2022
3062 Clouds 25 1009 80 10000 1.54 60 22:35 15.02.2022
3063 Clouds 26 1008 80 10000 1.54 90 21:52 15.02.2022
3064 Clouds 26 1008 80 10000 1.54 90 21:31 15.02.2022
3065 Clouds 26 1008 78 10000 2.06 110 20:58 15.02.2022
3066 Clouds 26 1008 78 10000 2.06 110 20:38 15.02.2022
3067 Clouds 26 1009 78 10000 2.06 130 19:48 15.02.2022
3068 Clouds 26 1009 77 10000 3.09 120 18:28 15.02.2022
3069 Clouds 26 1009 77 10000 2.57 130 17:57 15.02.2022
3070 Clouds 26 1009 77 10000 2.57 130 17:38 15.02.2022
3071 Clouds 27 1009 75 10000 3.09 120 15:44 15.02.2022
3072 Clouds 27 1009 74 10000 3.09 140 14:31 15.02.2022
3073 Clouds 27 1009 73 10000 3.6 120 13:26 15.02.2022
3074 Clouds 29 1007 69 10000 4.12 130 11:41 15.02.2022
3075 Clouds 30 1007 67 10000 4.63 130 10:30 15.02.2022
3076 Clouds 31 1007 65 10000 4.12 150 08:56 15.02.2022
3077 Clouds 32 1008 60 10000 3.13 1 06:47 15.02.2022
3078 Clouds 26 1010 85 10000 1.03 0 00:26 15.02.2022
3079 Clouds 26 1008 84 10000 1.03 0 21:58 14.02.2022
3080 Clouds 26 1009 85 10000 0.89 345 20:54 14.02.2022
3081 Clouds 26 1009 86 10000 0.51 0 19:49 14.02.2022
3082 Clouds 26 1009 87 10000 1.79 215 19:29 14.02.2022
3083 Clouds 27 1010 86 10000 3.58 188 18:24 14.02.2022
3084 Clouds 27 1010 81 10000 2.27 113 17:30 14.02.2022
3085 Rain 27 1011 81 10000 2.06 150 16:49 14.02.2022
3086 Clouds 28 1011 78 10000 1.54 140 15:42 14.02.2022
3087 Clouds 28 1010 76 10000 0 0 13:35 14.02.2022
3088 Clouds 29 1010 76 10000 0.51 0 12:59 14.02.2022
3089 Clouds 29 1009 75 10000 0.89 340 12:32 14.02.2022
3090 Clouds 29 1009 74 10000 1.54 0 11:39 14.02.2022
3091 Clouds 29 1008 70 10000 1.03 0 10:21 14.02.2022
3092 Clouds 30 1008 66 10000 2.57 100 08:18 14.02.2022
3093 Clouds 30 1008 63 10000 1.34 62 07:26 14.02.2022
3094 Clouds 25 1009 87 9000 2.57 60 22:49 13.02.2022
3095 Clouds 25 1009 87 9000 2.57 60 22:30 13.02.2022
3096 Clouds 25 1009 87 6000 2.57 60 21:59 13.02.2022
3097 Clouds 25 1008 87 6000 2.57 60 21:23 13.02.2022
3098 Clouds 25 1008 87 10000 1.54 130 20:27 13.02.2022
3099 Clouds 26 1009 86 8000 2.57 0 19:18 13.02.2022
3100 Clouds 27 1009 79 10000 2.06 130 18:41 13.02.2022
3101 Clouds 27 1009 77 10000 2.06 130 17:22 13.02.2022
3102 Clouds 27 1009 76 10000 2.57 120 15:51 13.02.2022
3103 Clouds 27 1009 75 10000 2.57 130 14:50 13.02.2022
3104 Clouds 28 1008 71 10000 2.06 120 13:27 13.02.2022
3105 Clouds 28 1008 73 10000 3.09 0 12:42 13.02.2022
3106 Clouds 30 1007 70 10000 4.12 120 10:43 13.02.2022
3107 Clouds 29 1007 69 10000 4.12 120 10:23 13.02.2022
3108 Clouds 31 1007 67 10000 4.12 120 08:56 13.02.2022
3109 Clouds 29 1010 69 10000 3.6 110 02:49 13.02.2022
3110 Clouds 26 1009 79 10000 1.54 0 00:32 13.02.2022
3111 Clouds 26 1008 81 10000 2.06 0 22:55 12.02.2022
3112 Clouds 26 1008 80 10000 2.24 272 22:30 12.02.2022
3113 Clouds 26 1008 79 10000 1.79 344 20:55 12.02.2022
3114 Clouds 26 1008 79 10000 1.54 80 20:23 12.02.2022
3115 Clouds 27 1009 75 10000 2.57 110 18:54 12.02.2022
3116 Clouds 27 1009 74 10000 2.57 110 18:36 12.02.2022
3117 Clouds 27 1009 74 10000 2.57 110 17:39 12.02.2022
3118 Clouds 27 1010 72 10000 3.6 0 16:46 12.02.2022
3119 Clouds 27 1010 72 10000 3.6 120 15:53 12.02.2022
3120 Clouds 27 1010 72 10000 3.6 120 15:20 12.02.2022
3121 Clouds 27 1010 71 10000 3.09 110 14:25 12.02.2022
3122 Clouds 28 1008 68 10000 4.12 110 11:31 12.02.2022
3123 Clouds 30 1007 64 10000 4.12 110 10:30 12.02.2022
3124 Clouds 30 1007 63 10000 4.63 120 09:37 12.02.2022
3125 Clouds 31 1007 62 10000 4.63 120 08:46 12.02.2022
3126 Clouds 32 1008 59 10000 3.58 167 07:44 12.02.2022
3127 Clouds 31 1010 59 10000 4.12 280 04:47 12.02.2022
3128 Clouds 28 1011 60 10000 2.24 9 02:19 12.02.2022
3129 Clouds 24 1010 80 10000 1.03 90 23:34 11.02.2022
3130 Clouds 25 1009 78 10000 1.54 100 22:23 11.02.2022
3131 Clouds 25 1009 77 10000 1.03 0 21:34 11.02.2022
3132 Clouds 25 1009 78 10000 1.54 70 20:28 11.02.2022
3133 Clouds 26 1009 75 10000 2.57 110 19:29 11.02.2022
3134 Clouds 26 1010 74 10000 3.6 120 18:41 11.02.2022
3135 Clouds 26 1010 75 10000 3.09 110 17:27 11.02.2022
3136 Clouds 27 1010 74 10000 4.12 110 16:40 11.02.2022
3137 Clouds 27 1011 73 10000 2.57 120 15:19 11.02.2022
3138 Clouds 27 1010 73 10000 2.57 110 14:37 11.02.2022
3139 Clouds 27 1010 73 10000 2.57 110 14:19 11.02.2022
3140 Clouds 27 1010 72 10000 3.09 110 13:40 11.02.2022
3141 Clouds 27 1010 73 10000 3.09 110 13:21 11.02.2022
3142 Clouds 28 1009 67 10000 4.63 120 10:59 11.02.2022
3143 Rain 30 1009 62 10000 5.66 100 09:32 11.02.2022
3144 Clouds 30 1008 64 10000 5.14 120 08:33 11.02.2022
3145 Rain 31 1009 61 10000 4.12 120 07:45 11.02.2022
3146 Clouds 31 1011 60 10000 5.14 120 06:22 11.02.2022
3147 Clouds 28 1012 64 10000 1.54 130 02:21 11.02.2022
3148 Clouds 26 1011 76 10000 1.54 90 23:45 10.02.2022
3149 Clouds 26 1010 74 10000 3.6 100 22:26 10.02.2022
3150 Clouds 26 1009 74 10000 2.06 110 21:41 10.02.2022
3151 Clouds 26 1009 74 10000 2.06 110 20:50 10.02.2022
3152 Clouds 26 1009 74 10000 3.09 90 19:51 10.02.2022
3153 Clouds 26 1009 72 10000 3.09 90 19:22 10.02.2022
3154 Clouds 26 1010 74 10000 4.12 110 18:22 10.02.2022
3155 Clouds 27 1010 71 10000 3.09 120 17:21 10.02.2022
3156 Clouds 26 1011 72 10000 1.54 130 16:39 10.02.2022
3157 Clouds 26 1011 74 10000 3.09 120 15:39 10.02.2022
3158 Clouds 26 1011 74 10000 3.09 120 15:20 10.02.2022
3159 Clouds 27 1011 72 10000 2.57 120 14:34 10.02.2022
3160 Clouds 27 1011 70 10000 4.12 120 13:37 10.02.2022
3161 Clouds 27 1011 70 10000 4.12 120 13:18 10.02.2022
3162 Clouds 28 1010 66 10000 5.14 120 11:50 10.02.2022
3163 Clouds 28 1010 65 10000 5.14 120 11:28 10.02.2022
3164 Clouds 30 1009 61 10000 4.92 66 10:22 10.02.2022
3165 Clouds 31 1008 59 10000 5.14 110 09:37 10.02.2022
3166 Clouds 32 1008 53 10000 5.14 110 08:25 10.02.2022
3167 Clouds 32 1010 53 10000 4.12 110 06:32 10.02.2022
3168 Clouds 29 1013 64 10000 1.54 50 02:43 10.02.2022
3169 Clouds 26 1012 73 10000 1.03 0 00:52 10.02.2022
3170 Clouds 26 1012 74 10000 1.03 0 00:30 10.02.2022
3171 Clouds 26 1012 74 10000 1.03 0 00:30 10.02.2022
3172 Clouds 25 1012 76 10000 1.03 0 23:53 09.02.2022
3173 Clouds 25 1011 77 10000 0.89 6 22:51 09.02.2022
3174 Clouds 25 1011 77 10000 0.45 10 22:30 09.02.2022
3175 Clouds 25 1011 77 10000 1.54 240 21:45 09.02.2022
3176 Clouds 25 1011 76 10000 1.54 240 21:24 09.02.2022
3177 Clouds 25 1011 78 10000 2.06 60 20:41 09.02.2022
3178 Clouds 25 1011 78 10000 2.06 60 20:21 09.02.2022
3179 Clouds 25 1011 78 10000 2.06 60 20:21 09.02.2022
3180 Clouds 26 1011 74 10000 2.06 110 19:39 09.02.2022
3181 Clouds 26 1012 74 10000 3.6 110 17:50 09.02.2022
3182 Clouds 26 1012 71 10000 3.6 110 16:54 09.02.2022
3183 Clouds 27 1012 73 10000 4.12 120 15:55 09.02.2022
3184 Clouds 27 1012 73 10000 4.12 120 15:19 09.02.2022
3185 Clouds 28 1011 65 10000 3.09 110 12:42 09.02.2022
3186 Clouds 29 1010 59 10000 3.09 90 11:20 09.02.2022
3187 Clouds 31 1010 55 10000 4.63 80 10:32 09.02.2022
3188 Clouds 31 1009 55 10000 4.63 130 09:42 09.02.2022
3189 Clouds 32 1009 55 10000 5.81 69 09:20 09.02.2022
3190 Clouds 32 1009 55 10000 3.6 100 08:26 09.02.2022
3191 Clouds 31 1012 55 10000 2.68 56 05:30 09.02.2022
3192 Clouds 30 1014 56 10000 2.57 110 03:51 09.02.2022
3193 Clouds 27 1013 68 10000 2.24 358 01:28 09.02.2022
3194 Clouds 25 1012 79 10000 1.54 130 23:39 08.02.2022
3195 Clouds 25 1011 78 10000 2.06 110 22:51 08.02.2022
3196 Clouds 25 1011 78 10000 2.06 110 22:22 08.02.2022
3197 Clouds 26 1011 74 10000 2.57 110 21:52 08.02.2022
3198 Clouds 26 1011 73 10000 2.57 110 21:21 08.02.2022
3199 Clouds 26 1011 73 10000 2.57 110 20:45 08.02.2022
3200 Clouds 26 1012 76 10000 3.09 110 19:52 08.02.2022
3201 Clouds 27 1013 75 10000 3.09 120 18:52 08.02.2022
3202 Clouds 27 1013 75 10000 3.09 110 17:50 08.02.2022
3203 Clouds 27 1013 74 10000 3.09 110 16:35 08.02.2022
3204 Clouds 27 1013 74 10000 2.57 110 15:39 08.02.2022
3205 Clouds 28 1013 72 10000 3.09 120 14:44 08.02.2022
3206 Clouds 28 1012 73 10000 3.09 110 13:29 08.02.2022
3207 Clouds 29 1011 71 10000 3.6 100 11:55 08.02.2022
3208 Clouds 29 1010 70 10000 3.6 120 10:23 08.02.2022
3209 Clouds 30 1011 66 10000 3.6 110 09:45 08.02.2022
3210 Clouds 31 1010 64 10000 5.14 120 07:55 08.02.2022
3211 Clouds 31 1012 62 10000 4.12 120 05:41 08.02.2022
3212 Clouds 31 1013 63 10000 4.12 120 04:39 08.02.2022
3213 Clouds 30 1013 65 10000 4.12 120 04:21 08.02.2022
3214 Clouds 30 1014 69 10000 3.09 0 03:36 08.02.2022
3215 Clouds 29 1014 67 10000 3.09 0 03:18 08.02.2022
3216 Clouds 29 1013 71 10000 2.24 326 02:59 08.02.2022
3217 Clouds 29 1013 69 10000 2.24 14 02:36 08.02.2022
3218 Clouds 29 1013 69 10000 2.24 3 02:18 08.02.2022
3219 Clouds 28 1013 71 10000 1.34 4 02:18 08.02.2022
3220 Clouds 27 1013 77 10000 3.13 5 01:44 08.02.2022
3221 Clouds 27 1013 80 10000 1.34 17 01:24 08.02.2022
3222 Clouds 26 1013 82 10000 1.03 0 00:54 08.02.2022
3223 Clouds 25 1012 86 10000 0 0 23:55 07.02.2022
3224 Clouds 25 1012 86 10000 0 0 23:37 07.02.2022
3225 Clouds 25 1012 87 10000 0 0 23:18 07.02.2022
3226 Clouds 25 1011 86 10000 1.03 0 22:20 07.02.2022
3227 Clouds 25 1011 86 10000 0.51 0 21:55 07.02.2022
3228 Clouds 25 1011 86 10000 0.51 0 21:29 07.02.2022
3229 Clouds 25 1011 85 10000 1.03 180 20:59 07.02.2022
3230 Clouds 25 1011 85 10000 1.03 180 20:40 07.02.2022
3231 Clouds 26 1011 83 10000 1.03 0 19:50 07.02.2022
3232 Clouds 26 1011 83 10000 1.03 0 19:32 07.02.2022
3233 Clouds 26 1012 83 10000 4.52 85 17:52 07.02.2022
3234 Clouds 26 1013 85 10000 0.45 323 16:53 07.02.2022
3235 Clouds 26 1013 83 10000 1.54 90 15:49 07.02.2022
3236 Clouds 27 1013 80 10000 2.06 120 14:55 07.02.2022
3237 Clouds 27 1012 76 10000 3.09 100 13:28 07.02.2022
3238 Clouds 27 1011 76 10000 0.89 12 12:42 07.02.2022
3239 Clouds 28 1011 73 10000 0.45 8 11:57 07.02.2022
3240 Clouds 28 1010 74 10000 0.89 17 11:34 07.02.2022
3241 Clouds 28 1010 72 10000 3.13 204 10:49 07.02.2022
3242 Clouds 29 1010 72 10000 1.34 180 10:29 07.02.2022
3243 Clouds 29 1010 70 10000 4.63 110 09:53 07.02.2022
3244 Clouds 29 1010 70 10000 4.63 110 09:18 07.02.2022
3245 Clouds 30 1010 68 10000 5.36 216 08:24 07.02.2022
3246 Clouds 30 1010 65 10000 2.68 347 06:52 07.02.2022
3247 Clouds 30 1011 64 10000 4.02 323 06:33 07.02.2022
3248 Clouds 28 1014 73 10000 0.45 342 02:56 07.02.2022
3249 Clouds 26 1013 79 10000 1.34 354 00:42 07.02.2022
3250 Clouds 25 1012 79 10000 1.79 12 23:42 06.02.2022
3251 Clouds 25 1012 78 10000 1.34 355 22:47 06.02.2022
3252 Clouds 25 1012 79 10000 0.89 4 21:52 06.02.2022
3253 Clouds 26 1012 78 10000 2.06 110 21:30 06.02.2022
3254 Clouds 26 1012 76 10000 2.57 90 20:52 06.02.2022
3255 Clouds 26 1012 76 10000 0.89 4 20:28 06.02.2022
3256 Clouds 26 1013 75 10000 2.24 1 19:32 06.02.2022
3257 Clouds 26 1013 75 10000 2.57 100 18:38 06.02.2022
3258 Clouds 26 1013 75 10000 3.09 100 17:54 06.02.2022
3259 Clouds 26 1013 74 10000 4.12 110 16:53 06.02.2022
3260 Clouds 26 1013 73 10000 4.12 110 16:32 06.02.2022
3261 Clouds 26 1013 73 10000 3.09 100 15:47 06.02.2022
3262 Clouds 27 1013 73 10000 0.45 351 15:26 06.02.2022
3263 Clouds 27 1013 71 10000 0.89 23 14:27 06.02.2022
3264 Clouds 27 1013 71 10000 0.89 12 13:24 06.02.2022
3265 Clouds 27 1012 70 10000 1.79 335 12:45 06.02.2022
3266 Clouds 28 1012 65 10000 0.45 349 11:19 06.02.2022
3267 Clouds 29 1011 63 10000 3.13 280 09:48 06.02.2022
3268 Clouds 31 1011 59 10000 2.68 251 08:47 06.02.2022
3269 Clouds 31 1011 57 10000 2.68 239 07:36 06.02.2022
3270 Clouds 31 1011 57 10000 2.68 239 07:36 06.02.2022
3271 Clouds 31 1013 56 10000 1.79 47 05:29 06.02.2022
3272 Clouds 28 1014 62 10000 0.45 232 02:26 06.02.2022
3273 Clouds 27 1014 66 10000 4.63 100 01:21 06.02.2022
3274 Clouds 26 1013 70 10000 4.12 100 00:24 06.02.2022
3275 Clouds 26 1012 72 10000 0.45 345 22:18 05.02.2022
3276 Clouds 26 1012 71 10000 1.34 348 20:48 05.02.2022
3277 Clouds 26 1012 70 10000 3.6 120 20:23 05.02.2022
3278 Clouds 26 1012 70 10000 0.45 341 19:44 05.02.2022
3279 Clouds 26 1013 71 10000 2.57 110 18:48 05.02.2022
3280 Clouds 27 1013 68 10000 0.89 354 17:37 05.02.2022
3281 Clouds 27 1013 68 10000 3.09 100 16:36 05.02.2022
3282 Clouds 27 1013 67 10000 1.34 8 15:33 05.02.2022
3283 Clouds 27 1013 66 10000 0.45 9 14:40 05.02.2022
3284 Clouds 27 1013 64 10000 0.45 5 12:46 05.02.2022
3285 Clouds 28 1012 62 10000 1.79 9 11:47 05.02.2022
3286 Clouds 29 1011 58 10000 1.79 31 10:46 05.02.2022
3287 Clouds 30 1011 56 10000 3.13 5 09:51 05.02.2022
3288 Clouds 30 1011 56 10000 2.24 62 09:23 05.02.2022
3289 Clouds 31 1012 54 10000 2.68 347 07:32 05.02.2022
3290 Clouds 30 1012 54 10000 5.81 101 06:55 05.02.2022
3291 Clouds 29 1013 59 10000 2.68 69 02:43 05.02.2022
3292 Clouds 27 1013 70 10000 1.03 0 01:18 05.02.2022
3293 Clouds 25 1013 76 10000 1.03 0 00:36 05.02.2022
3294 Clouds 25 1012 74 10000 1.03 0 23:33 04.02.2022
3295 Clouds 25 1012 76 10000 1.03 0 22:55 04.02.2022
3296 Clouds 25 1011 78 10000 0.89 54 21:36 04.02.2022
3297 Clouds 25 1011 78 10000 0.89 49 21:18 04.02.2022
3298 Clouds 25 1011 78 10000 2.06 60 20:40 04.02.2022
3299 Clouds 25 1012 76 10000 1.54 70 19:29 04.02.2022
3300 Clouds 26 1013 72 10000 2.06 110 16:50 04.02.2022
3301 Clouds 27 1013 69 10000 0.89 58 15:33 04.02.2022
3302 Clouds 27 1013 68 10000 0.89 79 14:47 04.02.2022
3303 Clouds 28 1012 64 10000 2.68 77 12:43 04.02.2022
3304 Clouds 29 1011 59 10000 2.24 52 11:45 04.02.2022
3305 Clouds 30 1011 53 10000 1.79 21 10:56 04.02.2022
3306 Clouds 30 1010 55 10000 5.81 69 10:22 04.02.2022
3307 Clouds 32 1010 48 10000 1.34 22 08:30 04.02.2022
3308 Clouds 30 1013 57 10000 2.24 355 03:47 04.02.2022
3309 Clouds 29 1012 61 10000 1.34 71 02:38 04.02.2022
3310 Clouds 24 1011 83 10000 0.45 23 23:56 03.02.2022
3311 Clouds 24 1011 81 10000 0.89 7 22:51 03.02.2022
3312 Clouds 25 1011 81 10000 2.06 0 21:52 03.02.2022
3313 Clouds 25 1010 80 10000 2.06 0 21:29 03.02.2022
3314 Clouds 25 1010 80 10000 1.54 110 20:22 03.02.2022
3315 Clouds 25 1010 80 10000 1.54 110 20:22 03.02.2022
3316 Clouds 25 1011 79 10000 1.03 0 19:46 03.02.2022
3317 Clouds 26 1011 76 10000 2.06 100 18:56 03.02.2022
3318 Clouds 26 1011 76 10000 2.06 120 17:59 03.02.2022
3319 Clouds 26 1011 76 10000 2.06 110 16:55 03.02.2022
3320 Clouds 27 1012 71 10000 2.06 120 15:28 03.02.2022
3321 Clouds 27 1011 73 10000 1.54 110 13:45 03.02.2022
3322 Clouds 28 1011 73 10000 2.06 0 11:47 03.02.2022
3323 Clouds 29 1010 67 10000 2.68 197 08:55 03.02.2022
3324 Clouds 29 1010 67 10000 1.34 207 07:41 03.02.2022
3325 Clouds 26 1012 75 10000 2.24 355 00:35 03.02.2022
3326 Clouds 25 1012 76 10000 0.45 4 23:47 02.02.2022
3327 Clouds 25 1011 75 10000 0.51 0 22:38 02.02.2022
3328 Clouds 25 1011 75 10000 0.45 3 21:42 02.02.2022
3329 Clouds 25 1011 75 10000 1.54 290 21:24 02.02.2022
3330 Clouds 26 1011 74 10000 1.54 290 20:19 02.02.2022
3331 Clouds 26 1011 76 10000 0.51 0 19:45 02.02.2022
3332 Clouds 26 1012 76 10000 0.45 353 18:53 02.02.2022
3333 Clouds 26 1012 76 10000 1.03 100 18:22 02.02.2022
3334 Rain 26 1012 73 10000 1.03 0 17:20 02.02.2022
3335 Clouds 26 1013 71 10000 0.45 25 16:48 02.02.2022
3336 Clouds 27 1013 66 10000 2.06 110 14:21 02.02.2022
3337 Clouds 28 1012 59 10000 3.6 80 12:26 02.02.2022
3338 Clouds 28 1012 59 10000 1.34 61 11:40 02.02.2022
3339 Clouds 28 1011 59 10000 4.02 84 10:38 02.02.2022
3340 Clouds 31 1011 56 10000 0.45 0 07:59 02.02.2022
3341 Clouds 27 1014 69 10000 0.89 153 01:36 02.02.2022
3342 Rain 24 1012 81 10000 0.89 359 21:59 01.02.2022
3343 Rain 24 1012 81 10000 0.45 12 20:49 01.02.2022
3344 Clouds 25 1013 74 10000 2.57 120 18:35 01.02.2022
3345 Clouds 26 1013 74 10000 2.57 110 16:44 01.02.2022
3346 Rain 26 1013 72 10000 2.06 0 15:30 01.02.2022
3347 Rain 27 1012 70 10000 0.45 56 12:49 01.02.2022
3348 Rain 28 1011 67 10000 1.79 71 11:48 01.02.2022
3349 Clouds 30 1010 59 10000 1.34 241 08:34 01.02.2022
3350 Clouds 25 1012 77 10000 0.45 8 23:54 31.01.2022
3351 Clouds 25 1012 77 10000 0.45 8 23:54 31.01.2022
3352 Clouds 25 1012 78 10000 1.34 351 23:36 31.01.2022
3353 Clouds 25 1012 78 10000 1.34 351 23:36 31.01.2022
3354 Clouds 25 1011 78 10000 1.54 100 22:27 31.01.2022
3355 Clouds 26 1011 78 10000 2.57 110 21:34 31.01.2022
3356 Clouds 26 1011 76 10000 0.45 7 20:34 31.01.2022
3357 Clouds 26 1012 75 10000 3.09 110 19:46 31.01.2022
3358 Clouds 26 1012 77 10000 4.12 120 18:31 31.01.2022
3359 Clouds 26 1012 77 10000 4.12 120 18:31 31.01.2022
3360 Clouds 26 1012 77 10000 0.45 21 18:31 31.01.2022
3361 Clouds 26 1012 75 10000 3.6 120 17:53 31.01.2022
3362 Clouds 26 1012 75 10000 3.09 120 16:58 31.01.2022
3363 Clouds 27 1012 74 10000 4.12 120 15:44 31.01.2022
3364 Clouds 27 1012 73 10000 0.45 350 14:25 31.01.2022
3365 Clouds 28 1011 70 10000 3.6 120 12:55 31.01.2022
3366 Clouds 28 1010 69 10000 0.89 28 11:59 31.01.2022
3367 Clouds 30 1009 63 10000 1.34 18 10:54 31.01.2022
3368 Clouds 30 1009 62 10000 2.68 34 10:36 31.01.2022
3369 Clouds 30 1009 62 10000 4.02 65 09:34 31.01.2022
3370 Clouds 31 1009 58 10000 2.24 27 08:52 31.01.2022
3371 Clouds 32 1009 57 10000 4.02 74 08:20 31.01.2022
3372 Clouds 32 1010 56 10000 0.45 357 06:36 31.01.2022
3373 Clouds 31 1011 56 10000 1.34 103 05:20 31.01.2022
3374 Clouds 26 1011 83 10000 0.45 39 23:30 30.01.2022
3375 Clouds 26 1010 84 10000 2.06 20 22:30 30.01.2022
3376 Clouds 26 1010 84 10000 2.06 20 22:30 30.01.2022
3377 Clouds 26 1010 86 10000 0.45 5 21:43 30.01.2022
3378 Clouds 26 1010 86 10000 0.45 29 21:21 30.01.2022
3379 Clouds 25 1010 87 10000 1.34 13 20:50 30.01.2022
3380 Clouds 25 1010 87 10000 0.89 11 20:29 30.01.2022
3381 Clouds 25 1010 85 10000 1.03 60 19:53 30.01.2022
3382 Clouds 26 1010 84 10000 0.45 8 18:44 30.01.2022
3383 Clouds 26 1010 85 10000 0 0 18:20 30.01.2022
3384 Clouds 26 1011 85 10000 1.19 79 17:28 30.01.2022
3385 Clouds 26 1011 84 10000 0.45 359 16:41 30.01.2022
3386 Clouds 26 1011 84 10000 1.79 351 16:22 30.01.2022
3387 Clouds 26 1011 83 10000 0.45 13 15:52 30.01.2022
3388 Clouds 26 1011 83 10000 0.89 7 15:32 30.01.2022
3389 Clouds 26 1010 84 10000 0.89 358 14:46 30.01.2022
3390 Clouds 27 1010 85 10000 1.34 11 12:54 30.01.2022
3391 Clouds 27 1009 85 10000 1.34 16 12:33 30.01.2022
3392 Rain 26 1008 86 10000 5.66 270 10:36 30.01.2022
3393 Clear 27 1008 87 10000 2.24 51 09:56 30.01.2022
3394 Clouds 27 1008 84 10000 6.69 280 09:21 30.01.2022
3395 Clouds 30 1008 72 10000 3.58 334 07:56 30.01.2022
3396 Clouds 29 1010 75 10000 4.02 189 02:42 30.01.2022
3397 Clouds 28 1010 78 10000 4.92 193 01:39 30.01.2022
3398 Clouds 26 1008 88 10000 1.34 207 23:21 29.01.2022
3399 Clouds 26 1008 89 10000 0.89 158 21:59 29.01.2022
3400 Clouds 26 1008 88 10000 1.34 159 21:26 29.01.2022
3401 Clouds 26 1008 88 10000 1.34 202 20:36 29.01.2022
3402 Clouds 27 1008 86 10000 2.24 197 19:36 29.01.2022
3403 Clouds 27 1009 86 10000 2.24 213 18:58 29.01.2022
3404 Clouds 27 1009 86 10000 1.79 200 18:26 29.01.2022
3405 Clouds 27 1009 85 10000 0.45 273 17:35 29.01.2022
3406 Clouds 27 1009 85 10000 0.89 245 16:38 29.01.2022
3407 Clouds 28 1009 82 10000 2.68 212 14:24 29.01.2022
3408 Clouds 28 1008 82 10000 2.68 172 13:45 29.01.2022
3409 Clouds 28 1008 81 10000 2.24 208 13:24 29.01.2022
3410 Clouds 28 1008 79 10000 2.68 221 12:35 29.01.2022
3411 Clouds 29 1007 78 10000 3.58 222 11:27 29.01.2022
3412 Clouds 31 1006 68 10000 4.92 217 09:29 29.01.2022
3413 Clouds 32 1007 61 10000 4.47 211 06:55 29.01.2022
3414 Clouds 26 1010 84 9000 0.51 0 00:37 29.01.2022
3415 Clouds 26 1010 84 9000 0.51 0 00:37 29.01.2022
3416 Clouds 26 1009 85 10000 1.03 0 23:59 28.01.2022
3417 Clouds 26 1009 85 10000 0.51 0 22:51 28.01.2022
3418 Clouds 26 1009 85 10000 0.51 0 22:22 28.01.2022
3419 Clouds 26 1009 85 10000 0 0 21:37 28.01.2022
3420 Clouds 26 1009 84 10000 0.45 3 20:30 28.01.2022
3421 Clouds 27 1010 85 10000 1.03 0 19:33 28.01.2022
3422 Clouds 27 1010 86 10000 2.49 100 18:46 28.01.2022
3423 Clouds 28 1010 76 10000 2.06 130 17:31 28.01.2022
3424 Clouds 28 1011 74 10000 2.57 120 15:21 28.01.2022
3425 Clouds 28 1010 73 10000 0.89 212 13:57 28.01.2022
3426 Clouds 29 1009 70 10000 0.89 160 12:31 28.01.2022
3427 Clouds 30 1008 68 10000 0.89 228 11:25 28.01.2022
3428 Clouds 31 1008 63 10000 1.34 199 09:52 28.01.2022
3429 Rain 32 1008 62 10000 3.58 207 08:22 28.01.2022
3430 Clouds 33 1008 61 10000 3.58 226 07:34 28.01.2022
3431 Clouds 30 1010 70 10000 1.79 333 03:57 28.01.2022
3432 Clouds 30 1010 69 10000 1.34 306 03:20 28.01.2022
3433 Clouds 30 1010 66 10000 1.34 242 02:22 28.01.2022
3434 Clouds 29 1010 71 10000 0.45 180 01:31 28.01.2022
3435 Rain 26 1009 85 10000 1.54 70 22:52 27.01.2022
3436 Clouds 27 1009 81 10000 1.03 0 21:47 27.01.2022
3437 Rain 27 1009 81 10000 1.03 0 21:29 27.01.2022
3438 Clouds 27 1009 82 10000 1.03 0 20:25 27.01.2022
3439 Clouds 27 1010 82 10000 1.54 140 18:26 27.01.2022
3440 Clouds 28 1010 79 10000 2.06 110 17:55 27.01.2022
3441 Clouds 28 1010 77 10000 2.57 120 14:42 27.01.2022
3442 Clouds 28 1010 76 10000 2.57 130 13:26 27.01.2022
3443 Clouds 29 1009 75 10000 3.6 110 12:39 27.01.2022
3444 Clouds 32 1007 66 10000 2.68 341 09:56 27.01.2022
3445 Clouds 32 1007 62 10000 2.24 209 08:48 27.01.2022
3446 Clouds 33 1007 62 10000 2.24 78 08:28 27.01.2022
3447 Clouds 31 1010 71 10000 0.45 95 03:47 27.01.2022
3448 Clouds 26 1010 89 10000 0.89 356 00:25 27.01.2022
3449 Clouds 25 1008 93 9000 1.54 100 22:39 26.01.2022
3450 Clouds 25 1008 92 9000 2.06 70 21:45 26.01.2022
3451 Clouds 25 1008 91 9000 2.06 70 21:26 26.01.2022
3452 Clouds 26 1008 89 9000 1.03 0 20:35 26.01.2022
3453 Clouds 26 1009 89 10000 2.06 60 19:52 26.01.2022
3454 Clouds 26 1009 89 10000 2.06 60 19:18 26.01.2022
3455 Clouds 26 1009 89 10000 1.03 0 18:26 26.01.2022
3456 Clouds 26 1009 91 10000 0.51 0 17:49 26.01.2022
3457 Clouds 26 1009 92 10000 0.51 0 17:19 26.01.2022
3458 Clouds 26 1009 92 10000 1.03 0 16:26 26.01.2022
3459 Clouds 26 1010 92 10000 0.45 358 15:24 26.01.2022
3460 Clouds 25 1010 93 9000 1.03 0 12:54 26.01.2022
3461 Rain 25 1009 95 7000 0.51 0 11:34 26.01.2022
3462 Clouds 26 1008 89 9000 3.6 60 09:59 26.01.2022
3463 Clouds 26 1008 90 9000 3.6 60 09:40 26.01.2022
3464 Clouds 30 1007 70 9000 3.13 341 07:28 26.01.2022
3465 Clouds 26 1009 75 10000 1.03 0 00:44 26.01.2022
3466 Clouds 26 1009 75 10000 1.34 7 23:44 25.01.2022
3467 Clouds 26 1009 75 10000 0.89 15 22:50 25.01.2022
3468 Clouds 26 1008 74 10000 1.34 357 22:21 25.01.2022
3469 Clouds 26 1008 73 10000 0.45 3 21:35 25.01.2022
3470 Clouds 26 1008 71 10000 0.45 0 20:46 25.01.2022
3471 Clouds 26 1008 71 10000 1.54 290 19:59 25.01.2022
3472 Clouds 26 1008 71 10000 0.45 4 19:34 25.01.2022
3473 Clouds 26 1009 68 10000 1.54 0 18:20 25.01.2022
3474 Clouds 26 1009 66 10000 0.45 4 17:39 25.01.2022
3475 Clouds 27 1009 62 10000 1.54 80 16:35 25.01.2022
3476 Clouds 27 1009 64 10000 0.45 26 15:39 25.01.2022
3477 Clouds 27 1009 65 10000 0.89 18 15:20 25.01.2022
3478 Clouds 27 1010 65 10000 1.54 100 14:56 25.01.2022
3479 Clouds 28 1009 61 10000 1.34 14 12:23 25.01.2022
3480 Clouds 31 1007 54 10000 4.02 340 09:39 25.01.2022
3481 Clouds 32 1007 52 10000 1.79 327 08:21 25.01.2022
3482 Clouds 32 1007 52 10000 3.13 32 07:27 25.01.2022
3483 Clouds 31 1009 56 10000 3.13 83 05:54 25.01.2022
3484 Clouds 25 1010 79 10000 0 0 00:57 25.01.2022
3485 Clouds 25 1009 81 10000 1.03 0 23:36 24.01.2022
3486 Clouds 25 1009 81 10000 1.03 0 23:18 24.01.2022
3487 Clouds 25 1009 79 10000 1.03 0 22:42 24.01.2022
3488 Clouds 25 1009 79 10000 1.03 0 22:23 24.01.2022
3489 Clouds 25 1008 78 10000 1.03 0 21:42 24.01.2022
3490 Clouds 25 1008 78 10000 1.03 0 21:24 24.01.2022
3491 Clouds 25 1008 82 10000 2.57 60 20:27 24.01.2022
3492 Clouds 25 1008 77 10000 1.54 80 19:38 24.01.2022
3493 Clouds 26 1009 75 10000 1.03 0 18:50 24.01.2022
3494 Clouds 27 1009 72 10000 2.06 110 17:39 24.01.2022
3495 Clouds 27 1009 72 10000 2.06 110 17:21 24.01.2022
3496 Clouds 27 1009 72 10000 1.54 100 16:31 24.01.2022
3497 Clouds 27 1009 70 10000 2.06 140 15:25 24.01.2022
3498 Clouds 28 1009 69 10000 2.57 120 13:58 24.01.2022
3499 Clouds 28 1008 68 10000 3.09 120 12:34 24.01.2022
3500 Clouds 29 1008 66 10000 0.89 60 11:41 24.01.2022
3501 Clouds 31 1007 62 10000 3.6 130 10:19 24.01.2022
3502 Clouds 30 1007 64 10000 0.89 264 09:44 24.01.2022
3503 Clouds 29 1008 77 10000 1.34 214 07:45 24.01.2022
3504 Clouds 27 1010 76 10000 1.54 0 01:38 24.01.2022
3505 Clouds 26 1010 82 10000 0.51 0 00:55 24.01.2022
3506 Clouds 25 1010 84 10000 0.51 0 00:30 24.01.2022
3507 Clouds 25 1009 85 10000 1.03 0 23:39 23.01.2022
3508 Clouds 25 1008 83 10000 0 0 21:53 23.01.2022
3509 Clouds 25 1008 84 10000 0.89 3 21:29 23.01.2022
3510 Clouds 25 1008 84 10000 0.51 0 20:57 23.01.2022
3511 Clouds 26 1008 82 10000 0.45 5 20:21 23.01.2022
3512 Clouds 26 1009 79 10000 1.34 8 18:53 23.01.2022
3513 Clouds 26 1009 78 10000 1.54 140 18:22 23.01.2022
3514 Clouds 27 1010 76 10000 0.89 9 16:55 23.01.2022
3515 Clouds 27 1009 73 10000 2.7 107 15:56 23.01.2022
3516 Clouds 27 1010 76 10000 3.09 140 14:50 23.01.2022
3517 Clouds 27 1010 76 10000 3.09 140 14:18 23.01.2022
3518 Clouds 28 1009 74 10000 3.09 130 12:45 23.01.2022
3519 Clouds 28 1009 74 10000 3.09 130 12:19 23.01.2022
3520 Clouds 29 1009 69 10000 0.89 260 11:26 23.01.2022
3521 Clouds 30 1008 69 10000 2.57 0 10:57 23.01.2022
3522 Clouds 30 1008 68 10000 0.89 212 10:25 23.01.2022
3523 Clouds 30 1007 65 10000 3.13 359 09:31 23.01.2022
3524 Clouds 31 1007 63 10000 3.13 3 08:33 23.01.2022
3525 Clouds 29 1011 65 10000 2.57 0 03:34 23.01.2022
3526 Clouds 27 1011 78 10000 1.79 353 01:37 23.01.2022
3527 Clouds 25 1010 85 10000 0.45 20 00:47 23.01.2022
3528 Clouds 25 1010 83 10000 0.89 5 23:59 22.01.2022
3529 Clouds 26 1009 83 10000 2.06 90 22:53 22.01.2022
3530 Clouds 26 1009 83 10000 2.06 90 22:19 22.01.2022
3531 Clouds 26 1009 83 10000 2.06 110 20:33 22.01.2022
3532 Clouds 26 1009 83 10000 2.06 100 19:46 22.01.2022
3533 Clouds 27 1010 77 10000 2.57 110 18:37 22.01.2022
3534 Clouds 27 1010 75 10000 2.06 120 17:46 22.01.2022
3535 Clouds 27 1010 75 10000 2.06 120 17:24 22.01.2022
3536 Clouds 27 1011 74 10000 2.57 100 16:54 22.01.2022
3537 Clouds 27 1011 73 10000 2.57 110 15:45 22.01.2022
3538 Clouds 27 1010 73 10000 3.09 120 14:52 22.01.2022
3539 Clouds 28 1010 71 10000 0.45 49 13:30 22.01.2022
3540 Clouds 28 1009 70 10000 0.45 316 12:37 22.01.2022
3541 Clouds 28 1009 70 10000 5.7 104 12:19 22.01.2022
3542 Clouds 30 1008 67 10000 2.68 344 10:54 22.01.2022
3543 Clouds 30 1008 65 10000 0.45 12 10:23 22.01.2022
3544 Clouds 31 1007 59 10000 1.34 358 08:59 22.01.2022
3545 Clouds 31 1007 58 10000 0.89 353 08:39 22.01.2022
3546 Clouds 31 1009 60 10000 1.34 19 06:46 22.01.2022
3547 Clouds 29 1012 66 10000 0.45 161 02:40 22.01.2022
3548 Clouds 24 1011 85 10000 0.51 0 23:50 21.01.2022
3549 Clouds 24 1010 84 10000 0.51 0 23:21 21.01.2022
3550 Clouds 25 1010 81 10000 1.03 0 21:34 21.01.2022
3551 Clouds 26 1010 80 10000 1.34 344 19:35 21.01.2022
3552 Clouds 26 1011 80 10000 1.54 0 17:51 21.01.2022
3553 Clouds 26 1011 80 10000 1.79 354 15:56 21.01.2022
3554 Clouds 26 1011 77 10000 2.06 110 15:23 21.01.2022
3555 Clouds 27 1010 75 10000 3.09 120 12:48 21.01.2022
3556 Clouds 27 1009 74 10000 0.45 55 11:29 21.01.2022
3557 Clouds 27 1009 76 10000 3.6 110 10:47 21.01.2022
3558 Clouds 28 1009 76 9000 4.12 100 08:59 21.01.2022
3559 Clouds 29 1010 71 9000 3.6 120 07:58 21.01.2022
3560 Clouds 27 1012 72 10000 3.58 353 01:55 21.01.2022
3561 Clouds 25 1010 79 10000 1.03 0 22:51 20.01.2022
3562 Clouds 25 1009 78 10000 0.51 0 21:49 20.01.2022
3563 Clouds 26 1009 78 10000 0.51 0 21:25 20.01.2022
3564 Clouds 25 1010 79 10000 0 0 19:54 20.01.2022
3565 Clouds 25 1010 79 10000 0 0 19:18 20.01.2022
3566 Clouds 26 1010 76 10000 2.06 120 17:37 20.01.2022
3567 Clouds 26 1010 77 10000 1.79 4 16:19 20.01.2022
3568 Clouds 26 1011 76 10000 0.89 357 15:29 20.01.2022
3569 Clouds 26 1011 75 10000 0.89 2 14:19 20.01.2022
3570 Clouds 27 1010 70 10000 3.09 110 12:49 20.01.2022
3571 Clouds 27 1010 69 10000 1.34 355 12:29 20.01.2022
3572 Clouds 27 1009 68 10000 1.34 356 11:19 20.01.2022
3573 Clouds 29 1008 61 10000 1.34 26 09:50 20.01.2022
3574 Clouds 29 1008 62 10000 0.45 357 08:45 20.01.2022
3575 Clouds 30 1009 63 10000 1.34 356 06:49 20.01.2022
3576 Clouds 25 1011 81 10000 0.51 0 00:30 20.01.2022
3577 Clouds 25 1009 80 10000 2.06 50 22:38 19.01.2022
3578 Clouds 25 1008 80 10000 2.57 110 21:33 19.01.2022
3579 Clouds 25 1008 82 10000 2.06 90 20:55 19.01.2022
3580 Clouds 25 1008 81 10000 2.06 90 20:30 19.01.2022
3581 Clouds 25 1009 81 10000 2.57 120 18:49 19.01.2022
3582 Clouds 25 1010 80 10000 1.54 160 17:50 19.01.2022
3583 Clouds 25 1009 80 10000 1.79 82 17:18 19.01.2022
3584 Clouds 25 1009 80 10000 1.79 82 17:18 19.01.2022
3585 Clouds 26 1010 76 10000 0.89 3 15:31 19.01.2022
3586 Clouds 27 1010 73 10000 0.89 66 13:20 19.01.2022
3587 Clouds 28 1009 70 10000 1.54 270 11:58 19.01.2022
3588 Clouds 28 1008 69 10000 1.34 29 11:22 19.01.2022
3589 Clouds 28 1007 67 10000 2.24 213 09:35 19.01.2022
3590 Clouds 28 1007 67 10000 5.81 222 09:35 19.01.2022
3591 Clouds 29 1007 65 10000 3.64 90 08:20 19.01.2022
3592 Clouds 29 1010 61 10000 4.47 319 05:19 19.01.2022
3593 Clouds 23 1010 74 10000 1.54 20 00:18 19.01.2022
3594 Clouds 23 1010 73 10000 0.45 354 23:18 18.01.2022
3595 Clouds 24 1010 73 10000 0.45 351 21:43 18.01.2022
3596 Clouds 24 1010 74 10000 0.45 359 20:21 18.01.2022
3597 Clouds 24 1010 70 10000 2.06 100 19:39 18.01.2022
3598 Clouds 24 1010 71 10000 2.06 100 19:21 18.01.2022
3599 Clouds 25 1011 70 10000 1.54 130 18:18 18.01.2022
3600 Clouds 25 1012 68 10000 2.06 110 17:31 18.01.2022
3601 Clouds 25 1012 68 10000 3.09 120 16:18 18.01.2022
3602 Clouds 25 1012 68 10000 3.6 110 15:25 18.01.2022
3603 Clouds 25 1012 67 10000 3.09 120 14:18 18.01.2022
3604 Clouds 27 1010 57 10000 1.34 64 11:20 18.01.2022
3605 Clouds 29 1009 54 10000 1.79 38 09:59 18.01.2022
3606 Clouds 29 1009 53 10000 1.34 234 08:29 18.01.2022
3607 Clouds 29 1010 58 10000 0.45 338 07:31 18.01.2022
3608 Clouds 22 1013 79 10000 0 0 00:22 18.01.2022
3609 Clouds 22 1013 79 10000 0.45 347 22:31 17.01.2022
3610 Clouds 23 1013 79 10000 0.51 0 21:36 17.01.2022
3611 Clouds 23 1013 76 10000 0.51 0 20:39 17.01.2022
3612 Clouds 24 1013 73 10000 1.54 110 18:46 17.01.2022
3613 Clouds 24 1013 71 10000 1.54 110 18:23 17.01.2022
3614 Clouds 24 1014 70 10000 1.03 0 16:53 17.01.2022
3615 Clouds 25 1014 70 10000 2.57 120 15:31 17.01.2022
3616 Clouds 25 1014 71 10000 3.09 120 14:58 17.01.2022
3617 Clouds 25 1014 70 10000 0.45 49 13:42 17.01.2022
3618 Clouds 26 1013 69 10000 4.12 120 12:57 17.01.2022
3619 Clouds 26 1013 68 10000 3.6 120 11:50 17.01.2022
3620 Clouds 28 1011 60 10000 1.79 83 10:43 17.01.2022
3621 Clouds 29 1011 55 10000 2.24 54 09:35 17.01.2022
3622 Clouds 29 1012 57 10000 3.58 52 07:47 17.01.2022
3623 Clouds 30 1012 57 10000 1.34 12 07:19 17.01.2022
3624 Clouds 23 1015 76 10000 0.45 0 00:57 17.01.2022
3625 Clouds 23 1014 77 10000 1.54 60 22:53 16.01.2022
3626 Clouds 24 1014 73 10000 2.57 100 20:40 16.01.2022
3627 Clouds 24 1015 70 10000 3.09 110 18:53 16.01.2022
3628 Clouds 24 1015 70 10000 3.09 110 18:18 16.01.2022
3629 Clouds 25 1015 70 10000 3.09 100 17:25 16.01.2022
3630 Clouds 25 1015 70 10000 3.09 100 16:45 16.01.2022
3631 Clouds 25 1015 70 10000 3.6 110 15:19 16.01.2022
3632 Clouds 25 1015 69 10000 3.09 100 14:28 16.01.2022
3633 Clouds 26 1014 68 10000 2.06 110 12:51 16.01.2022
3634 Clouds 27 1014 66 10000 0.45 354 11:47 16.01.2022
3635 Clouds 27 1013 64 10000 0.89 337 10:55 16.01.2022
3636 Clouds 28 1012 62 10000 3.58 21 10:26 16.01.2022
3637 Clouds 28 1012 63 10000 2.24 208 09:52 16.01.2022
3638 Clouds 28 1012 63 10000 0.89 56 09:22 16.01.2022
3639 Clouds 29 1012 65 10000 6.17 110 08:37 16.01.2022
3640 Clouds 28 1015 62 10000 0.89 1 02:36 16.01.2022
3641 Clouds 23 1014 77 10000 1.03 0 23:49 15.01.2022
3642 Clouds 23 1013 76 10000 1.03 0 21:46 15.01.2022
3643 Clouds 23 1014 76 10000 1.03 0 21:19 15.01.2022
3644 Clouds 23 1014 78 10000 2.06 60 20:40 15.01.2022
3645 Clouds 23 1014 77 10000 2.06 80 19:29 15.01.2022
3646 Clouds 23 1015 78 10000 3.09 70 18:45 15.01.2022
3647 Clouds 24 1016 73 10000 3.09 110 17:29 15.01.2022
3648 Clouds 25 1016 70 10000 3.6 120 15:50 15.01.2022
3649 Clouds 25 1015 68 10000 2.57 110 13:55 15.01.2022
3650 Clouds 26 1014 62 10000 5.14 70 11:46 15.01.2022
3651 Clouds 28 1013 55 10000 1.34 37 10:36 15.01.2022
3652 Clouds 29 1013 56 10000 3.13 245 07:48 15.01.2022
3653 Clouds 24 1014 80 10000 0.89 0 23:50 14.01.2022
3654 Clouds 23 1013 79 10000 1.54 70 21:52 14.01.2022
3655 Clouds 23 1012 80 10000 3.09 40 20:37 14.01.2022
3656 Clouds 23 1013 78 10000 2.57 80 19:58 14.01.2022
3657 Clouds 24 1014 76 10000 0.45 16 18:48 14.01.2022
3658 Clouds 24 1014 76 10000 0.89 5 17:57 14.01.2022
3659 Clouds 24 1014 77 10000 0.45 56 16:48 14.01.2022
3660 Clouds 24 1014 76 10000 0.89 11 15:33 14.01.2022
3661 Clouds 24 1014 75 10000 3.09 100 14:38 14.01.2022
3662 Clouds 25 1014 74 10000 0.45 326 13:34 14.01.2022
3663 Clouds 25 1013 73 10000 4.12 110 12:24 14.01.2022
3664 Clouds 26 1012 71 10000 5.66 100 10:47 14.01.2022
3665 Clouds 27 1012 67 10000 5.14 110 08:54 14.01.2022
3666 Clouds 27 1012 65 10000 0.45 9 07:57 14.01.2022
3667 Clouds 27 1015 66 10000 1.34 211 03:55 14.01.2022
3668 Clouds 24 1014 75 10000 0.45 13 00:50 14.01.2022
3669 Clouds 24 1013 78 10000 1.34 66 22:35 13.01.2022
3670 Clouds 24 1012 78 10000 1.34 8 21:30 13.01.2022
3671 Clouds 24 1013 77 10000 2.06 70 20:54 13.01.2022
3672 Clouds 25 1013 75 10000 1.54 90 19:32 13.01.2022
3673 Clouds 25 1014 74 10000 2.57 100 18:51 13.01.2022
3674 Clouds 25 1014 74 10000 3.6 110 17:25 13.01.2022
3675 Clouds 25 1014 73 10000 0.45 58 16:18 13.01.2022
3676 Clouds 25 1014 75 10000 0.89 222 15:31 13.01.2022
3677 Clouds 26 1013 72 10000 3.6 110 13:47 13.01.2022
3678 Clouds 26 1012 72 10000 1.79 65 12:20 13.01.2022
3679 Clouds 28 1011 66 10000 1.34 22 09:38 13.01.2022
3680 Clouds 28 1011 64 10000 2.68 8 08:54 13.01.2022
3681 Clouds 29 1011 62 10000 2.68 90 08:22 13.01.2022
3682 Clouds 28 1012 64 10000 1.79 9 07:21 13.01.2022
3683 Clouds 28 1013 66 10000 4.92 87 05:56 13.01.2022
3684 Clouds 28 1013 65 10000 2.68 0 05:18 13.01.2022
3685 Clouds 26 1015 69 10000 1.79 7 01:49 13.01.2022
3686 Clouds 24 1014 77 10000 1.34 49 23:54 12.01.2022
3687 Clouds 24 1014 77 10000 0.45 0 23:35 12.01.2022
3688 Clouds 25 1013 75 10000 2.06 10 22:56 12.01.2022
3689 Clouds 25 1013 78 10000 2.68 1 21:56 12.01.2022
3690 Clouds 24 1013 79 10000 0.89 13 21:21 12.01.2022
3691 Clouds 24 1012 79 10000 1.79 11 20:56 12.01.2022
3692 Clouds 25 1013 78 10000 1.54 140 19:28 12.01.2022
3693 Clouds 25 1014 77 10000 2.06 130 18:28 12.01.2022
3694 Clouds 25 1014 75 10000 3.6 120 16:59 12.01.2022
3695 Clouds 26 1014 74 10000 1.34 58 15:53 12.01.2022
3696 Clouds 26 1014 74 10000 0.89 42 14:46 12.01.2022
3697 Clouds 26 1013 72 10000 0.45 17 12:58 12.01.2022
3698 Clouds 26 1013 72 10000 0.45 17 12:58 12.01.2022
3699 Clouds 29 1011 63 10000 4.02 32 09:59 12.01.2022
3700 Clouds 30 1011 60 10000 1.03 0 08:34 12.01.2022
3701 Clouds 29 1011 59 10000 4.02 204 07:34 12.01.2022
3702 Clouds 30 1012 59 10000 2.68 4 05:30 12.01.2022
3703 Clouds 23 1012 80 10000 1.03 0 23:30 11.01.2022
3704 Clouds 24 1012 80 10000 1.34 8 22:41 11.01.2022
3705 Clouds 24 1012 80 10000 1.34 11 22:21 11.01.2022
3706 Clouds 24 1011 79 10000 1.34 5 20:49 11.01.2022
3707 Clouds 24 1011 77 10000 1.79 354 19:42 11.01.2022
3708 Clouds 24 1012 78 10000 2.24 4 18:25 11.01.2022
3709 Clouds 24 1012 76 10000 0.89 359 17:18 11.01.2022
3710 Clouds 25 1013 75 10000 2.24 3 16:36 11.01.2022
3711 Clouds 25 1013 72 10000 2.68 346 14:59 11.01.2022
3712 Clouds 26 1013 72 10000 3.58 17 14:40 11.01.2022
3713 Clouds 26 1012 68 10000 4.02 359 13:54 11.01.2022
3714 Clouds 27 1012 68 10000 3.58 0 13:31 11.01.2022
3715 Clouds 28 1012 62 10000 5.36 349 12:37 11.01.2022
3716 Clouds 30 1010 56 10000 1.79 358 10:52 11.01.2022
3717 Clouds 31 1010 52 10000 0.89 2 08:53 11.01.2022
3718 Clouds 31 1011 57 10000 2.24 339 06:22 11.01.2022
3719 Clouds 25 1013 76 10000 2.24 7 00:30 11.01.2022
3720 Clouds 25 1012 80 10000 3.13 11 23:41 10.01.2022
3721 Clouds 25 1011 80 10000 1.34 20 22:43 10.01.2022
3722 Clouds 25 1011 80 10000 1.79 21 22:18 10.01.2022
3723 Clouds 25 1011 80 10000 3.6 30 21:42 10.01.2022
3724 Clouds 26 1011 79 10000 2.24 359 21:18 10.01.2022
3725 Clouds 26 1010 79 10000 1.79 17 20:55 10.01.2022
3726 Clouds 26 1010 79 10000 1.79 8 20:24 10.01.2022
3727 Clouds 26 1010 80 9000 1.34 13 19:41 10.01.2022
3728 Clouds 26 1010 80 9000 1.79 2 19:19 10.01.2022
3729 Clouds 26 1011 82 9000 2.24 18 18:48 10.01.2022
3730 Clouds 26 1012 79 10000 1.79 4 16:59 10.01.2022
3731 Clouds 27 1012 79 10000 1.34 22 16:41 10.01.2022
3732 Clouds 27 1011 79 10000 1.34 193 14:58 10.01.2022
3733 Clouds 28 1011 77 10000 1.79 174 13:35 10.01.2022
3734 Clouds 29 1010 72 10000 1.79 221 11:57 10.01.2022
3735 Clouds 29 1010 71 10000 0.89 350 11:24 10.01.2022
3736 Clouds 31 1009 60 10000 1.34 6 09:41 10.01.2022
3737 Clouds 30 1011 68 10000 2.68 339 05:52 10.01.2022
3738 Clouds 30 1011 69 10000 3.13 6 05:23 10.01.2022
3739 Clouds 26 1012 79 10000 0.45 11 01:24 10.01.2022
3740 Clouds 24 1012 88 10000 0 0 00:23 10.01.2022
3741 Clouds 25 1011 87 10000 1.03 0 23:28 09.01.2022
3742 Clouds 25 1010 88 10000 0.51 0 22:21 09.01.2022
3743 Clouds 25 1010 88 10000 0.51 0 21:42 09.01.2022
3744 Clouds 25 1010 88 10000 0.51 0 21:42 09.01.2022
3745 Clouds 25 1010 88 10000 0.51 0 21:23 09.01.2022
3746 Clouds 25 1010 88 10000 0.51 0 21:23 09.01.2022
3747 Clouds 25 1009 83 10000 0.89 358 20:49 09.01.2022
3748 Clouds 25 1009 83 10000 0.51 0 20:29 09.01.2022
3749 Clouds 26 1010 84 10000 1.54 200 19:44 09.01.2022
3750 Clouds 26 1010 84 10000 1.54 200 19:22 09.01.2022
3751 Clouds 26 1010 83 10000 1.79 195 18:49 09.01.2022
3752 Clouds 26 1010 82 10000 1.79 221 18:30 09.01.2022
3753 Clouds 26 1011 81 10000 1.34 194 17:30 09.01.2022
3754 Clouds 26 1011 81 10000 2.06 160 16:51 09.01.2022
3755 Clouds 26 1011 80 10000 0.45 3 15:52 09.01.2022
3756 Clouds 26 1011 80 10000 2.06 180 15:33 09.01.2022
3757 Clouds 27 1011 77 10000 0.45 190 14:39 09.01.2022
3758 Clouds 28 1011 73 10000 3.58 212 13:50 09.01.2022
3759 Clouds 28 1010 72 10000 2.24 179 12:44 09.01.2022
3760 Clouds 29 1009 70 10000 1.79 199 11:48 09.01.2022
3761 Clouds 31 1008 62 10000 3.13 353 09:59 09.01.2022
3762 Clouds 31 1008 61 10000 1.34 11 09:41 09.01.2022
3763 Clouds 32 1008 59 10000 0.89 194 08:30 09.01.2022
3764 Clouds 28 1012 73 10000 4.02 218 02:31 09.01.2022
3765 Clouds 26 1012 76 10000 1.54 190 01:20 09.01.2022
3766 Clouds 24 1011 83 10000 1.03 0 23:38 08.01.2022
3767 Clouds 25 1010 82 10000 1.79 0 22:59 08.01.2022
3768 Clouds 25 1010 83 10000 0.45 3 21:33 08.01.2022
3769 Clouds 25 1010 85 10000 0.51 0 20:45 08.01.2022
3770 Clouds 25 1010 86 10000 0.45 356 20:23 08.01.2022
3771 Clouds 25 1011 83 10000 0.89 27 19:55 08.01.2022
3772 Clouds 26 1011 80 10000 1.54 0 17:49 08.01.2022
3773 Clouds 26 1011 79 10000 1.54 0 17:21 08.01.2022
3774 Clouds 26 1012 80 10000 1.54 140 15:47 08.01.2022
3775 Clouds 27 1012 77 10000 2.06 130 14:40 08.01.2022
3776 Clouds 28 1011 74 10000 2.06 120 12:36 08.01.2022
3777 Clouds 29 1010 68 10000 0.45 44 10:49 08.01.2022
3778 Clouds 29 1010 67 10000 2.57 50 10:24 08.01.2022
3779 Clouds 29 1010 66 10000 3.6 60 09:34 08.01.2022
3780 Clouds 30 1010 62 10000 0.45 1 07:18 08.01.2022
3781 Clouds 28 1013 68 10000 2.24 206 02:33 08.01.2022
3782 Clouds 24 1013 78 10000 0 0 00:40 08.01.2022
3783 Clouds 24 1012 79 10000 1.79 356 22:40 07.01.2022
3784 Clouds 25 1012 78 10000 2.24 345 20:56 07.01.2022
3785 Clouds 25 1012 77 10000 0.89 2 19:39 07.01.2022
3786 Clouds 25 1012 77 10000 2.24 342 18:53 07.01.2022
3787 Clouds 25 1012 76 10000 0.45 345 18:30 07.01.2022
3788 Clouds 25 1013 74 10000 1.54 140 17:25 07.01.2022
3789 Clouds 26 1013 71 10000 2.06 130 16:22 07.01.2022
3790 Clouds 27 1013 68 10000 2.57 130 13:53 07.01.2022
3791 Clouds 27 1013 67 10000 2.24 67 13:19 07.01.2022
3792 Clouds 27 1012 66 10000 2.24 84 12:35 07.01.2022
3793 Clouds 31 1011 56 10000 0.89 339 07:31 07.01.2022
3794 Clouds 28 1015 61 10000 2.68 271 02:54 07.01.2022
3795 Clouds 27 1015 66 10000 2.68 334 01:52 07.01.2022
3796 Clouds 26 1015 68 10000 2.24 356 01:27 07.01.2022
3797 Clouds 24 1014 74 10000 1.34 7 00:57 07.01.2022
3798 Clouds 23 1013 80 10000 1.03 0 22:46 06.01.2022
3799 Clouds 24 1012 77 10000 2.57 80 21:23 06.01.2022
3800 Clouds 24 1012 74 10000 2.57 110 20:20 06.01.2022
3801 Clouds 25 1012 73 10000 3.09 110 19:40 06.01.2022
3802 Clouds 25 1013 72 10000 3.09 130 17:53 06.01.2022
3803 Clouds 25 1013 71 10000 3.09 130 17:32 06.01.2022
3804 Clouds 25 1013 71 10000 3.6 120 16:40 06.01.2022
3805 Clouds 26 1013 72 10000 3.09 130 15:45 06.01.2022
3806 Clouds 26 1013 73 10000 3.09 130 15:23 06.01.2022
3807 Clouds 26 1013 69 10000 4.91 102 14:21 06.01.2022
3808 Clouds 26 1013 70 10000 4.12 120 13:46 06.01.2022
3809 Clouds 27 1012 68 10000 4.12 110 12:41 06.01.2022
3810 Clouds 27 1012 65 10000 1.34 56 11:41 06.01.2022
3811 Clouds 27 1012 66 10000 0.89 60 11:20 06.01.2022
3812 Clouds 28 1011 66 10000 0.45 179 08:50 06.01.2022
3813 Clouds 25 1013 76 10000 1.54 80 00:42 06.01.2022
3814 Clouds 24 1012 78 10000 1.03 0 23:36 05.01.2022
3815 Clouds 25 1012 78 10000 0.89 35 22:51 05.01.2022
3816 Clouds 25 1011 77 10000 2.06 110 22:29 05.01.2022
3817 Clouds 25 1011 76 10000 1.34 7 21:45 05.01.2022
3818 Clouds 25 1011 74 10000 1.03 0 20:45 05.01.2022
3819 Clouds 25 1012 75 10000 1.03 0 19:58 05.01.2022
3820 Clouds 25 1013 76 10000 0.51 0 18:33 05.01.2022
3821 Clouds 26 1013 73 10000 0.45 7 17:23 05.01.2022
3822 Clouds 26 1013 72 10000 1.34 342 16:24 05.01.2022
3823 Clouds 26 1013 71 10000 3.09 110 15:20 05.01.2022
3824 Clouds 27 1012 69 10000 3.6 120 13:39 05.01.2022
3825 Clouds 27 1012 69 10000 3.6 110 12:51 05.01.2022
3826 Clouds 30 1010 60 10000 4.02 199 08:58 05.01.2022
3827 Clouds 30 1010 59 10000 0.89 179 07:34 05.01.2022
3828 Clouds 28 1014 64 10000 0.89 0 03:32 05.01.2022
3829 Clouds 24 1013 78 10000 1.34 354 00:33 05.01.2022
3830 Clouds 24 1012 78 10000 0.45 355 23:26 04.01.2022
3831 Clouds 25 1012 76 10000 2.06 100 22:27 04.01.2022
3832 Clouds 25 1012 76 10000 1.54 120 20:50 04.01.2022
3833 Clouds 25 1012 74 10000 1.79 70 19:19 04.01.2022
3834 Clouds 26 1014 72 10000 3.6 100 17:38 04.01.2022
3835 Clouds 26 1014 72 10000 2.57 120 16:40 04.01.2022
3836 Clouds 26 1014 72 10000 2.57 120 16:40 04.01.2022
3837 Clouds 26 1014 73 10000 2.57 120 16:21 04.01.2022
3838 Clouds 26 1014 71 10000 3.09 110 14:51 04.01.2022
3839 Clouds 26 1014 72 10000 3.09 110 14:33 04.01.2022
3840 Clouds 26 1014 69 10000 2.57 100 13:26 04.01.2022
3841 Clouds 29 1013 60 10000 5.66 110 10:40 04.01.2022
3842 Clouds 30 1011 55 10000 0.89 355 08:59 04.01.2022
3843 Clouds 30 1011 55 10000 2.24 237 08:23 04.01.2022
3844 Clouds 25 1014 70 10000 1.79 2 01:19 04.01.2022
3845 Clouds 24 1014 73 10000 1.34 9 00:40 04.01.2022
3846 Clouds 24 1013 76 10000 1.03 0 22:41 03.01.2022
3847 Clouds 24 1013 76 10000 0.45 359 21:41 03.01.2022
3848 Clouds 24 1013 76 10000 0.45 338 21:23 03.01.2022
3849 Clouds 25 1013 71 10000 2.57 110 19:46 03.01.2022
3850 Clouds 25 1014 71 10000 2.57 100 18:33 03.01.2022
3851 Clouds 25 1014 68 10000 3.36 58 17:40 03.01.2022
3852 Clouds 25 1014 66 10000 2.57 120 16:57 03.01.2022
3853 Clouds 26 1014 64 10000 2.57 120 14:54 03.01.2022
3854 Clouds 26 1014 64 10000 2.57 100 13:53 03.01.2022
3855 Clouds 26 1014 60 10000 1.79 63 12:33 03.01.2022
3856 Clouds 27 1013 59 10000 1.79 28 11:31 03.01.2022
3857 Clouds 29 1012 54 10000 3.13 7 09:42 03.01.2022
3858 Clouds 30 1011 51 10000 3.58 62 08:28 03.01.2022
3859 Clouds 30 1012 50 10000 4.02 340 06:31 03.01.2022
3860 Clouds 24 1014 75 10000 0.45 5 23:45 02.01.2022
3861 Clouds 24 1013 77 10000 2.06 110 22:57 02.01.2022
3862 Clouds 24 1013 77 10000 2.06 110 22:38 02.01.2022
3863 Clouds 24 1013 76 10000 1.03 0 21:26 02.01.2022
3864 Clouds 24 1013 75 10000 2.57 130 20:30 02.01.2022
3865 Clouds 24 1013 75 10000 2.57 120 19:49 02.01.2022
3866 Clouds 24 1013 75 10000 0.45 3 19:25 02.01.2022
3867 Clouds 25 1014 74 10000 1.79 351 18:30 02.01.2022
3868 Clouds 25 1014 74 10000 0.45 344 17:43 02.01.2022
3869 Clouds 25 1014 73 10000 1.54 0 17:21 02.01.2022
3870 Clouds 25 1015 73 10000 0.45 349 16:30 02.01.2022
3871 Clouds 25 1014 73 10000 1.54 100 15:49 02.01.2022
3872 Clouds 25 1014 70 10000 1.54 100 13:57 02.01.2022
3873 Clouds 26 1014 67 10000 3.09 110 12:33 02.01.2022
3874 Clouds 27 1014 62 10000 0.45 2 11:55 02.01.2022
3875 Clouds 28 1013 59 10000 1.79 49 10:55 02.01.2022
3876 Clouds 28 1013 58 10000 3.13 23 10:18 02.01.2022
3877 Clouds 28 1013 56 10000 4.02 3 07:44 02.01.2022
3878 Clouds 26 1015 67 10000 1.79 356 02:57 02.01.2022
3879 Clouds 24 1014 68 10000 0.89 354 23:50 01.01.2022
3880 Clouds 24 1014 67 10000 0.45 1 23:27 01.01.2022
3881 Clouds 24 1013 67 10000 0.45 341 22:26 01.01.2022
3882 Clouds 25 1013 65 10000 1.79 333 21:54 01.01.2022
3883 Clouds 25 1013 64 10000 0.45 19 21:36 01.01.2022
3884 Clouds 25 1014 66 10000 5.36 69 20:36 01.01.2022
3885 Clouds 25 1014 67 10000 0.45 15 19:45 01.01.2022
3886 Clouds 25 1015 67 10000 0.45 12 18:52 01.01.2022
3887 Clouds 25 1016 65 10000 3.6 110 17:41 01.01.2022
3888 Clouds 26 1016 65 10000 3.09 110 16:35 01.01.2022
3889 Clouds 26 1017 67 10000 2.57 100 15:42 01.01.2022
3890 Clouds 26 1016 68 10000 2.57 110 14:39 01.01.2022
3891 Clouds 26 1016 67 10000 2.06 110 13:41 01.01.2022
3892 Clouds 26 1016 64 10000 2.57 90 12:25 01.01.2022
3893 Clouds 27 1015 61 10000 5.14 70 11:25 01.01.2022
3894 Clouds 27 1015 60 10000 5.66 80 10:58 01.01.2022
3895 Clouds 28 1014 59 10000 6.17 80 09:48 01.01.2022
3896 Clouds 29 1014 55 10000 6.17 80 08:39 01.01.2022
3897 Clouds 28 1014 56 10000 6.17 80 07:57 01.01.2022
3898 Clouds 28 1014 56 10000 6.17 80 07:37 01.01.2022
3899 Clouds 29 1015 56 10000 5.66 90 06:44 01.01.2022
3900 Clouds 28 1017 61 10000 5.66 100 04:40 01.01.2022
3901 Clouds 28 1017 66 10000 8.05 69 03:52 01.01.2022
3902 Clouds 24 1016 82 7000 1.03 0 23:55 31.12.2021
3903 Clouds 24 1015 82 8000 2.06 70 22:24 31.12.2021
3904 Clouds 25 1015 75 8000 1.03 0 21:47 31.12.2021
3905 Clouds 24 1015 78 10000 1.03 0 19:48 31.12.2021
3906 Clouds 25 1016 73 9000 1.54 70 18:50 31.12.2021
3907 Clouds 25 1017 74 10000 1.54 100 17:56 31.12.2021
3908 Clouds 25 1017 74 10000 1.54 100 17:26 31.12.2021
3909 Clouds 26 1017 72 10000 2.57 90 16:52 31.12.2021
3910 Clouds 26 1016 70 10000 2.57 90 16:18 31.12.2021
3911 Clouds 26 1016 70 10000 2.57 90 15:45 31.12.2021
3912 Clouds 26 1016 70 10000 1.79 13 15:26 31.12.2021
3913 Clouds 26 1017 71 10000 3.6 100 14:38 31.12.2021
3914 Clouds 26 1016 66 10000 0.45 352 13:51 31.12.2021
3915 Clouds 27 1015 62 10000 3.6 110 12:50 31.12.2021
3916 Clouds 27 1015 62 10000 3.6 110 12:20 31.12.2021
3917 Clouds 27 1014 55 10000 1.79 68 11:41 31.12.2021
3918 Clouds 28 1014 53 10000 0.89 69 10:50 31.12.2021
3919 Clouds 28 1014 53 10000 4.47 97 10:28 31.12.2021
3920 Clouds 29 1013 51 10000 3.13 85 09:34 31.12.2021
3921 Clouds 30 1013 50 10000 4.02 20 08:51 31.12.2021
3922 Clouds 30 1013 47 10000 4.47 29 07:55 31.12.2021
3923 Clouds 29 1016 53 10000 5.36 62 04:54 31.12.2021
3924 Clouds 23 1015 79 10000 0.89 358 23:18 30.12.2021
3925 Clouds 23 1015 77 10000 1.54 230 22:31 30.12.2021
3926 Clouds 23 1015 78 10000 0 0 21:39 30.12.2021
3927 Clouds 23 1015 77 10000 0 0 21:18 30.12.2021
3928 Clouds 24 1015 75 10000 1.03 70 20:39 30.12.2021
3929 Clouds 24 1015 76 10000 2.06 60 19:55 30.12.2021
3930 Clouds 24 1015 76 10000 2.06 60 19:31 30.12.2021
3931 Clouds 24 1016 73 10000 1.54 90 18:26 30.12.2021
3932 Clouds 25 1016 69 10000 0.45 12 16:53 30.12.2021
3933 Clouds 26 1016 70 10000 2.57 100 15:53 30.12.2021
3934 Clouds 26 1016 70 10000 2.06 120 14:55 30.12.2021
3935 Clouds 26 1016 70 10000 2.06 120 14:36 30.12.2021
3936 Clouds 26 1015 67 10000 3.6 110 13:25 30.12.2021
3937 Clouds 27 1015 63 10000 2.24 13 11:57 30.12.2021
3938 Clouds 28 1014 59 10000 0.89 8 10:35 30.12.2021
3939 Clouds 28 1014 57 10000 0.89 122 09:46 30.12.2021
3940 Clouds 31 1014 52 10000 2.24 347 06:58 30.12.2021
3941 Clouds 28 1015 65 10000 4.92 333 05:20 30.12.2021
3942 Clouds 28 1015 65 10000 4.92 333 05:20 30.12.2021
3943 Clouds 28 1016 65 10000 4.02 339 03:40 30.12.2021
3944 Clouds 28 1016 62 10000 1.34 20 02:27 30.12.2021
3945 Clouds 24 1015 78 10000 1.54 0 23:37 29.12.2021
3946 Clouds 25 1014 77 10000 0.89 3 22:42 29.12.2021
3947 Clouds 25 1014 77 10000 1.03 0 21:56 29.12.2021
3948 Clouds 25 1014 78 10000 0 0 20:58 29.12.2021
3949 Clouds 25 1013 77 10000 0 0 20:29 29.12.2021
3950 Clouds 25 1014 74 10000 1.03 200 19:31 29.12.2021
3951 Clouds 25 1014 74 10000 1.54 90 18:42 29.12.2021
3952 Clouds 26 1014 73 10000 1.54 110 17:49 29.12.2021
3953 Clouds 26 1014 73 10000 1.54 110 17:26 29.12.2021
3954 Clouds 26 1015 74 10000 1.54 90 16:21 29.12.2021
3955 Clouds 26 1015 74 10000 0 0 15:21 29.12.2021
3956 Clouds 27 1015 69 10000 2.57 100 12:57 29.12.2021
3957 Clouds 27 1015 69 10000 0.45 4 12:34 29.12.2021
3958 Clouds 27 1014 63 10000 2.68 15 11:23 29.12.2021
3959 Clouds 29 1013 57 10000 0.89 32 09:35 29.12.2021
3960 Clouds 30 1013 57 10000 3.13 359 07:45 29.12.2021
3961 Clouds 30 1014 60 10000 0.89 354 06:33 29.12.2021
3962 Clouds 29 1015 61 9000 1.79 351 05:56 29.12.2021
3963 Clouds 28 1016 63 10000 0.89 0 04:58 29.12.2021
3964 Clouds 24 1015 78 10000 1.34 6 00:45 29.12.2021
3965 Clouds 24 1015 78 10000 0.89 15 23:58 28.12.2021
3966 Clouds 24 1014 79 10000 2.24 358 22:57 28.12.2021
3967 Clouds 24 1014 78 10000 0 0 22:25 28.12.2021
3968 Clouds 24 1014 78 10000 0 0 21:54 28.12.2021
3969 Clouds 24 1014 77 10000 1.79 343 21:35 28.12.2021
3970 Clouds 25 1014 76 10000 1.03 0 20:25 28.12.2021
3971 Clouds 25 1015 74 10000 1.54 100 18:54 28.12.2021
3972 Clouds 26 1015 74 10000 1.54 100 18:27 28.12.2021
3973 Clouds 26 1015 73 10000 3.6 110 17:34 28.12.2021
3974 Clouds 26 1015 72 10000 3.09 110 16:20 28.12.2021
3975 Clouds 26 1015 72 10000 3.09 0 15:41 28.12.2021
3976 Clouds 26 1015 71 10000 2.57 110 14:56 28.12.2021
3977 Clouds 26 1015 70 10000 2.57 110 14:38 28.12.2021
3978 Clouds 26 1015 70 10000 0.45 358 14:19 28.12.2021
3979 Clouds 26 1015 71 10000 3.09 120 13:37 28.12.2021
3980 Clouds 27 1015 70 10000 2.06 110 12:56 28.12.2021
3981 Clouds 27 1015 70 10000 2.06 110 12:21 28.12.2021
3982 Clouds 27 1013 66 10000 0.89 10 10:47 28.12.2021
3983 Clouds 29 1012 58 10000 3.58 87 07:38 28.12.2021
3984 Clouds 27 1016 67 10000 1.34 10 03:37 28.12.2021
3985 Clouds 25 1015 76 10000 0.89 25 23:40 27.12.2021
3986 Clouds 25 1014 75 10000 0 0 22:21 27.12.2021
3987 Clouds 25 1014 74 10000 0.89 29 21:31 27.12.2021
3988 Clouds 25 1014 73 10000 1.03 0 20:39 27.12.2021
3989 Clouds 25 1014 75 10000 0.89 30 19:49 27.12.2021
3990 Clouds 25 1014 75 10000 1.34 4 19:27 27.12.2021
3991 Clouds 26 1015 75 10000 0.45 27 17:54 27.12.2021
3992 Clouds 26 1015 75 10000 0.45 27 17:54 27.12.2021
3993 Clouds 26 1015 76 10000 0.89 14 17:28 27.12.2021
3994 Clouds 26 1016 75 10000 1.34 11 16:23 27.12.2021
3995 Clouds 26 1016 73 10000 2.24 59 15:44 27.12.2021
3996 Clouds 26 1016 73 10000 1.79 11 14:24 27.12.2021
3997 Clouds 26 1015 72 10000 0.45 37 12:56 27.12.2021
3998 Clouds 26 1014 73 9000 3.58 17 11:20 27.12.2021
3999 Clouds 27 1014 70 10000 2.24 340 10:27 27.12.2021
4000 Clouds 27 1013 68 10000 3.58 7 09:27 27.12.2021
4001 Clouds 29 1013 68 10000 3.09 40 07:34 27.12.2021
4002 Clouds 29 1014 61 10000 3.09 90 06:29 27.12.2021
4003 Clouds 26 1015 77 10000 0.89 3 01:57 27.12.2021
4004 Clouds 25 1014 84 10000 1.03 20 23:50 26.12.2021
4005 Clouds 25 1013 84 10000 1.03 20 23:20 26.12.2021
4006 Clouds 24 1012 86 10000 1.54 60 21:41 26.12.2021
4007 Clouds 25 1013 85 10000 0.89 74 20:25 26.12.2021
4008 Clouds 24 1013 89 10000 1.54 70 18:53 26.12.2021
4009 Clouds 24 1013 90 10000 1.54 70 18:22 26.12.2021
4010 Clouds 24 1015 91 9000 1.03 0 15:54 26.12.2021
4011 Clouds 26 1015 85 9000 2.24 3 13:51 26.12.2021
4012 Clouds 26 1014 80 9000 2.57 110 13:32 26.12.2021
4013 Clouds 27 1014 75 10000 1.34 20 12:37 26.12.2021
4014 Clouds 27 1013 74 10000 1.34 359 11:56 26.12.2021
4015 Clouds 29 1011 71 10000 4.02 9 09:42 26.12.2021
4016 Clouds 29 1011 69 10000 0.89 358 08:50 26.12.2021
4017 Clouds 29 1011 68 10000 1.79 5 08:27 26.12.2021
4018 Clouds 30 1011 58 10000 3.58 70 05:59 26.12.2021
4019 Clouds 26 1014 74 10000 1.34 358 00:44 26.12.2021
4020 Clouds 25 1013 74 10000 0.51 0 23:49 25.12.2021
4021 Clouds 25 1013 75 10000 0.51 0 23:25 25.12.2021
4022 Clouds 25 1012 75 10000 1.54 290 22:21 25.12.2021
4023 Clouds 25 1011 71 10000 1.03 0 20:36 25.12.2021
4024 Clouds 26 1012 73 10000 1.03 0 19:20 25.12.2021
4025 Clouds 26 1012 71 10000 1.03 0 18:51 25.12.2021
4026 Clouds 27 1013 68 10000 0.89 31 16:52 25.12.2021
4027 Clouds 27 1013 71 10000 2.06 80 15:48 25.12.2021
4028 Clouds 27 1013 74 10000 0.45 6 14:24 25.12.2021
4029 Clouds 28 1012 74 10000 0.45 55 12:42 25.12.2021
4030 Clouds 28 1011 74 10000 3.09 120 11:21 25.12.2021
4031 Clouds 29 1010 67 10000 4.63 60 09:49 25.12.2021
4032 Clouds 32 1010 60 10000 0.45 251 07:39 25.12.2021
4033 Clouds 28 1013 71 10000 0.45 9 01:45 25.12.2021
4034 Clouds 26 1012 82 10000 1.54 60 00:27 25.12.2021
4035 Clouds 26 1011 83 10000 1.54 130 22:28 24.12.2021
4036 Clouds 26 1011 81 10000 1.54 110 19:36 24.12.2021
4037 Clouds 26 1011 81 10000 1.54 110 19:18 24.12.2021
4038 Clouds 27 1012 78 10000 1.54 110 16:50 24.12.2021
4039 Clouds 27 1013 78 10000 1.03 110 15:53 24.12.2021
4040 Clouds 27 1013 78 10000 1.03 110 15:34 24.12.2021
4041 Clouds 27 1012 77 10000 1.54 110 14:36 24.12.2021
4042 Clouds 27 1012 77 10000 1.54 110 14:36 24.12.2021
4043 Clouds 27 1012 77 10000 1.54 110 14:18 24.12.2021
4044 Clouds 28 1012 75 10000 2.57 130 13:33 24.12.2021
4045 Clouds 29 1011 71 10000 3.09 120 12:47 24.12.2021
4046 Clouds 29 1010 72 10000 3.09 120 11:47 24.12.2021
4047 Clouds 29 1010 72 10000 3.09 120 11:24 24.12.2021
4048 Clouds 30 1009 71 10000 0.89 230 10:45 24.12.2021
4049 Clouds 30 1009 70 10000 3.13 225 09:25 24.12.2021
4050 Clouds 29 1009 71 10000 0.45 243 08:19 24.12.2021
4051 Clouds 29 1009 79 10000 0.89 211 07:44 24.12.2021
4052 Clouds 26 1012 82 10000 0.51 0 00:48 24.12.2021
4053 Clouds 25 1011 86 10000 1.03 0 23:54 23.12.2021
4054 Clouds 25 1011 88 10000 1.54 70 22:54 23.12.2021
4055 Clouds 25 1010 88 10000 1.54 70 22:27 23.12.2021
4056 Clouds 25 1010 83 10000 1.03 130 21:59 23.12.2021
4057 Clouds 26 1010 83 10000 1.54 50 20:54 23.12.2021
4058 Clouds 26 1010 85 10000 1.03 110 19:39 23.12.2021
4059 Clouds 27 1011 80 10000 1.54 130 18:34 23.12.2021
4060 Clouds 27 1011 80 10000 2.57 130 17:55 23.12.2021
4061 Clouds 27 1012 78 10000 1.54 140 16:43 23.12.2021
4062 Clouds 27 1012 77 10000 1.54 140 16:23 23.12.2021
4063 Clouds 27 1012 77 10000 2.06 120 15:31 23.12.2021
4064 Clouds 27 1012 77 10000 2.06 120 15:31 23.12.2021
4065 Clouds 28 1012 76 10000 2.57 110 14:42 23.12.2021
4066 Clouds 28 1012 76 10000 2.57 110 14:19 23.12.2021
4067 Clouds 28 1011 76 10000 4.47 109 12:48 23.12.2021
4068 Clouds 30 1009 71 10000 0.45 288 10:41 23.12.2021
4069 Clouds 30 1008 66 10000 0.45 210 09:34 23.12.2021
4070 Clouds 31 1008 65 10000 3.09 130 08:59 23.12.2021
4071 Clouds 31 1009 67 10000 2.57 120 06:48 23.12.2021
4072 Clouds 29 1012 76 7000 3.13 262 03:41 23.12.2021
4073 Clouds 25 1011 90 9000 0 0 22:55 22.12.2021
4074 Clouds 25 1010 90 9000 0 0 22:23 22.12.2021
4075 Clouds 25 1010 88 10000 0 0 21:53 22.12.2021
4076 Clouds 25 1010 88 10000 0 0 21:27 22.12.2021
4077 Clouds 26 1010 88 10000 1.03 220 20:41 22.12.2021
4078 Clouds 26 1011 88 10000 0.51 0 19:59 22.12.2021
4079 Clouds 26 1011 90 10000 1.03 0 18:57 22.12.2021
4080 Clouds 26 1011 87 10000 1.49 49 17:39 22.12.2021
4081 Clouds 27 1012 85 10000 1.03 0 16:34 22.12.2021
4082 Clouds 27 1012 84 10000 1.03 0 15:24 22.12.2021
4083 Clouds 28 1011 81 9000 1.03 0 13:23 22.12.2021
4084 Clouds 28 1011 82 10000 0.51 0 12:19 22.12.2021
4085 Clouds 29 1010 74 10000 1.54 200 09:53 22.12.2021
4086 Clouds 29 1009 74 10000 1.54 200 09:31 22.12.2021
4087 Clouds 26 1011 94 7000 3.6 60 07:22 22.12.2021
4088 Clouds 30 1011 73 9000 3.58 8 05:40 22.12.2021
4089 Clouds 30 1011 73 9000 0.89 33 05:21 22.12.2021
4090 Clouds 30 1012 73 8000 0.89 7 04:43 22.12.2021
4091 Clouds 29 1012 77 8000 1.79 355 03:56 22.12.2021
4092 Clouds 29 1012 75 8000 4.02 4 03:31 22.12.2021
4093 Clouds 27 1011 84 10000 1.54 10 23:57 21.12.2021
4094 Clouds 27 1011 84 10000 1.03 0 22:44 21.12.2021
4095 Clouds 27 1011 84 10000 0.89 333 22:24 21.12.2021
4096 Clouds 26 1010 85 10000 1.49 16 21:42 21.12.2021
4097 Clouds 27 1011 86 9000 0.89 358 20:44 21.12.2021
4098 Clouds 27 1011 86 9000 1.54 310 20:20 21.12.2021
4099 Clouds 27 1011 86 9000 1.54 310 20:20 21.12.2021
4100 Clouds 27 1011 86 9000 1.03 0 19:40 21.12.2021
4101 Clouds 27 1012 86 10000 1.03 0 18:33 21.12.2021
4102 Clouds 27 1012 85 10000 1.03 0 17:59 21.12.2021
4103 Clouds 27 1012 85 10000 1.03 0 17:40 21.12.2021
4104 Clouds 28 1011 83 10000 1.54 0 15:46 21.12.2021
4105 Clouds 28 1012 81 10000 2.06 140 14:29 21.12.2021
4106 Clouds 29 1012 77 10000 2.57 0 13:42 21.12.2021
4107 Clouds 29 1011 77 10000 2.57 130 12:39 21.12.2021
4108 Clouds 31 1010 69 10000 2.06 140 10:52 21.12.2021
4109 Clouds 31 1009 67 10000 3.6 0 09:56 21.12.2021
4110 Clouds 31 1010 65 10000 3.6 130 08:57 21.12.2021
4111 Clouds 32 1010 65 10000 1.34 349 07:45 21.12.2021
4112 Clouds 32 1010 63 10000 1.79 254 07:23 21.12.2021
4113 Clouds 30 1013 69 10000 2.57 120 04:26 21.12.2021
4114 Clouds 29 1013 72 10000 2.06 310 02:30 21.12.2021
4115 Clouds 25 1013 89 10000 0.51 0 23:54 20.12.2021
4116 Clouds 25 1012 87 10000 0.51 0 22:36 20.12.2021
4117 Clouds 25 1012 86 10000 0.51 0 21:59 20.12.2021
4118 Clouds 26 1011 86 10000 0.51 0 21:27 20.12.2021
4119 Clouds 26 1011 88 10000 1.03 0 20:54 20.12.2021
4120 Clouds 26 1011 88 10000 1.03 0 20:23 20.12.2021
4121 Clouds 26 1012 88 10000 2.43 72 19:38 20.12.2021
4122 Clouds 26 1012 88 10000 2.74 82 19:19 20.12.2021
4123 Clouds 26 1012 85 10000 2.57 100 18:32 20.12.2021
4124 Clouds 26 1013 83 10000 3.6 120 17:50 20.12.2021
4125 Clouds 27 1013 83 10000 3.6 120 16:47 20.12.2021
4126 Clouds 27 1013 83 10000 2.57 110 15:57 20.12.2021
4127 Clouds 27 1013 84 10000 2.57 110 15:35 20.12.2021
4128 Clouds 27 1013 82 10000 2.06 120 13:32 20.12.2021
4129 Clouds 27 1013 82 10000 2.06 120 13:32 20.12.2021
4130 Clouds 27 1012 82 10000 2.57 110 12:30 20.12.2021
4131 Clouds 28 1011 80 10000 3.6 90 10:36 20.12.2021
4132 Clouds 29 1011 78 10000 3.6 100 09:39 20.12.2021
4133 Clouds 31 1011 70 10000 1.79 345 08:49 20.12.2021
4134 Clouds 31 1011 70 10000 3.58 337 08:31 20.12.2021
4135 Clouds 30 1010 72 10000 0.89 326 07:32 20.12.2021
4136 Clouds 30 1012 69 10000 1.34 4 06:39 20.12.2021
4137 Clouds 24 1013 92 8000 1.54 30 00:20 20.12.2021
4138 Clouds 24 1012 93 8000 0.51 0 22:56 19.12.2021
4139 Clouds 24 1012 93 8000 0.51 0 22:24 19.12.2021
4140 Clouds 24 1012 93 10000 1.54 20 21:32 19.12.2021
4141 Clouds 24 1012 93 10000 0.51 0 20:36 19.12.2021
4142 Clouds 24 1012 93 10000 1.54 350 19:53 19.12.2021
4143 Clouds 24 1012 93 10000 1.54 350 19:34 19.12.2021
4144 Clouds 24 1013 93 9000 2.06 0 18:35 19.12.2021
4145 Clouds 25 1013 93 9000 1.54 320 17:53 19.12.2021
4146 Clouds 25 1013 92 9000 1.34 349 17:28 19.12.2021
4147 Clouds 26 1013 92 9000 1.03 0 16:27 19.12.2021
4148 Clouds 26 1013 91 9000 1.54 270 15:51 19.12.2021
4149 Clouds 26 1013 91 9000 0.45 351 15:23 19.12.2021
4150 Clouds 26 1013 91 9000 0.51 0 14:45 19.12.2021
4151 Clouds 26 1013 91 9000 0 0 13:26 19.12.2021
4152 Clouds 26 1012 90 10000 1.03 0 12:50 19.12.2021
4153 Clouds 26 1012 90 10000 1.03 0 12:28 19.12.2021
4154 Clouds 26 1011 88 9000 0 0 11:30 19.12.2021
4155 Clouds 26 1011 87 9000 1.54 210 10:30 19.12.2021
4156 Clouds 26 1010 87 9000 2.06 270 09:53 19.12.2021
4157 Clouds 26 1010 87 8000 2.06 0 08:46 19.12.2021
4158 Rain 26 1012 84 7000 3.09 280 05:37 19.12.2021
4159 Clouds 23 1013 96 5000 2.06 140 01:39 19.12.2021
4160 Clouds 23 1013 94 5000 1.54 330 00:53 19.12.2021
4161 Clouds 23 1011 93 6000 1.34 347 22:50 18.12.2021
4162 Rain 23 1011 93 6000 1.79 1 22:20 18.12.2021
4163 Clouds 23 1011 93 7000 0.89 344 21:41 18.12.2021
4164 Clouds 23 1010 93 7000 1.34 341 21:22 18.12.2021
4165 Clouds 24 1010 93 6000 3.58 345 20:20 18.12.2021
4166 Clouds 24 1010 94 7000 1.34 356 19:25 18.12.2021
4167 Clouds 25 1011 94 3000 0.89 352 18:22 18.12.2021
4168 Clouds 25 1011 94 8000 0.45 4 17:48 18.12.2021
4169 Clouds 25 1011 91 9000 1.79 13 16:26 18.12.2021
4170 Clouds 26 1011 87 10000 2.68 7 15:28 18.12.2021
4171 Clouds 26 1011 89 10000 1.79 18 14:51 18.12.2021
4172 Clouds 26 1010 89 10000 2.24 5 13:29 18.12.2021
4173 Clouds 26 1010 89 10000 2.24 5 13:29 18.12.2021
4174 Clouds 28 1009 82 10000 1.79 5 11:47 18.12.2021
4175 Clouds 29 1008 76 10000 1.34 8 09:52 18.12.2021
4176 Clouds 30 1007 75 10000 4.63 120 08:48 18.12.2021
4177 Clouds 30 1007 74 10000 0.89 51 08:27 18.12.2021
4178 Clouds 32 1010 66 10000 3.6 130 05:56 18.12.2021
4179 Clouds 26 1009 86 10000 1.03 60 00:34 18.12.2021
4180 Clouds 26 1008 87 10000 0.45 49 23:46 17.12.2021
4181 Clouds 26 1008 89 10000 1.03 0 21:58 17.12.2021
4182 Clouds 26 1007 89 10000 0.45 1 21:20 17.12.2021
4183 Clouds 26 1007 91 10000 0.45 343 20:41 17.12.2021
4184 Clouds 27 1007 85 10000 2.06 100 19:28 17.12.2021
4185 Clouds 27 1007 87 10000 0.89 75 18:39 17.12.2021
4186 Clouds 27 1007 86 10000 0.45 21 17:33 17.12.2021
4187 Clouds 27 1008 85 10000 0.45 67 16:50 17.12.2021
4188 Clouds 27 1008 86 10000 1.34 344 16:22 17.12.2021
4189 Clouds 27 1007 85 10000 6.68 80 15:25 17.12.2021
4190 Clouds 26 1007 88 10000 1.34 78 14:40 17.12.2021
4191 Clouds 26 1006 88 10000 0.45 1 13:21 17.12.2021
4192 Rain 26 1006 92 7000 3.09 70 11:50 17.12.2021
4193 Rain 27 1005 85 6000 1.54 110 10:37 17.12.2021
4194 Rain 28 1004 80 8000 0.45 13 09:34 17.12.2021
4195 Clouds 30 1003 69 10000 4.02 347 08:30 17.12.2021
4196 Rain 30 1004 73 10000 3.58 32 06:47 17.12.2021
4197 Rain 30 1007 71 10000 2.68 229 02:54 17.12.2021
4198 Clouds 27 1005 76 10000 2.68 7 23:40 16.12.2021
4199 Rain 27 1005 76 10000 1.79 15 22:24 16.12.2021
4200 Rain 27 1005 76 10000 1.79 15 22:24 16.12.2021
4201 Clouds 27 1005 76 10000 4.02 356 21:50 16.12.2021
4202 Clouds 27 1005 77 10000 3.58 359 21:30 16.12.2021
4203 Rain 27 1005 77 10000 3.58 6 20:31 16.12.2021
4204 Clouds 27 1006 77 9000 2.68 12 19:44 16.12.2021
4205 Clouds 27 1007 77 10000 2.68 2 18:39 16.12.2021
4206 Rain 27 1008 76 10000 1.34 3 17:56 16.12.2021
4207 Rain 28 1008 75 10000 4.47 22 17:30 16.12.2021
4208 Clouds 28 1008 75 10000 4.47 20 16:21 16.12.2021
4209 Clouds 28 1008 74 10000 1.34 344 14:50 16.12.2021
4210 Clouds 29 1008 68 10000 1.79 32 13:29 16.12.2021
4211 Clouds 29 1007 68 10000 4.47 4 11:20 16.12.2021
4212 Clouds 29 1007 66 10000 1.79 16 10:59 16.12.2021
4213 Clouds 29 1007 67 10000 5.36 41 10:20 16.12.2021
4214 Clouds 31 1007 61 10000 3.13 12 07:48 16.12.2021
4215 Clouds 31 1007 60 10000 5.36 57 06:21 16.12.2021
4216 Clouds 26 1010 70 10000 1.79 29 00:54 16.12.2021
4217 Clouds 25 1010 70 10000 1.34 354 23:25 15.12.2021
4218 Clouds 25 1009 72 10000 2.24 19 22:41 15.12.2021
4219 Clouds 25 1009 72 10000 3.58 9 21:55 15.12.2021
4220 Clouds 25 1009 72 10000 1.34 4 21:26 15.12.2021
4221 Clouds 25 1009 72 10000 1.03 0 20:18 15.12.2021
4222 Clouds 25 1009 73 10000 0.89 17 19:45 15.12.2021
4223 Clouds 25 1010 71 10000 1.34 1 18:37 15.12.2021
4224 Clouds 26 1011 72 10000 1.79 14 17:51 15.12.2021
4225 Clouds 26 1011 72 10000 1.79 14 17:51 15.12.2021
4226 Clouds 26 1011 71 10000 1.79 350 17:32 15.12.2021
4227 Clouds 26 1011 69 10000 2.68 344 16:27 15.12.2021
4228 Clouds 26 1011 72 10000 0.45 1 15:46 15.12.2021
4229 Clouds 26 1011 71 10000 0.45 6 15:27 15.12.2021
4230 Clouds 26 1011 71 10000 0.89 347 14:18 15.12.2021
4231 Clouds 27 1010 67 10000 2.24 54 12:32 15.12.2021
4232 Clouds 29 1009 62 10000 2.24 351 10:25 15.12.2021
4233 Clouds 29 1008 64 9000 2.24 0 08:54 15.12.2021
4234 Clouds 30 1009 64 9000 1.34 57 06:45 15.12.2021
4235 Clouds 24 1011 76 10000 2.06 360 00:52 15.12.2021
4236 Clouds 24 1010 79 10000 2.24 13 23:41 14.12.2021
4237 Clouds 24 1010 78 10000 0 0 22:48 14.12.2021
4238 Clouds 24 1010 78 10000 0 0 22:18 14.12.2021
4239 Clouds 24 1010 79 10000 1.34 9 20:27 14.12.2021
4240 Clouds 25 1010 74 10000 1.03 50 19:40 14.12.2021
4241 Clouds 25 1011 75 10000 0.89 342 18:44 14.12.2021
4242 Clouds 25 1011 74 10000 0.89 5 17:58 14.12.2021
4243 Clouds 25 1011 74 10000 0.89 5 17:58 14.12.2021
4244 Clouds 25 1011 74 10000 1.03 0 17:27 14.12.2021
4245 Clouds 26 1012 73 10000 2.06 130 16:38 14.12.2021
4246 Clouds 26 1012 71 10000 2.57 120 14:52 14.12.2021
4247 Clouds 26 1011 70 10000 3.6 130 13:31 14.12.2021
4248 Clouds 28 1010 63 10000 1.79 52 11:57 14.12.2021
4249 Clouds 28 1010 62 10000 2.24 54 11:23 14.12.2021
4250 Clouds 29 1009 56 10000 1.79 54 09:56 14.12.2021
4251 Clouds 30 1009 54 10000 2.24 58 09:34 14.12.2021
4252 Clouds 31 1009 50 10000 3.13 348 08:23 14.12.2021
4253 Clouds 32 1009 49 10000 4.92 15 07:43 14.12.2021
4254 Clouds 27 1012 66 10000 2.06 270 01:46 14.12.2021
4255 Clouds 25 1010 73 10000 1.54 100 22:49 13.12.2021
4256 Clouds 25 1010 75 10000 0.89 353 21:52 13.12.2021
4257 Clouds 25 1010 75 10000 0.89 353 21:52 13.12.2021
4258 Clouds 25 1010 73 10000 0.89 4 20:59 13.12.2021
4259 Clouds 25 1010 72 10000 0.89 349 20:31 13.12.2021
4260 Clouds 26 1010 73 10000 2.57 110 19:52 13.12.2021
4261 Clouds 26 1011 72 10000 1.54 0 17:56 13.12.2021
4262 Clouds 26 1011 72 10000 1.54 0 17:23 13.12.2021
4263 Clouds 26 1011 72 10000 1.54 0 17:23 13.12.2021
4264 Clouds 26 1011 73 10000 0.45 333 15:49 13.12.2021
4265 Clouds 26 1011 74 10000 2.06 120 15:18 13.12.2021
4266 Clouds 27 1011 71 10000 0.45 323 13:38 13.12.2021
4267 Clouds 27 1010 71 10000 0.45 20 12:42 13.12.2021
4268 Clouds 27 1010 72 10000 0.45 14 11:54 13.12.2021
4269 Clouds 27 1010 71 10000 1.34 354 11:35 13.12.2021
4270 Clouds 28 1009 68 10000 1.79 5 10:41 13.12.2021
4271 Clouds 30 1009 64 10000 4.12 80 08:52 13.12.2021
4272 Clouds 31 1008 60 10000 4.47 51 07:37 13.12.2021
4273 Clouds 31 1011 62 10000 5.14 100 05:23 13.12.2021
4274 Clouds 27 1011 76 10000 0.89 30 00:42 13.12.2021
4275 Clouds 25 1009 80 10000 1.03 250 21:59 12.12.2021
4276 Clouds 25 1009 80 10000 1.03 250 21:30 12.12.2021
4277 Clouds 26 1010 79 10000 1.03 0 19:38 12.12.2021
4278 Clouds 26 1011 79 10000 0 0 18:24 12.12.2021
4279 Clouds 26 1011 79 10000 1.54 120 16:47 12.12.2021
4280 Clouds 26 1011 78 10000 1.54 120 16:22 12.12.2021
4281 Clouds 27 1011 77 10000 0.89 18 15:28 12.12.2021
4282 Clouds 27 1011 76 10000 1.54 0 14:54 12.12.2021
4283 Clouds 27 1011 76 10000 1.54 0 14:22 12.12.2021
4284 Clouds 27 1010 76 10000 0.45 12 12:51 12.12.2021
4285 Clouds 27 1010 75 10000 2.24 11 12:23 12.12.2021
4286 Clouds 27 1010 75 10000 2.24 11 12:23 12.12.2021
4287 Clouds 28 1010 70 10000 0.51 0 11:43 12.12.2021
4288 Clouds 29 1010 65 10000 1.79 7 10:44 12.12.2021
4289 Clouds 29 1010 65 10000 1.79 7 10:44 12.12.2021
4290 Clouds 29 1010 65 10000 4.47 5 10:21 12.12.2021
4291 Clouds 29 1009 66 10000 2.24 11 08:48 12.12.2021
4292 Clouds 30 1009 65 10000 4.92 14 07:28 12.12.2021
4293 Clouds 30 1011 63 10000 2.68 96 05:29 12.12.2021
4294 Clouds 29 1012 67 10000 0.89 72 04:53 12.12.2021
4295 Clouds 27 1012 75 10000 0.89 359 01:26 12.12.2021
4296 Clouds 25 1011 81 10000 2.68 1 23:26 11.12.2021
4297 Clouds 26 1011 81 10000 0.51 0 22:21 11.12.2021
4298 Clouds 26 1011 81 10000 0.89 9 21:35 11.12.2021
4299 Clouds 26 1011 79 10000 0.89 12 20:19 11.12.2021
4300 Rain 26 1011 80 10000 1.03 0 19:21 11.12.2021
4301 Clouds 26 1011 80 10000 1.34 352 18:48 11.12.2021
4302 Clouds 26 1011 77 10000 0.45 17 17:54 11.12.2021
4303 Clouds 27 1012 76 10000 0.89 51 16:37 11.12.2021
4304 Clouds 27 1012 74 10000 2.24 45 15:41 11.12.2021
4305 Clouds 27 1012 76 10000 0.89 353 14:36 11.12.2021
4306 Clouds 27 1011 76 10000 1.54 90 12:31 11.12.2021
4307 Rain 28 1011 72 10000 3.13 6 10:50 11.12.2021
4308 Clouds 28 1010 72 10000 0.89 37 09:43 11.12.2021
4309 Clouds 29 1013 66 10000 1.34 89 03:58 11.12.2021
4310 Clouds 26 1013 73 10000 2.24 348 00:48 11.12.2021
4311 Clouds 24 1011 79 10000 4.02 329 23:44 10.12.2021
4312 Clouds 24 1011 79 10000 1.03 0 22:47 10.12.2021
4313 Clouds 25 1010 80 10000 1.34 3 21:41 10.12.2021
4314 Clouds 25 1010 79 10000 0.45 352 20:28 10.12.2021
4315 Clouds 25 1011 79 10000 1.34 358 19:19 10.12.2021
4316 Clouds 26 1012 74 10000 1.34 0 17:46 10.12.2021
4317 Clouds 26 1012 72 10000 1.03 0 16:37 10.12.2021
4318 Clouds 27 1012 69 10000 2.06 100 15:45 10.12.2021
4319 Clouds 27 1012 69 10000 2.06 100 15:26 10.12.2021
4320 Clouds 27 1012 68 10000 0.89 355 14:35 10.12.2021
4321 Clouds 27 1012 66 10000 2.06 100 13:49 10.12.2021
4322 Clouds 27 1012 66 10000 3.6 90 12:56 10.12.2021
4323 Clouds 28 1011 65 10000 1.79 358 11:43 10.12.2021
4324 Clouds 29 1010 62 10000 0.89 357 10:57 10.12.2021
4325 Clouds 30 1010 56 10000 4.47 81 09:46 10.12.2021
4326 Clouds 31 1009 51 10000 4.47 65 07:28 10.12.2021
4327 Clouds 31 1012 54 10000 3.13 41 04:57 10.12.2021
4328 Clouds 28 1013 62 10000 0.89 260 02:42 10.12.2021
4329 Clouds 25 1012 75 10000 0.51 0 23:42 09.12.2021
4330 Clouds 25 1011 75 10000 1.03 0 22:41 09.12.2021
4331 Clouds 25 1011 75 10000 0.89 334 22:22 09.12.2021
4332 Clouds 25 1011 75 10000 0.89 2 21:40 09.12.2021
4333 Clouds 25 1011 74 10000 1.03 0 20:35 09.12.2021
4334 Clouds 25 1010 74 10000 0 0 19:43 09.12.2021
4335 Clouds 25 1010 73 10000 0.45 1 19:20 09.12.2021
4336 Clouds 26 1011 72 10000 1.03 0 18:19 09.12.2021
4337 Clouds 26 1012 100 10000 1.03 0 17:48 09.12.2021
4338 Clouds 26 1012 100 10000 0.89 352 17:24 09.12.2021
4339 Clouds 26 1012 70 10000 1.34 353 16:36 09.12.2021
4340 Clouds 27 1012 68 10000 2.57 90 15:18 09.12.2021
4341 Clouds 27 1012 67 10000 2.24 353 14:30 09.12.2021
4342 Clouds 27 1012 71 10000 0.89 4 12:48 09.12.2021
4343 Clouds 28 1012 62 10000 1.79 5 11:51 09.12.2021
4344 Clouds 29 1011 60 10000 3.13 50 10:28 09.12.2021
4345 Clouds 31 1011 50 10000 5.81 85 07:34 09.12.2021
4346 Clouds 29 1014 56 10000 3.13 20 03:56 09.12.2021
4347 Clouds 25 1014 71 10000 1.03 0 00:26 09.12.2021
4348 Clouds 25 1013 72 10000 2.68 10 23:37 08.12.2021
4349 Clouds 25 1013 72 10000 4.92 343 22:57 08.12.2021
4350 Clouds 25 1013 72 10000 1.79 352 22:36 08.12.2021
4351 Clouds 26 1012 72 10000 2.68 1 21:38 08.12.2021
4352 Clouds 26 1012 72 10000 1.79 24 20:50 08.12.2021
4353 Clouds 25 1012 75 10000 0.45 11 19:57 08.12.2021
4354 Clouds 25 1012 74 10000 1.79 358 19:20 08.12.2021
4355 Clouds 25 1013 74 10000 1.54 140 18:22 08.12.2021
4356 Clouds 26 1013 72 10000 1.03 0 16:53 08.12.2021
4357 Clouds 26 1014 70 10000 0.45 346 15:42 08.12.2021
4358 Clouds 26 1014 69 10000 0.45 42 15:22 08.12.2021
4359 Clouds 26 1013 69 10000 2.06 0 13:26 08.12.2021
4360 Clouds 28 1011 62 10000 0.45 355 10:44 08.12.2021
4361 Clouds 29 1010 58 10000 3.13 355 09:32 08.12.2021
4362 Clouds 30 1011 55 10000 4.02 47 08:31 08.12.2021
4363 Clouds 31 1012 48 10000 2.68 35 05:37 08.12.2021
4364 Clouds 25 1013 66 10000 4.02 352 00:41 08.12.2021
4365 Clouds 25 1012 70 10000 1.34 334 23:22 07.12.2021
4366 Clouds 25 1011 70 10000 4.47 3 21:25 07.12.2021
4367 Clouds 25 1011 71 10000 0.89 7 20:25 07.12.2021
4368 Clouds 25 1011 71 10000 0.89 7 20:25 07.12.2021
4369 Clouds 26 1012 70 10000 1.34 65 18:59 07.12.2021
4370 Clouds 26 1012 71 10000 0.89 42 18:21 07.12.2021
4371 Clouds 26 1012 71 10000 0.45 28 17:24 07.12.2021
4372 Clouds 25 1012 73 10000 0.45 346 16:42 07.12.2021
4373 Clouds 26 1013 71 10000 1.54 80 15:59 07.12.2021
4374 Clouds 25 1013 72 10000 1.03 0 14:37 07.12.2021
4375 Clouds 26 1013 69 10000 5.69 67 13:38 07.12.2021
4376 Clouds 27 1012 68 10000 1.54 110 12:22 07.12.2021
4377 Clouds 27 1011 71 10000 1.34 347 10:48 07.12.2021
4378 Clouds 27 1010 73 10000 2.68 18 09:20 07.12.2021
4379 Clouds 28 1010 68 10000 3.13 20 06:50 07.12.2021
4380 Clouds 28 1011 68 8000 3.58 37 05:50 07.12.2021
4381 Clouds 28 1012 63 10000 2.24 59 02:35 07.12.2021
4382 Clouds 23 1010 83 10000 0.51 0 23:21 06.12.2021
4383 Clouds 23 1010 83 10000 0 0 22:40 06.12.2021
4384 Clouds 24 1009 81 10000 0.51 0 21:59 06.12.2021
4385 Clouds 24 1009 81 10000 0.51 0 21:27 06.12.2021
4386 Clouds 24 1009 81 10000 0 0 20:32 06.12.2021
4387 Clouds 24 1009 78 10000 0 0 19:24 06.12.2021
4388 Clouds 25 1010 76 10000 0.45 350 18:34 06.12.2021
4389 Clouds 25 1010 76 10000 0.51 0 17:53 06.12.2021
4390 Clouds 25 1010 75 10000 0.51 0 17:30 06.12.2021
4391 Clouds 25 1011 72 10000 1.03 0 15:51 06.12.2021
4392 Clouds 26 1011 70 10000 1.54 110 14:35 06.12.2021
4393 Clouds 27 1010 67 10000 0.89 57 12:40 06.12.2021
4394 Clouds 27 1009 68 10000 1.54 280 11:55 06.12.2021
4395 Clouds 29 1008 64 10000 0.45 12 09:44 06.12.2021
4396 Clouds 29 1008 60 10000 0.89 30 07:18 06.12.2021
4397 Clouds 27 1011 64 10000 1.79 353 02:20 06.12.2021
4398 Clouds 23 1009 76 10000 1.54 360 22:20 05.12.2021
4399 Clouds 23 1009 75 10000 0.45 22 21:25 05.12.2021
4400 Clouds 23 1009 75 10000 2.06 10 20:20 05.12.2021
4401 Clouds 23 1009 77 10000 2.24 356 19:58 05.12.2021
4402 Clouds 24 1009 76 10000 0.89 353 19:23 05.12.2021
4403 Clouds 24 1010 74 10000 0.89 8 18:26 05.12.2021
4404 Clouds 25 1010 70 10000 1.54 300 17:49 05.12.2021
4405 Clouds 25 1011 72 10000 0.45 12 16:58 05.12.2021
4406 Clouds 25 1011 72 10000 0.45 358 16:28 05.12.2021
4407 Clouds 25 1011 72 10000 1.03 0 15:58 05.12.2021
4408 Clouds 25 1011 72 10000 0.51 0 14:47 05.12.2021
4409 Clouds 25 1011 72 10000 0.45 357 14:29 05.12.2021
4410 Clouds 26 1011 68 10000 2.57 90 13:31 05.12.2021
4411 Clouds 26 1010 68 10000 0.45 40 12:41 05.12.2021
4412 Clouds 26 1010 68 10000 4.05 82 12:23 05.12.2021
4413 Clouds 27 1010 64 10000 0.45 13 11:37 05.12.2021
4414 Clouds 28 1009 60 10000 0.89 53 10:21 05.12.2021
4415 Clouds 29 1009 58 10000 1.34 353 09:26 05.12.2021
4416 Clouds 29 1012 58 10000 2.06 310 04:56 05.12.2021
4417 Clouds 26 1013 65 10000 0.45 46 01:23 05.12.2021
4418 Clouds 23 1012 74 10000 0.45 9 22:42 04.12.2021
4419 Clouds 23 1011 72 10000 1.03 0 21:37 04.12.2021
4420 Clouds 24 1011 69 10000 0.45 2 20:40 04.12.2021
4421 Clouds 24 1012 65 10000 4.63 80 19:33 04.12.2021
4422 Clouds 25 1013 67 10000 3.09 90 18:43 04.12.2021
4423 Clouds 25 1013 69 10000 2.06 90 17:47 04.12.2021
4424 Clouds 25 1013 70 10000 2.06 90 17:20 04.12.2021
4425 Clouds 25 1013 71 10000 0.45 343 16:46 04.12.2021
4426 Clouds 25 1013 71 10000 2.06 90 16:27 04.12.2021
4427 Clouds 26 1012 71 10000 3.09 100 12:44 04.12.2021
4428 Clouds 26 1011 69 10000 1.34 2 11:34 04.12.2021
4429 Clouds 27 1011 67 10000 3.13 0 10:57 04.12.2021
4430 Clouds 27 1010 66 10000 2.68 14 09:40 04.12.2021
4431 Clouds 28 1010 64 10000 1.34 44 08:28 04.12.2021
4432 Clouds 29 1012 61 10000 2.68 76 04:43 04.12.2021
4433 Clouds 24 1013 77 10000 0.89 349 00:49 04.12.2021
4434 Clouds 23 1011 80 10000 0.89 350 23:33 03.12.2021
4435 Clouds 24 1011 78 10000 1.34 358 22:51 03.12.2021
4436 Clouds 24 1010 77 10000 0.45 338 21:54 03.12.2021
4437 Clouds 24 1010 76 10000 0.89 2 21:22 03.12.2021
4438 Clouds 24 1011 73 10000 1.54 100 20:42 03.12.2021
4439 Clouds 25 1011 73 10000 2.57 120 19:21 03.12.2021
4440 Clouds 25 1012 72 10000 0.89 7 18:22 03.12.2021
4441 Clouds 25 1013 70 10000 2.57 100 17:30 03.12.2021
4442 Clouds 27 1012 64 10000 0.89 61 13:35 03.12.2021
4443 Clouds 27 1012 66 10000 1.34 33 12:30 03.12.2021
4444 Clouds 27 1011 65 10000 4.02 83 11:19 03.12.2021
4445 Clouds 29 1009 58 10000 3.58 85 09:21 03.12.2021
4446 Clouds 30 1009 54 10000 0.45 314 07:44 03.12.2021
4447 Clouds 31 1010 55 10000 2.24 354 06:41 03.12.2021
4448 Clouds 25 1012 73 10000 0.89 323 00:49 03.12.2021
4449 Clouds 24 1011 78 10000 1.79 352 23:48 02.12.2021
4450 Clouds 24 1010 76 10000 0.89 0 22:54 02.12.2021
4451 Clouds 25 1010 72 10000 1.79 6 21:41 02.12.2021
4452 Clouds 25 1010 71 10000 1.54 120 20:46 02.12.2021
4453 Clouds 25 1010 71 10000 1.54 120 20:22 02.12.2021
4454 Clouds 25 1011 70 10000 1.03 0 18:50 02.12.2021
4455 Clouds 26 1011 69 10000 0.45 350 16:43 02.12.2021
4456 Clouds 26 1012 69 10000 2.06 120 15:41 02.12.2021
4457 Clouds 27 1011 67 10000 2.57 100 14:52 02.12.2021
4458 Clouds 27 1011 67 10000 0.45 68 13:39 02.12.2021
4459 Clouds 27 1011 66 10000 0.45 306 12:35 02.12.2021
4460 Clouds 28 1009 61 10000 2.68 60 10:42 02.12.2021
4461 Clouds 29 1008 58 10000 1.34 267 09:26 02.12.2021
4462 Clouds 31 1007 55 10000 1.34 352 07:19 02.12.2021
4463 Clouds 28 1011 64 10000 1.79 32 01:26 02.12.2021
4464 Clouds 26 1010 73 10000 0.45 342 00:26 02.12.2021
4465 Clouds 26 1008 73 10000 1.54 160 22:31 01.12.2021
4466 Clouds 25 1008 74 10000 1.54 270 21:44 01.12.2021
4467 Clouds 26 1008 71 10000 1.03 0 20:23 01.12.2021
4468 Clouds 26 1008 71 10000 0.45 346 19:40 01.12.2021
4469 Clouds 26 1009 69 10000 0.89 349 18:42 01.12.2021
4470 Clouds 27 1009 67 10000 2.68 6 17:24 01.12.2021
4471 Clouds 28 1009 64 10000 0.89 19 16:21 01.12.2021
4472 Clouds 28 1009 65 10000 3.58 79 14:30 01.12.2021
4473 Clouds 28 1009 65 10000 4.92 29 13:37 01.12.2021
4474 Clouds 29 1006 66 10000 1.34 46 10:44 01.12.2021
4475 Clouds 30 1006 66 10000 0.45 80 10:20 01.12.2021
4476 Clouds 31 1006 67 10000 3.13 35 08:52 01.12.2021
4477 Clouds 31 1006 68 10000 2.24 70 07:58 01.12.2021
4478 Clouds 31 1006 68 10000 1.34 340 07:27 01.12.2021
4479 Clouds 31 1009 70 8000 1.54 0 03:55 01.12.2021
4480 Clouds 31 1009 70 8000 0.89 12 03:20 01.12.2021
4481 Clouds 28 1009 87 10000 0.45 5 00:20 01.12.2021
4482 Clouds 27 1008 88 10000 0 0 23:29 30.11.2021
4483 Clouds 27 1008 88 10000 0 0 23:29 30.11.2021
4484 Clouds 27 1007 90 10000 0.51 0 22:31 30.11.2021
4485 Clouds 28 1007 84 10000 0.45 7 20:47 30.11.2021
4486 Clouds 28 1007 84 10000 0.45 359 20:24 30.11.2021
4487 Clouds 27 1007 85 10000 0.51 0 19:39 30.11.2021
4488 Clouds 27 1007 86 10000 1.03 0 18:53 30.11.2021
4489 Clouds 27 1008 86 10000 1.03 0 17:45 30.11.2021
4490 Clouds 29 1008 83 10000 0.89 344 16:19 30.11.2021
4491 Clouds 29 1008 80 10000 2.06 180 14:34 30.11.2021
4492 Clouds 29 1007 83 10000 2.06 210 13:41 30.11.2021
4493 Clouds 29 1007 82 10000 2.57 240 12:54 30.11.2021
4494 Clouds 30 1006 77 10000 1.79 226 11:55 30.11.2021
4495 Clouds 30 1006 76 10000 2.24 212 11:25 30.11.2021
4496 Clouds 30 1005 75 10000 3.58 216 10:36 30.11.2021
4497 Clouds 32 1005 63 10000 4.47 195 08:56 30.11.2021
4498 Clouds 32 1005 63 10000 3.13 212 08:32 30.11.2021
4499 Clouds 33 1005 62 10000 5.36 237 07:56 30.11.2021
4500 Clouds 32 1006 60 10000 4.47 225 06:37 30.11.2021
4501 Clouds 29 1009 76 10000 1.79 336 01:49 30.11.2021
4502 Clouds 29 1009 78 10000 1.54 140 01:27 30.11.2021
4503 Clouds 26 1008 89 10000 0 0 23:36 29.11.2021
4504 Clouds 26 1008 89 10000 0 0 23:18 29.11.2021
4505 Clouds 26 1008 89 10000 0 0 23:18 29.11.2021
4506 Clouds 27 1007 87 10000 0 0 22:38 29.11.2021
4507 Clouds 27 1007 86 10000 1.54 110 21:54 29.11.2021
4508 Clouds 27 1007 85 10000 1.54 110 21:20 29.11.2021
4509 Clouds 27 1007 84 10000 1.03 0 20:46 29.11.2021
4510 Clouds 28 1007 79 10000 1.03 0 19:58 29.11.2021
4511 Clouds 28 1007 79 10000 1.03 0 19:39 29.11.2021
4512 Clouds 28 1008 81 10000 1.54 200 18:59 29.11.2021
4513 Clouds 26 1009 81 10000 1.87 58 18:40 29.11.2021
4514 Clouds 27 1010 81 10000 2.4 96 17:21 29.11.2021
4515 Clouds 27 1010 81 10000 2.4 96 16:43 29.11.2021
4516 Clouds 27 1010 80 10000 2.64 102 16:22 29.11.2021
4517 Clouds 27 1010 79 10000 2.44 96 14:45 29.11.2021
4518 Clouds 28 1010 78 10000 2.48 95 13:52 29.11.2021
4519 Clouds 28 1010 76 10000 2.14 110 12:57 29.11.2021
4520 Clouds 29 1009 72 10000 2.9 119 11:54 29.11.2021
4521 Clouds 29 1008 71 10000 2.81 118 10:59 29.11.2021
4522 Clouds 31 1007 66 10000 1.54 360 09:57 29.11.2021
4523 Clouds 31 1007 63 10000 2.13 128 07:21 29.11.2021
4524 Clouds 32 1009 70 10000 3.6 90 05:48 29.11.2021
4525 Clouds 26 1010 89 10000 1.03 0 00:46 29.11.2021
4526 Clouds 26 1009 89 10000 0.51 0 23:47 28.11.2021
4527 Clouds 26 1009 89 10000 0.51 0 23:29 28.11.2021
4528 Clouds 25 1008 94 10000 0.51 0 21:53 28.11.2021
4529 Clouds 25 1008 94 10000 0.51 0 21:34 28.11.2021
4530 Clouds 26 1009 89 10000 0.51 0 20:36 28.11.2021
4531 Clouds 26 1009 89 10000 0.51 0 19:29 28.11.2021
4532 Clouds 25 1010 88 10000 1.8 45 18:40 28.11.2021
4533 Clouds 26 1010 89 9000 1.54 70 17:57 28.11.2021
4534 Clouds 26 1010 89 9000 1.54 70 17:32 28.11.2021
4535 Clouds 26 1010 89 9000 1.03 80 16:45 28.11.2021
4536 Clouds 26 1010 89 9000 1.03 80 16:26 28.11.2021
4537 Clouds 26 1011 89 10000 1.03 80 15:45 28.11.2021
4538 Clouds 26 1011 89 10000 1.54 60 14:50 28.11.2021
4539 Clouds 26 1010 94 10000 1.54 60 13:51 28.11.2021
4540 Clouds 27 1010 83 10000 0.51 0 12:54 28.11.2021
4541 Clouds 27 1009 83 10000 1.03 0 11:21 28.11.2021
4542 Clouds 28 1009 83 10000 0.51 0 10:22 28.11.2021
4543 Clouds 27 1009 83 10000 1.54 260 09:40 28.11.2021
4544 Clouds 27 1009 83 9000 0 0 08:20 28.11.2021
4545 Clouds 27 1011 83 10000 0 0 00:40 28.11.2021
4546 Clouds 26 1009 89 10000 1.03 90 21:45 27.11.2021
4547 Clouds 27 1010 83 10000 2.06 50 19:50 27.11.2021
4548 Clouds 27 1010 78 10000 0 0 18:20 27.11.2021
4549 Clouds 27 1011 83 10000 1.03 0 15:59 27.11.2021
4550 Clouds 28 1011 78 10000 1.03 0 14:35 27.11.2021
4551 Clouds 28 1011 78 10000 1.54 100 13:20 27.11.2021
4552 Clouds 30 1009 70 10000 3.09 110 10:57 27.11.2021
4553 Clouds 29 1009 68 10000 5.05 66 09:54 27.11.2021
4554 Clouds 32 1008 62 10000 5.14 110 08:45 27.11.2021
4555 Clouds 32 1009 62 10000 3.09 90 06:35 27.11.2021
4556 Clouds 28 1012 78 10000 1.54 40 02:25 27.11.2021
4557 Clouds 27 1011 83 10000 1.54 300 00:19 27.11.2021
4558 Clouds 26 1009 83 10000 0.51 0 22:41 26.11.2021
4559 Clouds 26 1009 83 10000 0.51 0 22:19 26.11.2021
4560 Clouds 26 1010 83 10000 1.03 70 21:22 26.11.2021
4561 Clouds 26 1009 89 10000 1.03 0 20:40 26.11.2021
4562 Clouds 26 1010 89 10000 3.6 70 19:55 26.11.2021
4563 Clouds 27 1010 83 10000 3.09 110 18:45 26.11.2021
4564 Clouds 28 1011 78 10000 2.57 100 17:26 26.11.2021
4565 Clouds 28 1012 78 10000 2.06 110 16:45 26.11.2021
4566 Clouds 28 1011 78 10000 1.54 100 14:50 26.11.2021
4567 Clouds 28 1009 75 10000 1.03 0 13:34 26.11.2021
4568 Clouds 29 1008 73 10000 1.79 12 10:44 26.11.2021
4569 Clouds 29 1008 73 10000 0.89 0 09:49 26.11.2021
4570 Rain 29 1007 73 10000 1.79 350 08:50 26.11.2021
4571 Rain 29 1007 73 10000 1.34 329 08:19 26.11.2021
4572 Clouds 28 1008 74 9000 0.89 352 06:30 26.11.2021
4573 Rain 29 1009 73 10000 2.68 1 04:52 26.11.2021
4574 Clouds 28 1009 79 10000 1.79 335 03:35 26.11.2021
4575 Rain 27 1009 85 10000 1.54 190 23:43 25.11.2021
4576 Rain 27 1008 84 10000 1.54 180 22:25 25.11.2021
4577 Clouds 26 1007 85 10000 0.89 359 20:43 25.11.2021
4578 Clouds 27 1008 84 10000 2.06 80 19:21 25.11.2021
4579 Clouds 26 1008 88 10000 1.34 357 18:25 25.11.2021
4580 Clouds 27 1009 87 10000 0.45 52 17:27 25.11.2021
4581 Clouds 28 1010 80 10000 2.57 120 16:44 25.11.2021
4582 Clouds 28 1009 78 10000 1.54 0 15:58 25.11.2021
4583 Clouds 29 1009 75 10000 1.03 130 14:30 25.11.2021
4584 Clouds 29 1009 75 10000 1.34 98 12:55 25.11.2021
4585 Clouds 29 1009 73 10000 3.09 100 11:56 25.11.2021
4586 Clouds 30 1008 70 10000 0.89 2 10:34 25.11.2021
4587 Clouds 31 1007 65 10000 2.24 340 08:21 25.11.2021
4588 Clouds 30 1011 69 10000 2.24 288 02:58 25.11.2021
4589 Clouds 27 1010 85 10000 0.51 0 00:37 25.11.2021
4590 Clouds 26 1009 83 10000 1.03 0 22:29 24.11.2021
4591 Clouds 27 1008 78 10000 1.03 0 21:48 24.11.2021
4592 Clouds 27 1008 77 10000 1.03 0 21:21 24.11.2021
4593 Clouds 27 1008 75 10000 1.03 60 20:27 24.11.2021
4594 Clouds 27 1009 75 10000 2.06 30 19:36 24.11.2021
4595 Clouds 28 1009 72 10000 1.79 357 18:19 24.11.2021
4596 Clouds 28 1010 72 10000 0.89 54 16:21 24.11.2021
4597 Clouds 28 1010 70 10000 0.45 11 14:57 24.11.2021
4598 Clouds 28 1010 70 10000 1.34 14 14:21 24.11.2021
4599 Clouds 28 1010 69 10000 3.54 70 13:34 24.11.2021
4600 Clouds 30 1008 61 10000 0.89 49 11:26 24.11.2021
4601 Clouds 30 1008 61 10000 0.89 0 10:55 24.11.2021
4602 Clouds 31 1008 60 10000 4.47 78 10:35 24.11.2021
4603 Clouds 32 1008 100 10000 4.02 22 09:33 24.11.2021
4604 Clouds 33 1008 58 10000 2.68 112 07:41 24.11.2021
4605 Clouds 32 1009 64 10000 1.79 306 05:38 24.11.2021
4606 Clouds 31 1011 66 10000 1.34 15 03:32 24.11.2021
4607 Clouds 26 1010 82 10000 1.54 100 23:33 23.11.2021
4608 Clouds 26 1009 81 10000 1.03 90 22:39 23.11.2021
4609 Clouds 27 1009 80 10000 2.57 70 21:45 23.11.2021
4610 Clouds 27 1009 76 10000 1.54 60 20:22 23.11.2021
4611 Clouds 27 1009 76 10000 0 0 19:33 23.11.2021
4612 Clouds 28 1010 73 10000 0.89 357 18:34 23.11.2021
4613 Clouds 28 1011 76 10000 0.51 0 17:31 23.11.2021
4614 Clouds 28 1010 74 10000 0.45 51 16:35 23.11.2021
4615 Clouds 28 1010 73 10000 1.34 69 15:27 23.11.2021
4616 Clouds 28 1011 72 10000 1.54 90 14:45 23.11.2021
4617 Clouds 29 1011 69 10000 1.79 58 13:20 23.11.2021
4618 Clouds 30 1008 63 10000 0.45 31 10:28 23.11.2021
4619 Clouds 31 1008 60 10000 2.68 57 09:46 23.11.2021
4620 Clouds 31 1008 62 10000 3.13 81 07:56 23.11.2021
4621 Clouds 31 1010 65 9000 3.13 67 04:53 23.11.2021
4622 Clouds 31 1010 66 8000 1.79 55 03:29 23.11.2021
4623 Clouds 26 1009 81 10000 0 0 23:35 22.11.2021
4624 Clouds 26 1009 80 10000 1.03 60 22:57 22.11.2021
4625 Clouds 26 1009 80 10000 1.03 60 22:30 22.11.2021
4626 Clouds 27 1008 78 10000 1.03 0 21:44 22.11.2021
4627 Clouds 27 1008 77 10000 1.03 0 21:19 22.11.2021
4628 Clouds 27 1008 79 10000 1.03 0 20:26 22.11.2021
4629 Clouds 27 1009 79 10000 2.06 80 19:20 22.11.2021
4630 Clouds 27 1009 81 10000 1.03 0 18:40 22.11.2021
4631 Clouds 27 1010 81 10000 2.06 60 17:46 22.11.2021
4632 Clouds 28 1010 76 10000 1.03 0 16:30 22.11.2021
4633 Clouds 29 1010 76 10000 1.03 0 14:41 22.11.2021
4634 Clouds 30 1009 75 10000 1.03 0 12:48 22.11.2021
4635 Clouds 30 1008 73 9000 1.54 110 11:27 22.11.2021
4636 Clouds 31 1008 69 9000 3.09 90 09:56 22.11.2021
4637 Clouds 32 1007 67 9000 2.24 58 08:42 22.11.2021
4638 Clouds 33 1008 63 9000 2.24 236 07:24 22.11.2021
4639 Clouds 27 1010 85 10000 0.45 11 00:21 22.11.2021
4640 Clouds 26 1009 89 10000 0 0 22:54 21.11.2021
4641 Clouds 26 1009 89 10000 0.45 0 22:26 21.11.2021
4642 Clouds 26 1008 88 10000 0 0 20:42 21.11.2021
4643 Clouds 26 1008 88 10000 0 0 20:22 21.11.2021
4644 Clouds 27 1009 89 10000 1.03 0 18:30 21.11.2021
4645 Clouds 27 1010 87 10000 0.51 0 17:40 21.11.2021
4646 Clouds 28 1010 86 10000 1.03 0 16:52 21.11.2021
4647 Clouds 28 1010 82 10000 0.45 193 14:47 21.11.2021
4648 Clouds 28 1009 84 10000 1.03 0 13:54 21.11.2021
4649 Clouds 28 1009 87 10000 1.03 0 12:55 21.11.2021
4650 Clouds 28 1009 87 9000 0.89 233 11:58 21.11.2021
4651 Clouds 28 1008 84 9000 4.12 170 11:36 21.11.2021
4652 Clouds 31 1007 69 10000 0.45 345 10:19 21.11.2021
4653 Clouds 31 1007 68 10000 4.63 310 09:25 21.11.2021
4654 Clouds 32 1007 66 10000 4.47 350 08:31 21.11.2021
4655 Clouds 32 1007 65 10000 5.81 342 07:50 21.11.2021
4656 Clouds 32 1008 69 10000 2.24 349 06:23 21.11.2021
4657 Clouds 31 1009 73 10000 0.45 330 05:37 21.11.2021
4658 Rain 30 1010 77 10000 1.34 353 03:21 21.11.2021
4659 Clouds 29 1011 81 10000 2.06 60 02:53 21.11.2021
4660 Rain 27 1010 86 10000 0.45 23 01:25 21.11.2021
4661 Rain 26 1010 90 10000 1.03 0 00:41 21.11.2021
4662 Rain 26 1008 91 8000 1.54 0 21:51 20.11.2021
4663 Rain 26 1008 91 8000 1.54 0 21:30 20.11.2021
4664 Rain 26 1008 88 10000 1.54 160 19:24 20.11.2021
4665 Clouds 26 1008 90 10000 1.03 0 18:45 20.11.2021
4666 Clouds 26 1008 90 10000 1.03 0 18:19 20.11.2021
4667 Clouds 26 1009 90 9000 2.24 216 17:19 20.11.2021
4668 Rain 27 1008 87 10000 2.57 180 14:51 20.11.2021
4669 Rain 27 1009 87 10000 2.57 180 14:28 20.11.2021
4670 Rain 27 1008 84 10000 0.45 309 13:35 20.11.2021
4671 Rain 29 1006 65 9000 0.45 36 11:25 20.11.2021
4672 Rain 28 1006 68 9000 1.79 63 09:55 20.11.2021
4673 Rain 30 1005 70 9000 0.45 334 08:32 20.11.2021
4674 Rain 31 1007 72 8000 0.45 42 05:30 20.11.2021
4675 Clouds 31 1007 69 9000 1.34 74 04:51 20.11.2021
4676 Clouds 31 1008 67 10000 3.58 90 03:54 20.11.2021
4677 Clouds 27 1007 81 10000 0.51 0 00:42 20.11.2021
4678 Clouds 27 1006 83 10000 0 0 23:45 19.11.2021
4679 Clouds 27 1006 83 10000 0 0 22:53 19.11.2021
4680 Clouds 27 1005 82 10000 0 0 21:23 19.11.2021
4681 Clouds 27 1005 82 10000 0 0 20:39 19.11.2021
4682 Clouds 27 1005 81 10000 0 0 20:20 19.11.2021
4683 Clouds 27 1005 81 10000 1.03 0 19:43 19.11.2021
4684 Clouds 28 1006 79 10000 0 0 18:44 19.11.2021
4685 Clouds 28 1006 79 10000 1.54 110 17:39 19.11.2021
4686 Clouds 28 1007 76 10000 1.54 110 16:40 19.11.2021
4687 Clouds 29 1006 73 10000 1.54 0 14:51 19.11.2021
4688 Clouds 30 1004 68 10000 1.34 263 10:57 19.11.2021
4689 Clouds 30 1004 67 10000 0.89 169 10:23 19.11.2021
4690 Clouds 31 1004 66 10000 2.68 210 08:32 19.11.2021
4691 Clouds 31 1007 65 10000 1.79 18 04:58 19.11.2021
4692 Clouds 31 1007 63 10000 1.34 211 03:19 19.11.2021
4693 Clouds 27 1006 77 10000 1.03 0 23:53 18.11.2021
4694 Clouds 27 1006 77 10000 1.54 360 22:49 18.11.2021
4695 Clouds 27 1005 78 10000 1.79 2 20:57 18.11.2021
4696 Clouds 27 1005 78 10000 1.03 0 20:39 18.11.2021
4697 Clouds 27 1005 78 10000 0.45 0 20:19 18.11.2021
4698 Clouds 27 1005 75 10000 0.89 9 19:36 18.11.2021
4699 Clouds 27 1006 77 10000 0.51 0 18:37 18.11.2021
4700 Clouds 27 1006 76 10000 0.51 0 17:52 18.11.2021
4701 Clouds 28 1006 74 10000 0.89 11 16:47 18.11.2021
4702 Clouds 28 1006 73 10000 1.03 0 15:56 18.11.2021
4703 Clouds 28 1007 74 10000 2.06 140 14:57 18.11.2021
4704 Clouds 29 1006 72 10000 1.54 0 12:55 18.11.2021
4705 Clouds 30 1006 69 10000 1.54 120 11:44 18.11.2021
4706 Clouds 30 1005 69 10000 1.54 120 11:25 18.11.2021
4707 Clouds 30 1005 68 10000 1.54 130 10:24 18.11.2021
4708 Clouds 31 1005 66 10000 0.89 14 08:30 18.11.2021
4709 Clouds 31 1006 63 10000 0.89 228 06:40 18.11.2021
4710 Clouds 32 1007 61 10000 0.89 352 05:44 18.11.2021
4711 Clouds 29 1008 67 10000 0.45 19 01:26 18.11.2021
4712 Clouds 29 1008 67 10000 0.45 19 01:26 18.11.2021
4713 Clouds 26 1008 79 10000 0.45 22 23:35 17.11.2021
4714 Clouds 26 1008 78 10000 0.89 22 22:40 17.11.2021
4715 Clouds 26 1008 78 10000 1.34 354 22:19 17.11.2021
4716 Clouds 26 1008 78 10000 1.34 354 22:19 17.11.2021
4717 Clouds 27 1008 78 10000 0.89 350 21:35 17.11.2021
4718 Clouds 27 1008 76 10000 2.57 110 19:51 17.11.2021
4719 Clouds 28 1009 75 10000 1.03 0 17:35 17.11.2021
4720 Clouds 28 1010 74 10000 1.54 70 15:56 17.11.2021
4721 Clouds 29 1009 72 10000 0.45 15 13:19 17.11.2021
4722 Clouds 29 1008 71 10000 2.06 110 12:37 17.11.2021
4723 Clouds 30 1007 68 10000 1.34 21 10:54 17.11.2021
4724 Clouds 31 1008 63 10000 4.12 120 09:38 17.11.2021
4725 Clouds 31 1008 70 10000 3.6 150 07:56 17.11.2021
4726 Clouds 31 1008 69 10000 3.6 150 07:37 17.11.2021
4727 Clouds 30 1012 67 10000 2.57 70 02:49 17.11.2021
4728 Clouds 27 1011 80 10000 0.51 0 00:34 17.11.2021
4729 Clouds 26 1010 85 10000 1.54 40 22:31 16.11.2021
4730 Clouds 27 1009 78 10000 1.03 0 20:19 16.11.2021
4731 Clouds 27 1010 78 10000 0.51 0 19:41 16.11.2021
4732 Clouds 27 1010 78 10000 1.03 90 18:49 16.11.2021
4733 Clouds 27 1010 78 10000 1.03 90 18:28 16.11.2021
4734 Clouds 27 1009 77 10000 1.54 90 17:18 16.11.2021
4735 Clouds 27 1010 78 10000 2.57 70 16:20 16.11.2021
4736 Clouds 28 1010 76 10000 0.89 359 15:43 16.11.2021
4737 Clouds 28 1009 75 10000 0.45 4 13:46 16.11.2021
4738 Clouds 30 1007 68 10000 0.45 67 10:27 16.11.2021
4739 Clouds 31 1007 66 10000 3.6 0 09:41 16.11.2021
4740 Clouds 33 1007 60 10000 7.15 231 07:47 16.11.2021
4741 Clouds 33 1007 59 10000 4.02 224 07:28 16.11.2021
4742 Clouds 27 1009 79 10000 1.03 0 23:53 15.11.2021
4743 Clouds 26 1008 81 10000 1.03 110 22:41 15.11.2021
4744 Clouds 26 1008 81 10000 1.03 110 22:19 15.11.2021
4745 Clouds 26 1007 79 10000 0.89 335 21:31 15.11.2021
4746 Clouds 26 1008 81 10000 1.54 80 20:43 15.11.2021
4747 Clouds 26 1008 82 10000 0.89 65 19:25 15.11.2021
4748 Clouds 27 1009 78 10000 1.54 110 17:33 15.11.2021
4749 Clouds 28 1009 76 10000 2.06 110 15:52 15.11.2021
4750 Clouds 28 1009 76 10000 2.06 110 15:33 15.11.2021
4751 Clouds 28 1009 75 10000 0.51 0 14:27 15.11.2021
4752 Clouds 28 1008 75 10000 1.54 70 12:37 15.11.2021
4753 Clouds 29 1007 74 10000 2.57 20 09:59 15.11.2021
4754 Clouds 30 1008 76 10000 2.57 20 09:19 15.11.2021
4755 Clouds 31 1007 65 10000 1.79 52 06:54 15.11.2021
4756 Clouds 28 1010 71 10000 0.45 18 00:37 15.11.2021
4757 Clouds 27 1009 77 10000 1.54 100 22:44 14.11.2021
4758 Clouds 27 1008 75 10000 1.54 50 21:18 14.11.2021
4759 Clouds 28 1008 74 10000 2.57 120 19:18 14.11.2021
4760 Clouds 28 1009 73 10000 3.6 120 18:54 14.11.2021
4761 Clouds 28 1009 73 10000 3.6 120 18:36 14.11.2021
4762 Clouds 28 1009 73 10000 3.6 120 18:18 14.11.2021
4763 Clouds 28 1009 72 10000 3.6 120 17:58 14.11.2021
4764 Clouds 28 1009 71 10000 3.6 120 17:39 14.11.2021
4765 Clouds 29 1009 72 10000 3.6 120 17:21 14.11.2021
4766 Clouds 29 1010 72 10000 3.09 130 16:57 14.11.2021
4767 Clouds 29 1010 72 10000 3.09 130 16:39 14.11.2021
4768 Clouds 29 1010 71 10000 3.09 130 16:18 14.11.2021
4769 Clouds 29 1010 74 10000 2.06 120 15:19 14.11.2021
4770 Clouds 29 1010 70 10000 2.06 120 14:43 14.11.2021
4771 Clouds 29 1010 71 10000 2.06 120 14:20 14.11.2021
4772 Clouds 29 1010 70 10000 3.09 110 13:51 14.11.2021
4773 Clouds 29 1010 69 10000 3.09 110 13:26 14.11.2021
4774 Clouds 29 1009 69 10000 3.09 110 12:22 14.11.2021
4775 Clouds 30 1008 67 10000 2.06 0 10:54 14.11.2021
4776 Clouds 30 1008 68 10000 2.06 0 10:31 14.11.2021
4777 Clouds 31 1007 69 10000 2.24 330 09:22 14.11.2021
4778 Clouds 31 1007 68 10000 2.68 227 08:46 14.11.2021
4779 Clouds 31 1010 68 10000 2.68 230 04:46 14.11.2021
4780 Clouds 26 1010 81 10000 0 0 22:31 13.11.2021
4781 Clouds 27 1009 79 10000 0 0 21:59 13.11.2021
4782 Clouds 27 1009 79 10000 0 0 21:30 13.11.2021
4783 Clouds 27 1009 78 10000 0.51 0 20:26 13.11.2021
4784 Clouds 27 1010 77 10000 0.51 0 18:54 13.11.2021
4785 Clouds 27 1010 77 10000 0.51 0 18:28 13.11.2021
4786 Clouds 27 1010 76 10000 0.51 0 17:34 13.11.2021
4787 Clouds 28 1011 74 10000 0.45 3 15:45 13.11.2021
4788 Clouds 28 1011 74 10000 1.54 130 14:41 13.11.2021
4789 Clouds 29 1010 73 10000 0.45 16 13:46 13.11.2021
4790 Clouds 29 1010 69 10000 3.09 110 12:41 13.11.2021
4791 Clouds 29 1009 69 10000 3.6 110 11:46 13.11.2021
4792 Clouds 30 1008 68 10000 1.79 191 10:57 13.11.2021
4793 Clouds 30 1008 68 10000 3.09 130 10:29 13.11.2021
4794 Clouds 30 1008 68 10000 1.34 4 09:43 13.11.2021
4795 Clouds 30 1008 71 10000 1.34 348 09:22 13.11.2021
4796 Clouds 31 1008 69 10000 3.13 354 08:41 13.11.2021
4797 Clouds 30 1008 72 9000 4.63 120 07:25 13.11.2021
4798 Clouds 32 1010 63 10000 0.45 348 04:37 13.11.2021
4799 Clouds 30 1012 65 10000 2.24 332 02:41 13.11.2021
4800 Clouds 27 1010 78 10000 1.03 0 23:33 12.11.2021
4801 Clouds 27 1009 79 10000 0.89 6 21:52 12.11.2021
4802 Clouds 27 1009 77 10000 1.03 0 20:35 12.11.2021
4803 Clouds 28 1010 74 10000 0.45 4 19:31 12.11.2021
4804 Clouds 28 1010 74 10000 1.54 120 18:54 12.11.2021
4805 Clouds 28 1010 74 10000 1.54 100 17:36 12.11.2021
4806 Clouds 28 1011 72 10000 0.45 355 15:51 12.11.2021
4807 Clouds 29 1011 71 10000 1.34 7 13:26 12.11.2021
4808 Clouds 29 1009 71 10000 2.68 55 11:23 12.11.2021
4809 Clouds 30 1008 70 10000 1.79 88 09:54 12.11.2021
4810 Clouds 29 1008 78 8000 1.79 1 08:45 12.11.2021
4811 Clouds 32 1009 62 10000 0.89 319 06:34 12.11.2021
4812 Clouds 27 1010 76 10000 0.45 2 23:43 11.11.2021
4813 Clouds 27 1010 76 10000 0.45 2 23:43 11.11.2021
4814 Clouds 27 1010 75 10000 1.54 80 22:46 11.11.2021
4815 Clouds 27 1010 75 10000 1.54 80 22:46 11.11.2021
4816 Clouds 28 1009 73 10000 1.54 100 21:29 11.11.2021
4817 Clouds 28 1009 73 10000 1.54 110 20:51 11.11.2021
4818 Clouds 28 1009 68 10000 2.76 73 19:36 11.11.2021
4819 Clouds 28 1009 70 10000 2.06 80 18:25 11.11.2021
4820 Clouds 28 1010 69 10000 2.06 110 17:37 11.11.2021
4821 Clouds 29 1011 67 10000 2.57 120 15:20 11.11.2021
4822 Clouds 28 1010 66 10000 3.77 86 14:36 11.11.2021
4823 Clouds 28 1010 65 10000 3.85 90 14:18 11.11.2021
4824 Clouds 29 1010 64 10000 1.54 110 13:34 11.11.2021
4825 Clouds 30 1009 64 10000 1.34 70 11:57 11.11.2021
4826 Clouds 32 1007 58 10000 4.02 92 09:54 11.11.2021
4827 Clouds 33 1006 62 10000 2.24 199 08:21 11.11.2021
4828 Clouds 33 1008 57 10000 3.13 342 06:19 11.11.2021
4829 Clouds 28 1010 73 10000 1.03 0 00:36 11.11.2021
4830 Clouds 26 1009 80 10000 0.45 358 22:32 10.11.2021
4831 Clouds 26 1009 81 10000 3.09 60 21:33 10.11.2021
4832 Clouds 27 1009 75 10000 1.54 90 20:51 10.11.2021
4833 Clouds 27 1009 75 10000 2.57 120 19:48 10.11.2021
4834 Clouds 27 1009 75 10000 2.57 120 19:30 10.11.2021
4835 Clouds 28 1010 73 10000 2.57 130 16:40 10.11.2021
4836 Clouds 29 1011 71 10000 2.57 120 15:46 10.11.2021
4837 Clouds 29 1011 69 10000 2.57 120 14:22 10.11.2021
4838 Clouds 29 1010 68 10000 2.06 120 13:26 10.11.2021
4839 Clouds 30 1009 66 10000 0.89 35 11:38 10.11.2021
4840 Clouds 31 1008 65 10000 3.09 300 08:59 10.11.2021
4841 Clouds 31 1008 66 10000 1.34 358 08:39 10.11.2021
4842 Clouds 32 1009 65 10000 4.02 0 06:41 10.11.2021
4843 Clouds 31 1009 65 9000 4.02 352 05:52 10.11.2021
4844 Clouds 29 1012 62 10000 0.51 0 01:24 10.11.2021
4845 Clouds 26 1010 77 10000 1.54 70 21:58 09.11.2021
4846 Clouds 27 1009 72 10000 1.54 100 20:32 09.11.2021
4847 Clouds 27 1009 74 10000 1.03 0 19:26 09.11.2021
4848 Clouds 27 1009 72 10000 1.03 100 18:44 09.11.2021
4849 Clouds 28 1010 70 10000 1.54 140 16:27 09.11.2021
4850 Clouds 29 1011 69 10000 1.03 100 14:58 09.11.2021
4851 Clouds 29 1010 68 10000 1.54 100 13:21 09.11.2021
4852 Clouds 30 1010 65 10000 3.09 100 11:59 09.11.2021
4853 Clouds 31 1009 61 10000 0.45 321 10:46 09.11.2021
4854 Clouds 32 1008 56 10000 2.24 96 09:40 09.11.2021
4855 Clouds 33 1008 52 10000 4.02 112 08:27 09.11.2021
4856 Clouds 34 1010 52 10000 0.89 16 05:58 09.11.2021
4857 Clouds 29 1011 73 10000 3.13 77 02:28 09.11.2021
4858 Clouds 28 1011 78 10000 4.02 86 01:48 09.11.2021
4859 Clouds 27 1010 79 10000 1.54 200 00:18 09.11.2021
4860 Clouds 27 1010 76 10000 1.03 0 22:59 08.11.2021
4861 Clouds 27 1009 75 10000 1.03 0 22:32 08.11.2021
4862 Clouds 27 1008 75 10000 0 0 21:20 08.11.2021
4863 Clouds 28 1008 75 10000 0.45 58 19:56 08.11.2021
4864 Clouds 28 1009 73 10000 2.06 120 18:57 08.11.2021
4865 Clouds 28 1010 76 10000 1.54 80 17:22 08.11.2021
4866 Clouds 28 1010 77 10000 0 0 15:27 08.11.2021
4867 Clouds 28 1010 76 10000 1.03 0 14:43 08.11.2021
4868 Clouds 28 1010 77 10000 2.06 270 13:56 08.11.2021
4869 Clouds 28 1009 76 10000 1.03 0 12:44 08.11.2021
4870 Clouds 28 1008 77 10000 3.09 120 11:26 08.11.2021
4871 Clouds 31 1007 69 10000 2.06 140 09:59 08.11.2021
4872 Clouds 31 1007 65 10000 3.09 0 08:55 08.11.2021
4873 Clouds 32 1007 65 10000 0.45 9 07:36 08.11.2021
4874 Clouds 33 1008 64 10000 0.45 39 06:20 08.11.2021
4875 Clouds 30 1010 71 10000 1.34 338 03:33 08.11.2021
4876 Clouds 26 1009 85 10000 1.54 60 23:51 07.11.2021
4877 Rain 26 1008 86 10000 1.03 0 22:26 07.11.2021
4878 Rain 26 1008 88 10000 1.03 0 21:21 07.11.2021
4879 Rain 26 1009 86 9000 0.45 1 19:55 07.11.2021
4880 Rain 27 1009 86 8000 0.45 192 18:26 07.11.2021
4881 Clouds 28 1008 76 10000 0.89 54 17:38 07.11.2021
4882 Clouds 28 1009 76 10000 0.45 39 15:55 07.11.2021
4883 Clouds 29 1009 73 10000 1.03 0 14:40 07.11.2021
4884 Clouds 28 1008 73 10000 0 0 13:54 07.11.2021
4885 Clouds 29 1007 77 10000 0.45 356 11:49 07.11.2021
4886 Clouds 30 1007 68 10000 3.6 130 09:58 07.11.2021
4887 Clouds 30 1007 65 10000 2.68 24 08:45 07.11.2021
4888 Clouds 31 1009 65 10000 1.34 14 02:46 07.11.2021
4889 Clouds 27 1008 77 10000 1.03 0 23:42 06.11.2021
4890 Clouds 27 1007 78 10000 0.51 0 22:52 06.11.2021
4891 Clouds 27 1007 78 10000 0.51 0 21:36 06.11.2021
4892 Clouds 27 1007 77 10000 0 0 20:52 06.11.2021
4893 Clouds 28 1008 75 10000 2.06 110 18:56 06.11.2021
4894 Clouds 28 1008 75 10000 2.06 110 18:56 06.11.2021
4895 Clouds 29 1008 74 10000 1.54 130 17:18 06.11.2021
4896 Clouds 29 1008 74 10000 2.06 120 15:21 06.11.2021
4897 Clouds 30 1007 69 10000 3.55 112 13:38 06.11.2021
4898 Clouds 30 1006 69 10000 3.09 120 12:28 06.11.2021
4899 Clouds 33 1005 63 10000 4.12 130 09:33 06.11.2021
4900 Clouds 34 1005 59 10000 2.24 218 07:57 06.11.2021
4901 Clouds 31 1008 63 10000 0.89 252 02:40 06.11.2021
4902 Clouds 27 1008 79 10000 0.45 356 23:38 05.11.2021
4903 Clouds 27 1007 82 10000 1.03 0 22:39 05.11.2021
4904 Clouds 28 1007 80 10000 0.45 30 21:50 05.11.2021
4905 Clouds 28 1007 78 10000 0 0 20:20 05.11.2021
4906 Clouds 28 1007 77 10000 1.03 0 19:48 05.11.2021
4907 Clouds 28 1007 75 10000 2.06 90 18:41 05.11.2021
4908 Clouds 28 1008 76 10000 2.06 100 17:30 05.11.2021
4909 Clouds 29 1008 75 10000 2.06 120 15:43 05.11.2021
4910 Clouds 29 1009 75 10000 2.06 130 13:38 05.11.2021
4911 Clouds 30 1006 68 10000 3.09 100 11:27 05.11.2021
4912 Clouds 32 1007 63 10000 3.6 110 08:40 05.11.2021
4913 Clouds 32 1007 62 10000 3.6 110 07:39 05.11.2021
4914 Clouds 32 1009 69 10000 2.06 0 05:32 05.11.2021
4915 Clouds 31 1009 65 10000 3.13 351 02:26 05.11.2021
4916 Clouds 28 1009 73 10000 1.79 358 00:51 05.11.2021
4917 Clouds 27 1008 72 10000 2.24 17 23:23 04.11.2021
4918 Clouds 27 1007 75 10000 3.58 2 22:19 04.11.2021
4919 Clouds 28 1007 72 10000 2.68 5 21:35 04.11.2021
4920 Clouds 28 1007 72 10000 1.34 354 20:41 04.11.2021
4921 Clouds 28 1007 71 10000 2.68 6 20:21 04.11.2021
4922 Clouds 28 1008 71 10000 3.13 358 19:44 04.11.2021
4923 Clouds 28 1010 72 10000 1.03 0 18:44 04.11.2021
4924 Clouds 28 1010 71 10000 1.34 11 17:48 04.11.2021
4925 Clouds 28 1010 68 10000 0.89 357 16:47 04.11.2021
4926 Clouds 29 1010 65 10000 1.54 120 14:38 04.11.2021
4927 Clouds 29 1009 64 10000 0.45 17 12:32 04.11.2021
4928 Clouds 32 1007 56 10000 5.36 2 09:31 04.11.2021
4929 Clouds 33 1007 57 10000 2.68 12 08:30 04.11.2021
4930 Clouds 33 1008 54 10000 5.81 78 07:34 04.11.2021
4931 Clouds 27 1010 81 10000 1.34 11 23:59 03.11.2021
4932 Clouds 27 1009 81 10000 0.45 357 22:50 03.11.2021
4933 Clouds 28 1009 77 10000 1.54 210 21:49 03.11.2021
4934 Clouds 28 1009 78 10000 1.54 210 21:28 03.11.2021
4935 Clouds 28 1009 76 10000 1.03 250 20:35 03.11.2021
4936 Clouds 28 1009 76 10000 0.51 0 19:47 03.11.2021
4937 Clouds 28 1010 76 10000 0.51 0 18:56 03.11.2021
4938 Clouds 28 1010 75 10000 0.51 0 18:21 03.11.2021
4939 Clouds 28 1010 78 10000 0 0 17:35 03.11.2021
4940 Clouds 28 1011 73 10000 0.89 359 16:25 03.11.2021
4941 Clouds 29 1011 71 10000 1.54 90 15:42 03.11.2021
4942 Clouds 29 1010 69 10000 0.45 74 13:49 03.11.2021
4943 Clouds 30 1009 66 10000 0.45 20 11:39 03.11.2021
4944 Clouds 31 1008 61 10000 2.68 8 10:53 03.11.2021
4945 Clouds 31 1008 60 10000 2.68 34 10:28 03.11.2021
4946 Clouds 33 1007 55 10000 3.13 24 09:30 03.11.2021
4947 Clouds 33 1008 53 10000 0.89 3 08:22 03.11.2021
4948 Clouds 33 1008 53 10000 1.79 26 07:39 03.11.2021
4949 Clouds 33 1011 55 10000 1.34 335 04:26 03.11.2021
4950 Clouds 30 1013 60 10000 0.89 14 01:49 03.11.2021
4951 Clouds 30 1013 60 10000 0.89 14 01:49 03.11.2021
4952 Clouds 25 1011 74 10000 0.89 353 23:33 02.11.2021
4953 Clouds 25 1010 75 10000 0.51 0 22:29 02.11.2021
4954 Clouds 26 1010 73 10000 0.45 13 20:54 02.11.2021
4955 Clouds 26 1010 75 10000 0.51 0 20:30 02.11.2021
4956 Clouds 26 1010 74 10000 0.45 5 19:47 02.11.2021
4957 Clouds 27 1011 71 10000 3.09 20 18:51 02.11.2021
4958 Clouds 27 1012 72 10000 2.68 354 17:58 02.11.2021
4959 Clouds 27 1012 72 10000 1.34 6 17:32 02.11.2021
4960 Clouds 27 1012 71 10000 1.79 11 16:29 02.11.2021
4961 Clouds 27 1013 73 10000 1.34 358 14:59 02.11.2021
4962 Clouds 28 1012 65 10000 4.81 73 13:50 02.11.2021
4963 Clouds 28 1012 65 10000 4.7 77 13:26 02.11.2021
4964 Clouds 28 1011 62 10000 1.34 2 12:33 02.11.2021
4965 Clouds 30 1010 59 10000 1.34 77 11:31 02.11.2021
4966 Clouds 30 1010 56 10000 5.14 90 10:51 02.11.2021
4967 Clouds 30 1010 55 10000 2.24 19 10:23 02.11.2021
4968 Clouds 33 1009 49 10000 2.24 85 08:42 02.11.2021
4969 Clouds 33 1010 51 10000 1.79 279 06:42 02.11.2021
4970 Clouds 31 1012 63 10000 0.89 258 03:33 02.11.2021
4971 Clouds 27 1012 75 10000 1.54 30 00:58 02.11.2021
4972 Clouds 26 1010 80 10000 1.54 10 22:28 01.11.2021
4973 Clouds 26 1010 83 10000 2.06 60 20:50 01.11.2021
4974 Clouds 26 1010 83 10000 0.45 15 20:32 01.11.2021
4975 Clouds 27 1011 80 10000 0.89 7 19:44 01.11.2021
4976 Clouds 27 1011 81 10000 1.34 0 18:55 01.11.2021
4977 Clouds 27 1012 79 10000 0.45 289 17:59 01.11.2021
4978 Clouds 27 1012 80 10000 0.45 12 17:18 01.11.2021
4979 Clouds 27 1013 80 10000 0.45 16 16:34 01.11.2021
4980 Clouds 28 1013 77 10000 1.34 34 15:44 01.11.2021
4981 Clouds 28 1013 76 10000 0.45 28 15:19 01.11.2021
4982 Clouds 28 1012 75 10000 2.06 120 14:40 01.11.2021
4983 Clouds 28 1012 74 10000 0.45 31 14:19 01.11.2021
4984 Clouds 28 1012 74 10000 0.45 31 14:19 01.11.2021
4985 Clouds 29 1011 65 10000 0.45 16 12:53 01.11.2021
4986 Clouds 30 1011 61 10000 2.24 57 11:39 01.11.2021
4987 Clouds 31 1010 58 10000 0.89 45 10:21 01.11.2021
4988 Clouds 33 1009 55 10000 2.68 44 08:23 01.11.2021
4989 Clouds 33 1009 55 10000 1.79 6 07:47 01.11.2021
4990 Clouds 30 1013 71 10000 0.89 40 03:55 01.11.2021
4991 Clouds 30 1013 69 10000 2.68 299 03:36 01.11.2021
4992 Clouds 25 1013 85 5000 2.06 70 23:58 31.10.2021
4993 Clouds 26 1012 84 10000 0 0 20:59 31.10.2021
4994 Clouds 26 1012 80 10000 0.51 0 19:54 31.10.2021
4995 Clouds 27 1012 78 10000 1.54 0 18:43 31.10.2021
4996 Clouds 27 1012 77 10000 0.45 49 18:21 31.10.2021
4997 Clouds 27 1013 76 10000 0.51 0 16:47 31.10.2021
4998 Clouds 28 1013 75 10000 2.06 70 14:53 31.10.2021
4999 Clouds 28 1013 66 10000 2.57 80 12:56 31.10.2021
5000 Clouds 29 1012 63 10000 3.6 80 11:56 31.10.2021
5001 Clouds 30 1011 58 10000 0.45 42 10:48 31.10.2021
5002 Clouds 32 1010 58 10000 2.68 56 09:26 31.10.2021
5003 Clouds 32 1010 56 10000 1.79 95 08:45 31.10.2021
5004 Clear 31 1014 56 10000 0.45 83 02:52 31.10.2021
5005 Clouds 26 1013 76 10000 0.45 36 00:32 31.10.2021
5006 Clouds 26 1012 76 10000 3.8 88 22:20 30.10.2021
5007 Clouds 26 1012 78 10000 1.03 0 21:27 30.10.2021
5008 Clouds 27 1012 77 10000 1.03 0 19:42 30.10.2021
5009 Clouds 28 1013 72 10000 2.57 110 17:49 30.10.2021
5010 Clouds 28 1013 70 10000 2.57 110 15:42 30.10.2021
5011 Clouds 29 1013 67 10000 3.09 110 13:59 30.10.2021
5012 Clouds 29 1013 67 10000 3.09 110 13:59 30.10.2021
5013 Clouds 29 1013 66 10000 3.09 110 13:38 30.10.2021
5014 Clouds 29 1013 66 10000 3.09 110 13:20 30.10.2021
5015 Clouds 30 1011 61 10000 0.45 2 11:49 30.10.2021
5016 Clouds 31 1011 59 10000 2.24 12 10:56 30.10.2021
5017 Clouds 31 1011 60 10000 4.47 24 08:57 30.10.2021
5018 Clouds 31 1012 61 10000 3.13 305 07:56 30.10.2021
5019 Clouds 32 1013 59 10000 1.79 25 05:46 30.10.2021
5020 Clouds 29 1014 63 10000 1.79 356 02:59 30.10.2021
5021 Clouds 26 1012 77 10000 0.51 0 23:21 29.10.2021
5022 Clouds 26 1012 75 10000 0 0 22:34 29.10.2021
5023 Clouds 26 1012 74 10000 0 0 21:18 29.10.2021
5024 Clouds 27 1012 73 10000 0.45 23 20:32 29.10.2021
5025 Clouds 26 1012 74 10000 2.06 30 19:26 29.10.2021
5026 Clouds 27 1013 73 10000 0.89 346 17:43 29.10.2021
5027 Clouds 28 1013 69 10000 2.57 100 15:42 29.10.2021
5028 Clouds 30 1011 60 10000 4.63 80 12:50 29.10.2021
5029 Clouds 32 1011 50 10000 5.66 70 10:46 29.10.2021
5030 Clouds 33 1010 51 10000 0.89 52 09:45 29.10.2021
5031 Clouds 29 1014 62 10000 2.68 74 02:22 29.10.2021
5032 Clouds 27 1012 72 10000 1.79 357 00:30 29.10.2021
5033 Clouds 26 1011 75 10000 1.34 357 22:27 28.10.2021
5034 Clouds 26 1011 75 10000 0.89 56 20:59 28.10.2021
5035 Clouds 27 1012 73 10000 1.34 24 19:52 28.10.2021
5036 Clouds 27 1012 73 10000 1.34 24 19:52 28.10.2021
5037 Clouds 27 1012 71 10000 1.54 100 18:46 28.10.2021
5038 Clouds 27 1013 72 10000 1.54 100 17:38 28.10.2021
5039 Clouds 27 1013 73 10000 1.54 70 16:38 28.10.2021
5040 Clouds 28 1012 71 10000 1.34 70 14:40 28.10.2021
5041 Clouds 28 1012 73 10000 3.13 105 13:33 28.10.2021
5042 Clouds 28 1011 72 10000 3.13 77 12:49 28.10.2021
5043 Clouds 29 1010 73 10000 4.92 72 11:37 28.10.2021
5044 Clouds 30 1009 68 10000 1.79 1 10:23 28.10.2021
5045 Clouds 30 1009 68 10000 2.24 20 09:36 28.10.2021
5046 Clouds 30 1009 68 10000 1.34 71 08:36 28.10.2021
5047 Clouds 29 1010 73 9000 3.13 342 07:41 28.10.2021
5048 Clouds 28 1012 69 10000 1.34 353 01:37 28.10.2021
5049 Clouds 26 1010 74 10000 1.03 220 22:47 27.10.2021
5050 Clouds 26 1010 75 10000 0 0 21:52 27.10.2021
5051 Clouds 26 1010 74 10000 0 0 21:18 27.10.2021
5052 Clouds 26 1010 76 10000 0.51 0 20:40 27.10.2021
5053 Clouds 27 1010 74 10000 1.54 120 19:45 27.10.2021
5054 Clouds 28 1011 73 10000 1.54 100 18:55 27.10.2021
5055 Clouds 28 1011 71 10000 1.54 140 17:39 27.10.2021
5056 Clouds 28 1011 72 10000 2.57 120 16:25 27.10.2021
5057 Clouds 28 1011 70 10000 2.06 120 15:24 27.10.2021
5058 Clouds 29 1010 70 10000 2.06 130 14:20 27.10.2021
5059 Clouds 31 1009 59 10000 1.34 359 11:18 27.10.2021
5060 Clouds 32 1009 54 10000 2.24 55 10:36 27.10.2021
5061 Clouds 33 1009 53 10000 1.79 65 09:21 27.10.2021
5062 Clouds 32 1010 60 10000 0.45 113 07:44 27.10.2021
5063 Clouds 31 1012 63 10000 1.79 352 05:38 27.10.2021
5064 Clouds 27 1012 82 10000 0 0 01:21 27.10.2021
5065 Clouds 26 1011 85 10000 0.51 0 00:54 27.10.2021
5066 Clouds 26 1011 85 10000 1.03 0 23:52 26.10.2021
5067 Clouds 25 1010 85 10000 1.03 160 22:44 26.10.2021
5068 Clouds 26 1010 85 10000 1.03 160 22:21 26.10.2021
5069 Clouds 26 1010 83 10000 0 0 21:32 26.10.2021
5070 Clouds 26 1010 82 10000 1.03 220 19:48 26.10.2021
5071 Clouds 26 1011 82 10000 1.54 260 18:54 26.10.2021
5072 Clouds 27 1011 80 10000 0.51 0 17:58 26.10.2021
5073 Clouds 27 1011 77 10000 1.03 0 15:49 26.10.2021
5074 Clouds 28 1010 68 10000 3.09 70 12:55 26.10.2021
5075 Clouds 29 1009 68 10000 2.06 70 10:54 26.10.2021
5076 Rain 30 1009 72 10000 0.89 304 08:24 26.10.2021
5077 Clouds 31 1009 65 10000 0.89 335 07:22 26.10.2021
5078 Clouds 25 1010 90 10000 0.51 0 00:19 26.10.2021
5079 Clouds 25 1009 92 10000 1.03 200 23:36 25.10.2021
5080 Clouds 25 1009 92 10000 1.03 190 22:29 25.10.2021
5081 Clouds 25 1009 92 9000 0.51 250 21:42 25.10.2021
5082 Clouds 25 1009 89 10000 0.51 80 20:37 25.10.2021
5083 Clouds 25 1009 89 10000 1.03 130 19:43 25.10.2021
5084 Clouds 25 1009 89 10000 1.03 130 19:22 25.10.2021
5085 Clouds 25 1010 87 10000 1.03 40 18:38 25.10.2021
5086 Clouds 26 1010 86 10000 2.06 80 17:26 25.10.2021
5087 Clouds 27 1010 80 10000 2.57 110 14:48 25.10.2021
5088 Clouds 27 1009 84 10000 3.09 110 12:31 25.10.2021
5089 Clouds 27 1008 86 10000 1.54 150 10:47 25.10.2021
5090 Clouds 26 1009 94 8000 1.03 0 08:58 25.10.2021
5091 Rain 25 1011 100 8000 1.54 110 06:28 25.10.2021
5092 Rain 25 1011 100 8000 1.54 110 06:28 25.10.2021
5093 Rain 25 1011 100 8000 1.54 110 06:28 25.10.2021
5094 Rain 26 1012 94 5000 2.57 210 04:35 25.10.2021
5095 Clouds 26 1009 87 10000 0.89 14 00:51 25.10.2021
5096 Clouds 25 1009 87 10000 0.45 348 00:33 25.10.2021
5097 Clouds 25 1008 85 10000 1.03 240 23:33 24.10.2021
5098 Clouds 26 1008 85 10000 1.03 0 22:38 24.10.2021
5099 Clouds 25 1008 85 10000 2.06 48 22:19 24.10.2021
5100 Clouds 26 1008 84 10000 0.89 5 20:57 24.10.2021
5101 Clouds 26 1008 85 10000 0.45 3 20:32 24.10.2021
5102 Clouds 26 1009 84 10000 2.06 40 19:36 24.10.2021
5103 Clouds 26 1010 82 10000 2.06 50 18:29 24.10.2021
5104 Clouds 27 1010 77 10000 2.06 110 17:43 24.10.2021
5105 Clouds 27 1010 81 10000 2.06 130 15:56 24.10.2021
5106 Clouds 27 1010 59 10000 3.09 120 14:41 24.10.2021
5107 Clouds 28 1009 79 10000 1.54 170 12:58 24.10.2021
5108 Clouds 28 1008 77 10000 2.06 280 11:44 24.10.2021
5109 Clouds 29 1008 71 10000 0.45 275 10:56 24.10.2021
5110 Clouds 29 1008 72 10000 3.19 39 10:27 24.10.2021
5111 Rain 27 1009 79 9000 2.24 93 07:47 24.10.2021
5112 Clouds 26 1011 84 10000 1.03 0 01:21 24.10.2021
5113 Clouds 25 1009 86 10000 0.45 356 23:47 23.10.2021
5114 Clouds 26 1009 82 10000 0.51 0 22:18 23.10.2021
5115 Clouds 26 1009 78 10000 0 0 20:37 23.10.2021
5116 Clouds 27 1011 76 10000 1.03 0 18:59 23.10.2021
5117 Clouds 27 1011 76 10000 1.03 0 18:29 23.10.2021
5118 Clouds 27 1011 80 10000 3.6 130 17:43 23.10.2021
5119 Clouds 27 1011 80 10000 3.09 90 16:23 23.10.2021
5120 Clouds 26 1011 85 10000 2.06 90 14:27 23.10.2021
5121 Clouds 32 1011 61 10000 1.34 91 03:34 23.10.2021
5122 Clouds 26 1010 80 10000 2.57 20 00:19 23.10.2021
5123 Clouds 27 1009 78 10000 1.03 0 22:53 22.10.2021
5124 Clouds 27 1009 75 10000 1.54 110 20:37 22.10.2021
5125 Clouds 27 1011 73 10000 1.54 120 18:44 22.10.2021
5126 Clouds 28 1011 75 10000 2.57 60 17:43 22.10.2021
5127 Clouds 29 1011 70 10000 2.06 110 15:25 22.10.2021
5128 Clouds 30 1011 64 10000 2.57 90 13:48 22.10.2021
5129 Clouds 31 1009 59 10000 3.13 92 11:18 22.10.2021
5130 Clouds 31 1009 62 10000 1.34 9 10:41 22.10.2021
5131 Clouds 32 1009 65 10000 1.79 17 09:56 22.10.2021
5132 Clouds 31 1009 67 10000 1.79 225 08:36 22.10.2021
5133 Clouds 32 1009 64 10000 4.92 343 07:22 22.10.2021
5134 Clouds 29 1012 72 10000 0.89 356 02:57 22.10.2021
5135 Clouds 25 1010 82 9000 1.03 0 23:54 21.10.2021
5136 Clouds 25 1010 81 9000 1.03 0 23:29 21.10.2021
5137 Clouds 26 1010 84 10000 1.03 90 21:50 21.10.2021
5138 Clouds 26 1010 85 10000 1.54 250 20:28 21.10.2021
5139 Clouds 26 1011 85 10000 0.45 11 19:58 21.10.2021
5140 Clouds 26 1011 85 10000 1.03 0 19:28 21.10.2021
5141 Clouds 26 1011 87 10000 0.51 0 18:45 21.10.2021
5142 Clouds 26 1012 84 10000 2.06 20 17:54 21.10.2021
5143 Clouds 26 1012 84 10000 0.45 10 17:33 21.10.2021
5144 Clouds 27 1012 83 10000 0.45 359 15:35 21.10.2021
5145 Clouds 28 1012 83 10000 1.79 351 14:58 21.10.2021
5146 Clouds 28 1012 83 10000 0.89 359 14:37 21.10.2021
5147 Clouds 29 1011 79 10000 0.45 338 12:51 21.10.2021
5148 Clouds 27 1009 82 9000 2.06 110 09:58 21.10.2021
5149 Clouds 31 1009 73 10000 1.34 225 08:21 21.10.2021
5150 Clouds 31 1009 67 10000 1.34 211 07:23 21.10.2021
5151 Clouds 30 1012 68 10000 0.89 344 03:24 21.10.2021
5152 Clouds 27 1011 82 10000 0.45 36 23:25 20.10.2021
5153 Clouds 27 1010 80 10000 0 0 21:51 20.10.2021
5154 Clouds 27 1010 80 10000 0 0 21:28 20.10.2021
5155 Clouds 27 1010 81 10000 1.48 65 20:46 20.10.2021
5156 Clouds 27 1010 81 10000 1.4 85 20:26 20.10.2021
5157 Clouds 27 1010 81 10000 1.78 92 19:32 20.10.2021
5158 Clouds 27 1011 84 10000 1.54 120 18:49 20.10.2021
5159 Clouds 27 1012 82 10000 1.03 0 17:40 20.10.2021
5160 Rain 28 1012 80 10000 0.45 297 15:26 20.10.2021
5161 Clouds 29 1010 75 10000 3.6 70 10:23 20.10.2021
5162 Clouds 31 1012 68 10000 0.45 319 07:43 20.10.2021
5163 Clouds 30 1013 63 10000 1.54 90 02:41 20.10.2021
5164 Clouds 27 1012 80 10000 1.54 80 00:35 20.10.2021
5165 Clouds 27 1011 81 10000 1.03 0 23:32 19.10.2021
5166 Clouds 27 1011 83 10000 1.54 80 21:41 19.10.2021
5167 Clouds 28 1012 80 10000 2.57 100 20:45 19.10.2021
5168 Clouds 28 1012 77 10000 2.57 100 20:22 19.10.2021
5169 Clouds 28 1012 78 10000 2.57 110 19:39 19.10.2021
5170 Clouds 28 1013 77 10000 3.09 120 18:47 19.10.2021
5171 Clouds 28 1013 77 10000 2.06 0 17:56 19.10.2021
5172 Clouds 29 1014 72 10000 2.06 110 15:38 19.10.2021
5173 Clouds 29 1014 72 10000 2.06 110 15:18 19.10.2021
5174 Clouds 30 1012 72 10000 2.57 110 13:57 19.10.2021
5175 Clouds 31 1012 67 10000 3.09 120 12:34 19.10.2021
5176 Clouds 32 1011 62 10000 3.6 110 11:31 19.10.2021
5177 Clouds 32 1010 60 10000 3.13 350 09:55 19.10.2021
5178 Clouds 33 1010 61 10000 0.45 2 08:57 19.10.2021
5179 Clouds 31 1013 62 10000 2.57 0 04:25 19.10.2021
5180 Clouds 25 1012 87 9000 0 0 00:22 19.10.2021
5181 Clouds 25 1012 90 9000 0 0 23:49 18.10.2021
5182 Clouds 25 1011 90 10000 0.51 0 22:59 18.10.2021
5183 Clouds 25 1011 89 10000 0.51 0 22:31 18.10.2021
5184 Clouds 25 1011 89 10000 0.51 0 22:31 18.10.2021
5185 Clouds 26 1012 86 10000 1.03 0 20:53 18.10.2021
5186 Clouds 26 1012 86 10000 0.45 3 20:32 18.10.2021
5187 Clouds 26 1012 86 10000 1.54 70 19:49 18.10.2021
5188 Clouds 26 1012 86 10000 1.54 70 19:22 18.10.2021
5189 Clouds 27 1013 83 10000 1.03 0 18:49 18.10.2021
5190 Clouds 27 1012 81 10000 1.03 0 14:58 18.10.2021
5191 Clouds 27 1011 81 10000 1.54 130 12:41 18.10.2021
5192 Clouds 28 1009 76 10000 3.09 110 10:26 18.10.2021
5193 Rain 29 1009 70 10000 3.09 100 09:25 18.10.2021
5194 Rain 26 1012 82 10000 1.79 65 01:35 18.10.2021
5195 Clouds 27 1010 80 10000 0 0 23:20 17.10.2021
5196 Clouds 27 1009 78 10000 1.03 80 21:45 17.10.2021
5197 Rain 28 1010 76 10000 0.45 30 20:59 17.10.2021
5198 Clouds 27 1010 76 10000 0.89 348 20:29 17.10.2021
5199 Clouds 28 1010 78 10000 0.45 356 19:38 17.10.2021
5200 Clouds 28 1010 74 10000 2.6 71 18:44 17.10.2021
5201 Clouds 28 1011 75 10000 2.24 78 17:27 17.10.2021
5202 Clouds 29 1010 75 10000 0.89 26 14:47 17.10.2021
5203 Rain 29 1010 74 10000 0.89 343 14:24 17.10.2021
5204 Clouds 29 1010 70 10000 1.34 57 13:34 17.10.2021
5205 Clouds 30 1008 71 10000 0.89 11 11:54 17.10.2021
5206 Clouds 30 1008 71 10000 0.89 11 11:54 17.10.2021
5207 Clouds 31 1008 68 10000 1.79 342 10:20 17.10.2021
5208 Clouds 32 1007 65 10000 2.24 21 09:23 17.10.2021
5209 Clouds 32 1009 65 10000 2.68 6 06:56 17.10.2021
5210 Clouds 27 1010 84 10000 0 0 00:50 17.10.2021
5211 Clouds 27 1009 84 10000 1.03 230 23:43 16.10.2021
5212 Clouds 27 1009 79 10000 0.51 0 21:29 16.10.2021
5213 Clouds 27 1009 77 10000 0.89 31 20:30 16.10.2021
5214 Clouds 27 1010 78 10000 2.06 60 19:43 16.10.2021
5215 Clouds 27 1010 78 10000 2.06 60 19:21 16.10.2021
5216 Clouds 28 1010 77 10000 0.89 351 18:51 16.10.2021
5217 Clouds 28 1010 77 10000 1.54 120 18:29 16.10.2021
5218 Clouds 28 1010 79 10000 0.51 0 17:53 16.10.2021
5219 Clouds 28 1010 79 10000 0.51 0 17:21 16.10.2021
5220 Clouds 31 1009 70 10000 0.89 347 13:59 16.10.2021
5221 Clouds 29 1007 77 10000 5.14 120 11:26 16.10.2021
5222 Clouds 32 1005 66 10000 4.02 330 09:48 16.10.2021
5223 Clouds 31 1007 70 10000 0.45 330 06:50 16.10.2021
5224 Clouds 27 1007 91 9000 1.03 0 01:25 16.10.2021
5225 Clouds 27 1007 91 9000 1.03 0 01:25 16.10.2021
5226 Clouds 27 1007 91 9000 1.03 0 01:25 16.10.2021
5227 Clouds 26 1006 92 9000 0 0 23:40 15.10.2021
5228 Clouds 26 1006 92 7000 1.03 0 22:22 15.10.2021
5229 Clouds 26 1005 92 6000 2.06 140 21:51 15.10.2021
5230 Clouds 26 1005 92 6000 2.06 140 21:21 15.10.2021
5231 Clouds 27 1005 92 7000 0 0 20:45 15.10.2021
5232 Clouds 27 1006 90 10000 1.03 0 19:23 15.10.2021
5233 Clouds 27 1006 90 10000 1.03 250 18:38 15.10.2021
5234 Clouds 27 1006 86 10000 1.03 0 16:28 15.10.2021
5235 Clouds 27 1006 85 10000 1.54 100 15:22 15.10.2021
5236 Clouds 27 1005 90 9000 0.51 0 12:31 15.10.2021
5237 Rain 27 1004 85 10000 2.53 133 11:20 15.10.2021
5238 Rain 28 1003 85 7000 0.45 235 10:42 15.10.2021
5239 Clouds 26 1003 87 10000 2.06 120 08:57 15.10.2021
5240 Clouds 32 1006 66 10000 2.57 0 05:31 15.10.2021
5241 Clouds 26 1005 92 9000 1.03 0 00:38 15.10.2021
5242 Rain 26 1004 92 9000 0.51 0 23:45 14.10.2021
5243 Rain 26 1004 92 9000 1.03 0 22:49 14.10.2021
5244 Rain 26 1005 92 9000 1.03 210 21:43 14.10.2021
5245 Rain 26 1005 90 9000 1.34 20 20:23 14.10.2021
5246 Rain 27 1006 91 10000 0.71 3 19:52 14.10.2021
5247 Rain 27 1006 90 10000 1.32 350 18:50 14.10.2021
5248 Rain 27 1006 90 9000 1.03 0 17:25 14.10.2021
5249 Clouds 27 1007 90 8000 2.06 310 16:46 14.10.2021
5250 Clouds 27 1008 94 8000 2.57 290 15:22 14.10.2021
5251 Clouds 27 1008 94 8000 0.51 0 14:40 14.10.2021
5252 Rain 27 1007 94 7000 0.51 0 13:35 14.10.2021
5253 Clouds 28 1007 90 6000 1.03 0 11:40 14.10.2021
5254 Rain 29 1006 86 9000 3.6 260 09:50 14.10.2021
5255 Rain 30 1007 71 10000 1.28 224 06:46 14.10.2021
5256 Rain 27 1007 84 10000 1.09 204 00:52 14.10.2021
5257 Clouds 26 1006 87 9000 0.51 0 22:47 13.10.2021
5258 Clouds 27 1006 86 9000 0 0 21:37 13.10.2021
5259 Rain 27 1006 86 10000 1.03 70 20:46 13.10.2021
5260 Rain 27 1006 85 10000 0.45 113 19:47 13.10.2021
5261 Clouds 27 1007 85 10000 1.03 0 18:49 13.10.2021
5262 Clouds 27 1007 85 10000 1.03 0 18:49 13.10.2021
5263 Rain 27 1008 88 10000 1.03 0 17:35 13.10.2021
5264 Clouds 27 1008 90 10000 1.03 0 15:21 13.10.2021
5265 Clouds 27 1007 90 10000 1.54 80 14:43 13.10.2021
5266 Clouds 27 1006 89 9000 1.03 0 12:48 13.10.2021
5267 Clouds 27 1006 92 8000 4.12 280 11:51 13.10.2021
5268 Clouds 29 1005 83 9000 1.34 24 10:21 13.10.2021
5269 Clouds 31 1005 62 10000 3.6 290 07:54 13.10.2021
5270 Clouds 29 1007 69 10000 1.54 60 05:40 13.10.2021
5271 Rain 27 1005 81 10000 1.37 119 02:23 13.10.2021
5272 Rain 26 1004 87 8000 1.03 0 23:51 12.10.2021
5273 Rain 26 1004 87 8000 1.03 0 23:27 12.10.2021
5274 Rain 26 1003 88 7000 1.03 0 22:41 12.10.2021
5275 Rain 26 1003 87 10000 0.51 0 20:55 12.10.2021
5276 Clouds 26 1003 87 10000 0.51 0 20:31 12.10.2021
5277 Clouds 27 1003 85 10000 1.03 0 19:45 12.10.2021
5278 Rain 27 1003 84 10000 2.06 140 18:26 12.10.2021
5279 Rain 27 1003 81 10000 1.03 0 17:29 12.10.2021
5280 Rain 28 1003 78 10000 1.54 110 16:24 12.10.2021
5281 Rain 28 1003 79 10000 2.06 140 15:35 12.10.2021
5282 Clouds 27 1002 80 10000 0.89 281 13:46 12.10.2021
5283 Clouds 27 1001 80 10000 2.06 130 13:18 12.10.2021
5284 Clouds 27 999 82 10000 1.54 0 11:30 12.10.2021
5285 Rain 26 999 83 8000 3.58 218 09:41 12.10.2021
5286 Clouds 27 998 86 7000 4.92 181 08:31 12.10.2021
5287 Rain 28 998 87 8000 5.81 216 06:46 12.10.2021
5288 Rain 27 998 81 10000 2.24 226 04:49 12.10.2021
5289 Rain 27 999 84 10000 0.89 164 04:28 12.10.2021
5290 Clouds 28 995 82 10000 2.24 214 23:56 11.10.2021
5291 Clouds 28 995 81 10000 8.49 200 23:36 11.10.2021
5292 Rain 28 995 81 10000 7.15 209 22:51 11.10.2021
5293 Rain 28 995 82 10000 9.83 206 21:27 11.10.2021
5294 Rain 28 995 83 9000 6.26 206 20:28 11.10.2021
5295 Rain 28 995 83 9000 12.07 209 19:35 11.10.2021
5296 Rain 28 996 85 9000 7.6 228 18:23 11.10.2021
5297 Rain 28 996 85 9000 7.6 228 18:23 11.10.2021
5298 Clouds 29 997 80 10000 8.49 183 16:40 11.10.2021
5299 Clouds 29 997 81 10000 8.05 176 16:20 11.10.2021
5300 Rain 30 996 80 10000 11.18 200 15:44 11.10.2021
5301 Clouds 29 996 81 10000 8.49 214 14:53 11.10.2021
5302 Clouds 29 996 80 10000 10.73 218 14:19 11.10.2021
5303 Clouds 29 997 80 10000 10.29 260 13:35 11.10.2021
5304 Rain 30 995 77 8000 1.79 306 11:18 11.10.2021
5305 Rain 29 995 73 8000 1.34 60 09:46 11.10.2021
5306 Rain 28 996 83 7000 3.13 358 07:57 11.10.2021
5307 Clouds 29 998 81 9000 0.89 288 01:44 11.10.2021
5308 Clouds 27 997 83 10000 1.03 0 00:57 11.10.2021
5309 Clouds 27 997 83 10000 1.03 0 00:39 11.10.2021
5310 Clouds 27 997 83 10000 0 0 22:35 10.10.2021
5311 Clouds 27 997 80 10000 0 0 21:49 10.10.2021
5312 Clouds 27 998 80 10000 1.03 0 20:57 10.10.2021
5313 Clouds 27 998 80 10000 1.03 0 20:38 10.10.2021
5314 Clouds 27 998 79 10000 1.03 0 20:19 10.10.2021
5315 Clouds 28 999 78 10000 0.51 170 19:40 10.10.2021
5316 Clouds 28 998 77 10000 2.15 265 18:57 10.10.2021
5317 Clouds 27 999 78 10000 1.85 263 18:19 10.10.2021
5318 Clouds 28 1001 76 10000 1.79 330 15:48 10.10.2021
5319 Rain 28 1000 74 10000 0.45 18 14:45 10.10.2021
5320 Rain 29 1001 76 10000 0.45 26 13:40 10.10.2021
5321 Clouds 29 1001 76 10000 2.24 352 12:43 10.10.2021
5322 Clouds 30 1001 79 10000 3.58 214 11:30 10.10.2021
5323 Clouds 30 1001 79 10000 3.58 214 11:30 10.10.2021
5324 Clouds 31 1000 75 10000 5.81 207 10:25 10.10.2021
5325 Clouds 32 1000 70 10000 6.26 231 09:18 10.10.2021
5326 Clouds 32 1001 70 10000 4.02 217 08:50 10.10.2021
5327 Clouds 30 1004 71 10000 2.68 185 04:31 10.10.2021
5328 Clouds 28 1005 82 10000 0.89 351 01:43 10.10.2021
5329 Clouds 27 1004 83 10000 2.24 2 00:41 10.10.2021
5330 Clouds 27 1004 83 10000 2.24 2 00:41 10.10.2021
5331 Clouds 28 1004 84 10000 3.13 3 23:23 09.10.2021
5332 Clouds 27 1004 85 10000 0.89 61 21:53 09.10.2021
5333 Clouds 27 1004 85 10000 2.24 10 21:29 09.10.2021
5334 Clouds 27 1005 83 10000 2.57 240 19:50 09.10.2021
5335 Clouds 27 1005 83 10000 0.45 230 19:31 09.10.2021
5336 Clouds 28 1005 83 10000 1.79 187 18:40 09.10.2021
5337 Clouds 27 1005 83 10000 4.02 226 17:51 09.10.2021
5338 Clouds 27 1005 82 10000 3.58 214 16:19 09.10.2021
5339 Clouds 28 1005 83 10000 2.68 219 13:48 09.10.2021
5340 Clouds 28 1005 83 10000 1.79 215 13:25 09.10.2021
5341 Clouds 29 1005 82 10000 0.89 235 11:58 09.10.2021
5342 Clouds 30 1004 74 10000 3.58 229 10:43 09.10.2021
5343 Clouds 31 1005 74 10000 5.36 205 09:54 09.10.2021
5344 Rain 30 1005 78 10000 7.15 228 08:33 09.10.2021
5345 Clouds 31 1006 75 10000 0.45 310 07:49 09.10.2021
5346 Clouds 31 1006 75 10000 0.45 310 07:49 09.10.2021
5347 Clouds 31 1006 75 10000 0.45 310 07:49 09.10.2021
5348 Clouds 32 1007 63 10000 5.36 213 05:55 09.10.2021
5349 Clouds 31 1008 67 10000 3.09 290 04:18 09.10.2021
5350 Clouds 28 1007 77 10000 3.09 330 02:43 09.10.2021
5351 Clouds 27 1006 82 10000 1.03 80 23:58 08.10.2021
5352 Clouds 27 1005 81 10000 1.03 80 23:31 08.10.2021
5353 Rain 28 1005 79 10000 0.51 0 22:42 08.10.2021
5354 Clouds 28 1005 82 10000 1.03 0 21:39 08.10.2021
5355 Clouds 28 1007 82 10000 1.54 280 19:44 08.10.2021
5356 Clouds 29 1008 79 9000 2.06 320 17:36 08.10.2021
5357 Rain 29 1008 72 9000 1.03 0 16:53 08.10.2021
5358 Rain 29 1008 72 9000 1.03 0 16:53 08.10.2021
5359 Clouds 29 1008 72 9000 1.03 0 16:24 08.10.2021
5360 Clouds 29 1007 76 8000 0.45 348 14:18 08.10.2021
5361 Rain 29 1007 76 9000 2.06 290 13:36 08.10.2021
5362 Clouds 30 1006 74 8000 2.06 300 11:40 08.10.2021
5363 Clouds 30 1006 73 8000 0.89 283 10:41 08.10.2021
5364 Clouds 31 1005 69 8000 2.68 202 09:44 08.10.2021
5365 Haze 27 1006 84 5000 1.03 0 00:34 08.10.2021
5366 Haze 26 1005 90 5000 1.03 70 23:21 07.10.2021
5367 Haze 27 1005 89 5000 0.51 0 21:46 07.10.2021
5368 Haze 27 1005 89 5000 0.51 0 21:27 07.10.2021
5369 Haze 27 1006 88 5000 0.51 0 20:28 07.10.2021
5370 Haze 27 1006 86 5000 1.03 0 19:30 07.10.2021
5371 Haze 28 1006 84 5000 0.51 0 18:24 07.10.2021
5372 Clouds 28 1007 82 7000 1.03 240 17:26 07.10.2021
5373 Clouds 28 1007 79 10000 1.35 115 15:53 07.10.2021
5374 Clouds 28 1006 80 10000 1.03 0 14:21 07.10.2021
5375 Clouds 29 1006 78 9000 2.06 310 13:38 07.10.2021
5376 Clouds 29 1006 72 9000 0.89 348 12:45 07.10.2021
5377 Rain 30 1004 69 9000 3.09 280 10:56 07.10.2021
5378 Rain 31 1004 64 10000 1.79 243 10:19 07.10.2021
5379 Rain 31 1003 64 10000 1.34 341 09:33 07.10.2021
5380 Clouds 30 1005 70 7000 4.12 270 08:41 07.10.2021
5381 Clouds 30 1006 74 8000 0.45 42 07:43 07.10.2021
5382 Clouds 31 1006 68 10000 0.45 11 07:19 07.10.2021
5383 Rain 28 1006 77 10000 2.06 140 02:26 07.10.2021
5384 Clouds 26 1005 88 10000 1.03 0 23:55 06.10.2021
5385 Clouds 27 1004 86 10000 1.03 0 22:50 06.10.2021
5386 Rain 27 1005 86 10000 1.54 130 21:53 06.10.2021
5387 Clouds 27 1005 84 10000 2.06 110 20:38 06.10.2021
5388 Clouds 28 1007 84 10000 1.54 130 19:53 06.10.2021
5389 Clouds 28 1008 85 9000 1.03 0 18:40 06.10.2021
5390 Clouds 28 1007 89 9000 1.54 100 16:56 06.10.2021
5391 Clouds 28 1007 89 9000 1.54 0 15:27 06.10.2021
5392 Clouds 28 1006 85 9000 1.54 140 13:55 06.10.2021
5393 Clouds 28 1006 86 9000 2.06 150 12:59 06.10.2021
5394 Clouds 28 1006 86 9000 2.06 150 12:40 06.10.2021
5395 Clouds 27 1007 87 10000 2 251 12:21 06.10.2021
5396 Clouds 31 1004 66 9000 2.57 90 09:59 06.10.2021
5397 Clouds 31 1004 66 9000 2.57 90 09:39 06.10.2021
5398 Clouds 29 1005 67 10000 2.24 338 08:42 06.10.2021
5399 Clouds 29 1007 74 9000 1.03 0 07:20 06.10.2021
5400 Rain 28 1008 84 8000 2.57 70 05:26 06.10.2021
5401 Clouds 26 1005 93 10000 0.51 0 00:26 06.10.2021
5402 Clouds 26 1005 93 10000 0 0 23:57 05.10.2021
5403 Clouds 26 1005 93 10000 0 0 23:57 05.10.2021
5404 Rain 26 1005 93 10000 0 0 23:38 05.10.2021
5405 Rain 26 1005 93 10000 0 0 23:19 05.10.2021
5406 Rain 26 1005 93 10000 1.03 0 22:27 05.10.2021
5407 Rain 26 1005 92 10000 0.45 25 21:44 05.10.2021
5408 Rain 26 1005 91 10000 1.54 70 20:41 05.10.2021
5409 Rain 26 1005 91 10000 0.45 351 20:22 05.10.2021
5410 Rain 27 1006 88 10000 0.45 53 19:33 05.10.2021
5411 Rain 27 1007 88 10000 0 0 18:49 05.10.2021
5412 Rain 27 1006 88 9000 0.51 0 16:36 05.10.2021
5413 Rain 27 1006 88 9000 1.03 0 14:30 05.10.2021
5414 Rain 26 1005 90 9000 1.03 0 13:33 05.10.2021
5415 Rain 27 1004 91 8000 2.57 110 12:36 05.10.2021
5416 Rain 27 1004 89 9000 0.89 215 11:59 05.10.2021
5417 Rain 28 1003 85 8000 2.06 140 10:39 05.10.2021
5418 Rain 28 1003 85 8000 2.06 140 10:39 05.10.2021
5419 Rain 28 1003 80 8000 3.58 337 08:44 05.10.2021
5420 Rain 26 1007 89 6000 1.03 0 03:55 05.10.2021
5421 Rain 25 1004 89 10000 0.45 355 23:53 04.10.2021
5422 Rain 26 1003 88 9000 1.54 50 21:58 04.10.2021
5423 Rain 27 1005 83 10000 0.45 16 19:34 04.10.2021
5424 Clouds 27 1006 84 10000 0.51 0 17:59 04.10.2021
5425 Rain 27 1006 85 10000 0.51 0 16:22 04.10.2021
5426 Rain 27 1006 84 10000 0.45 4 15:31 04.10.2021
5427 Clouds 27 1005 81 10000 0.45 357 14:42 04.10.2021
5428 Clouds 28 1005 81 10000 1.54 30 13:48 04.10.2021
5429 Clouds 28 1005 80 10000 0.89 12 13:23 04.10.2021
5430 Clouds 27 1005 85 5000 0.89 59 11:35 04.10.2021
5431 Rain 28 1005 82 10000 2.24 69 10:48 04.10.2021
5432 Clouds 30 1004 74 10000 0.45 72 09:51 04.10.2021
5433 Rain 29 1005 79 8000 2.68 349 08:33 04.10.2021
5434 Clouds 30 1007 77 9000 3.58 345 06:51 04.10.2021
5435 Rain 26 1006 89 10000 0.51 0 23:43 03.10.2021
5436 Rain 26 1006 89 8000 0.89 47 22:33 03.10.2021
5437 Rain 26 1006 89 8000 0.89 47 22:33 03.10.2021
5438 Rain 26 1005 88 9000 0.89 55 21:37 03.10.2021
5439 Clouds 26 1006 86 10000 1.03 40 20:54 03.10.2021
5440 Rain 27 1007 85 10000 0.45 44 19:56 03.10.2021
5441 Clouds 27 1007 81 10000 0.45 1 18:32 03.10.2021
5442 Clouds 27 1008 81 10000 0.45 2 17:41 03.10.2021
5443 Clouds 28 1008 80 10000 2.06 10 15:45 03.10.2021
5444 Clouds 28 1007 78 10000 2.06 10 14:39 03.10.2021
5445 Clouds 28 1007 75 10000 0.89 10 13:40 03.10.2021
5446 Clouds 28 1007 75 10000 0.45 352 13:20 03.10.2021
5447 Clouds 29 1006 74 10000 2.06 80 11:49 03.10.2021
5448 Clouds 29 1006 75 9000 0.89 48 10:33 03.10.2021
5449 Rain 29 1007 77 7000 0.89 47 07:39 03.10.2021
5450 Clouds 26 1008 85 10000 0.45 12 00:26 03.10.2021
5451 Rain 26 1006 84 10000 1.03 0 22:19 02.10.2021
5452 Rain 26 1007 84 8000 0.51 0 20:35 02.10.2021
5453 Rain 27 1009 78 8000 2.57 120 18:58 02.10.2021
5454 Rain 27 1009 77 8000 0.45 279 18:28 02.10.2021
5455 Clouds 28 1009 79 8000 3.09 70 17:38 02.10.2021
5456 Clouds 28 1009 79 8000 0.45 48 16:40 02.10.2021
5457 Clouds 29 1009 77 10000 2.06 130 14:36 02.10.2021
5458 Clouds 29 1008 84 10000 0.89 250 15:38 30.09.2021
5459 Clouds 29 1008 83 10000 3.13 229 14:42 30.09.2021
5460 Clouds 29 1007 83 9000 4.02 218 12:20 30.09.2021
5461 Rain 29 1007 80 9000 4.92 223 11:25 30.09.2021
5462 Rain 30 1006 80 8000 6.26 214 10:26 30.09.2021
5463 Rain 30 1007 77 8000 7.15 216 08:32 30.09.2021
5464 Rain 30 1007 76 8000 7.15 223 07:48 30.09.2021
5465 Clouds 31 1008 72 9000 0 300 05:25 30.09.2021
5466 Clouds 29 1008 77 9000 1.03 0 02:33 30.09.2021
5467 Clouds 26 1006 87 10000 0.51 0 00:33 30.09.2021
5468 Clouds 26 1006 90 5000 2.06 80 22:48 29.09.2021
5469 Haze 27 1006 86 5000 0 0 21:52 29.09.2021
5470 Clouds 27 1006 86 9000 1.54 230 20:38 29.09.2021
5471 Clouds 28 1006 85 9000 1.34 235 20:19 29.09.2021
5472 Clouds 28 1006 84 9000 0.45 225 19:22 29.09.2021
5473 Clouds 29 1007 82 9000 1.03 0 18:18 29.09.2021
5474 Clouds 29 1007 79 10000 3.13 219 16:55 29.09.2021
5475 Clouds 29 1007 78 10000 1.03 0 16:25 29.09.2021
5476 Clouds 30 1007 80 10000 3.58 209 14:42 29.09.2021
5477 Clouds 30 1007 80 10000 4.02 223 14:20 29.09.2021
5478 Clouds 30 1006 79 10000 1.79 211 13:33 29.09.2021
5479 Rain 30 1006 79 10000 5.81 217 12:38 29.09.2021
5480 Clouds 30 1005 77 10000 5.36 231 11:18 29.09.2021
5481 Clouds 31 1004 74 10000 5.81 207 10:27 29.09.2021
5482 Clouds 31 1004 72 10000 4.92 204 09:40 29.09.2021
5483 Clouds 31 1005 73 10000 4.02 219 07:48 29.09.2021
5484 Clouds 31 1006 71 10000 4.02 213 05:52 29.09.2021
5485 Clouds 28 1005 87 6000 1.03 0 23:47 28.09.2021
5486 Clouds 27 1005 88 7000 1.03 0 22:25 28.09.2021
5487 Clouds 27 1005 86 9000 1.03 0 21:45 28.09.2021
5488 Clouds 28 1006 84 9000 1.03 0 20:44 28.09.2021
5489 Clouds 28 1006 86 8000 2.06 190 19:47 28.09.2021
5490 Clouds 28 1006 86 9000 1.03 0 18:53 28.09.2021
5491 Clouds 28 1007 85 9000 1.03 0 18:27 28.09.2021
5492 Clouds 29 1007 81 9000 0.51 0 16:42 28.09.2021
5493 Clouds 29 1007 81 9000 1.54 0 14:52 28.09.2021
5494 Rain 29 1006 82 9000 0.45 264 13:22 28.09.2021
5495 Rain 30 1005 80 10000 1.79 218 12:22 28.09.2021
5496 Rain 30 1005 78 9000 2.68 213 11:47 28.09.2021
5497 Rain 30 1005 77 9000 2.68 213 11:23 28.09.2021
5498 Clouds 32 1004 71 10000 7.6 228 10:21 28.09.2021
5499 Clouds 32 1004 70 9000 4.47 200 09:22 28.09.2021
5500 Clouds 33 1004 66 9000 2.24 280 08:39 28.09.2021
5501 Clouds 33 1005 61 9000 7.15 219 07:49 28.09.2021
5502 Clouds 32 1007 69 9000 5.36 219 05:41 28.09.2021
5503 Clouds 28 1007 78 10000 0.45 238 01:29 28.09.2021
5504 Clouds 27 1006 83 9000 1.03 0 00:28 28.09.2021
5505 Clouds 27 1006 83 10000 1.03 230 23:44 27.09.2021
5506 Clouds 27 1006 83 10000 1.03 230 23:23 27.09.2021
5507 Clouds 27 1006 82 10000 0.51 0 22:20 27.09.2021
5508 Clouds 28 1006 80 10000 1.54 360 20:49 27.09.2021
5509 Clouds 27 1006 80 10000 1.54 360 20:23 27.09.2021
5510 Clouds 28 1007 80 10000 1.54 50 19:30 27.09.2021
5511 Clouds 28 1007 80 10000 1.54 30 18:52 27.09.2021
5512 Clouds 28 1007 79 10000 1.34 346 17:33 27.09.2021
5513 Clouds 28 1007 78 10000 0.89 3 16:51 27.09.2021
5514 Clouds 28 1007 76 10000 1.03 0 15:46 27.09.2021
5515 Clouds 28 1008 76 10000 1.03 0 15:27 27.09.2021
5516 Clouds 29 1006 82 10000 0.89 246 13:34 27.09.2021
5517 Clouds 30 1005 78 10000 0.45 8 11:59 27.09.2021
5518 Rain 31 1005 71 10000 0.89 243 10:38 27.09.2021
5519 Rain 31 1004 73 10000 0.45 241 09:28 27.09.2021
5520 Rain 31 1006 69 10000 2.24 223 06:33 27.09.2021
5521 Clouds 28 1008 82 10000 2.57 10 03:29 27.09.2021
5522 Rain 28 1006 81 10000 1.54 200 22:39 26.09.2021
5523 Rain 28 1006 79 10000 1.54 140 21:53 26.09.2021
5524 Rain 28 1006 79 10000 1.54 140 21:26 26.09.2021
5525 Rain 28 1006 79 10000 0.45 249 20:24 26.09.2021
5526 Rain 29 1007 78 10000 1.03 0 19:52 26.09.2021
5527 Clouds 29 1007 78 10000 1.54 120 18:48 26.09.2021
5528 Clouds 29 1008 78 10000 0.45 359 17:57 26.09.2021
5529 Clouds 29 1008 77 10000 0.45 350 17:36 26.09.2021
5530 Clouds 29 1008 78 10000 1.54 240 17:18 26.09.2021
5531 Clouds 29 1007 78 10000 0.89 4 16:21 26.09.2021
5532 Clouds 30 1007 78 10000 1.54 200 15:22 26.09.2021
5533 Clouds 30 1006 77 10000 1.03 0 13:57 26.09.2021
5534 Clouds 30 1006 77 10000 1.03 0 13:29 26.09.2021
5535 Clouds 31 1005 73 10000 2.06 110 12:25 26.09.2021
5536 Clouds 31 1005 70 10000 2.57 280 11:51 26.09.2021
5537 Clouds 32 1004 67 10000 4.12 320 10:38 26.09.2021
5538 Clouds 33 1004 63 10000 5.36 336 09:21 26.09.2021
5539 Clouds 32 1006 68 10000 2.68 291 07:57 26.09.2021
5540 Clouds 27 1007 81 10000 0.51 0 00:28 26.09.2021
5541 Clouds 27 1007 81 10000 0.51 0 23:33 25.09.2021
5542 Clouds 27 1007 80 10000 2.06 60 22:38 25.09.2021
5543 Rain 28 1007 77 10000 1.03 0 21:56 25.09.2021
5544 Clouds 28 1007 78 10000 1.03 0 21:33 25.09.2021
5545 Clouds 27 1007 80 10000 0 0 20:51 25.09.2021
5546 Clouds 28 1007 78 10000 1.54 350 19:32 25.09.2021
5547 Clouds 28 1007 77 10000 1.03 0 18:26 25.09.2021
5548 Clouds 29 1009 73 10000 1.34 73 16:28 25.09.2021
5549 Clouds 29 1008 72 10000 1.54 360 13:58 25.09.2021
5550 Clouds 28 1008 73 10000 1.54 360 13:33 25.09.2021
5551 Clouds 30 1008 72 10000 1.54 0 12:28 25.09.2021
5552 Clouds 32 1006 59 10000 1.54 110 10:36 25.09.2021
5553 Thunderstorm 31 1006 65 10000 2.24 210 09:45 25.09.2021
5554 Clouds 33 1006 58 10000 0.89 344 08:38 25.09.2021
5555 Clouds 32 1006 61 10000 2.68 351 07:20 25.09.2021
5556 Clouds 27 1008 77 10000 0.51 0 00:49 25.09.2021
5557 Clouds 27 1007 77 10000 1.03 0 21:54 24.09.2021
5558 Clouds 27 1007 76 10000 1.03 30 20:50 24.09.2021
5559 Clouds 28 1007 78 10000 1.03 30 20:19 24.09.2021
5560 Clouds 28 1009 77 10000 0.45 346 18:35 24.09.2021
5561 Clouds 28 1009 75 10000 1.34 347 17:56 24.09.2021
5562 Clouds 28 1009 76 10000 1.54 110 17:37 24.09.2021
5563 Clouds 28 1009 76 10000 1.54 110 17:18 24.09.2021
5564 Clouds 29 1009 72 10000 2.57 120 14:34 24.09.2021
5565 Clouds 29 1008 68 10000 3.64 81 13:18 24.09.2021
5566 Clouds 30 1008 67 10000 3.09 130 12:40 24.09.2021
5567 Clouds 30 1007 65 10000 3.67 82 12:22 24.09.2021
5568 Clouds 31 1007 62 10000 2.57 0 10:27 24.09.2021
5569 Clouds 33 1009 55 10000 7.2 90 08:55 24.09.2021
5570 Clouds 31 1009 69 10000 2.24 252 07:38 24.09.2021
5571 Clouds 33 1009 61 10000 4.47 219 06:47 24.09.2021
5572 Clouds 32 1011 62 10000 2.68 349 04:58 24.09.2021
5573 Clouds 26 1010 79 10000 0 0 00:35 24.09.2021
5574 Clouds 27 1010 77 10000 2.06 40 22:30 23.09.2021
5575 Clouds 27 1010 76 10000 0.45 24 21:56 23.09.2021
5576 Clouds 28 1010 75 10000 2.24 356 20:35 23.09.2021
5577 Clouds 28 1011 78 10000 2.06 70 19:48 23.09.2021
5578 Clouds 28 1011 75 10000 1.54 90 17:47 23.09.2021
5579 Clouds 29 1011 71 10000 2.57 110 15:36 23.09.2021
5580 Clouds 29 1011 71 10000 2.57 110 14:59 23.09.2021
5581 Clouds 30 1010 74 10000 2.57 130 13:46 23.09.2021
5582 Clouds 30 1010 75 10000 2.57 130 13:21 23.09.2021
5583 Clouds 30 1010 73 10000 3.09 120 12:52 23.09.2021
5584 Clouds 30 1009 73 10000 3.09 120 12:22 23.09.2021
5585 Clouds 31 1009 71 10000 4.12 120 11:40 23.09.2021
5586 Clouds 34 1010 61 10000 3.09 120 10:26 23.09.2021
5587 Clouds 32 1009 69 10000 0.89 39 09:52 23.09.2021
5588 Clouds 33 1008 64 10000 6.26 216 08:21 23.09.2021
5589 Clouds 32 1012 63 10000 0.89 289 03:50 23.09.2021
5590 Clouds 28 1010 79 10000 1.03 0 23:24 22.09.2021
5591 Clouds 28 1010 81 10000 1.54 90 22:29 22.09.2021
5592 Clouds 28 1010 82 10000 1.54 130 21:55 22.09.2021
5593 Clouds 28 1010 81 10000 1.54 130 21:33 22.09.2021
5594 Clouds 28 1010 81 10000 2.06 90 20:52 22.09.2021
5595 Clouds 29 1010 79 10000 3.09 110 19:29 22.09.2021
5596 Clouds 29 1010 78 10000 2.57 110 18:39 22.09.2021
5597 Clouds 29 1010 77 10000 2.88 112 17:43 22.09.2021
5598 Clouds 29 1011 75 10000 3.41 119 16:37 22.09.2021
5599 Clouds 29 1010 74 10000 4.7 118 15:19 22.09.2021
5600 Clouds 30 1009 73 10000 0.45 303 13:48 22.09.2021
5601 Clouds 31 1008 67 10000 0.89 251 11:57 22.09.2021
5602 Clouds 32 1007 65 10000 0.45 45 10:45 22.09.2021
5603 Clouds 33 1007 61 10000 1.34 285 09:24 22.09.2021
5604 Clouds 33 1007 61 10000 0.45 5 08:28 22.09.2021
5605 Clouds 33 1008 60 10000 0.89 217 06:59 22.09.2021
5606 Clouds 33 1009 63 10000 1.34 308 05:53 22.09.2021
5607 Clouds 33 1009 62 10000 0.89 311 05:32 22.09.2021
5608 Clouds 32 1009 65 10000 4.02 89 03:44 22.09.2021
5609 Clouds 27 1008 84 10000 1.54 120 00:21 22.09.2021
5610 Clouds 27 1007 82 10000 2.06 100 22:52 21.09.2021
5611 Clouds 27 1007 80 10000 2.06 120 21:33 21.09.2021
5612 Clouds 27 1007 82 10000 3.11 94 20:24 21.09.2021
5613 Clouds 27 1008 82 10000 3.29 100 19:20 21.09.2021
5614 Clouds 27 1009 81 10000 3.91 109 17:20 21.09.2021
5615 Clouds 29 1009 78 10000 3.09 120 16:34 21.09.2021
5616 Clouds 29 1008 77 10000 2.57 130 15:35 21.09.2021
5617 Clouds 29 1008 76 10000 3.09 120 14:56 21.09.2021
5618 Clouds 30 1008 73 10000 2.06 130 13:56 21.09.2021
5619 Clouds 30 1007 72 10000 2.06 130 13:36 21.09.2021
5620 Clouds 31 1006 64 10000 4.63 110 11:44 21.09.2021
5621 Clouds 33 1006 62 10000 5.14 110 09:55 21.09.2021
5622 Clouds 33 1007 58 10000 3.6 110 07:59 21.09.2021
5623 Clouds 33 1008 62 10000 3.09 0 06:38 21.09.2021
5624 Clouds 26 1008 94 9000 0.51 0 23:58 20.09.2021
5625 Rain 26 1008 82 10000 2 85 22:18 20.09.2021
5626 Rain 26 1008 94 10000 1.03 0 21:36 20.09.2021
5627 Rain 26 1009 94 10000 0.51 0 20:29 20.09.2021
5628 Rain 26 1008 88 10000 1.03 0 19:28 20.09.2021
5629 Clouds 26 1009 87 10000 0 0 17:40 20.09.2021
5630 Clouds 26 1009 88 10000 0.51 0 16:43 20.09.2021
5631 Clouds 26 1009 88 10000 0 0 15:49 20.09.2021
5632 Clouds 26 1009 88 10000 0 0 15:22 20.09.2021
5633 Rain 26 1008 88 10000 1.34 0 13:45 20.09.2021
5634 Rain 26 1008 87 10000 2.06 190 12:35 20.09.2021
5635 Rain 29 1008 78 10000 0.45 289 11:23 20.09.2021
5636 Clouds 30 1007 75 10000 1.79 357 09:57 20.09.2021
5637 Clouds 30 1007 74 10000 1.79 9 09:36 20.09.2021
5638 Clouds 30 1007 74 10000 1.34 16 08:58 20.09.2021
5639 Clouds 29 1009 75 10000 0.89 9 06:51 20.09.2021
5640 Rain 26 1008 89 8000 1.03 0 23:45 19.09.2021
5641 Clouds 26 1008 91 9000 1.03 0 22:21 19.09.2021
5642 Clouds 26 1008 90 10000 1.03 220 21:39 19.09.2021
5643 Clouds 26 1008 90 10000 1.03 0 20:34 19.09.2021
5644 Clouds 26 1009 89 10000 0.45 5 19:18 19.09.2021
5645 Clouds 26 1010 87 10000 0 0 18:26 19.09.2021
5646 Clouds 26 1010 86 10000 0.51 0 17:22 19.09.2021
5647 Clouds 26 1010 86 10000 1.54 260 15:55 19.09.2021
5648 Clouds 26 1010 86 10000 1.54 260 15:55 19.09.2021
5649 Clouds 27 1010 85 10000 1.03 0 14:50 19.09.2021
5650 Clouds 27 1010 85 10000 1.03 0 14:30 19.09.2021
5651 Clouds 27 1009 85 10000 0.45 348 13:20 19.09.2021
5652 Clouds 27 1009 84 10000 1.03 0 12:47 19.09.2021
5653 Clouds 27 1007 81 10000 1.03 0 11:27 19.09.2021
5654 Clouds 27 1007 80 10000 0.45 2 10:24 19.09.2021
5655 Rain 27 1008 82 10000 0.89 340 09:28 19.09.2021
5656 Rain 27 1010 88 9000 2.57 90 07:29 19.09.2021
5657 Clouds 28 1010 81 10000 0.45 282 04:21 19.09.2021
5658 Clouds 27 1008 86 10000 0 0 23:35 18.09.2021
5659 Clouds 28 1008 82 10000 1.54 90 21:58 18.09.2021
5660 Clouds 28 1008 82 10000 0.45 39 20:48 18.09.2021
5661 Clouds 28 1008 82 10000 1.03 0 20:26 18.09.2021
5662 Clouds 28 1009 81 10000 1.03 130 19:38 18.09.2021
5663 Clouds 28 1009 81 10000 1.03 130 19:20 18.09.2021
5664 Clouds 28 1009 81 10000 1.03 0 18:31 18.09.2021
5665 Clouds 28 1009 80 10000 1.03 0 17:23 18.09.2021
5666 Rain 29 1009 78 10000 1.54 120 15:47 18.09.2021
5667 Clouds 29 1009 76 10000 2.57 120 13:46 18.09.2021
5668 Clouds 29 1008 76 10000 2.57 120 13:25 18.09.2021
5669 Clouds 30 1008 75 10000 0.45 48 12:24 18.09.2021
5670 Clouds 30 1007 70 10000 0.89 19 11:36 18.09.2021
5671 Clouds 31 1008 70 10000 5.14 10 10:31 18.09.2021
5672 Clouds 33 1008 63 10000 4.63 100 09:25 18.09.2021
5673 Clouds 33 1006 66 10000 1.34 24 08:30 18.09.2021
5674 Clouds 33 1006 66 10000 1.34 24 08:30 18.09.2021
5675 Clouds 33 1006 66 10000 1.34 24 08:30 18.09.2021
5676 Clouds 28 1008 81 10000 2.18 101 00:56 18.09.2021
5677 Clouds 27 1008 83 10000 2.18 101 00:35 18.09.2021
5678 Clouds 26 1007 85 10000 2.39 94 23:44 17.09.2021
5679 Clouds 27 1007 85 10000 2.48 84 22:32 17.09.2021
5680 Clouds 27 1007 86 10000 2.57 80 21:47 17.09.2021
5681 Clouds 28 1008 82 10000 1.54 170 19:53 17.09.2021
5682 Clouds 28 1008 79 10000 1.54 110 18:43 17.09.2021
5683 Clouds 28 1008 77 10000 1.03 0 16:47 17.09.2021
5684 Clouds 28 1008 78 10000 1.03 0 15:25 17.09.2021
5685 Clouds 29 1006 76 10000 3.6 130 12:31 17.09.2021
5686 Clouds 31 1005 69 10000 7.6 217 10:24 17.09.2021
5687 Clouds 31 1006 68 10000 7.15 230 07:49 17.09.2021
5688 Clouds 32 1006 64 10000 1.34 4 06:27 17.09.2021
5689 Clouds 25 1007 88 10000 0 0 00:33 17.09.2021
5690 Clouds 25 1006 90 10000 2.06 360 22:45 16.09.2021
5691 Rain 25 1006 90 10000 0.45 347 22:24 16.09.2021
5692 Rain 25 1006 90 10000 1.34 12 21:36 16.09.2021
5693 Rain 25 1008 92 10000 0.45 9 20:31 16.09.2021
5694 Rain 26 1009 93 8000 3.09 140 18:52 16.09.2021
5695 Rain 26 1009 91 10000 3.02 131 18:19 16.09.2021
5696 Rain 27 1009 90 9000 0.51 0 16:47 16.09.2021
5697 Rain 27 1009 82 10000 2.24 65 14:51 16.09.2021
5698 Rain 29 1008 79 10000 1.03 0 13:40 16.09.2021
5699 Rain 29 1008 78 10000 1.03 0 12:46 16.09.2021
5700 Clouds 29 1007 75 10000 0.51 0 11:50 16.09.2021
5701 Clouds 29 1007 75 10000 0.51 0 11:50 16.09.2021
5702 Clouds 29 1007 75 10000 0.45 232 10:56 16.09.2021
5703 Clouds 29 1006 74 10000 1.15 182 10:22 16.09.2021
5704 Clouds 28 1007 78 10000 0.83 228 09:20 16.09.2021
5705 Thunderstorm 27 1009 94 6000 3.6 40 07:52 16.09.2021
5706 Thunderstorm 29 1008 83 9000 0.45 317 06:57 16.09.2021
5707 Rain 31 1008 75 9000 1.34 157 06:38 16.09.2021
5708 Clouds 31 1009 66 10000 0.89 42 03:22 16.09.2021
5709 Clouds 27 1009 84 10000 1.03 60 00:49 16.09.2021
5710 Clouds 27 1008 85 10000 0.45 62 23:25 15.09.2021
5711 Clouds 27 1008 87 10000 2.06 30 22:26 15.09.2021
5712 Clouds 27 1008 87 10000 2.57 20 21:31 15.09.2021
5713 Clouds 27 1008 87 10000 2.06 60 20:34 15.09.2021
5714 Clouds 27 1009 87 10000 1.54 80 19:31 15.09.2021
5715 Clouds 28 1010 85 10000 1.03 0 18:37 15.09.2021
5716 Clouds 28 1010 84 10000 1.54 100 17:33 15.09.2021
5717 Clouds 28 1011 83 10000 0.51 0 16:28 15.09.2021
5718 Clouds 28 1011 82 10000 1.76 97 14:53 15.09.2021
5719 Clouds 29 1011 82 10000 1.76 97 14:33 15.09.2021
5720 Clouds 29 1010 80 10000 1.39 116 13:42 15.09.2021
5721 Clouds 29 1010 79 10000 1.02 164 13:23 15.09.2021
5722 Clouds 29 1009 75 10000 0.84 159 12:23 15.09.2021
5723 Clouds 29 1009 73 10000 2.06 60 11:49 15.09.2021
5724 Rain 29 1009 73 10000 3.09 50 10:57 15.09.2021
5725 Clouds 30 1009 70 10000 4.12 360 09:44 15.09.2021
5726 Rain 33 1009 66 10000 2.57 150 08:41 15.09.2021
5727 Clouds 33 1011 62 10000 3.13 326 05:55 15.09.2021
5728 Clouds 27 1010 83 10000 1.03 0 00:37 15.09.2021
5729 Clouds 27 1010 82 10000 1.03 0 21:59 14.09.2021
5730 Clouds 27 1011 83 10000 2.06 320 20:56 14.09.2021
5731 Clouds 27 1011 82 10000 1.03 60 19:54 14.09.2021
5732 Clouds 27 1011 83 10000 1.9 74 18:24 14.09.2021
5733 Clouds 28 1012 81 10000 1.03 0 17:28 14.09.2021
5734 Clouds 28 1012 77 10000 0.89 2 15:58 14.09.2021
5735 Clouds 28 1011 73 10000 1.03 0 14:32 14.09.2021
5736 Clouds 27 1011 75 10000 1.99 130 13:20 14.09.2021
5737 Clouds 32 1009 65 10000 1.79 357 10:55 14.09.2021
5738 Clouds 32 1009 70 10000 2.24 229 09:51 14.09.2021
5739 Clouds 33 1008 62 10000 2.24 350 08:49 14.09.2021
5740 Clouds 33 1010 61 10000 1.79 338 07:25 14.09.2021
5741 Clouds 26 1011 87 8000 0.51 0 00:53 14.09.2021
5742 Clouds 26 1010 89 9000 1.03 0 22:58 13.09.2021
5743 Clouds 26 1010 88 9000 1.03 0 22:24 13.09.2021
5744 Clouds 26 1010 88 9000 1.03 0 21:53 13.09.2021
5745 Clouds 26 1010 89 10000 1.54 100 20:51 13.09.2021
5746 Clouds 27 1011 88 10000 1.03 0 19:26 13.09.2021
5747 Rain 27 1011 85 9000 1.54 120 18:43 13.09.2021
5748 Rain 27 1012 85 10000 2.06 0 16:58 13.09.2021
5749 Rain 28 1011 81 10000 2.06 110 15:32 13.09.2021
5750 Rain 29 1010 74 10000 1.34 75 13:32 13.09.2021
5751 Clouds 32 1008 64 10000 3.58 204 10:58 13.09.2021
5752 Clouds 32 1008 64 10000 3.58 204 10:58 13.09.2021
5753 Clouds 32 1008 63 10000 0.45 246 09:41 13.09.2021
5754 Clouds 32 1008 63 9000 2.06 300 07:27 13.09.2021
5755 Clouds 26 1007 92 8000 1.54 100 23:41 12.09.2021
5756 Clouds 25 1007 93 7000 1.03 80 22:25 12.09.2021
5757 Clouds 25 1007 93 7000 1.03 80 22:25 12.09.2021
5758 Clouds 26 1007 91 9000 0.51 0 21:37 12.09.2021
5759 Clouds 26 1007 92 10000 0 0 20:29 12.09.2021
5760 Clouds 26 1008 91 10000 0 0 19:51 12.09.2021
5761 Clouds 26 1007 90 10000 0.39 133 19:20 12.09.2021
5762 Rain 26 1008 91 10000 1.03 0 18:29 12.09.2021
5763 Rain 26 1008 90 10000 0 0 16:32 12.09.2021
5764 Rain 27 1008 88 10000 1.54 90 14:56 12.09.2021
5765 Rain 27 1008 88 10000 1.54 90 14:56 12.09.2021
5766 Clouds 27 1007 87 10000 0 0 13:45 12.09.2021
5767 Rain 28 1007 82 10000 2.06 290 11:31 12.09.2021
5768 Rain 27 1007 80 9000 1.54 340 09:27 12.09.2021
5769 Rain 27 1007 88 9000 3.09 250 08:37 12.09.2021
5770 Clouds 27 1006 85 10000 0.51 0 01:50 12.09.2021
5771 Rain 26 1005 88 8767 0.79 183 23:20 11.09.2021
5772 Clouds 26 1005 91 9000 1.54 100 21:41 11.09.2021
5773 Clouds 25 1005 89 10000 1.63 167 20:21 11.09.2021
5774 Rain 25 1006 90 10000 1.89 182 19:20 11.09.2021
5775 Rain 25 1007 93 7000 1.54 80 17:29 11.09.2021
5776 Rain 26 1008 93 6000 0 0 15:44 11.09.2021
5777 Rain 26 1008 93 6000 0 0 13:30 11.09.2021
5778 Rain 26 1007 88 6000 3.6 240 12:30 11.09.2021
5779 Rain 27 1006 87 10000 5.83 226 11:18 11.09.2021
5780 Rain 29 1005 80 9000 3.58 221 09:35 11.09.2021
5781 Rain 28 1006 80 9000 4.02 223 07:44 11.09.2021
5782 Rain 28 1007 83 10000 0.89 259 06:47 11.09.2021
5783 Rain 25 1006 92 9000 0.89 198 22:48 10.09.2021
5784 Rain 25 1006 92 9000 0.89 198 22:48 10.09.2021
5785 Rain 25 1006 91 10000 2.24 219 22:22 10.09.2021
5786 Clouds 25 1006 92 10000 8.05 219 21:46 10.09.2021
5787 Rain 25 1007 93 4000 2.24 221 19:41 10.09.2021
5788 Rain 27 1006 86 7851 3.13 203 18:20 10.09.2021
5789 Clouds 26 1007 87 8000 0.45 237 16:34 10.09.2021
5790 Rain 26 1006 90 8000 1.34 296 13:52 10.09.2021
5791 -273 0 0 0 0 0 11:40 10.09.2021
5792 Clouds 30 1004 72 10000 7.15 216 08:27 10.09.2021
5793 Clouds 30 1005 72 9000 7.15 208 07:44 10.09.2021
5794 Clouds 27 1005 88 10000 1.79 209 00:41 10.09.2021
5795 Rain 27 1005 85 10000 0.45 244 22:18 09.09.2021
5796 Rain 27 1006 86 10000 0.89 219 20:48 09.09.2021
5797 Clouds 27 1006 86 10000 2.24 212 20:30 09.09.2021
5798 Clouds 27 1007 85 10000 0 0 18:50 09.09.2021
5799 Clouds 27 1007 85 10000 0.45 91 17:51 09.09.2021
5800 Clouds 28 1007 82 10000 0.89 228 16:39 09.09.2021
5801 Clouds 28 1007 81 10000 0.45 245 15:26 09.09.2021
5802 Clouds 29 1005 81 10000 6.26 208 12:33 09.09.2021
5803 Clouds 29 1004 79 8858 2.68 220 11:33 09.09.2021
5804 Clouds 31 1004 72 10000 11.18 222 09:39 09.09.2021
5805 Clouds 31 1005 71 10000 2.24 218 07:56 09.09.2021
5806 Clouds 28 1007 75 10000 1.8 210 06:20 09.09.2021
5807 Rain 26 1005 92 10000 1.54 110 00:43 09.09.2021
5808 Clouds 25 1005 94 10000 0.51 0 21:49 08.09.2021
5809 Clouds 25 1005 94 10000 1.03 0 20:57 08.09.2021
5810 Rain 25 1005 93 10000 1.54 120 19:47 08.09.2021
5811 Clouds 25 1005 93 10000 1.03 0 18:49 08.09.2021
5812 Clouds 25 1005 93 10000 1.03 0 18:25 08.09.2021
5813 Clouds 25 1005 93 10000 1.03 0 17:40 08.09.2021
5814 Clouds 25 1005 93 8000 2.06 110 15:49 08.09.2021
5815 Rain 25 1004 92 7000 3.6 110 13:46 08.09.2021
5816 Rain 25 1003 93 7000 3.09 120 12:41 08.09.2021
5817 Rain 25 1003 93 7000 3.09 120 12:23 08.09.2021
5818 Rain 25 1002 93 2656 0.45 37 11:26 08.09.2021
5819 Rain 25 1002 94 6000 0.45 58 10:31 08.09.2021
5820 Rain 25 1001 94 6000 3.13 105 09:57 08.09.2021
5821 Rain 25 1002 94 2000 3.58 346 07:46 08.09.2021
5822 Rain 25 1002 93 2415 4.92 16 07:19 08.09.2021
5823 Rain 24 1004 94 8000 4.02 4 23:32 07.09.2021
5824 Rain 24 1005 93 10000 0.45 0 22:19 07.09.2021
5825 Rain 25 1004 93 7000 0.89 12 20:45 07.09.2021
5826 Rain 25 1005 93 8000 4.92 27 19:26 07.09.2021
5827 Rain 26 1005 92 8000 2.24 1 18:37 07.09.2021
5828 Rain 26 1006 92 9000 0.89 1 17:35 07.09.2021
5829 Clouds 27 1007 88 8000 2.57 40 15:57 07.09.2021
5830 Clouds 27 1007 84 8000 0.45 4 14:53 07.09.2021
5831 Clouds 28 1006 83 8000 0.45 3 13:52 07.09.2021
5832 Clouds 30 1005 77 7000 1.79 5 11:59 07.09.2021
5833 Rain 30 1006 74 9000 1.03 0 10:59 07.09.2021
5834 Clouds 30 1005 71 10000 0.45 349 10:18 07.09.2021
5835 Rain 28 1007 80 8000 2.24 75 07:47 07.09.2021
5836 Rain 31 1008 63 10000 1.56 300 06:20 07.09.2021
5837 Clouds 28 1009 79 9000 0.89 342 02:39 07.09.2021
5838 Clouds 27 1009 84 9000 0.51 0 01:57 07.09.2021
5839 Clouds 25 1007 90 9000 0.89 4 23:49 06.09.2021
5840 Clouds 25 1007 89 9000 2.57 20 23:30 06.09.2021
5841 Clouds 25 1007 91 9000 1.03 0 22:51 06.09.2021
5842 Clouds 26 1006 91 8000 1.03 220 21:55 06.09.2021
5843 Clouds 26 1006 89 8000 0.45 1 20:34 06.09.2021
5844 Clouds 26 1007 87 10000 1.37 83 19:18 06.09.2021
5845 Clouds 26 1008 87 8000 1.34 355 18:33 06.09.2021
5846 Rain 26 1009 89 8000 1.34 349 17:50 06.09.2021
5847 Rain 26 1009 89 10000 0.89 350 16:20 06.09.2021
5848 Clouds 27 1009 87 8000 1.34 75 14:59 06.09.2021
5849 Rain 26 1008 90 7000 0.45 289 12:49 06.09.2021
5850 Rain 28 1007 85 7000 2.06 110 11:52 06.09.2021
5851 Rain 29 1005 72 10000 1.48 313 10:19 06.09.2021
5852 Clouds 32 1007 70 9000 5.81 7 07:39 06.09.2021
5853 Clouds 29 1009 79 8000 2.06 270 03:34 06.09.2021
5854 Clouds 26 1008 88 10000 1.13 91 23:22 05.09.2021
5855 Clouds 26 1008 88 10000 2.06 60 22:32 05.09.2021
5856 Clouds 27 1008 88 10000 0.51 0 21:55 05.09.2021
5857 Clouds 26 1008 86 10000 0.45 343 21:19 05.09.2021
5858 Thunderstorm 27 1009 88 10000 1.79 2 19:30 05.09.2021
5859 Clouds 28 1010 85 10000 1.03 0 17:51 05.09.2021
5860 Clouds 28 1009 85 8000 0.89 59 15:42 05.09.2021
5861 Clouds 28 1009 88 7000 0.51 340 14:56 05.09.2021
5862 Clouds 28 1007 85 8000 2.24 88 12:43 05.09.2021
5863 Thunderstorm 30 1007 75 7000 4.12 250 11:22 05.09.2021
5864 Clouds 30 1006 74 8000 1.34 166 10:34 05.09.2021
5865 Clouds 31 1006 68 9000 4.02 263 09:32 05.09.2021
5866 Thunderstorm 32 1006 67 9000 3.58 202 08:26 05.09.2021
5867 Clouds 30 1009 68 10000 0.89 3 03:21 05.09.2021
5868 Clouds 27 1008 86 10000 0 0 00:34 05.09.2021
5869 Clouds 27 1007 86 10000 0.45 8 23:52 04.09.2021
5870 Clouds 27 1007 82 10000 0.51 0 22:55 04.09.2021
5871 Clouds 27 1007 82 10000 0.51 0 22:34 04.09.2021
5872 Rain 27 1008 85 10000 1.36 316 19:58 04.09.2021
5873 Clouds 27 1008 84 10000 1.36 316 19:32 04.09.2021
5874 Rain 28 1010 84 8000 3.09 310 16:47 04.09.2021
5875 Rain 30 1008 74 10000 4.12 260 13:49 04.09.2021
5876 Clouds 31 1006 72 10000 5.36 193 11:21 04.09.2021
5877 Clouds 31 1005 69 10000 5.81 198 09:33 04.09.2021
5878 Clouds 32 1007 66 10000 4.92 184 07:28 04.09.2021
5879 Clouds 26 1007 93 10000 1.03 0 00:30 04.09.2021
5880 Clouds 26 1007 93 10000 1.03 0 23:32 03.09.2021
5881 Clouds 26 1007 91 10000 0.51 0 22:45 03.09.2021
5882 Clouds 26 1007 91 10000 1.03 0 21:36 03.09.2021
5883 Clouds 26 1007 91 9000 1.03 0 20:52 03.09.2021
5884 Rain 26 1008 91 9000 1.03 0 19:56 03.09.2021
5885 Rain 26 1008 91 9000 1.03 0 19:23 03.09.2021
5886 Thunderstorm 25 1009 92 7000 4.12 50 17:56 03.09.2021
5887 Thunderstorm 25 1009 92 7000 4.12 50 17:56 03.09.2021
5888 Thunderstorm 25 1009 92 7000 1.79 358 16:40 03.09.2021
5889 Clouds 26 1008 86 10000 1.87 283 15:20 03.09.2021
5890 Clouds 30 1005 76 10000 1.34 355 12:26 03.09.2021
5891 Clouds 32 1004 69 10000 7.15 216 10:32 03.09.2021
5892 Clouds 32 1004 65 10000 3.58 221 09:18 03.09.2021
5893 Clouds 32 1004 63 10000 6.26 207 09:18 03.09.2021
5894 Clouds 32 1006 60 10000 1.79 346 07:47 03.09.2021
5895 Clouds 31 1007 69 10000 5.81 344 05:30 03.09.2021
5896 Clouds 25 1007 86 10000 2.07 12 23:21 02.09.2021
5897 Clouds 26 1007 85 9000 1.34 354 21:38 02.09.2021
5898 Clouds 26 1009 83 8000 0.45 70 19:56 02.09.2021
5899 Clouds 26 1009 81 8000 0.89 18 17:33 02.09.2021
5900 Rain 27 1009 81 8000 1.79 24 15:54 02.09.2021
5901 Rain 27 1009 80 8000 0.45 358 13:59 02.09.2021
5902 Clouds 28 1007 76 8000 1.34 338 12:55 02.09.2021
5903 Clouds 29 1006 72 8000 2.24 61 11:35 02.09.2021
5904 Clouds 32 1005 67 10000 4.47 209 09:44 02.09.2021
5905 Clouds 32 1006 66 8000 4.02 13 07:57 02.09.2021
5906 Clouds 32 1005 66 10000 2.68 346 07:18 02.09.2021
5907 Clouds 32 1005 66 10000 2.68 346 07:18 02.09.2021
5908 Clouds 29 1009 75 6000 1.03 0 02:57 02.09.2021
5909 Clouds 29 1009 78 6000 0.89 270 02:33 02.09.2021
5910 Haze 27 1009 84 5000 0.51 0 01:28 02.09.2021
5911 Clouds 25 1009 90 9000 0 0 23:40 01.09.2021
5912 Clouds 25 1008 89 10000 0.51 0 22:40 01.09.2021
5913 Clouds 26 1008 87 10000 0.51 0 21:40 01.09.2021
5914 Clouds 25 1009 89 10000 0.51 70 20:39 01.09.2021
5915 Rain 26 1009 87 10000 0.51 340 18:43 01.09.2021
5916 Clouds 25 1010 86 10000 1.03 340 17:40 01.09.2021
5917 Rain 25 1010 89 9000 1.54 120 16:47 01.09.2021
5918 Thunderstorm 26 1010 80 7000 0.89 246 15:29 01.09.2021
5919 Clouds 30 1008 73 10000 1.76 119 12:19 01.09.2021
5920 Clouds 31 1007 67 9000 2.57 130 11:44 01.09.2021
5921 Clouds 32 1007 65 9000 2.24 199 08:47 01.09.2021
5922 Clouds 31 1007 66 8000 1.79 240 07:52 01.09.2021
5923 Clouds 29 1010 79 6000 1.54 170 03:27 01.09.2021
5924 Clouds 26 1008 84 10000 2.57 20 22:39 31.08.2021
5925 Clouds 27 1008 84 10000 0.89 29 21:27 31.08.2021
5926 Clouds 27 1009 81 9000 0.89 346 19:46 31.08.2021
5927 Clouds 27 1009 84 10000 0.89 352 18:29 31.08.2021
5928 Clouds 28 1010 81 10000 2.68 353 17:36 31.08.2021
5929 Clouds 28 1010 80 10000 1.79 2 16:53 31.08.2021
5930 Clouds 28 1010 82 10000 1.34 351 16:24 31.08.2021
5931 Clouds 28 1010 82 10000 1.34 351 16:24 31.08.2021
5932 Clouds 29 1010 80 8261 1.55 290 13:20 31.08.2021
5933 Clouds 32 1008 69 10000 2.06 160 11:27 31.08.2021
5934 Clouds 32 1008 66 10000 3.09 130 10:52 31.08.2021
5935 Clouds 32 1007 66 10000 4.02 224 09:44 31.08.2021
5936 Clouds 32 1008 65 10000 0.45 7 08:38 31.08.2021
5937 Clouds 31 1010 69 10000 0.45 345 05:59 31.08.2021
5938 Clouds 28 1010 80 10000 0.89 352 02:39 31.08.2021
5939 Clouds 26 1009 90 10000 1.54 50 23:35 30.08.2021
5940 Clouds 26 1008 86 10000 0.51 0 21:43 30.08.2021
5941 Clouds 26 1008 85 10000 1.03 110 20:49 30.08.2021
5942 Clouds 26 1008 86 10000 1.92 33 20:19 30.08.2021
5943 Clouds 26 1008 85 10000 1.03 0 19:29 30.08.2021
5944 Clouds 26 1008 85 10000 1.03 0 19:29 30.08.2021
5945 Clouds 26 1009 88 10000 0.51 0 18:30 30.08.2021
5946 Clouds 27 1010 87 10000 2.06 10 17:44 30.08.2021
5947 Clouds 26 1010 87 7698 0.45 9 16:20 30.08.2021
5948 Clouds 27 1010 88 10000 0.51 250 15:23 30.08.2021
5949 Clouds 27 1009 84 9000 1.03 0 13:28 30.08.2021
5950 Rain 27 1009 85 9000 1.03 0 12:24 30.08.2021
5951 Clouds 33 1007 66 10000 4.92 9 08:27 30.08.2021
5952 Clouds 26 1008 92 10000 1.03 0 22:27 29.08.2021
5953 Clouds 26 1009 92 10000 0.51 0 21:32 29.08.2021
5954 Clouds 26 1009 92 10000 0.51 0 21:32 29.08.2021
5955 Rain 26 1009 90 10000 0.45 352 19:59 29.08.2021
5956 Clouds 26 1009 90 10000 1.95 342 19:18 29.08.2021
5957 Clouds 26 1010 89 10000 1.54 260 17:42 29.08.2021
5958 Clouds 26 1010 88 8000 2.06 250 15:47 29.08.2021
5959 Clouds 26 1009 86 10000 0.9 125 14:18 29.08.2021
5960 Rain 27 1009 82 10000 1.54 320 13:28 29.08.2021
5961 Rain 27 1008 83 10000 2.57 310 12:31 29.08.2021
5962 Rain 27 1007 82 10000 0.45 10 11:41 29.08.2021
5963 Rain 28 1007 76 10000 4.12 30 10:49 29.08.2021
5964 Rain 28 1007 76 10000 4.12 30 10:30 29.08.2021
5965 Rain 31 1007 70 10000 2.06 0 09:44 29.08.2021
5966 Clouds 32 1007 65 10000 1.34 243 06:41 29.08.2021
5967 Clouds 26 1007 91 9000 1.03 0 23:48 28.08.2021
5968 Clouds 26 1007 88 10000 0.45 69 20:52 28.08.2021
5969 Clouds 27 1008 86 10000 1.54 340 19:43 28.08.2021
5970 Clouds 27 1008 85 10000 0.45 14 18:27 28.08.2021
5971 Clouds 27 1009 85 10000 1.34 15 17:47 28.08.2021
5972 Clouds 27 1009 85 10000 1.34 15 17:47 28.08.2021
5973 Clouds 28 1009 82 10000 1.54 70 16:57 28.08.2021
5974 Clouds 28 1008 82 10000 1.03 50 15:28 28.08.2021
5975 Clouds 28 1007 82 10000 1.98 106 14:18 28.08.2021
5976 Clouds 29 1007 80 10000 2.06 110 13:42 28.08.2021
5977 Clouds 30 1007 76 10000 1.54 100 12:40 28.08.2021
5978 Clouds 26 1006 94 10000 2.06 150 11:48 28.08.2021
5979 Clouds 30 1005 74 10000 0.89 358 10:18 28.08.2021
5980 Clouds 32 1007 69 10000 2.57 120 07:57 28.08.2021
5981 Clouds 31 1008 71 10000 1.63 87 05:22 28.08.2021
5982 Clouds 26 1007 88 10000 0 0 21:59 27.08.2021
5983 Clouds 27 1007 88 10000 0.51 0 20:55 27.08.2021
5984 Clouds 27 1008 88 10000 0 0 19:57 27.08.2021
5985 Clouds 27 1008 84 10000 2.06 70 18:39 27.08.2021
5986 Clouds 27 1009 83 10000 1.54 90 17:54 27.08.2021
5987 Clouds 27 1009 82 10000 1.03 0 16:47 27.08.2021
5988 Clouds 27 1009 80 10000 3.54 90 15:21 27.08.2021
5989 Clouds 28 1009 78 10000 1.54 100 14:36 27.08.2021
5990 Clouds 28 1008 77 10000 1.54 0 12:28 27.08.2021
5991 Clouds 29 1007 73 10000 0.89 353 10:58 27.08.2021
5992 Clouds 30 1007 74 10000 1.79 345 10:36 27.08.2021
5993 Clouds 31 1007 70 10000 1.7 80 09:19 27.08.2021
5994 Clouds 30 1008 69 10000 4.63 50 08:37 27.08.2021
5995 Clouds 32 1009 61 10000 2.68 4 05:38 27.08.2021
5996 Clouds 26 1009 86 10000 1.03 0 00:48 27.08.2021
5997 Clouds 25 1008 86 10000 0.45 359 00:28 27.08.2021
5998 Clouds 25 1008 86 10000 0.45 359 00:28 27.08.2021
5999 Clouds 25 1008 89 10000 0 0 22:27 26.08.2021
6000 Clouds 26 1008 88 10000 0 0 21:48 26.08.2021
6001 Clouds 27 1008 86 7000 1.03 0 19:53 26.08.2021
6002 Clouds 27 1009 85 10000 0.51 0 18:34 26.08.2021
6003 Clouds 27 1009 84 10000 0.51 0 17:25 26.08.2021
6004 Clouds 27 1009 83 10000 1.03 0 16:29 26.08.2021
6005 Clouds 27 1009 81 10000 0.51 0 14:47 26.08.2021
6006 Clouds 27 1008 83 10000 4.56 106 13:21 26.08.2021
6007 Clouds 28 1007 83 10000 1.03 0 12:33 26.08.2021
6008 Clouds 28 1007 82 10000 2.57 270 11:38 26.08.2021
6009 Clouds 28 1009 80 10000 2.06 140 08:51 26.08.2021
6010 Clouds 27 1008 83 10000 4.15 124 08:19 26.08.2021
6011 Clouds 26 1009 89 10000 0.89 14 23:43 25.08.2021
6012 Clouds 26 1008 89 10000 0.89 6 22:40 25.08.2021
6013 Clouds 25 1009 88 10000 0.45 2 22:22 25.08.2021
6014 Clouds 26 1008 84 10000 1.54 350 20:57 25.08.2021
6015 Rain 26 1009 84 10000 1.54 350 20:29 25.08.2021
6016 Clouds 27 1009 88 9000 1.03 0 18:58 25.08.2021
6017 Clouds 27 1009 87 10000 0.51 0 17:53 25.08.2021
6018 Clouds 27 1009 87 10000 1.03 0 15:53 25.08.2021
6019 Clouds 27 1009 87 10000 1.03 0 15:32 25.08.2021
6020 Clouds 27 1009 87 10000 2.06 70 14:46 25.08.2021
6021 Clouds 27 1009 84 10000 1.54 100 13:53 25.08.2021
6022 Rain 26 1007 87 10000 0.95 135 11:37 25.08.2021
6023 Rain 30 1007 75 8888 2.06 150 10:56 25.08.2021
6024 Rain 30 1007 73 9000 3.09 130 09:59 25.08.2021
6025 Rain 30 1007 73 10000 3.09 130 09:30 25.08.2021
6026 Clouds 31 1008 66 9000 3.09 150 08:33 25.08.2021
6027 Clouds 31 1008 65 10000 3.13 349 06:23 25.08.2021
6028 Clouds 25 1009 87 6000 1.03 0 00:56 25.08.2021
6029 Clouds 25 1008 91 6000 1.03 240 22:52 24.08.2021
6030 Clouds 25 1008 88 8000 1.54 70 20:54 24.08.2021
6031 Clouds 25 1009 89 8000 1.03 0 19:54 24.08.2021
6032 Clouds 25 1009 87 8000 0.51 0 18:54 24.08.2021
6033 Clouds 25 1009 88 8000 2.06 30 17:52 24.08.2021
6034 Clouds 25 1009 87 10000 0.21 60 17:21 24.08.2021
6035 Clouds 26 1009 88 9000 0.45 53 14:45 24.08.2021
6036 Rain 26 1008 89 8000 1.03 0 13:29 24.08.2021
6037 Rain 26 1008 88 8000 1.54 120 12:41 24.08.2021
6038 Rain 26 1007 86 10000 0.45 59 11:19 24.08.2021
6039 Rain 26 1008 84 10000 2.79 199 10:45 24.08.2021
6040 Clouds 28 1008 76 9000 2.06 250 09:24 24.08.2021
6041 Clouds 24 1010 94 6000 4.63 230 07:35 24.08.2021
6042 Clouds 29 1009 79 8000 0.45 5 05:37 24.08.2021
6043 Clouds 29 1009 79 8000 0.45 5 05:37 24.08.2021
6044 Clouds 28 1010 86 6000 1.54 210 02:40 24.08.2021
6045 Rain 26 1008 90 10000 1.03 0 23:28 23.08.2021
6046 Rain 26 1008 90 10000 1.03 0 22:42 23.08.2021
6047 Rain 27 1009 85 8000 1.03 100 20:58 23.08.2021
6048 Rain 27 1009 85 8000 0.45 13 19:30 23.08.2021
6049 Clouds 27 1010 88 10000 2.25 204 17:23 23.08.2021
6050 Clouds 27 1009 89 6000 1.79 346 15:32 23.08.2021
6051 Clouds 28 1009 87 6000 3.6 200 13:47 23.08.2021
6052 Rain 29 1007 80 6000 1.34 240 12:30 23.08.2021
6053 Clouds 30 1006 79 4000 3.58 196 10:46 23.08.2021
6054 Haze 32 1006 68 4000 5.81 212 09:52 23.08.2021
6055 Haze 32 1006 70 4000 0.89 346 08:34 23.08.2021
6056 Rain 32 1008 67 6000 2.24 206 06:57 23.08.2021
6057 Clouds 32 1008 68 6000 3.13 354 06:38 23.08.2021
6058 Haze 26 1009 90 4000 2.06 0 00:59 23.08.2021
6059 Haze 26 1008 90 5000 1.03 90 23:38 22.08.2021
6060 Haze 26 1008 91 5000 0 0 22:40 22.08.2021
6061 Clouds 26 1008 89 5000 1.03 0 20:46 22.08.2021
6062 Clouds 26 1007 89 10000 1.01 220 20:18 22.08.2021
6063 Clouds 27 1009 87 6000 1.03 0 17:41 22.08.2021
6064 Clouds 26 1009 90 6000 1.54 80 15:48 22.08.2021
6065 Clouds 26 1009 88 6000 3.6 50 14:53 22.08.2021
6066 Rain 26 1009 94 5000 2.06 90 13:37 22.08.2021
6067 Rain 26 1008 93 10000 1.92 194 13:19 22.08.2021
6068 Clouds 27 1007 88 3000 0.45 197 12:29 22.08.2021
6069 Rain 30 1006 77 6000 3.58 205 11:43 22.08.2021
6070 Clouds 31 1006 71 6000 4.92 222 10:53 22.08.2021
6071 Haze 33 1006 63 4000 1.34 305 08:41 22.08.2021
6072 Haze 31 1009 70 4500 4.92 200 04:59 22.08.2021
6073 Clouds 26 1008 89 6000 2.06 10 00:32 22.08.2021
6074 Haze 26 1008 91 4800 0 0 22:35 21.08.2021
6075 Clouds 26 1008 86 7000 1.03 0 20:56 21.08.2021
6076 Clouds 27 1009 82 8000 1.03 0 18:46 21.08.2021
6077 Clouds 26 1009 83 8000 2.06 20 17:59 21.08.2021
6078 Clouds 26 1010 85 8000 2.06 20 16:56 21.08.2021
6079 Clouds 26 1010 85 8000 2.06 20 16:29 21.08.2021
6080 Clouds 26 1009 87 7000 3.09 60 15:37 21.08.2021
6081 Clouds 26 1009 85 7000 2.57 70 14:54 21.08.2021
6082 Clouds 26 1008 86 5000 0.45 355 13:34 21.08.2021
6083 Rain 27 1008 84 5000 1.34 64 12:38 21.08.2021
6084 Haze 31 1006 69 4000 4.47 212 09:31 21.08.2021
6085 Rain 30 1008 73 10000 1.79 353 06:19 21.08.2021
6086 Haze 26 1008 86 5000 0.45 357 23:45 20.08.2021
6087 Clouds 27 1007 85 9000 0.45 353 21:54 20.08.2021
6088 Clouds 27 1009 83 9000 1.34 349 18:31 20.08.2021
6089 Rain 27 1009 81 9000 1.34 8 16:26 20.08.2021
6090 Rain 28 1008 83 9000 0.45 358 13:48 20.08.2021
6091 Clouds 30 1007 73 9000 1.34 215 11:41 20.08.2021
6092 Clouds 31 1007 70 9000 5.36 207 10:55 20.08.2021
6093 Clouds 32 1008 68 9000 3.6 270 09:42 20.08.2021
6094 Rain 32 1006 67 9000 0.45 353 08:46 20.08.2021
6095 Clouds 33 1007 65 9000 1.34 216 07:45 20.08.2021
6096 Clouds 31 1009 69 10000 0.89 0 04:22 20.08.2021
6097 Clouds 26 1008 88 10000 1.08 38 00:20 20.08.2021
6098 Clouds 26 1008 89 10000 1.22 18 23:20 19.08.2021
6099 Clouds 26 1007 91 6000 1.03 0 22:33 19.08.2021
6100 Mist 26 1008 92 5000 2.06 110 20:48 19.08.2021
6101 Mist 26 1008 93 5000 2.06 210 19:44 19.08.2021
6102 Rain 26 1009 93 7000 1.54 160 17:27 19.08.2021
6103 Thunderstorm 26 1010 90 7000 2.06 100 16:30 19.08.2021
6104 Clouds 30 1008 78 9000 0.45 266 13:47 19.08.2021
6105 Clouds 30 1007 77 9000 0.45 231 12:37 19.08.2021
6106 Clouds 30 1006 77 9000 3.58 209 11:30 19.08.2021
6107 Clouds 31 1005 74 10000 4.47 216 10:23 19.08.2021
6108 Clouds 31 1006 72 9000 1.79 247 09:47 19.08.2021
6109 Clouds 32 1005 68 10000 2.24 353 09:19 19.08.2021
6110 Clouds 32 1007 65 9000 2.68 348 07:35 19.08.2021
6111 Clouds 29 1009 76 9000 1.34 341 02:25 19.08.2021
6112 Clouds 28 1009 78 9000 0 0 01:51 19.08.2021
6113 Clouds 26 1007 89 9000 0.45 352 22:56 18.08.2021
6114 Clouds 26 1007 89 9000 0.51 0 21:40 18.08.2021
6115 Clouds 27 1007 88 7000 1.54 210 20:32 18.08.2021
6116 Clouds 27 1008 86 9000 0.45 340 19:34 18.08.2021
6117 Clouds 26 1008 84 9000 0.51 0 18:54 18.08.2021
6118 Clouds 26 1008 85 9000 0 0 17:57 18.08.2021
6119 Rain 26 1008 90 9000 2.06 80 15:47 18.08.2021
6120 Clouds 26 1008 89 9000 0.45 3 15:24 18.08.2021
6121 Clouds 25 1008 91 9000 0.89 88 14:51 18.08.2021
6122 Thunderstorm 28 1007 85 7000 2.57 230 12:43 18.08.2021
6123 Thunderstorm 29 1007 80 7000 2.24 218 12:24 18.08.2021
6124 Clouds 31 1005 74 10000 4.92 242 10:21 18.08.2021
6125 Clouds 33 1006 62 10000 2.24 298 07:47 18.08.2021
6126 Clouds 27 1008 84 10000 0.51 0 00:43 18.08.2021
6127 Clouds 27 1008 86 10000 1.54 40 22:30 17.08.2021
6128 Clouds 27 1007 83 10000 1.54 110 21:27 17.08.2021
6129 Clouds 28 1008 83 10000 1.54 110 20:44 17.08.2021
6130 Clouds 28 1009 82 10000 1.54 130 18:57 17.08.2021
6131 Clouds 28 1009 81 10000 2.06 130 17:33 17.08.2021
6132 Clouds 29 1009 80 10000 0.45 50 16:34 17.08.2021
6133 Clouds 29 1009 80 10000 1.54 0 15:37 17.08.2021
6134 Clouds 29 1008 78 10000 2.48 164 14:28 17.08.2021
6135 Rain 30 1008 72 10000 2.57 110 11:54 17.08.2021
6136 Clouds 31 1007 73 10000 0.36 295 09:21 17.08.2021
6137 Clouds 33 1008 63 10000 0.89 328 07:45 17.08.2021
6138 Clouds 31 1011 68 10000 4.47 185 03:26 17.08.2021
6139 Clouds 27 1009 83 10000 1.03 0 22:55 16.08.2021
6140 Clouds 27 1009 83 10000 1.03 0 22:37 16.08.2021
6141 Clouds 28 1009 80 10000 1.54 140 21:54 16.08.2021
6142 Clouds 28 1009 78 10000 1.54 130 20:54 16.08.2021
6143 Clouds 28 1010 77 10000 1.54 140 19:45 16.08.2021
6144 Clouds 28 1009 75 10000 2.74 105 19:22 16.08.2021
6145 Clouds 28 1010 75 10000 2.81 120 18:23 16.08.2021
6146 Clouds 29 1011 75 10000 2.57 140 17:51 16.08.2021
6147 Clouds 30 1011 73 10000 1.54 0 15:40 16.08.2021
6148 Clouds 30 1011 74 10000 2.68 227 14:47 16.08.2021
6149 Clouds 30 1010 71 10000 1.91 205 13:31 16.08.2021
6150 Clouds 31 1009 70 10000 2.24 236 12:32 16.08.2021
6151 Clouds 32 1009 63 10000 2.68 214 10:37 16.08.2021
6152 Clouds 34 1010 52 10000 1.34 333 08:46 16.08.2021
6153 Clouds 33 1010 54 10000 4.02 305 07:33 16.08.2021
6154 Clouds 32 1011 58 10000 2.24 347 06:35 16.08.2021
6155 Clouds 30 1012 72 10000 1.17 114 02:18 16.08.2021
6156 Clouds 27 1010 88 8000 0.45 31 21:53 15.08.2021
6157 Clouds 26 1011 87 7000 1.03 70 20:28 15.08.2021
6158 Clouds 27 1011 87 8000 1.03 0 18:47 15.08.2021
6159 Clouds 27 1011 86 8000 1.03 0 17:54 15.08.2021
6160 Clouds 27 1011 83 10000 1.3 96 17:24 15.08.2021
6161 Clouds 27 1011 84 10000 0.95 79 16:24 15.08.2021
6162 Clouds 27 1011 84 9000 1.03 0 14:42 15.08.2021
6163 Clouds 27 1011 84 9000 1.03 0 14:42 15.08.2021
6164 Clouds 27 1011 82 9000 1.03 0 13:38 15.08.2021
6165 Clouds 28 1010 78 7000 1.54 80 11:18 15.08.2021
6166 Thunderstorm 31 1009 68 6000 1.34 211 08:50 15.08.2021
6167 Rain 26 1011 89 10000 1.23 44 01:24 15.08.2021
6168 Rain 26 1010 86 5000 1.03 120 00:36 15.08.2021
6169 Clouds 26 1009 80 6000 3.09 230 21:41 14.08.2021
6170 Clouds 27 1009 83 8000 0 0 20:29 14.08.2021
6171 Clouds 26 1009 84 9000 1.03 80 19:43 14.08.2021
6172 Clouds 27 1009 80 9000 0.45 355 18:38 14.08.2021
6173 Clouds 27 1010 79 8000 2.57 340 16:51 14.08.2021
6174 Rain 26 1010 79 6000 5.66 330 15:37 14.08.2021
6175 Clouds 28 1009 79 9000 4.92 243 14:24 14.08.2021
6176 Rain 29 1007 78 10000 2.06 280 11:57 14.08.2021
6177 Clouds 29 1008 74 9000 0.51 0 10:26 14.08.2021
6178 Clouds 33 1008 61 9000 4.92 224 05:54 14.08.2021
6179 Clouds 26 1009 87 7000 1.03 0 23:52 13.08.2021
6180 Clouds 26 1008 84 10000 0.86 355 22:18 13.08.2021
6181 Clouds 26 1008 84 10000 0.86 355 22:18 13.08.2021
6182 Clouds 27 1008 81 9000 1.03 0 20:24 13.08.2021
6183 Clouds 28 1009 77 10000 0.45 356 18:46 13.08.2021
6184 Clouds 27 1009 78 10000 0.45 3 17:23 13.08.2021
6185 Clouds 28 1009 77 10000 2.68 14 15:59 13.08.2021
6186 Clouds 28 1007 73 9000 0.89 67 11:59 13.08.2021
6187 Clouds 29 1007 77 10000 1.61 272 11:18 13.08.2021
6188 Clouds 33 1006 60 10000 1.79 10 08:43 13.08.2021
6189 Clouds 34 1006 64 10000 2.68 348 08:21 13.08.2021
6190 Clouds 33 1008 60 10000 3.13 341 06:40 13.08.2021
6191 Clouds 30 1010 73 7000 1.34 287 02:29 13.08.2021
6192 Clouds 28 1010 82 6000 1.03 0 21:54 12.08.2021
6193 Clouds 28 1010 83 9000 1.54 180 20:43 12.08.2021
6194 Clouds 29 1010 79 9000 1.54 170 19:54 12.08.2021
6195 Clouds 29 1010 79 9000 1.54 170 19:25 12.08.2021
6196 Clouds 29 1011 79 9000 0 0 17:26 12.08.2021
6197 Clouds 29 1011 79 10000 0.51 0 16:28 12.08.2021
6198 Clouds 30 1010 74 10000 2.06 300 13:54 12.08.2021
6199 Clouds 30 1009 72 10000 2.68 341 12:23 12.08.2021
6200 Rain 32 1009 69 9000 3.58 339 09:58 12.08.2021
6201 Rain 31 1011 71 8000 3.13 347 07:53 12.08.2021
6202 Clouds 26 1011 85 9000 0.45 353 00:30 12.08.2021
6203 Clouds 26 1011 88 10000 3.6 280 21:56 11.08.2021
6204 Clouds 28 1012 80 10000 1.03 0 19:35 11.08.2021
6205 Clouds 28 1012 79 10000 0.51 0 18:27 11.08.2021
6206 Clouds 28 1012 78 10000 1.54 220 15:38 11.08.2021
6207 Clouds 28 1012 77 10000 1.73 226 15:20 11.08.2021
6208 Clouds 28 1011 76 10000 1.34 234 14:20 11.08.2021
6209 Clouds 29 1010 74 10000 4.12 260 12:29 11.08.2021
6210 Clouds 29 1010 72 10000 1.34 346 11:46 11.08.2021
6211 Clouds 29 1009 74 10000 0.45 346 11:21 11.08.2021
6212 Clouds 29 1010 73 10000 3.13 218 09:43 11.08.2021
6213 Clouds 29 1010 77 10000 4.02 222 07:23 11.08.2021
6214 Rain 24 1010 92 9000 2.06 30 22:48 10.08.2021
6215 Rain 24 1010 92 9000 2.06 30 22:27 10.08.2021
6216 Rain 26 1010 87 9000 2.24 4 20:57 10.08.2021
6217 Rain 28 1009 81 9000 1.03 220 19:33 10.08.2021
6218 Rain 28 1010 80 10000 0 0 18:29 10.08.2021
6219 Rain 28 1009 80 10000 0.89 230 15:48 10.08.2021
6220 Rain 28 1008 82 10000 2.68 227 14:41 10.08.2021
6221 Clouds 29 1007 77 10000 2.68 229 11:33 10.08.2021
6222 Clouds 30 1007 71 10000 4.92 228 09:39 10.08.2021
6223 Clouds 29 1009 79 10000 7.15 221 06:24 10.08.2021
6224 Clouds 27 1009 86 10000 0.45 344 02:40 10.08.2021
6225 Clouds 27 1008 84 10000 1.54 120 23:38 09.08.2021
6226 Clouds 27 1008 87 10000 0.89 354 21:54 09.08.2021
6227 Clouds 27 1008 87 10000 0.51 0 21:29 09.08.2021
6228 Clouds 27 1008 85 6000 0.89 51 18:56 09.08.2021
6229 Clouds 27 1009 88 9000 3.09 260 16:58 09.08.2021
6230 Clouds 29 1010 79 10000 1.54 230 15:27 09.08.2021
6231 Clouds 29 1008 75 10000 3.13 226 13:32 09.08.2021
6232 Clouds 30 1007 75 10000 4.02 211 12:40 09.08.2021
6233 Clouds 31 1006 66 10000 12.52 218 09:56 09.08.2021
6234 Rain 32 1007 70 10000 6.71 223 08:25 09.08.2021
6235 Clouds 27 1009 81 10000 3.09 10 22:41 08.08.2021
6236 Clouds 27 1009 78 10000 1.03 0 21:25 08.08.2021
6237 Clouds 28 1011 76 10000 4.63 320 18:50 08.08.2021
6238 Clouds 29 1012 79 10000 1.54 260 16:39 08.08.2021
6239 Clouds 29 1011 79 10000 3.58 196 15:30 08.08.2021
6240 Clouds 30 1008 77 10000 4.92 215 12:48 08.08.2021
6241 Clouds 31 1007 72 10000 9.83 223 10:44 08.08.2021
6242 Clouds 31 1009 68 10000 11.62 209 06:43 08.08.2021
6243 Clouds 31 1009 72 10000 8.49 224 05:35 08.08.2021
6244 Clouds 28 1009 86 10000 1.03 0 00:29 08.08.2021
6245 Clouds 28 1008 85 10000 4.85 231 22:19 07.08.2021
6246 Clouds 28 1008 84 10000 0.89 194 21:39 07.08.2021
6247 Clouds 28 1009 86 10000 2.24 241 18:59 07.08.2021
6248 Clouds 29 1010 83 10000 0.89 220 17:19 07.08.2021
6249 Clouds 29 1010 82 10000 2.24 209 16:24 07.08.2021
6250 Clouds 29 1008 80 10000 5.36 235 14:00 07.08.2021
6251 Clouds 30 1007 76 10000 5.36 196 12:26 07.08.2021
6252 Clouds 32 1007 73 10000 7.6 214 09:45 07.08.2021
6253 Clouds 32 1008 72 10000 10.28 224 04:56 07.08.2021
6254 Clouds 28 1007 87 10000 1.34 188 23:54 06.08.2021
6255 Clouds 28 1007 85 10000 1.79 204 21:22 06.08.2021
6256 Clouds 28 1007 85 10000 2.68 229 20:27 06.08.2021
6257 Clouds 28 1008 85 10000 2.24 172 19:55 06.08.2021
6258 Clouds 29 1008 83 10000 6.26 205 17:51 06.08.2021
6259 Clouds 29 1007 79 10000 6.26 207 13:42 06.08.2021
6260 Clouds 31 1006 72 10000 7.6 210 09:57 06.08.2021
6261 Clouds 31 1006 73 10000 14.31 192 09:25 06.08.2021
6262 Clouds 28 1007 81 10000 8.94 224 00:39 06.08.2021
6263 Clouds 28 1006 83 10000 3.58 184 23:26 05.08.2021
6264 Clouds 28 1006 81 10000 10.73 207 21:31 05.08.2021
6265 Clouds 28 1007 81 10000 1.34 237 19:53 05.08.2021
6266 Clouds 28 1007 84 10000 8.05 216 18:26 05.08.2021
6267 Clouds 28 1008 81 10000 0.89 209 15:47 05.08.2021
6268 Clouds 29 1007 82 10000 5.81 224 12:52 05.08.2021
6269 Clouds 29 1005 80 9000 6.71 208 09:56 05.08.2021
6270 Rain 30 1005 77 10000 8.94 205 08:19 05.08.2021
6271 Rain 30 1007 77 10000 5.81 207 02:51 05.08.2021
6272 Clouds 28 1005 83 10000 4.47 222 22:41 04.08.2021
6273 Clouds 29 1005 83 10000 7.6 209 21:26 04.08.2021
6274 Clouds 29 1006 83 10000 0.89 289 19:25 04.08.2021
6275 Rain 28 1006 84 10000 5.36 193 17:23 04.08.2021
6276 Clouds 29 1007 81 10000 5.36 207 14:46 04.08.2021
6277 Clouds 30 1005 80 10000 6.26 205 12:23 04.08.2021
6278 Clouds 32 1005 68 10000 10.28 213 07:38 04.08.2021
6279 Clouds 28 1005 82 10000 4.47 221 20:58 03.08.2021
6280 Clouds 29 1005 83 10000 8.05 224 20:26 03.08.2021
6281 Clouds 29 1006 82 10000 11.18 231 18:42 03.08.2021
6282 Clouds 29 1007 81 10000 13.41 210 16:58 03.08.2021
6283 Rain 29 1006 82 9000 8.05 210 13:57 03.08.2021
6284 Rain 32 1005 70 10000 9.77 260 10:57 03.08.2021
6285 Clouds 31 1005 68 10000 8.23 250 09:42 03.08.2021
6286 Rain 28 1003 85 10000 11.18 199 21:55 02.08.2021
6287 Clouds 27 1006 81 10000 3.13 220 16:40 02.08.2021
6288 Rain 27 1006 80 10000 4.92 217 15:33 02.08.2021
6289 Clouds 29 1004 79 10000 9.39 225 12:40 02.08.2021
6290 Clouds 29 1003 78 10000 5.36 219 11:57 02.08.2021
6291 Clouds 31 1003 69 10000 9.83 207 09:51 02.08.2021
6292 Clouds 31 1004 70 10000 11.62 213 05:30 02.08.2021
6293 Rain 28 1005 79 10000 8.05 218 19:21 01.08.2021
6294 Rain 29 1006 80 10000 2.68 304 15:44 01.08.2021
6295 Rain 30 1004 73 10000 12.96 219 11:38 01.08.2021
6296 Clouds 31 1003 70 10000 13.41 209 09:47 01.08.2021
6297 Rain 30 1006 76 10000 7.6 212 03:49 01.08.2021
6298 Clouds 28 1004 82 10000 5.81 228 22:53 31.07.2021
6299 Clouds 28 1005 83 10000 3.13 224 20:54 31.07.2021
6300 Clouds 27 1006 82 10000 4.92 197 17:49 31.07.2021
6301 Clouds 28 1007 81 10000 6.04 246 16:36 31.07.2021
6302 Clouds 29 1006 78 10000 7.15 226 12:50 31.07.2021
6303 Rain 31 1006 70 10000 7.15 187 08:57 31.07.2021
6304 Clouds 29 1008 80 10000 7.15 191 02:29 31.07.2021
6305 Rain 28 1007 85 10000 2.68 58 20:36 30.07.2021
6306 Clouds 27 1007 82 10000 5.81 249 20:18 30.07.2021
6307 Clouds 31 1007 74 10000 6.17 260 09:38 30.07.2021
6308 Clouds 28 1007 86 10000 1.54 200 17:34 29.07.2021
6309 Rain 28 1007 86 9000 0.45 345 06:38 29.07.2021
6310 Clouds 26 1007 88 10000 5.81 203 04:29 29.07.2021
6311 Clouds 25 1006 82 10000 6.17 219 21:22 28.07.2021
6312 Clouds 26 1006 89 8000 3.58 225 17:47 28.07.2021
6313 Rain 27 1005 86 8000 0.45 142 15:52 28.07.2021
6314 Clouds 27 1003 89 7000 1.34 291 08:24 28.07.2021
6315 Rain 26 1003 89 9000 4.92 225 23:31 27.07.2021
6316 Clouds 27 1002 87 10000 7.6 212 21:28 27.07.2021
6317 Rain 28 1002 86 7000 7.6 215 14:53 27.07.2021
6318 Rain 28 1000 81 10000 8.05 221 11:19 27.07.2021
6319 Rain 29 1000 79 8000 8.49 208 08:57 27.07.2021
6320 Rain 28 1004 85 10000 7.15 236 17:43 26.07.2021
6321 Clouds 28 1004 85 10000 6.26 213 15:31 26.07.2021
6322 Rain 31 1004 72 9000 14.75 174 04:52 26.07.2021
6323 Clouds 28 1004 82 10000 9.83 229 20:56 25.07.2021
6324 Clouds 28 1006 82 10000 7.15 199 18:24 25.07.2021
6325 Rain 28 1006 83 10000 7.6 217 15:46 25.07.2021
6326 Rain 28 1004 83 9000 4.02 200 10:56 25.07.2021
6327 Rain 26 1005 88 10000 4.02 231 08:19 25.07.2021
6328 Thunderstorm 25 1004 90 6000 1.34 23 21:37 24.07.2021
6329 Rain 26 1004 85 10000 2.24 223 20:18 24.07.2021
6330 Clouds 27 1006 88 9666 8.69 235 14:37 24.07.2021
6331 Rain 27 1005 53 10000 9.58 240 04:20 24.07.2021
6332 Rain 26 1003 89 9000 1.79 342 14:37 23.07.2021
6333 Rain 25 1002 88 8000 1.79 220 12:41 23.07.2021
6334 Rain 28 1002 81 10000 11.18 213 04:48 23.07.2021
6335 Rain 26 1001 89 6000 0.89 290 19:26 22.07.2021
6336 Rain 25 1001 85 3403 1.79 355 11:21 22.07.2021
6337 Thunderstorm 25 1001 93 5000 0.45 348 08:37 22.07.2021
6338 Rain 26 1004 87 9000 4.92 223 02:39 22.07.2021
6339 Rain 25 1002 91 9000 4.02 225 21:45 21.07.2021
6340 Rain 25 1002 91 9000 3.13 233 21:27 21.07.2021
6341 Rain 25 1004 89 6000 4.12 260 12:38 21.07.2021
6342 Rain 25 1004 89 8000 1.54 230 09:24 21.07.2021
6343 Rain 24 1007 100 5000 3.09 240 06:54 21.07.2021
6344 Clouds 26 1004 93 10000 1.03 0 23:24 20.07.2021
6345 Rain 27 1006 90 9000 2.57 240 16:37 20.07.2021
6346 Rain 27 1007 91 9000 2.57 240 15:28 20.07.2021
6347 Rain 27 1005 89 9000 0.89 338 12:58 20.07.2021
6348 Rain 28 1004 80 4638 5.36 345 10:21 20.07.2021
6349 Clouds 28 1006 79 10000 4.02 343 03:45 20.07.2021
6350 Rain 26 1005 90 10000 1.79 175 21:29 19.07.2021
6351 Rain 26 1005 91 9000 2.24 217 12:52 19.07.2021
6352 Rain 29 1004 84 9000 4.92 226 10:28 19.07.2021
6353 Clouds 27 1005 86 10000 0.89 231 18:30 18.07.2021
6354 Clouds 31 1002 73 10000 3.58 228 10:55 18.07.2021
6355 Clouds 30 1005 72 10000 6.26 209 03:21 18.07.2021
6356 Clouds 27 1003 84 10000 4.04 241 22:22 17.07.2021
6357 Clouds 27 1003 84 10000 1.03 0 21:43 17.07.2021
6358 Clouds 27 1003 84 10000 0.45 303 20:28 17.07.2021
6359 Clouds 30 1003 76 9000 5.81 190 11:34 17.07.2021
6360 Rain 31 1003 70 10000 8.05 185 07:19 17.07.2021
6361 Thunderstorm 26 1005 90 9000 3.09 20 20:29 16.07.2021
6362 Clouds 29 1005 76 10000 5.81 215 13:21 16.07.2021
6363 Clouds 32 1006 63 9000 3.58 218 07:26 16.07.2021
6364 Mist 26 1008 86 5000 0 0 00:36 16.07.2021
6365 Rain 29 1007 80 9000 1.34 196 13:52 15.07.2021
6366 Rain 30 1006 73 7000 6.26 209 10:31 15.07.2021
6367 Clouds 27 1007 83 8000 0.45 40 00:33 15.07.2021
6368 Clouds 27 1007 81 10000 1.8 119 16:57 14.07.2021
6369 Clouds 28 1007 80 10000 1.54 270 14:57 14.07.2021
6370 Clouds 33 1006 58 10000 4.02 344 06:32 14.07.2021
6371 Rain 26 1006 81 10000 1.03 0 21:38 13.07.2021
6372 Clouds 27 1007 77 10000 0.89 2 19:55 13.07.2021
6373 Clouds 27 1007 76 10000 2.24 6 19:27 13.07.2021
6374 Rain 27 1008 77 10000 1.34 4 18:45 13.07.2021
6375 Rain 27 1008 77 10000 2.68 5 18:25 13.07.2021
6376 Rain 27 1008 76 10000 1.03 0 17:40 13.07.2021
6377 Rain 30 1006 73 8000 2.57 100 09:51 13.07.2021
6378 Clouds 31 1006 70 10000 3.6 70 08:49 13.07.2021
6379 Clouds 28 1007 76 10000 3.09 100 19:59 12.07.2021
6380 Rain 29 1008 71 10000 1.54 0 16:45 12.07.2021
6381 Clouds 31 1007 70 10000 2.06 360 09:58 12.07.2021
6382 Clouds 28 1009 80 10000 1.54 70 21:59 11.07.2021
6383 Clouds 28 1009 77 10000 1.03 0 19:46 11.07.2021
6384 Clouds 31 1010 68 10000 2.68 358 04:42 11.07.2021
6385 Clouds 27 1008 83 10000 0.51 0 21:46 10.07.2021
6386 Rain 30 1007 70 10000 2.24 35 10:43 10.07.2021
6387 Clouds 32 1008 63 10000 0.45 5 07:24 10.07.2021
6388 Clouds 27 1008 76 10000 1.54 70 22:36 09.07.2021
6389 Clouds 28 1008 70 10000 3.67 100 18:19 09.07.2021
6390 Clouds 29 1008 70 10000 4.12 110 14:47 09.07.2021
6391 Clouds 30 1009 72 10000 2.4 107 03:22 09.07.2021
6392 Clouds 28 1007 82 10000 0.45 29 23:47 08.07.2021
6393 Clouds 28 1007 78 10000 0 0 21:36 08.07.2021
6394 Clouds 28 1008 76 10000 2.06 130 18:55 08.07.2021
6395 Clouds 30 1008 72 10000 2.06 130 13:56 08.07.2021
6396 Clouds 30 1008 72 10000 2.06 130 13:30 08.07.2021
6397 Clouds 31 1008 70 10000 3.09 100 12:38 08.07.2021
6398 Clouds 31 1007 72 10000 0.45 351 11:25 08.07.2021
6399 Clouds 33 1008 60 10000 0.89 46 07:42 08.07.2021
6400 Clouds 31 1010 68 10000 3.13 21 04:41 08.07.2021
6401 Clouds 28 1009 76 10000 1.34 12 23:45 07.07.2021
6402 Rain 27 1008 76 10000 1.79 2 22:20 07.07.2021
6403 Rain 28 1008 75 10000 1.03 0 21:46 07.07.2021
6404 Rain 28 1008 75 10000 1.03 0 21:26 07.07.2021
6405 Rain 28 1010 80 10000 1.79 10 19:59 07.07.2021
6406 Clouds 29 1010 78 10000 1.79 10 19:30 07.07.2021
6407 Clouds 29 1010 76 10000 2.24 7 18:56 07.07.2021
6408 Clouds 30 1010 68 10000 2.06 120 15:58 07.07.2021
6409 Clouds 30 1009 67 10000 0.89 48 15:24 07.07.2021
6410 Rain 32 1007 64 10000 2.06 270 11:52 07.07.2021
6411 Clouds 32 1008 62 10000 1.34 234 07:27 07.07.2021
6412 Clouds 32 1010 67 10000 2.68 285 05:52 07.07.2021
6413 Clouds 31 1010 68 10000 1.76 121 02:56 07.07.2021
6414 Clouds 25 1010 92 10000 1.03 200 20:53 06.07.2021
6415 Clouds 25 1010 90 10000 1.64 103 19:18 06.07.2021
6416 Clouds 26 1010 91 9000 1.54 80 18:43 06.07.2021
6417 Clouds 26 1011 91 9000 1.54 80 17:43 06.07.2021
6418 Clouds 26 1009 88 10000 1.15 243 13:35 06.07.2021
6419 Thunderstorm 28 1007 84 1000 4.92 197 09:44 06.07.2021
6420 Rain 31 1007 70 10000 5.14 290 08:36 06.07.2021
6421 Rain 32 1008 66 10000 3.6 290 07:39 06.07.2021
6422 Rain 28 1007 77 10000 0.89 325 01:59 06.07.2021
6423 Rain 27 1006 83 10000 2.06 140 23:57 05.07.2021
6424 Rain 27 1006 84 10000 2.06 110 21:58 05.07.2021
6425 Rain 27 1007 83 9000 0 0 17:21 05.07.2021
6426 Clouds 27 1006 86 9000 1.03 0 13:30 05.07.2021
6427 Clouds 31 1005 68 10000 2.24 238 05:59 05.07.2021
6428 Clouds 31 1005 66 10000 3.58 214 05:40 05.07.2021
6429 Clouds 27 1005 83 10000 1.54 70 00:32 05.07.2021
6430 Clouds 27 1004 85 10000 1.03 0 21:18 04.07.2021
6431 Clouds 27 1006 85 9000 2.57 80 17:35 04.07.2021
6432 Rain 27 1005 85 7000 0.45 43 14:40 04.07.2021
6433 Clouds 30 1002 75 8000 1.79 13 10:47 04.07.2021
6434 Clouds 31 1003 70 10000 1.34 351 07:24 04.07.2021
6435 Rain 25 1003 91 9000 2.06 40 23:26 03.07.2021
6436 Clouds 25 1004 89 10000 1.34 3 21:18 03.07.2021
6437 Clouds 27 1004 81 7000 2.24 351 12:51 03.07.2021
6438 Clouds 28 1004 79 7000 3.58 347 11:52 03.07.2021
6439 Clouds 27 1004 84 6000 0.45 306 09:27 03.07.2021
6440 Rain 27 1005 87 6000 0.89 309 08:45 03.07.2021
6441 Clouds 26 1006 81 10000 1.34 5 22:55 02.07.2021
6442 Clouds 32 1006 65 8000 5.14 280 08:58 02.07.2021
6443 Clouds 33 1007 59 8000 4.02 208 07:28 02.07.2021
6444 Clouds 30 1009 66 7000 1.03 0 02:25 02.07.2021
6445 Clouds 27 1008 78 9000 1.34 347 22:30 01.07.2021
6446 Clouds 27 1008 78 9000 0.89 2 21:35 01.07.2021
6447 Clouds 28 1009 77 9000 0 0 20:22 01.07.2021
6448 Clouds 27 1009 77 9000 0 0 19:20 01.07.2021
6449 Clouds 27 1010 76 9000 1.03 0 18:47 01.07.2021
6450 Clouds 27 1011 82 9000 2.06 60 17:33 01.07.2021
6451 Rain 27 1011 79 9000 1.54 300 16:24 01.07.2021
6452 Rain 26 1010 83 9000 3.09 60 15:22 01.07.2021
6453 Clouds 30 1008 69 9000 5.14 240 13:57 01.07.2021
6454 Clouds 33 1007 61 8000 7.2 260 09:42 01.07.2021
6455 Clouds 32 1010 61 9000 3.09 360 03:18 01.07.2021
6456 Clouds 28 1009 83 10000 0.51 0 23:18 30.06.2021
6457 Clouds 29 1009 77 10000 1.54 210 21:58 30.06.2021
6458 Clouds 29 1009 77 10000 1.54 210 21:19 30.06.2021
6459 Clouds 29 1009 76 10000 1.54 180 20:21 30.06.2021
6460 Clouds 30 1010 73 10000 2.57 220 16:45 30.06.2021
6461 Clouds 30 1009 71 10000 4.63 250 13:27 30.06.2021
6462 Clouds 33 1007 64 10000 6.69 270 10:43 30.06.2021
6463 Clouds 28 1009 79 8000 0.51 0 00:53 30.06.2021
6464 Clouds 28 1008 79 10000 1.03 0 20:23 29.06.2021
6465 Clouds 28 1010 82 9000 1.03 0 17:47 29.06.2021
6466 Clouds 28 1010 81 9000 1.03 0 17:28 29.06.2021
6467 Clouds 29 1009 80 7000 0.89 300 15:51 29.06.2021
6468 Clouds 29 1008 79 7000 1.34 256 14:55 29.06.2021
6469 Clouds 30 1007 74 7000 3.58 208 13:26 29.06.2021
6470 Haze 33 1008 61 4000 1.34 294 05:25 29.06.2021
6471 Mist 26 1009 86 5000 0 0 23:33 28.06.2021
6472 Mist 26 1008 84 4000 0.51 0 21:31 28.06.2021
6473 Clouds 26 1010 84 7000 1.54 170 18:44 28.06.2021
6474 Rain 26 1011 85 6000 0.45 335 16:58 28.06.2021
6475 Clouds 26 1010 86 7000 0.51 0 14:31 28.06.2021
6476 Rain 31 1007 75 6000 2.24 8 12:24 28.06.2021
6477 Haze 28 1008 83 4000 1.03 0 23:48 27.06.2021
6478 Haze 28 1008 82 4000 1.54 120 22:32 27.06.2021
6479 Haze 28 1009 79 4000 1.03 0 19:44 27.06.2021
6480 Haze 28 1010 82 5000 1.03 220 18:56 27.06.2021
6481 Clouds 29 1009 82 10000 1.54 280 15:39 27.06.2021
6482 Clouds 31 1007 68 9000 0.45 356 11:23 27.06.2021
6483 Clouds 28 1010 80 8000 0 0 00:54 27.06.2021
6484 Clouds 28 1009 79 10000 1.54 180 22:30 26.06.2021
6485 Clouds 28 1009 78 10000 0.89 53 20:54 26.06.2021
6486 Clouds 28 1009 79 10000 1.03 60 20:35 26.06.2021
6487 Clouds 29 1010 75 10000 0.89 345 16:22 26.06.2021
6488 Clouds 30 1010 71 10000 2.57 250 14:37 26.06.2021
6489 Clouds 31 1009 72 10000 3.58 210 12:24 26.06.2021
6490 Clouds 33 1010 59 8000 4.92 214 07:25 26.06.2021
6491 Clouds 27 1009 83 9000 0.51 0 22:49 25.06.2021
6492 Clouds 27 1009 82 9000 1.03 0 20:37 25.06.2021
6493 Clouds 27 1009 81 10000 1.03 0 18:58 25.06.2021
6494 Clouds 28 1010 82 10000 1.03 0 17:30 25.06.2021
6495 Clouds 28 1010 78 10000 1.03 0 16:23 25.06.2021
6496 Clouds 29 1009 74 10000 0.45 36 13:56 25.06.2021
6497 Rain 29 1008 74 9000 1.34 20 10:29 25.06.2021
6498 Rain 30 1009 72 9000 0.89 211 07:24 25.06.2021
6499 Clouds 30 1010 69 10000 4.12 270 06:31 25.06.2021
6500 Clouds 29 1009 77 10000 1.03 0 01:38 25.06.2021
6501 Clouds 28 1008 80 10000 0.89 348 21:48 24.06.2021
6502 Clouds 28 1009 79 10000 0.45 1 20:44 24.06.2021
6503 Clouds 28 1009 77 10000 1.34 332 20:19 24.06.2021
6504 Rain 28 1010 78 10000 2.06 270 18:35 24.06.2021
6505 Rain 29 1009 73 10000 3.6 240 15:24 24.06.2021
6506 Rain 29 1009 73 9000 0.89 260 14:54 24.06.2021
6507 Rain 29 1008 74 10000 1.34 11 13:34 24.06.2021
6508 Rain 32 1006 68 10000 1.34 69 10:23 24.06.2021
6509 Clouds 31 1008 68 10000 4.47 244 08:32 24.06.2021
6510 Clouds 31 1008 64 10000 6.26 212 07:24 24.06.2021
6511 Rain 26 1009 82 9000 0 0 00:46 24.06.2021
6512 Rain 26 1009 83 10000 0.89 358 22:29 23.06.2021
6513 Rain 26 1009 84 10000 1.79 345 21:24 23.06.2021
6514 Rain 26 1009 83 9000 1.54 300 20:20 23.06.2021
6515 Clouds 26 1010 81 9000 0.45 17 18:31 23.06.2021
6516 Clouds 27 1011 85 9000 2.68 6 16:58 23.06.2021
6517 Clouds 28 1010 77 10000 2.68 0 14:31 23.06.2021
6518 Clouds 30 1009 72 10000 4.02 229 12:50 23.06.2021
6519 Clouds 31 1008 68 10000 4.02 235 11:33 23.06.2021
6520 Clouds 32 1008 67 10000 6.71 199 09:31 23.06.2021
6521 Clouds 32 1008 65 10000 8.49 214 08:38 23.06.2021
6522 Clouds 31 1009 68 10000 2.68 242 07:49 23.06.2021
6523 Rain 30 1009 72 10000 3.58 219 05:34 23.06.2021
6524 Clouds 28 1010 77 10000 1.79 219 01:56 23.06.2021
6525 Clouds 26 1009 85 10000 0.45 327 00:19 23.06.2021
6526 Clouds 26 1009 84 10000 0.45 338 23:44 22.06.2021
6527 Clouds 26 1009 81 10000 0.89 339 22:39 22.06.2021
6528 Rain 26 1009 83 10000 3.13 331 21:45 22.06.2021
6529 Clouds 26 1010 85 8000 0.45 353 20:54 22.06.2021
6530 Clouds 27 1010 81 10000 2.68 353 19:18 22.06.2021
6531 Clouds 27 1010 80 10000 2.57 250 18:31 22.06.2021
6532 Clouds 27 1010 86 10000 2.06 290 17:29 22.06.2021
6533 Clouds 27 1011 83 10000 2.06 260 16:52 22.06.2021
6534 Clouds 27 1011 80 10000 0.89 16 14:59 22.06.2021
6535 Clouds 27 1011 78 10000 4.63 230 14:26 22.06.2021
6536 Clouds 28 1010 80 10000 8.05 212 13:38 22.06.2021
6537 Clouds 30 1008 71 10000 8.05 239 11:55 22.06.2021
6538 Clouds 31 1007 65 10000 8.49 221 10:48 22.06.2021
6539 Clouds 31 1008 63 10000 8.05 218 08:42 22.06.2021
6540 Clouds 27 1009 76 10000 1.34 341 00:54 22.06.2021
6541 Clouds 26 1009 81 10000 2.24 222 23:41 21.06.2021
6542 Clouds 26 1008 83 10000 1.79 213 22:40 21.06.2021
6543 Clouds 26 1008 85 10000 1.03 0 21:29 21.06.2021
6544 Rain 26 1009 84 10000 1.54 230 20:49 21.06.2021
6545 Rain 26 1009 83 10000 2.57 230 19:55 21.06.2021
6546 Rain 26 1009 83 10000 2.57 230 19:55 21.06.2021
6547 Clouds 26 1009 82 10000 4.47 211 18:59 21.06.2021
6548 Clouds 26 1009 81 10000 2.57 220 17:47 21.06.2021
6549 Clouds 27 1009 83 10000 1.34 324 16:49 21.06.2021
6550 Clouds 27 1009 84 10000 2.24 230 16:26 21.06.2021
6551 Clouds 27 1009 87 10000 2.57 250 15:46 21.06.2021
6552 Rain 28 1008 84 10000 2.24 213 14:24 21.06.2021
6553 Clouds 28 1008 80 10000 1.79 10 13:35 21.06.2021
6554 Clouds 29 1007 78 10000 2.68 273 12:38 21.06.2021
6555 Clouds 29 1007 73 10000 4.02 350 11:56 21.06.2021
6556 Clouds 29 1006 73 10000 3.13 225 10:31 21.06.2021
6557 Clouds 29 1007 71 10000 8.49 205 09:34 21.06.2021
6558 Rain 29 1007 71 10000 5.81 203 08:24 21.06.2021
6559 Rain 29 1007 73 10000 6.26 231 07:44 21.06.2021
6560 Rain 27 1007 82 10000 2.68 226 00:44 21.06.2021
6561 Clouds 27 1007 86 10000 1.34 207 23:36 20.06.2021
6562 Rain 26 1007 88 10000 3.58 225 22:59 20.06.2021
6563 Clouds 26 1007 89 10000 2.06 270 22:19 20.06.2021
6564 Rain 27 1007 89 8000 1.54 220 21:32 20.06.2021
6565 Clouds 27 1007 84 10000 3.09 220 19:47 20.06.2021
6566 Rain 27 1007 83 10000 0.45 45 19:24 20.06.2021
6567 Clouds 27 1007 85 10000 1.34 89 18:21 20.06.2021
6568 Clouds 28 1008 80 10000 0.45 35 16:52 20.06.2021
6569 Clouds 28 1008 80 10000 0.45 347 15:55 20.06.2021
6570 Clouds 28 1008 80 10000 3.09 220 15:33 20.06.2021
6571 Rain 27 1008 82 9000 0.45 58 14:48 20.06.2021
6572 Rain 27 1008 81 9000 5.66 250 13:41 20.06.2021
6573 Rain 28 1007 79 9000 0.45 21 12:57 20.06.2021
6574 Clouds 29 1007 77 9000 7.72 260 11:46 20.06.2021
6575 Clouds 32 1007 71 10000 8.75 260 10:40 20.06.2021
6576 Clouds 32 1006 74 10000 1.34 305 09:46 20.06.2021
6577 Clouds 32 1006 66 10000 7.6 232 07:42 20.06.2021
6578 Clouds 28 1006 78 6000 4.63 240 23:57 19.06.2021
6579 Clouds 28 1006 78 10000 2.57 220 22:59 19.06.2021
6580 Clouds 28 1006 77 10000 0.45 2 21:53 19.06.2021
6581 Clouds 28 1006 77 10000 1.54 300 21:27 19.06.2021
6582 Clouds 29 1008 73 10000 0.89 352 18:55 19.06.2021
6583 Clouds 29 1008 73 10000 2.68 10 18:22 19.06.2021
6584 Clouds 29 1008 74 10000 1.34 11 17:27 19.06.2021
6585 Clouds 30 1008 76 10000 5.81 221 16:49 19.06.2021
6586 Clouds 30 1009 74 10000 0.45 20 15:40 19.06.2021
6587 Rain 31 1007 70 10000 0.45 4 12:55 19.06.2021
6588 Clouds 31 1007 68 10000 3.13 8 11:59 19.06.2021
6589 Clouds 32 1006 67 10000 8.49 227 10:49 19.06.2021
6590 Clouds 32 1006 67 10000 8.49 227 10:49 19.06.2021
6591 Clouds 32 1006 68 10000 3.58 246 10:26 19.06.2021
6592 Clouds 32 1006 67 10000 8.49 220 09:58 19.06.2021
6593 Clouds 32 1006 67 10000 8.49 220 09:58 19.06.2021
6594 Clouds 33 1007 64 10000 10.28 234 08:25 19.06.2021
6595 Clouds 33 1008 64 10000 9.83 207 06:36 19.06.2021
6596 Clouds 31 1009 70 10000 3.58 236 02:55 19.06.2021
6597 Clouds 29 1008 78 10000 0.45 11 00:22 19.06.2021
6598 Clouds 29 1009 78 10000 0.45 358 23:40 18.06.2021
6599 Clouds 29 1008 78 10000 3.09 330 22:55 18.06.2021
6600 Clouds 29 1008 78 10000 0.89 3 22:31 18.06.2021
6601 Clouds 29 1007 77 10000 0.89 356 21:47 18.06.2021
6602 Clouds 29 1007 78 10000 0.89 3 21:23 18.06.2021
6603 Clouds 29 1008 77 10000 2.68 343 20:23 18.06.2021
6604 Rain 30 1009 75 10000 0.45 244 18:45 18.06.2021
6605 Clouds 30 1010 74 10000 5.36 230 17:50 18.06.2021
6606 Clouds 30 1010 73 10000 4.47 333 16:37 18.06.2021
6607 Clouds 30 1010 75 10000 4.47 328 15:46 18.06.2021
6608 Clouds 31 1009 69 10000 0.89 20 14:35 18.06.2021
6609 Clouds 31 1009 72 10000 5.66 250 13:43 18.06.2021
6610 Clouds 31 1008 69 10000 4.02 220 12:52 18.06.2021
6611 Clouds 31 1008 71 10000 5.36 214 12:30 18.06.2021
6612 Clouds 32 1007 65 10000 7.6 222 11:36 18.06.2021
6613 Clouds 32 1007 68 10000 6.71 212 10:57 18.06.2021
6614 Clouds 32 1007 67 10000 6.26 230 10:23 18.06.2021
6615 Clouds 33 1007 66 10000 4.92 222 09:51 18.06.2021
6616 Clouds 33 1007 65 10000 9.83 215 09:19 18.06.2021
6617 Clouds 33 1008 67 10000 9.39 223 08:31 18.06.2021
6618 Clouds 33 1008 63 10000 1.79 350 07:33 18.06.2021
6619 Clouds 32 1010 64 10000 4.47 345 03:24 18.06.2021
6620 Clouds 28 1009 79 10000 0.51 0 00:33 18.06.2021
6621 Clouds 28 1009 79 10000 0.45 6 23:27 17.06.2021
6622 Clouds 28 1009 78 10000 1.03 0 22:26 17.06.2021
6623 Clouds 29 1009 77 10000 0.45 356 21:51 17.06.2021
6624 Clouds 29 1009 77 10000 0.89 359 20:59 17.06.2021
6625 Clouds 29 1009 76 10000 1.34 358 20:30 17.06.2021
6626 Clouds 29 1010 75 10000 1.34 354 19:53 17.06.2021
6627 Clouds 29 1010 74 10000 2.57 250 18:58 17.06.2021
6628 Clouds 30 1011 71 10000 3.09 250 17:50 17.06.2021
6629 Clouds 30 1011 71 10000 0.89 354 17:22 17.06.2021
6630 Clouds 30 1011 73 10000 0.89 338 16:28 17.06.2021
6631 Clouds 30 1011 73 10000 2.24 343 15:51 17.06.2021
6632 Clouds 30 1011 79 10000 4.63 250 14:28 17.06.2021
6633 Clouds 31 1010 70 10000 0.45 0 13:20 17.06.2021
6634 Clouds 32 1009 66 10000 2.68 245 12:31 17.06.2021
6635 Rain 32 1008 63 10000 5.36 224 11:23 17.06.2021
6636 Clouds 34 1008 61 10000 4.02 214 10:42 17.06.2021
6637 Clouds 34 1008 60 10000 0.89 337 10:23 17.06.2021
6638 Clouds 34 1008 59 10000 7.6 236 09:38 17.06.2021
6639 Clouds 34 1009 62 10000 5.66 290 08:33 17.06.2021
6640 Clouds 34 1009 58 10000 0.89 19 07:49 17.06.2021
6641 Clouds 32 1010 62 10000 5.36 217 04:36 17.06.2021
6642 Clouds 31 1010 72 10000 0.51 0 01:24 17.06.2021